﻿<?xml version="1.0" encoding="utf-8"?><gpx creator="Garmin Desktop App" version="1.1" xsi:schemaLocation="http://www.topografix.com/GPX/1/1 http://www.topografix.com/GPX/1/1/gpx.xsd http://www.garmin.com/xmlschemas/WaypointExtension/v1 http://www8.garmin.com/xmlschemas/WaypointExtensionv1.xsd http://www.garmin.com/xmlschemas/TrackPointExtension/v1 http://www.garmin.com/xmlschemas/TrackPointExtensionv1.xsd http://www.garmin.com/xmlschemas/GpxExtensions/v3 http://www8.garmin.com/xmlschemas/GpxExtensionsv3.xsd http://www.garmin.com/xmlschemas/ActivityExtension/v1 http://www8.garmin.com/xmlschemas/ActivityExtensionv1.xsd http://www.garmin.com/xmlschemas/AdventuresExtensions/v1 http://www8.garmin.com/xmlschemas/AdventuresExtensionv1.xsd http://www.garmin.com/xmlschemas/PressureExtension/v1 http://www.garmin.com/xmlschemas/PressureExtensionv1.xsd http://www.garmin.com/xmlschemas/TripExtensions/v1 http://www.garmin.com/xmlschemas/TripExtensionsv1.xsd http://www.garmin.com/xmlschemas/TripMetaDataExtensions/v1 http://www.garmin.com/xmlschemas/TripMetaDataExtensionsv1.xsd http://www.garmin.com/xmlschemas/ViaPointTransportationModeExtensions/v1 http://www.garmin.com/xmlschemas/ViaPointTransportationModeExtensionsv1.xsd http://www.garmin.com/xmlschemas/CreationTimeExtension/v1 http://www.garmin.com/xmlschemas/CreationTimeExtensionsv1.xsd http://www.garmin.com/xmlschemas/AccelerationExtension/v1 http://www.garmin.com/xmlschemas/AccelerationExtensionv1.xsd http://www.garmin.com/xmlschemas/PowerExtension/v1 http://www.garmin.com/xmlschemas/PowerExtensionv1.xsd http://www.garmin.com/xmlschemas/VideoExtension/v1 http://www.garmin.com/xmlschemas/VideoExtensionv1.xsd" xmlns="http://www.topografix.com/GPX/1/1" xmlns:xsi="http://www.w3.org/2001/XMLSchema-instance" xmlns:wptx1="http://www.garmin.com/xmlschemas/WaypointExtension/v1" xmlns:gpxtrx="http://www.garmin.com/xmlschemas/GpxExtensions/v3" xmlns:gpxtpx="http://www.garmin.com/xmlschemas/TrackPointExtension/v1" xmlns:gpxx="http://www.garmin.com/xmlschemas/GpxExtensions/v3" xmlns:trp="http://www.garmin.com/xmlschemas/TripExtensions/v1" xmlns:adv="http://www.garmin.com/xmlschemas/AdventuresExtensions/v1" xmlns:prs="http://www.garmin.com/xmlschemas/PressureExtension/v1" xmlns:tmd="http://www.garmin.com/xmlschemas/TripMetaDataExtensions/v1" xmlns:vptm="http://www.garmin.com/xmlschemas/ViaPointTransportationModeExtensions/v1" xmlns:ctx="http://www.garmin.com/xmlschemas/CreationTimeExtension/v1" xmlns:gpxacc="http://www.garmin.com/xmlschemas/AccelerationExtension/v1" xmlns:gpxpx="http://www.garmin.com/xmlschemas/PowerExtension/v1" xmlns:vidx1="http://www.garmin.com/xmlschemas/VideoExtension/v1">

  <metadata>
    <link href="http://www.garmin.com">
      <text>Garmin International</text>
    </link>
    <time>2018-08-06T15:33:15Z</time>
    <bounds maxlat="46.508215600624681" maxlon="8.475864306092262" minlat="46.486779553815722" minlon="8.44903165474534" />
  </metadata>

  <trk>
    <name>chuebodenhorn2018-08-05</name>
    <extensions>
      <gpxx:TrackExtension>
        <gpxx:DisplayColor>Yellow</gpxx:DisplayColor>
      </gpxx:TrackExtension>
    </extensions>
    <trkseg>
      <trkpt lat="46.486992873251438" lon="8.475453509017825">
        <ele>1494.03</ele>
        <time>2018-08-05T06:23:52Z</time>
      </trkpt>
      <trkpt lat="46.486991951242089" lon="8.475455604493618">
        <ele>1494.99</ele>
        <time>2018-08-05T06:23:53Z</time>
      </trkpt>
      <trkpt lat="46.486980551853776" lon="8.475461220368743">
        <ele>1495.95</ele>
        <time>2018-08-05T06:24:17Z</time>
      </trkpt>
      <trkpt lat="46.486980635672808" lon="8.47545325756073">
        <ele>1497.3900000000001</ele>
        <time>2018-08-05T06:24:26Z</time>
      </trkpt>
      <trkpt lat="46.48696705698967" lon="8.475421825423837">
        <ele>1497.3900000000001</ele>
        <time>2018-08-05T06:24:29Z</time>
      </trkpt>
      <trkpt lat="46.486973343417048" lon="8.47530908882618">
        <ele>1498.3499999999999</ele>
        <time>2018-08-05T06:24:38Z</time>
      </trkpt>
      <trkpt lat="46.486884579062462" lon="8.475176990032196">
        <ele>1499.3099999999999</ele>
        <time>2018-08-05T06:24:51Z</time>
      </trkpt>
      <trkpt lat="46.486853733658791" lon="8.475124351680279">
        <ele>1500.27</ele>
        <time>2018-08-05T06:25:03Z</time>
      </trkpt>
      <trkpt lat="46.486809058114886" lon="8.475072802975774">
        <ele>1501.24</ele>
        <time>2018-08-05T06:25:15Z</time>
      </trkpt>
      <trkpt lat="46.486828085035086" lon="8.475110186263919">
        <ele>1502.2</ele>
        <time>2018-08-05T06:25:31Z</time>
      </trkpt>
      <trkpt lat="46.486802017316222" lon="8.475074646994472">
        <ele>1503.1600000000001</ele>
        <time>2018-08-05T06:25:46Z</time>
      </trkpt>
      <trkpt lat="46.486808136105537" lon="8.475056877359748">
        <ele>1505.0799999999999</ele>
        <time>2018-08-05T06:26:15Z</time>
      </trkpt>
      <trkpt lat="46.486787600442767" lon="8.475068109109998">
        <ele>1506.52</ele>
        <time>2018-08-05T06:26:33Z</time>
      </trkpt>
      <trkpt lat="46.486806962639093" lon="8.475053356960416">
        <ele>1507.97</ele>
        <time>2018-08-05T06:26:56Z</time>
      </trkpt>
      <trkpt lat="46.486811572685838" lon="8.475036844611168">
        <ele>1509.4100000000001</ele>
        <time>2018-08-05T06:27:17Z</time>
      </trkpt>
      <trkpt lat="46.486795311793685" lon="8.475033827126026">
        <ele>1510.3699999999999</ele>
        <time>2018-08-05T06:27:35Z</time>
      </trkpt>
      <trkpt lat="46.486779553815722" lon="8.475026451051235">
        <ele>1510.8499999999999</ele>
        <time>2018-08-05T06:27:46Z</time>
      </trkpt>
      <trkpt lat="46.486794473603368" lon="8.474986469373107">
        <ele>1511.8099999999999</ele>
        <time>2018-08-05T06:27:56Z</time>
      </trkpt>
      <trkpt lat="46.486796736717224" lon="8.47498563118279">
        <ele>1511.8099999999999</ele>
        <time>2018-08-05T06:27:57Z</time>
      </trkpt>
      <trkpt lat="46.48681802675128" lon="8.47496073693037">
        <ele>1512.29</ele>
        <time>2018-08-05T06:28:07Z</time>
      </trkpt>
      <trkpt lat="46.486826408654451" lon="8.474897788837552">
        <ele>1515.1800000000001</ele>
        <time>2018-08-05T06:28:19Z</time>
      </trkpt>
      <trkpt lat="46.486825570464134" lon="8.474882449954748">
        <ele>1515.6600000000001</ele>
        <time>2018-08-05T06:28:21Z</time>
      </trkpt>
      <trkpt lat="46.486838897690177" lon="8.474797457456589">
        <ele>1518.0599999999999</ele>
        <time>2018-08-05T06:28:34Z</time>
      </trkpt>
      <trkpt lat="46.486811069771647" lon="8.474726462736726">
        <ele>1520.46</ele>
        <time>2018-08-05T06:28:47Z</time>
      </trkpt>
      <trkpt lat="46.486824145540595" lon="8.474683044478297">
        <ele>1521.9000000000001</ele>
        <time>2018-08-05T06:28:52Z</time>
      </trkpt>
      <trkpt lat="46.486910562962294" lon="8.474654713645577">
        <ele>1523.8299999999999</ele>
        <time>2018-08-05T06:29:03Z</time>
      </trkpt>
      <trkpt lat="46.487005613744259" lon="8.474646583199501">
        <ele>1525.75</ele>
        <time>2018-08-05T06:29:15Z</time>
      </trkpt>
      <trkpt lat="46.487072836607695" lon="8.474646331742406">
        <ele>1526.71</ele>
        <time>2018-08-05T06:29:26Z</time>
      </trkpt>
      <trkpt lat="46.487145842984319" lon="8.474612552672625">
        <ele>1528.1500000000001</ele>
        <time>2018-08-05T06:29:38Z</time>
      </trkpt>
      <trkpt lat="46.487242821604013" lon="8.474613055586815">
        <ele>1529.5899999999999</ele>
        <time>2018-08-05T06:29:49Z</time>
      </trkpt>
      <trkpt lat="46.487264111638069" lon="8.474633004516363">
        <ele>1530.0799999999999</ele>
        <time>2018-08-05T06:29:51Z</time>
      </trkpt>
      <trkpt lat="46.487326640635729" lon="8.474692432209849">
        <ele>1532</ele>
        <time>2018-08-05T06:30:02Z</time>
      </trkpt>
      <trkpt lat="46.48740534670651" lon="8.474686648696661">
        <ele>1533.9200000000001</ele>
        <time>2018-08-05T06:30:14Z</time>
      </trkpt>
      <trkpt lat="46.487485058605671" lon="8.474779687821865">
        <ele>1534.8800000000001</ele>
        <time>2018-08-05T06:30:27Z</time>
      </trkpt>
      <trkpt lat="46.487532164901495" lon="8.474892005324364">
        <ele>1536.3199999999999</ele>
        <time>2018-08-05T06:30:39Z</time>
      </trkpt>
      <trkpt lat="46.487542139366269" lon="8.474919078871608">
        <ele>1538.73</ele>
        <time>2018-08-05T06:30:42Z</time>
      </trkpt>
      <trkpt lat="46.487596537917852" lon="8.474919497966766">
        <ele>1540.6500000000001</ele>
        <time>2018-08-05T06:30:54Z</time>
      </trkpt>
      <trkpt lat="46.487627634778619" lon="8.474799133837223">
        <ele>1542.5699999999999</ele>
        <time>2018-08-05T06:31:04Z</time>
      </trkpt>
      <trkpt lat="46.487643057480454" lon="8.474683212116361">
        <ele>1544.01</ele>
        <time>2018-08-05T06:31:15Z</time>
      </trkpt>
      <trkpt lat="46.487640710547566" lon="8.474568128585815">
        <ele>1545.9400000000001</ele>
        <time>2018-08-05T06:31:28Z</time>
      </trkpt>
      <trkpt lat="46.48759544827044" lon="8.47448187880218">
        <ele>1547.8599999999999</ele>
        <time>2018-08-05T06:31:39Z</time>
      </trkpt>
      <trkpt lat="46.487585222348571" lon="8.474408620968461">
        <ele>1549.3</ele>
        <time>2018-08-05T06:31:50Z</time>
      </trkpt>
      <trkpt lat="46.487599387764931" lon="8.474279288202524">
        <ele>1550.74</ele>
        <time>2018-08-05T06:32:02Z</time>
      </trkpt>
      <trkpt lat="46.487603411078453" lon="8.474218100309372">
        <ele>1551.71</ele>
        <time>2018-08-05T06:32:12Z</time>
      </trkpt>
      <trkpt lat="46.487591173499823" lon="8.474097987636924">
        <ele>1553.6300000000001</ele>
        <time>2018-08-05T06:32:22Z</time>
      </trkpt>
      <trkpt lat="46.487564016133547" lon="8.473971169441938">
        <ele>1556.03</ele>
        <time>2018-08-05T06:32:33Z</time>
      </trkpt>
      <trkpt lat="46.487551359459758" lon="8.473802693188191">
        <ele>1558.4300000000001</ele>
        <time>2018-08-05T06:32:46Z</time>
      </trkpt>
      <trkpt lat="46.48754364810884" lon="8.47366145811975">
        <ele>1559.8800000000001</ele>
        <time>2018-08-05T06:32:58Z</time>
      </trkpt>
      <trkpt lat="46.487553119659424" lon="8.473540926352143">
        <ele>1561.8</ele>
        <time>2018-08-05T06:33:09Z</time>
      </trkpt>
      <trkpt lat="46.487563848495483" lon="8.473447468131781">
        <ele>1564.2</ele>
        <time>2018-08-05T06:33:22Z</time>
      </trkpt>
      <trkpt lat="46.487634005025029" lon="8.473425256088376">
        <ele>1566.6099999999999</ele>
        <time>2018-08-05T06:33:34Z</time>
      </trkpt>
      <trkpt lat="46.487727295607328" lon="8.473473703488708">
        <ele>1568.53</ele>
        <time>2018-08-05T06:33:47Z</time>
      </trkpt>
      <trkpt lat="46.487802229821682" lon="8.473544111475349">
        <ele>1570.45</ele>
        <time>2018-08-05T06:34:01Z</time>
      </trkpt>
      <trkpt lat="46.487865513190627" lon="8.473614435642958">
        <ele>1572.3699999999999</ele>
        <time>2018-08-05T06:34:11Z</time>
      </trkpt>
      <trkpt lat="46.487950924783945" lon="8.473654668778181">
        <ele>1574.3</ele>
        <time>2018-08-05T06:34:23Z</time>
      </trkpt>
      <trkpt lat="46.48801127448678" lon="8.473756676539779">
        <ele>1575.74</ele>
        <time>2018-08-05T06:34:34Z</time>
      </trkpt>
      <trkpt lat="46.488040527328849" lon="8.473835047334433">
        <ele>1577.6600000000001</ele>
        <time>2018-08-05T06:34:44Z</time>
      </trkpt>
      <trkpt lat="46.488104732707143" lon="8.473899085074663">
        <ele>1579.0999999999999</ele>
        <time>2018-08-05T06:34:56Z</time>
      </trkpt>
      <trkpt lat="46.488140104338527" lon="8.473997237160802">
        <ele>1581.03</ele>
        <time>2018-08-05T06:35:07Z</time>
      </trkpt>
      <trkpt lat="46.488199699670076" lon="8.474049707874656">
        <ele>1582.47</ele>
        <time>2018-08-05T06:35:17Z</time>
      </trkpt>
      <trkpt lat="46.488214619457722" lon="8.474082313477993">
        <ele>1583.4300000000001</ele>
        <time>2018-08-05T06:35:27Z</time>
      </trkpt>
      <trkpt lat="46.488239262253046" lon="8.47416034899652">
        <ele>1584.8699999999999</ele>
        <time>2018-08-05T06:35:44Z</time>
      </trkpt>
      <trkpt lat="46.488260133191943" lon="8.474235283210874">
        <ele>1586.79</ele>
        <time>2018-08-05T06:35:54Z</time>
      </trkpt>
      <trkpt lat="46.488258792087436" lon="8.474248358979821">
        <ele>1587.27</ele>
        <time>2018-08-05T06:36:07Z</time>
      </trkpt>
      <trkpt lat="46.488303719088435" lon="8.474350031465292">
        <ele>1588.72</ele>
        <time>2018-08-05T06:36:16Z</time>
      </trkpt>
      <trkpt lat="46.488338923081756" lon="8.474406441673636">
        <ele>1590.1600000000001</ele>
        <time>2018-08-05T06:36:26Z</time>
      </trkpt>
      <trkpt lat="46.488382006064057" lon="8.474485902115703">
        <ele>1591.5999999999999</ele>
        <time>2018-08-05T06:36:35Z</time>
      </trkpt>
      <trkpt lat="46.488460628315806" lon="8.474526721984148">
        <ele>1593.04</ele>
        <time>2018-08-05T06:36:45Z</time>
      </trkpt>
      <trkpt lat="46.488531120121479" lon="8.474548179656267">
        <ele>1594.48</ele>
        <time>2018-08-05T06:36:52Z</time>
      </trkpt>
      <trkpt lat="46.48856389336288" lon="8.474562931805849">
        <ele>1594.96</ele>
        <time>2018-08-05T06:36:56Z</time>
      </trkpt>
      <trkpt lat="46.488589709624648" lon="8.474687738344073">
        <ele>1595.9300000000001</ele>
        <time>2018-08-05T06:37:05Z</time>
      </trkpt>
      <trkpt lat="46.488592559471726" lon="8.474795026704669">
        <ele>1597.8499999999999</ele>
        <time>2018-08-05T06:37:15Z</time>
      </trkpt>
      <trkpt lat="46.488588536158204" lon="8.474886473268271">
        <ele>1599.77</ele>
        <time>2018-08-05T06:37:25Z</time>
      </trkpt>
      <trkpt lat="46.488634133711457" lon="8.47498219460249">
        <ele>1602.1700000000001</ele>
        <time>2018-08-05T06:37:38Z</time>
      </trkpt>
      <trkpt lat="46.488726669922471" lon="8.475035922601819">
        <ele>1603.1400000000001</ele>
        <time>2018-08-05T06:37:49Z</time>
      </trkpt>
      <trkpt lat="46.488811243325472" lon="8.475041203200817">
        <ele>1604.5799999999999</ele>
        <time>2018-08-05T06:38:00Z</time>
      </trkpt>
      <trkpt lat="46.48888492025435" lon="8.475003149360418">
        <ele>1606.5</ele>
        <time>2018-08-05T06:38:12Z</time>
      </trkpt>
      <trkpt lat="46.488964632153511" lon="8.474993761628866">
        <ele>1607.9400000000001</ele>
        <time>2018-08-05T06:38:24Z</time>
      </trkpt>
      <trkpt lat="46.489040153101087" lon="8.475002059713006">
        <ele>1609.3800000000001</ele>
        <time>2018-08-05T06:38:35Z</time>
      </trkpt>
      <trkpt lat="46.489078123122454" lon="8.474961658939719">
        <ele>1609.8599999999999</ele>
        <time>2018-08-05T06:38:47Z</time>
      </trkpt>
      <trkpt lat="46.489116596058011" lon="8.474968113005161">
        <ele>1610.8299999999999</ele>
        <time>2018-08-05T06:39:10Z</time>
      </trkpt>
      <trkpt lat="46.489079128950834" lon="8.475009854882956">
        <ele>1612.27</ele>
        <time>2018-08-05T06:39:35Z</time>
      </trkpt>
      <trkpt lat="46.489001009613276" lon="8.474974986165762">
        <ele>1613.23</ele>
        <time>2018-08-05T06:39:44Z</time>
      </trkpt>
      <trkpt lat="46.488963710144162" lon="8.474868452176452">
        <ele>1614.6700000000001</ele>
        <time>2018-08-05T06:39:52Z</time>
      </trkpt>
      <trkpt lat="46.488941414281726" lon="8.474709866568446">
        <ele>1616.5899999999999</ele>
        <time>2018-08-05T06:40:03Z</time>
      </trkpt>
      <trkpt lat="46.488951304927468" lon="8.474652450531721">
        <ele>1617.5599999999999</ele>
        <time>2018-08-05T06:40:07Z</time>
      </trkpt>
      <trkpt lat="46.48898365907371" lon="8.47452194429934">
        <ele>1619.48</ele>
        <time>2018-08-05T06:40:17Z</time>
      </trkpt>
      <trkpt lat="46.488992124795914" lon="8.474503085017204">
        <ele>1619.96</ele>
        <time>2018-08-05T06:40:19Z</time>
      </trkpt>
      <trkpt lat="46.489006541669369" lon="8.474444160237908">
        <ele>1620.9200000000001</ele>
        <time>2018-08-05T06:40:23Z</time>
      </trkpt>
      <trkpt lat="46.489027747884393" lon="8.474365873262286">
        <ele>1621.8800000000001</ele>
        <time>2018-08-05T06:40:29Z</time>
      </trkpt>
      <trkpt lat="46.489033615216613" lon="8.474307367578149">
        <ele>1622.8399999999999</ele>
        <time>2018-08-05T06:40:35Z</time>
      </trkpt>
      <trkpt lat="46.489054821431637" lon="8.474181303754449">
        <ele>1624.77</ele>
        <time>2018-08-05T06:40:47Z</time>
      </trkpt>
      <trkpt lat="46.489039901643991" lon="8.474108129739761">
        <ele>1626.6900000000001</ele>
        <time>2018-08-05T06:40:56Z</time>
      </trkpt>
      <trkpt lat="46.488974438980222" lon="8.474082816392183">
        <ele>1628.1300000000001</ele>
        <time>2018-08-05T06:41:05Z</time>
      </trkpt>
      <trkpt lat="46.488872012123466" lon="8.474063705652952">
        <ele>1630.05</ele>
        <time>2018-08-05T06:41:17Z</time>
      </trkpt>
      <trkpt lat="46.48881115950644" lon="8.473962200805545">
        <ele>1632.46</ele>
        <time>2018-08-05T06:41:28Z</time>
      </trkpt>
      <trkpt lat="46.488840831443667" lon="8.473859438672662">
        <ele>1633.9000000000001</ele>
        <time>2018-08-05T06:41:36Z</time>
      </trkpt>
      <trkpt lat="46.488912664353848" lon="8.473757179453969">
        <ele>1635.8199999999999</ele>
        <time>2018-08-05T06:41:46Z</time>
      </trkpt>
      <trkpt lat="46.488972259685397" lon="8.473684340715408">
        <ele>1637.74</ele>
        <time>2018-08-05T06:41:56Z</time>
      </trkpt>
      <trkpt lat="46.489009894430637" lon="8.473620638251305">
        <ele>1639.1900000000001</ele>
        <time>2018-08-05T06:42:05Z</time>
      </trkpt>
      <trkpt lat="46.48904082365334" lon="8.47352122887969">
        <ele>1641.1099999999999</ele>
        <time>2018-08-05T06:42:14Z</time>
      </trkpt>
      <trkpt lat="46.489010062068701" lon="8.473416119813919">
        <ele>1642.55</ele>
        <time>2018-08-05T06:42:24Z</time>
      </trkpt>
      <trkpt lat="46.48894065991044" lon="8.473323583602905">
        <ele>1643.99</ele>
        <time>2018-08-05T06:42:35Z</time>
      </trkpt>
      <trkpt lat="46.488895816728473" lon="8.473227694630623">
        <ele>1645.9100000000001</ele>
        <time>2018-08-05T06:42:45Z</time>
      </trkpt>
      <trkpt lat="46.488891625776887" lon="8.473196346312761">
        <ele>1646.8800000000001</ele>
        <time>2018-08-05T06:42:48Z</time>
      </trkpt>
      <trkpt lat="46.488885087892413" lon="8.473066342994571">
        <ele>1648.8</ele>
        <time>2018-08-05T06:43:00Z</time>
      </trkpt>
      <trkpt lat="46.488924315199256" lon="8.47311370074749">
        <ele>1649.76</ele>
        <time>2018-08-05T06:43:08Z</time>
      </trkpt>
      <trkpt lat="46.488966979086399" lon="8.473187880590558">
        <ele>1651.2</ele>
        <time>2018-08-05T06:43:18Z</time>
      </trkpt>
      <trkpt lat="46.488973852247" lon="8.47319039516151">
        <ele>1651.6800000000001</ele>
        <time>2018-08-05T06:43:19Z</time>
      </trkpt>
      <trkpt lat="46.489056581631303" lon="8.473197519779205">
        <ele>1653.1199999999999</ele>
        <time>2018-08-05T06:43:31Z</time>
      </trkpt>
      <trkpt lat="46.489125732332468" lon="8.473229119554162">
        <ele>1655.05</ele>
        <time>2018-08-05T06:43:43Z</time>
      </trkpt>
      <trkpt lat="46.48920401930809" lon="8.473267508670688">
        <ele>1656.97</ele>
        <time>2018-08-05T06:43:55Z</time>
      </trkpt>
      <trkpt lat="46.489282306283712" lon="8.473344035446644">
        <ele>1658.4100000000001</ele>
        <time>2018-08-05T06:44:07Z</time>
      </trkpt>
      <trkpt lat="46.489324551075697" lon="8.473419975489378">
        <ele>1659.8499999999999</ele>
        <time>2018-08-05T06:44:17Z</time>
      </trkpt>
      <trkpt lat="46.489386158064008" lon="8.473473284393549">
        <ele>1661.3</ele>
        <time>2018-08-05T06:44:27Z</time>
      </trkpt>
      <trkpt lat="46.489450950175524" lon="8.473510919138789">
        <ele>1662.74</ele>
        <time>2018-08-05T06:44:37Z</time>
      </trkpt>
      <trkpt lat="46.48951867595315" lon="8.473532125353813">
        <ele>1664.1800000000001</ele>
        <time>2018-08-05T06:44:48Z</time>
      </trkpt>
      <trkpt lat="46.489580534398556" lon="8.473604377359152">
        <ele>1665.6199999999999</ele>
        <time>2018-08-05T06:45:00Z</time>
      </trkpt>
      <trkpt lat="46.489605512470007" lon="8.473584596067667">
        <ele>1666.0999999999999</ele>
        <time>2018-08-05T06:45:03Z</time>
      </trkpt>
      <trkpt lat="46.489685475826263" lon="8.473533382639289">
        <ele>1667.54</ele>
        <time>2018-08-05T06:45:14Z</time>
      </trkpt>
      <trkpt lat="46.489730402827263" lon="8.473441181704402">
        <ele>1668.99</ele>
        <time>2018-08-05T06:45:26Z</time>
      </trkpt>
      <trkpt lat="46.489773066714406" lon="8.473345879465342">
        <ele>1670.9100000000001</ele>
        <time>2018-08-05T06:45:37Z</time>
      </trkpt>
      <trkpt lat="46.489779017865658" lon="8.473261725157499">
        <ele>1672.3499999999999</ele>
        <time>2018-08-05T06:45:48Z</time>
      </trkpt>
      <trkpt lat="46.489808354526758" lon="8.473144043236971">
        <ele>1675.72</ele>
        <time>2018-08-05T06:46:01Z</time>
      </trkpt>
      <trkpt lat="46.489834422245622" lon="8.473035413771868">
        <ele>1676.2</ele>
        <time>2018-08-05T06:46:14Z</time>
      </trkpt>
      <trkpt lat="46.489892592653632" lon="8.472924856469035">
        <ele>1677.6400000000001</ele>
        <time>2018-08-05T06:46:26Z</time>
      </trkpt>
      <trkpt lat="46.489974483847618" lon="8.472869787365198">
        <ele>1679.0799999999999</ele>
        <time>2018-08-05T06:46:38Z</time>
      </trkpt>
      <trkpt lat="46.49006450548768" lon="8.472901303321123">
        <ele>1680.04</ele>
        <time>2018-08-05T06:46:51Z</time>
      </trkpt>
      <trkpt lat="46.490116557106376" lon="8.472969615831971">
        <ele>1681</ele>
        <time>2018-08-05T06:47:00Z</time>
      </trkpt>
      <trkpt lat="46.490154359489679" lon="8.4730423707515">
        <ele>1682.4400000000001</ele>
        <time>2018-08-05T06:47:12Z</time>
      </trkpt>
      <trkpt lat="46.490211272612214" lon="8.473050920292735">
        <ele>1684.3699999999999</ele>
        <time>2018-08-05T06:47:24Z</time>
      </trkpt>
      <trkpt lat="46.490277657285333" lon="8.472996018826962">
        <ele>1686.29</ele>
        <time>2018-08-05T06:47:36Z</time>
      </trkpt>
      <trkpt lat="46.490351669490337" lon="8.473025187849999">
        <ele>1687.73</ele>
        <time>2018-08-05T06:47:48Z</time>
      </trkpt>
      <trkpt lat="46.49042165838182" lon="8.473071036860347">
        <ele>1689.6500000000001</ele>
        <time>2018-08-05T06:47:59Z</time>
      </trkpt>
      <trkpt lat="46.490464741364121" lon="8.473159885033965">
        <ele>1691.0999999999999</ele>
        <time>2018-08-05T06:48:09Z</time>
      </trkpt>
      <trkpt lat="46.49047153070569" lon="8.473252421244979">
        <ele>1692.0599999999999</ele>
        <time>2018-08-05T06:48:19Z</time>
      </trkpt>
      <trkpt lat="46.490463316440582" lon="8.473373204469681">
        <ele>1693.5</ele>
        <time>2018-08-05T06:48:30Z</time>
      </trkpt>
      <trkpt lat="46.490475637838244" lon="8.473496837541461">
        <ele>1695.9000000000001</ele>
        <time>2018-08-05T06:48:44Z</time>
      </trkpt>
      <trkpt lat="46.490505896508694" lon="8.473583171144128">
        <ele>1697.8299999999999</ele>
        <time>2018-08-05T06:48:56Z</time>
      </trkpt>
      <trkpt lat="46.490516122430563" lon="8.47369221970439">
        <ele>1699.27</ele>
        <time>2018-08-05T06:49:06Z</time>
      </trkpt>
      <trkpt lat="46.490540597587824" lon="8.473802609369159">
        <ele>1701.1900000000001</ele>
        <time>2018-08-05T06:49:17Z</time>
      </trkpt>
      <trkpt lat="46.490603629499674" lon="8.473832113668323">
        <ele>1702.6300000000001</ele>
        <time>2018-08-05T06:49:28Z</time>
      </trkpt>
      <trkpt lat="46.490624081343412" lon="8.473910484462977">
        <ele>1704.55</ele>
        <time>2018-08-05T06:49:37Z</time>
      </trkpt>
      <trkpt lat="46.490628775209188" lon="8.474013414233923">
        <ele>1706.48</ele>
        <time>2018-08-05T06:49:47Z</time>
      </trkpt>
      <trkpt lat="46.490634391084313" lon="8.474050797522068">
        <ele>1706.96</ele>
        <time>2018-08-05T06:49:50Z</time>
      </trkpt>
      <trkpt lat="46.49068015627563" lon="8.474150290712714">
        <ele>1708.8800000000001</ele>
        <time>2018-08-05T06:50:01Z</time>
      </trkpt>
      <trkpt lat="46.490719467401505" lon="8.474238971248269">
        <ele>1711.28</ele>
        <time>2018-08-05T06:50:11Z</time>
      </trkpt>
      <trkpt lat="46.490751653909683" lon="8.474264619871974">
        <ele>1711.76</ele>
        <time>2018-08-05T06:50:16Z</time>
      </trkpt>
      <trkpt lat="46.49081845767796" lon="8.474298231303692">
        <ele>1713.6900000000001</ele>
        <time>2018-08-05T06:50:27Z</time>
      </trkpt>
      <trkpt lat="46.490859026089311" lon="8.474365705624223">
        <ele>1714.6500000000001</ele>
        <time>2018-08-05T06:50:35Z</time>
      </trkpt>
      <trkpt lat="46.490924069657922" lon="8.474402502179146">
        <ele>1716.5699999999999</ele>
        <time>2018-08-05T06:50:46Z</time>
      </trkpt>
      <trkpt lat="46.490985341370106" lon="8.474400071427226">
        <ele>1718.01</ele>
        <time>2018-08-05T06:50:56Z</time>
      </trkpt>
      <trkpt lat="46.491005625575781" lon="8.474423792213202">
        <ele>1718.49</ele>
        <time>2018-08-05T06:50:59Z</time>
      </trkpt>
      <trkpt lat="46.49107787758112" lon="8.474491182714701">
        <ele>1720.4200000000001</ele>
        <time>2018-08-05T06:51:10Z</time>
      </trkpt>
      <trkpt lat="46.491157589480281" lon="8.474499480798841">
        <ele>1722.3399999999999</ele>
        <time>2018-08-05T06:51:21Z</time>
      </trkpt>
      <trkpt lat="46.491264374926686" lon="8.474601488560438">
        <ele>1723.78</ele>
        <time>2018-08-05T06:51:33Z</time>
      </trkpt>
      <trkpt lat="46.491335034370422" lon="8.474671645089984">
        <ele>1724.74</ele>
        <time>2018-08-05T06:51:43Z</time>
      </trkpt>
      <trkpt lat="46.491384571418166" lon="8.474761247634888">
        <ele>1726.1800000000001</ele>
        <time>2018-08-05T06:51:52Z</time>
      </trkpt>
      <trkpt lat="46.491405526176095" lon="8.474905584007502">
        <ele>1728.1099999999999</ele>
        <time>2018-08-05T06:52:04Z</time>
      </trkpt>
      <trkpt lat="46.491425223648548" lon="8.474983787164092">
        <ele>1729.0699999999999</ele>
        <time>2018-08-05T06:52:14Z</time>
      </trkpt>
      <trkpt lat="46.491445926949382" lon="8.475068528205156">
        <ele>1730.99</ele>
        <time>2018-08-05T06:52:23Z</time>
      </trkpt>
      <trkpt lat="46.491438467055559" lon="8.475185036659241">
        <ele>1733.3900000000001</ele>
        <time>2018-08-05T06:52:35Z</time>
      </trkpt>
      <trkpt lat="46.491499906405807" lon="8.4752700291574">
        <ele>1734.8399999999999</ele>
        <time>2018-08-05T06:52:44Z</time>
      </trkpt>
      <trkpt lat="46.491564866155386" lon="8.47535795532167">
        <ele>1736.28</ele>
        <time>2018-08-05T06:52:54Z</time>
      </trkpt>
      <trkpt lat="46.491617504507303" lon="8.475458538159728">
        <ele>1737.72</ele>
        <time>2018-08-05T06:53:04Z</time>
      </trkpt>
      <trkpt lat="46.491648349910975" lon="8.475562892854214">
        <ele>1738.6800000000001</ele>
        <time>2018-08-05T06:53:14Z</time>
      </trkpt>
      <trkpt lat="46.491657821461558" lon="8.475581668317318">
        <ele>1739.1600000000001</ele>
        <time>2018-08-05T06:53:16Z</time>
      </trkpt>
      <trkpt lat="46.49172730743885" lon="8.475649813190103">
        <ele>1740.1199999999999</ele>
        <time>2018-08-05T06:53:26Z</time>
      </trkpt>
      <trkpt lat="46.491775335744023" lon="8.475724076852202">
        <ele>1742.05</ele>
        <time>2018-08-05T06:53:36Z</time>
      </trkpt>
      <trkpt lat="46.491834260523319" lon="8.475805800408125">
        <ele>1744.45</ele>
        <time>2018-08-05T06:53:48Z</time>
      </trkpt>
      <trkpt lat="46.491892011836171" lon="8.475863635540009">
        <ele>1746.8499999999999</ele>
        <time>2018-08-05T06:53:59Z</time>
      </trkpt>
      <trkpt lat="46.491872984915972" lon="8.475797418504953">
        <ele>1748.29</ele>
        <time>2018-08-05T06:54:06Z</time>
      </trkpt>
      <trkpt lat="46.49183040484786" lon="8.475712509825826">
        <ele>1748.78</ele>
        <time>2018-08-05T06:54:14Z</time>
      </trkpt>
      <trkpt lat="46.491777682676911" lon="8.475602623075247">
        <ele>1750.22</ele>
        <time>2018-08-05T06:54:25Z</time>
      </trkpt>
      <trkpt lat="46.491739293560386" lon="8.47548846155405">
        <ele>1751.1800000000001</ele>
        <time>2018-08-05T06:54:35Z</time>
      </trkpt>
      <trkpt lat="46.491716075688601" lon="8.475385280326009">
        <ele>1752.6199999999999</ele>
        <time>2018-08-05T06:54:44Z</time>
      </trkpt>
      <trkpt lat="46.491697551682591" lon="8.475240021944046">
        <ele>1754.0599999999999</ele>
        <time>2018-08-05T06:54:55Z</time>
      </trkpt>
      <trkpt lat="46.49167156778276" lon="8.475088309496641">
        <ele>1755.99</ele>
        <time>2018-08-05T06:55:07Z</time>
      </trkpt>
      <trkpt lat="46.491668969392776" lon="8.474930729717016">
        <ele>1757.4300000000001</ele>
        <time>2018-08-05T06:55:18Z</time>
      </trkpt>
      <trkpt lat="46.491696713492274" lon="8.47477893345058">
        <ele>1758.8699999999999</ele>
        <time>2018-08-05T06:55:30Z</time>
      </trkpt>
      <trkpt lat="46.491700317710638" lon="8.474705843254924">
        <ele>1759.3499999999999</ele>
        <time>2018-08-05T06:55:35Z</time>
      </trkpt>
      <trkpt lat="46.491706520318985" lon="8.474554885178804">
        <ele>1761.27</ele>
        <time>2018-08-05T06:55:47Z</time>
      </trkpt>
      <trkpt lat="46.491713561117649" lon="8.474503001198173">
        <ele>1761.75</ele>
        <time>2018-08-05T06:55:51Z</time>
      </trkpt>
      <trkpt lat="46.491725463420153" lon="8.474377021193504">
        <ele>1763.2</ele>
        <time>2018-08-05T06:56:01Z</time>
      </trkpt>
      <trkpt lat="46.49172437377274" lon="8.474238803610206">
        <ele>1764.6400000000001</ele>
        <time>2018-08-05T06:56:13Z</time>
      </trkpt>
      <trkpt lat="46.491719763725996" lon="8.474229499697685">
        <ele>1765.1199999999999</ele>
        <time>2018-08-05T06:56:14Z</time>
      </trkpt>
      <trkpt lat="46.491672322154045" lon="8.474142411723733">
        <ele>1767.04</ele>
        <time>2018-08-05T06:56:25Z</time>
      </trkpt>
      <trkpt lat="46.4916056022048" lon="8.474073512479663">
        <ele>1768.96</ele>
        <time>2018-08-05T06:56:36Z</time>
      </trkpt>
      <trkpt lat="46.491568554192781" lon="8.474026154726744">
        <ele>1769.4400000000001</ele>
        <time>2018-08-05T06:56:42Z</time>
      </trkpt>
      <trkpt lat="46.491492949426174" lon="8.473926410079002">
        <ele>1771.3699999999999</ele>
        <time>2018-08-05T06:56:53Z</time>
      </trkpt>
      <trkpt lat="46.491491692140698" lon="8.473910568282008">
        <ele>1771.3699999999999</ele>
        <time>2018-08-05T06:56:54Z</time>
      </trkpt>
      <trkpt lat="46.491449614986777" lon="8.473792802542448">
        <ele>1773.29</ele>
        <time>2018-08-05T06:57:05Z</time>
      </trkpt>
      <trkpt lat="46.491425056010485" lon="8.473754497244954">
        <ele>1774.73</ele>
        <time>2018-08-05T06:57:12Z</time>
      </trkpt>
      <trkpt lat="46.49142480455339" lon="8.473641509190202">
        <ele>1777.1300000000001</ele>
        <time>2018-08-05T06:57:24Z</time>
      </trkpt>
      <trkpt lat="46.491489680483937" lon="8.473520306870341">
        <ele>1779.0599999999999</ele>
        <time>2018-08-05T06:57:35Z</time>
      </trkpt>
      <trkpt lat="46.491522956639528" lon="8.473422406241298">
        <ele>1780.98</ele>
        <time>2018-08-05T06:57:45Z</time>
      </trkpt>
      <trkpt lat="46.491577690467238" lon="8.47331939265132">
        <ele>1782.9000000000001</ele>
        <time>2018-08-05T06:57:57Z</time>
      </trkpt>
      <trkpt lat="46.49162370711565" lon="8.47321386449039">
        <ele>1784.8199999999999</ele>
        <time>2018-08-05T06:58:08Z</time>
      </trkpt>
      <trkpt lat="46.491668717935681" lon="8.473103139549494">
        <ele>1787.23</ele>
        <time>2018-08-05T06:58:21Z</time>
      </trkpt>
      <trkpt lat="46.491696294397116" lon="8.473009848967195">
        <ele>1788.6700000000001</ele>
        <time>2018-08-05T06:58:31Z</time>
      </trkpt>
      <trkpt lat="46.491730911657214" lon="8.472934160381556">
        <ele>1790.5899999999999</ele>
        <time>2018-08-05T06:58:41Z</time>
      </trkpt>
      <trkpt lat="46.491763265803456" lon="8.472839025780559">
        <ele>1792.52</ele>
        <time>2018-08-05T06:58:51Z</time>
      </trkpt>
      <trkpt lat="46.491808108985424" lon="8.472743220627308">
        <ele>1794.4400000000001</ele>
        <time>2018-08-05T06:59:03Z</time>
      </trkpt>
      <trkpt lat="46.491848258301616" lon="8.472619419917464">
        <ele>1796.3599999999999</ele>
        <time>2018-08-05T06:59:14Z</time>
      </trkpt>
      <trkpt lat="46.491850186139345" lon="8.472506767138839">
        <ele>1798.28</ele>
        <time>2018-08-05T06:59:24Z</time>
      </trkpt>
      <trkpt lat="46.491848593577743" lon="8.472438873723149">
        <ele>1799.24</ele>
        <time>2018-08-05T06:59:31Z</time>
      </trkpt>
      <trkpt lat="46.491878097876906" lon="8.472335608676076">
        <ele>1801.6500000000001</ele>
        <time>2018-08-05T06:59:41Z</time>
      </trkpt>
      <trkpt lat="46.491925874724984" lon="8.472254890948534">
        <ele>1803.0899999999999</ele>
        <time>2018-08-05T06:59:52Z</time>
      </trkpt>
      <trkpt lat="46.491949930787086" lon="8.472152799367905">
        <ele>1805.97</ele>
        <time>2018-08-05T07:00:04Z</time>
      </trkpt>
      <trkpt lat="46.491981530562043" lon="8.472070237621665">
        <ele>1807.4200000000001</ele>
        <time>2018-08-05T07:00:14Z</time>
      </trkpt>
      <trkpt lat="46.49202193133533" lon="8.471986670047045">
        <ele>1809.8199999999999</ele>
        <time>2018-08-05T07:00:26Z</time>
      </trkpt>
      <trkpt lat="46.492058811709285" lon="8.471921291202307">
        <ele>1811.74</ele>
        <time>2018-08-05T07:00:38Z</time>
      </trkpt>
      <trkpt lat="46.492112707346678" lon="8.471878375858069">
        <ele>1814.1500000000001</ele>
        <time>2018-08-05T07:00:50Z</time>
      </trkpt>
      <trkpt lat="46.492142463102937" lon="8.472013911232352">
        <ele>1816.0699999999999</ele>
        <time>2018-08-05T07:01:02Z</time>
      </trkpt>
      <trkpt lat="46.492142044007778" lon="8.472106112167239">
        <ele>1817.51</ele>
        <time>2018-08-05T07:01:13Z</time>
      </trkpt>
      <trkpt lat="46.492159059271216" lon="8.472203845158219">
        <ele>1818.95</ele>
        <time>2018-08-05T07:01:21Z</time>
      </trkpt>
      <trkpt lat="46.492221085354686" lon="8.472279952839017">
        <ele>1821.3499999999999</ele>
        <time>2018-08-05T07:01:33Z</time>
      </trkpt>
      <trkpt lat="46.492238016799092" lon="8.472384810447693">
        <ele>1823.76</ele>
        <time>2018-08-05T07:01:45Z</time>
      </trkpt>
      <trkpt lat="46.492272047325969" lon="8.472451195120812">
        <ele>1825.2</ele>
        <time>2018-08-05T07:01:55Z</time>
      </trkpt>
      <trkpt lat="46.492291409522295" lon="8.472547335550189">
        <ele>1827.5999999999999</ele>
        <time>2018-08-05T07:02:07Z</time>
      </trkpt>
      <trkpt lat="46.492302808910608" lon="8.472654540091753">
        <ele>1830.01</ele>
        <time>2018-08-05T07:02:18Z</time>
      </trkpt>
      <trkpt lat="46.492320410907269" lon="8.472744058817625">
        <ele>1831.9300000000001</ele>
        <time>2018-08-05T07:02:28Z</time>
      </trkpt>
      <trkpt lat="46.492329463362694" lon="8.472761576995254">
        <ele>1832.4100000000001</ele>
        <time>2018-08-05T07:02:30Z</time>
      </trkpt>
      <trkpt lat="46.492329798638821" lon="8.472879258915782">
        <ele>1834.3299999999999</ele>
        <time>2018-08-05T07:02:41Z</time>
      </trkpt>
      <trkpt lat="46.492335582152009" lon="8.472978081554174">
        <ele>1835.29</ele>
        <time>2018-08-05T07:02:50Z</time>
      </trkpt>
      <trkpt lat="46.492322171106935" lon="8.473076988011599">
        <ele>1837.22</ele>
        <time>2018-08-05T07:03:00Z</time>
      </trkpt>
      <trkpt lat="46.492284955456853" lon="8.473180588334799">
        <ele>1839.6199999999999</ele>
        <time>2018-08-05T07:03:13Z</time>
      </trkpt>
      <trkpt lat="46.492261234670877" lon="8.473269687965512">
        <ele>1842.02</ele>
        <time>2018-08-05T07:03:25Z</time>
      </trkpt>
      <trkpt lat="46.492307418957353" lon="8.473289636895061">
        <ele>1843.95</ele>
        <time>2018-08-05T07:03:35Z</time>
      </trkpt>
      <trkpt lat="46.492396518588066" lon="8.473356692120433">
        <ele>1846.3499999999999</ele>
        <time>2018-08-05T07:03:48Z</time>
      </trkpt>
      <trkpt lat="46.492456700652838" lon="8.473465321585536">
        <ele>1848.27</ele>
        <time>2018-08-05T07:04:00Z</time>
      </trkpt>
      <trkpt lat="46.492494000121951" lon="8.473537405952811">
        <ele>1850.1900000000001</ele>
        <time>2018-08-05T07:04:11Z</time>
      </trkpt>
      <trkpt lat="46.492465501651168" lon="8.473385944962502">
        <ele>1852.5999999999999</ele>
        <time>2018-08-05T07:04:23Z</time>
      </trkpt>
      <trkpt lat="46.492456952109933" lon="8.473288295790553">
        <ele>1854.04</ele>
        <time>2018-08-05T07:04:33Z</time>
      </trkpt>
      <trkpt lat="46.492478158324957" lon="8.473174134269357">
        <ele>1855.96</ele>
        <time>2018-08-05T07:04:45Z</time>
      </trkpt>
      <trkpt lat="46.492513362318277" lon="8.473096266388893">
        <ele>1857.4000000000001</ele>
        <time>2018-08-05T07:04:54Z</time>
      </trkpt>
      <trkpt lat="46.492571029812098" lon="8.472993755713105">
        <ele>1859.3299999999999</ele>
        <time>2018-08-05T07:05:06Z</time>
      </trkpt>
      <trkpt lat="46.492600366473198" lon="8.47312442958355">
        <ele>1861.25</ele>
        <time>2018-08-05T07:05:17Z</time>
      </trkpt>
      <trkpt lat="46.492630038410425" lon="8.473242027685046">
        <ele>1863.1700000000001</ele>
        <time>2018-08-05T07:05:28Z</time>
      </trkpt>
      <trkpt lat="46.492645042017102" lon="8.473255103453994">
        <ele>1863.6500000000001</ele>
        <time>2018-08-05T07:05:30Z</time>
      </trkpt>
      <trkpt lat="46.492688879370689" lon="8.473358787596226">
        <ele>1866.0599999999999</ele>
        <time>2018-08-05T07:05:41Z</time>
      </trkpt>
      <trkpt lat="46.492753084748983" lon="8.473370941355825">
        <ele>1867.98</ele>
        <time>2018-08-05T07:05:52Z</time>
      </trkpt>
      <trkpt lat="46.492768507450819" lon="8.473364403471351">
        <ele>1868.46</ele>
        <time>2018-08-05T07:05:54Z</time>
      </trkpt>
      <trkpt lat="46.49283841252327" lon="8.473313776776195">
        <ele>1869.9000000000001</ele>
        <time>2018-08-05T07:06:06Z</time>
      </trkpt>
      <trkpt lat="46.492921393364668" lon="8.473300281912088">
        <ele>1872.3</ele>
        <time>2018-08-05T07:06:17Z</time>
      </trkpt>
      <trkpt lat="46.493000267073512" lon="8.473353674635291">
        <ele>1874.71</ele>
        <time>2018-08-05T07:06:29Z</time>
      </trkpt>
      <trkpt lat="46.493078386411071" lon="8.473373539745808">
        <ele>1876.6300000000001</ele>
        <time>2018-08-05T07:06:39Z</time>
      </trkpt>
      <trkpt lat="46.493112416937947" lon="8.473281254991889">
        <ele>1878.0699999999999</ele>
        <time>2018-08-05T07:06:51Z</time>
      </trkpt>
      <trkpt lat="46.49312331341207" lon="8.473192071542144">
        <ele>1880.48</ele>
        <time>2018-08-05T07:07:03Z</time>
      </trkpt>
      <trkpt lat="46.493068411946297" lon="8.473160974681377">
        <ele>1882.4000000000001</ele>
        <time>2018-08-05T07:07:14Z</time>
      </trkpt>
      <trkpt lat="46.493019796907902" lon="8.473076233640313">
        <ele>1883.8399999999999</ele>
        <time>2018-08-05T07:07:24Z</time>
      </trkpt>
      <trkpt lat="46.493018623441458" lon="8.472976824268699">
        <ele>1885.76</ele>
        <time>2018-08-05T07:07:35Z</time>
      </trkpt>
      <trkpt lat="46.493010744452477" lon="8.472893759608269">
        <ele>1887.6900000000001</ele>
        <time>2018-08-05T07:07:45Z</time>
      </trkpt>
      <trkpt lat="46.492992220446467" lon="8.472788315266371">
        <ele>1889.1300000000001</ele>
        <time>2018-08-05T07:07:56Z</time>
      </trkpt>
      <trkpt lat="46.493007810786366" lon="8.472650516778231">
        <ele>1891.53</ele>
        <time>2018-08-05T07:08:10Z</time>
      </trkpt>
      <trkpt lat="46.493035806342959" lon="8.472540294751525">
        <ele>1892.97</ele>
        <time>2018-08-05T07:08:22Z</time>
      </trkpt>
      <trkpt lat="46.493068914860487" lon="8.472461253404617">
        <ele>1894.9000000000001</ele>
        <time>2018-08-05T07:08:32Z</time>
      </trkpt>
      <trkpt lat="46.49312624707818" lon="8.472399981692433">
        <ele>1896.3399999999999</ele>
        <time>2018-08-05T07:08:42Z</time>
      </trkpt>
      <trkpt lat="46.493192128837109" lon="8.472326388582587">
        <ele>1897.78</ele>
        <time>2018-08-05T07:08:54Z</time>
      </trkpt>
      <trkpt lat="46.49323957040906" lon="8.472250448539853">
        <ele>1899.22</ele>
        <time>2018-08-05T07:09:05Z</time>
      </trkpt>
      <trkpt lat="46.49327427148819" lon="8.472191020846367">
        <ele>1901.6300000000001</ele>
        <time>2018-08-05T07:09:17Z</time>
      </trkpt>
      <trkpt lat="46.493351552635431" lon="8.472103429958224">
        <ele>1903.0699999999999</ele>
        <time>2018-08-05T07:09:29Z</time>
      </trkpt>
      <trkpt lat="46.493404526263475" lon="8.472057664766908">
        <ele>1904.99</ele>
        <time>2018-08-05T07:09:42Z</time>
      </trkpt>
      <trkpt lat="46.493423385545611" lon="8.472195211797953">
        <ele>1907.3900000000001</ele>
        <time>2018-08-05T07:09:53Z</time>
      </trkpt>
      <trkpt lat="46.493415087461472" lon="8.472309540957212">
        <ele>1908.8299999999999</ele>
        <time>2018-08-05T07:10:04Z</time>
      </trkpt>
      <trkpt lat="46.493386505171657" lon="8.47241448238492">
        <ele>1910.76</ele>
        <time>2018-08-05T07:10:15Z</time>
      </trkpt>
      <trkpt lat="46.493376027792692" lon="8.472546832635999">
        <ele>1913.1600000000001</ele>
        <time>2018-08-05T07:10:29Z</time>
      </trkpt>
      <trkpt lat="46.493372088298202" lon="8.472547419369221">
        <ele>1914.1199999999999</ele>
        <time>2018-08-05T07:10:42Z</time>
      </trkpt>
      <trkpt lat="46.493447357788682" lon="8.472575414925814">
        <ele>1915.5599999999999</ele>
        <time>2018-08-05T07:10:53Z</time>
      </trkpt>
      <trkpt lat="46.493524722754955" lon="8.472589999437332">
        <ele>1917.01</ele>
        <time>2018-08-05T07:11:03Z</time>
      </trkpt>
      <trkpt lat="46.493615163490176" lon="8.472576001659036">
        <ele>1918.9300000000001</ele>
        <time>2018-08-05T07:11:15Z</time>
      </trkpt>
      <trkpt lat="46.493717757984996" lon="8.472603829577565">
        <ele>1921.3299999999999</ele>
        <time>2018-08-05T07:11:29Z</time>
      </trkpt>
      <trkpt lat="46.493803085759282" lon="8.472633585333824">
        <ele>1923.25</ele>
        <time>2018-08-05T07:11:41Z</time>
      </trkpt>
      <trkpt lat="46.493878103792667" lon="8.472686307504773">
        <ele>1925.1800000000001</ele>
        <time>2018-08-05T07:11:52Z</time>
      </trkpt>
      <trkpt lat="46.493883971124887" lon="8.472689157351852">
        <ele>1925.6600000000001</ele>
        <time>2018-08-05T07:11:54Z</time>
      </trkpt>
      <trkpt lat="46.493982542306185" lon="8.472670717164874">
        <ele>1927.5799999999999</ele>
        <time>2018-08-05T07:12:07Z</time>
      </trkpt>
      <trkpt lat="46.493984051048756" lon="8.472650516778231">
        <ele>1929.5</ele>
        <time>2018-08-05T07:12:17Z</time>
      </trkpt>
      <trkpt lat="46.493895035237074" lon="8.47260064445436">
        <ele>1931.4300000000001</ele>
        <time>2018-08-05T07:12:28Z</time>
      </trkpt>
      <trkpt lat="46.493852706626058" lon="8.4724863152951">
        <ele>1933.3499999999999</ele>
        <time>2018-08-05T07:12:41Z</time>
      </trkpt>
      <trkpt lat="46.493786741048098" lon="8.472403837367892">
        <ele>1935.75</ele>
        <time>2018-08-05T07:12:54Z</time>
      </trkpt>
      <trkpt lat="46.493780286982656" lon="8.472317755222321">
        <ele>1937.6700000000001</ele>
        <time>2018-08-05T07:13:04Z</time>
      </trkpt>
      <trkpt lat="46.49381959810853" lon="8.472235780209303">
        <ele>1939.1199999999999</ele>
        <time>2018-08-05T07:13:14Z</time>
      </trkpt>
      <trkpt lat="46.493862681090832" lon="8.472137041389942">
        <ele>1941.04</ele>
        <time>2018-08-05T07:13:26Z</time>
      </trkpt>
      <trkpt lat="46.493907272815704" lon="8.472048612311482">
        <ele>1942.48</ele>
        <time>2018-08-05T07:13:37Z</time>
      </trkpt>
      <trkpt lat="46.493942057713866" lon="8.471991783007979">
        <ele>1944.4000000000001</ele>
        <time>2018-08-05T07:13:46Z</time>
      </trkpt>
      <trkpt lat="46.493964353576303" lon="8.471910730004311">
        <ele>1945.8499999999999</ele>
        <time>2018-08-05T07:13:56Z</time>
      </trkpt>
      <trkpt lat="46.494009532034397" lon="8.471818529069424">
        <ele>1947.29</ele>
        <time>2018-08-05T07:14:07Z</time>
      </trkpt>
      <trkpt lat="46.4940697979182" lon="8.47174845635891">
        <ele>1949.6900000000001</ele>
        <time>2018-08-05T07:14:20Z</time>
      </trkpt>
      <trkpt lat="46.494096117094159" lon="8.471689615398645">
        <ele>1951.1300000000001</ele>
        <time>2018-08-05T07:14:30Z</time>
      </trkpt>
      <trkpt lat="46.494108773767948" lon="8.471662206575275">
        <ele>1951.6099999999999</ele>
        <time>2018-08-05T07:14:33Z</time>
      </trkpt>
      <trkpt lat="46.494176751002669" lon="8.471608813852072">
        <ele>1953.54</ele>
        <time>2018-08-05T07:14:44Z</time>
      </trkpt>
      <trkpt lat="46.494199885055423" lon="8.471576794981957">
        <ele>1954.5</ele>
        <time>2018-08-05T07:14:58Z</time>
      </trkpt>
      <trkpt lat="46.494285296648741" lon="8.471531616523862">
        <ele>1955.9400000000001</ele>
        <time>2018-08-05T07:15:09Z</time>
      </trkpt>
      <trkpt lat="46.494319410994649" lon="8.471475960686803">
        <ele>1957.3800000000001</ele>
        <time>2018-08-05T07:15:18Z</time>
      </trkpt>
      <trkpt lat="46.494350340217352" lon="8.471392057836056">
        <ele>1957.8599999999999</ele>
        <time>2018-08-05T07:15:29Z</time>
      </trkpt>
      <trkpt lat="46.494354112073779" lon="8.471359452232719">
        <ele>1958.3399999999999</ele>
        <time>2018-08-05T07:15:38Z</time>
      </trkpt>
      <trkpt lat="46.494378168135881" lon="8.471336318179965">
        <ele>1958.3399999999999</ele>
        <time>2018-08-05T07:15:49Z</time>
      </trkpt>
      <trkpt lat="46.494382107630372" lon="8.471319219097495">
        <ele>1957.8599999999999</ele>
        <time>2018-08-05T07:15:58Z</time>
      </trkpt>
      <trkpt lat="46.494346233084798" lon="8.471269262954593">
        <ele>1958.3399999999999</ele>
        <time>2018-08-05T07:16:21Z</time>
      </trkpt>
      <trkpt lat="46.494353776797652" lon="8.47129013389349">
        <ele>1959.3</ele>
        <time>2018-08-05T07:16:35Z</time>
      </trkpt>
      <trkpt lat="46.494377329945564" lon="8.471279656514525">
        <ele>1959.78</ele>
        <time>2018-08-05T07:16:58Z</time>
      </trkpt>
      <trkpt lat="46.494379341602325" lon="8.471269095316529">
        <ele>1959.78</ele>
        <time>2018-08-05T07:17:16Z</time>
      </trkpt>
      <trkpt lat="46.494349418208003" lon="8.47126817330718">
        <ele>1960.27</ele>
        <time>2018-08-05T07:17:31Z</time>
      </trkpt>
      <trkpt lat="46.494340198114514" lon="8.471297509968281">
        <ele>1960.27</ele>
        <time>2018-08-05T07:17:48Z</time>
      </trkpt>
      <trkpt lat="46.494353776797652" lon="8.471289211884141">
        <ele>1960.75</ele>
        <time>2018-08-05T07:18:06Z</time>
      </trkpt>
      <trkpt lat="46.494367439299822" lon="8.471285942941904">
        <ele>1961.23</ele>
        <time>2018-08-05T07:18:27Z</time>
      </trkpt>
      <trkpt lat="46.494382359087467" lon="8.471312681213021">
        <ele>1961.71</ele>
        <time>2018-08-05T07:18:49Z</time>
      </trkpt>
      <trkpt lat="46.494374563917518" lon="8.471319973468781">
        <ele>1962.1900000000001</ele>
        <time>2018-08-05T07:19:15Z</time>
      </trkpt>
      <trkpt lat="46.494354279711843" lon="8.471316369250417">
        <ele>1962.6700000000001</ele>
        <time>2018-08-05T07:19:23Z</time>
      </trkpt>
      <trkpt lat="46.49436391890049" lon="8.471302455291152">
        <ele>1962.6700000000001</ele>
        <time>2018-08-05T07:19:33Z</time>
      </trkpt>
      <trkpt lat="46.494342545047402" lon="8.471342017874122">
        <ele>1963.1500000000001</ele>
        <time>2018-08-05T07:19:42Z</time>
      </trkpt>
      <trkpt lat="46.494359560310841" lon="8.471326343715191">
        <ele>1963.1500000000001</ele>
        <time>2018-08-05T07:19:57Z</time>
      </trkpt>
      <trkpt lat="46.494332402944565" lon="8.471373366191983">
        <ele>1963.1500000000001</ele>
        <time>2018-08-05T07:20:11Z</time>
      </trkpt>
      <trkpt lat="46.494348831474781" lon="8.47139423713088">
        <ele>1963.6300000000001</ele>
        <time>2018-08-05T07:20:26Z</time>
      </trkpt>
      <trkpt lat="46.494329385459423" lon="8.471383843570948">
        <ele>1963.6300000000001</ele>
        <time>2018-08-05T07:20:36Z</time>
      </trkpt>
      <trkpt lat="46.49432142265141" lon="8.471410749480128">
        <ele>1964.1099999999999</ele>
        <time>2018-08-05T07:20:49Z</time>
      </trkpt>
      <trkpt lat="46.494346065446734" lon="8.471445450559259">
        <ele>1963.6300000000001</ele>
        <time>2018-08-05T07:21:01Z</time>
      </trkpt>
      <trkpt lat="46.4943668525666" lon="8.471479313448072">
        <ele>1964.1099999999999</ele>
        <time>2018-08-05T07:21:16Z</time>
      </trkpt>
      <trkpt lat="46.494356878101826" lon="8.471464980393648">
        <ele>1964.5899999999999</ele>
        <time>2018-08-05T07:21:33Z</time>
      </trkpt>
      <trkpt lat="46.494328295812011" lon="8.47142550162971">
        <ele>1964.5899999999999</ele>
        <time>2018-08-05T07:21:53Z</time>
      </trkpt>
      <trkpt lat="46.494356542825699" lon="8.471478307619691">
        <ele>1964.5899999999999</ele>
        <time>2018-08-05T07:22:01Z</time>
      </trkpt>
      <trkpt lat="46.494359895586967" lon="8.471496915444732">
        <ele>1964.5899999999999</ele>
        <time>2018-08-05T07:22:11Z</time>
      </trkpt>
      <trkpt lat="46.494344221428037" lon="8.471504794433713">
        <ele>1964.5899999999999</ele>
        <time>2018-08-05T07:22:31Z</time>
      </trkpt>
      <trkpt lat="46.494319075718522" lon="8.471496412530541">
        <ele>1965.0699999999999</ele>
        <time>2018-08-05T07:22:57Z</time>
      </trkpt>
      <trkpt lat="46.494303150102496" lon="8.471544021740556">
        <ele>1965.0699999999999</ele>
        <time>2018-08-05T07:23:13Z</time>
      </trkpt>
      <trkpt lat="46.494344556704164" lon="8.471463806927204">
        <ele>1965.55</ele>
        <time>2018-08-05T07:23:22Z</time>
      </trkpt>
      <trkpt lat="46.494347909465432" lon="8.471437320113182">
        <ele>1966.03</ele>
        <time>2018-08-05T07:23:36Z</time>
      </trkpt>
      <trkpt lat="46.494353944435716" lon="8.47145039588213">
        <ele>1965.0699999999999</ele>
        <time>2018-08-05T07:23:44Z</time>
      </trkpt>
      <trkpt lat="46.494351932778955" lon="8.471459029242396">
        <ele>1965.55</ele>
        <time>2018-08-05T07:24:03Z</time>
      </trkpt>
      <trkpt lat="46.494345646351576" lon="8.47145089879632">
        <ele>1966.03</ele>
        <time>2018-08-05T07:24:19Z</time>
      </trkpt>
      <trkpt lat="46.494366936385632" lon="8.471451317891479">
        <ele>1966.03</ele>
        <time>2018-08-05T07:24:40Z</time>
      </trkpt>
      <trkpt lat="46.494389483705163" lon="8.471442181617022">
        <ele>1966.03</ele>
        <time>2018-08-05T07:24:59Z</time>
      </trkpt>
      <trkpt lat="46.49436391890049" lon="8.471454754471779">
        <ele>1966.03</ele>
        <time>2018-08-05T07:25:18Z</time>
      </trkpt>
      <trkpt lat="46.494363080710173" lon="8.471445115283132">
        <ele>1966.51</ele>
        <time>2018-08-05T07:25:35Z</time>
      </trkpt>
      <trkpt lat="46.494359225034714" lon="8.471447881311178">
        <ele>1966.99</ele>
        <time>2018-08-05T07:25:52Z</time>
      </trkpt>
      <trkpt lat="46.494348999112844" lon="8.471433883532882">
        <ele>1967.48</ele>
        <time>2018-08-05T07:26:05Z</time>
      </trkpt>
      <trkpt lat="46.494339695200324" lon="8.471401697024703">
        <ele>1967.96</ele>
        <time>2018-08-05T07:26:24Z</time>
      </trkpt>
      <trkpt lat="46.494340281933546" lon="8.471340509131551">
        <ele>1967.96</ele>
        <time>2018-08-05T07:26:36Z</time>
      </trkpt>
      <trkpt lat="46.494331397116184" lon="8.471294827759266">
        <ele>1968.9200000000001</ele>
        <time>2018-08-05T07:26:47Z</time>
      </trkpt>
      <trkpt lat="46.494352519512177" lon="8.471211930736899">
        <ele>1969.8800000000001</ele>
        <time>2018-08-05T07:26:59Z</time>
      </trkpt>
      <trkpt lat="46.494392165914178" lon="8.47116750665009">
        <ele>1970.8399999999999</ele>
        <time>2018-08-05T07:27:07Z</time>
      </trkpt>
      <trkpt lat="46.494442792609334" lon="8.471212517470121">
        <ele>1972.28</ele>
        <time>2018-08-05T07:27:17Z</time>
      </trkpt>
      <trkpt lat="46.494475062936544" lon="8.471241015940905">
        <ele>1973.72</ele>
        <time>2018-08-05T07:27:27Z</time>
      </trkpt>
      <trkpt lat="46.494480259716511" lon="8.471215199679136">
        <ele>1974.2</ele>
        <time>2018-08-05T07:27:29Z</time>
      </trkpt>
      <trkpt lat="46.494491910561919" lon="8.471147054806352">
        <ele>1974.6900000000001</ele>
        <time>2018-08-05T07:27:34Z</time>
      </trkpt>
      <trkpt lat="46.494561564177275" lon="8.471059631556273">
        <ele>1975.6500000000001</ele>
        <time>2018-08-05T07:27:44Z</time>
      </trkpt>
      <trkpt lat="46.494607580825686" lon="8.471022499725223">
        <ele>1976.1300000000001</ele>
        <time>2018-08-05T07:27:51Z</time>
      </trkpt>
      <trkpt lat="46.494688298553228" lon="8.471013866364956">
        <ele>1977.5699999999999</ele>
        <time>2018-08-05T07:28:02Z</time>
      </trkpt>
      <trkpt lat="46.494756694883108" lon="8.470961479470134">
        <ele>1979.01</ele>
        <time>2018-08-05T07:28:13Z</time>
      </trkpt>
      <trkpt lat="46.494829701259732" lon="8.470941781997681">
        <ele>1979.97</ele>
        <time>2018-08-05T07:28:22Z</time>
      </trkpt>
      <trkpt lat="46.494905557483435" lon="8.470992827787995">
        <ele>1980.9300000000001</ele>
        <time>2018-08-05T07:28:32Z</time>
      </trkpt>
      <trkpt lat="46.494972361251712" lon="8.470980087295175">
        <ele>1982.3800000000001</ele>
        <time>2018-08-05T07:28:42Z</time>
      </trkpt>
      <trkpt lat="46.495022736489773" lon="8.470926694571972">
        <ele>1983.8199999999999</ele>
        <time>2018-08-05T07:28:52Z</time>
      </trkpt>
      <trkpt lat="46.49504117667675" lon="8.470900626853108">
        <ele>1984.3</ele>
        <time>2018-08-05T07:28:56Z</time>
      </trkpt>
      <trkpt lat="46.495093815028667" lon="8.470860896632075">
        <ele>1985.74</ele>
        <time>2018-08-05T07:29:04Z</time>
      </trkpt>
      <trkpt lat="46.495100436732173" lon="8.470823178067803">
        <ele>1985.26</ele>
        <time>2018-08-05T07:29:08Z</time>
      </trkpt>
      <trkpt lat="46.495152907446027" lon="8.470744723454118">
        <ele>1985.26</ele>
        <time>2018-08-05T07:29:18Z</time>
      </trkpt>
      <trkpt lat="46.495176628232002" lon="8.470720332115889">
        <ele>1985.74</ele>
        <time>2018-08-05T07:29:22Z</time>
      </trkpt>
      <trkpt lat="46.495186937972903" lon="8.470701556652784">
        <ele>1985.74</ele>
        <time>2018-08-05T07:29:24Z</time>
      </trkpt>
      <trkpt lat="46.495258770883083" lon="8.470649169757962">
        <ele>1987.1800000000001</ele>
        <time>2018-08-05T07:29:36Z</time>
      </trkpt>
      <trkpt lat="46.495322976261377" lon="8.47061287611723">
        <ele>1988.1400000000001</ele>
        <time>2018-08-05T07:29:45Z</time>
      </trkpt>
      <trkpt lat="46.495385505259037" lon="8.470545150339603">
        <ele>1989.5899999999999</ele>
        <time>2018-08-05T07:29:58Z</time>
      </trkpt>
      <trkpt lat="46.495437305420637" lon="8.470523776486516">
        <ele>1990.55</ele>
        <time>2018-08-05T07:30:07Z</time>
      </trkpt>
      <trkpt lat="46.495477538555861" lon="8.470494775101543">
        <ele>1991.51</ele>
        <time>2018-08-05T07:30:18Z</time>
      </trkpt>
      <trkpt lat="46.495517855510116" lon="8.470483710989356">
        <ele>1991.99</ele>
        <time>2018-08-05T07:30:27Z</time>
      </trkpt>
      <trkpt lat="46.495527578517795" lon="8.470399053767324">
        <ele>1992.47</ele>
        <time>2018-08-05T07:30:37Z</time>
      </trkpt>
      <trkpt lat="46.495542414486408" lon="8.47037348896265">
        <ele>1993.4300000000001</ele>
        <time>2018-08-05T07:30:50Z</time>
      </trkpt>
      <trkpt lat="46.495600417256355" lon="8.470283634960651">
        <ele>1994.3900000000001</ele>
        <time>2018-08-05T07:31:00Z</time>
      </trkpt>
      <trkpt lat="46.495649870485067" lon="8.470214400440455">
        <ele>1995.8299999999999</ele>
        <time>2018-08-05T07:31:09Z</time>
      </trkpt>
      <trkpt lat="46.495706280693412" lon="8.470143657177687">
        <ele>1996.8</ele>
        <time>2018-08-05T07:31:20Z</time>
      </trkpt>
      <trkpt lat="46.495732935145497" lon="8.470070483162999">
        <ele>1997.28</ele>
        <time>2018-08-05T07:31:28Z</time>
      </trkpt>
      <trkpt lat="46.495775012299418" lon="8.470007199794054">
        <ele>1997.28</ele>
        <time>2018-08-05T07:31:35Z</time>
      </trkpt>
      <trkpt lat="46.495801080018282" lon="8.469912819564343">
        <ele>1997.76</ele>
        <time>2018-08-05T07:31:44Z</time>
      </trkpt>
      <trkpt lat="46.495833601802588" lon="8.469823803752661">
        <ele>1998.24</ele>
        <time>2018-08-05T07:31:54Z</time>
      </trkpt>
      <trkpt lat="46.495870482176542" lon="8.469730261713266">
        <ele>1998.72</ele>
        <time>2018-08-05T07:32:04Z</time>
      </trkpt>
      <trkpt lat="46.495909541845322" lon="8.469678377732635">
        <ele>1999.2</ele>
        <time>2018-08-05T07:32:11Z</time>
      </trkpt>
      <trkpt lat="46.495967963710427" lon="8.469603192061186">
        <ele>2001.5999999999999</ele>
        <time>2018-08-05T07:32:22Z</time>
      </trkpt>
      <trkpt lat="46.49601548910141" lon="8.469549296423793">
        <ele>2002.0799999999999</ele>
        <time>2018-08-05T07:32:32Z</time>
      </trkpt>
      <trkpt lat="46.496023200452328" lon="8.469504034146667">
        <ele>2002.0799999999999</ele>
        <time>2018-08-05T07:32:43Z</time>
      </trkpt>
      <trkpt lat="46.496097464114428" lon="8.469486180692911">
        <ele>2004.01</ele>
        <time>2018-08-05T07:32:54Z</time>
      </trkpt>
      <trkpt lat="46.496128728613257" lon="8.469448629766703">
        <ele>2005.45</ele>
        <time>2018-08-05T07:33:02Z</time>
      </trkpt>
      <trkpt lat="46.496191089972854" lon="8.469402780756354">
        <ele>2006.4100000000001</ele>
        <time>2018-08-05T07:33:12Z</time>
      </trkpt>
      <trkpt lat="46.496248757466674" lon="8.469399847090244">
        <ele>2006.8900000000001</ele>
        <time>2018-08-05T07:33:23Z</time>
      </trkpt>
      <trkpt lat="46.49630575440824" lon="8.46939230337739">
        <ele>2009.77</ele>
        <time>2018-08-05T07:33:32Z</time>
      </trkpt>
      <trkpt lat="46.496339868754148" lon="8.469359194859862">
        <ele>2010.25</ele>
        <time>2018-08-05T07:33:39Z</time>
      </trkpt>
      <trkpt lat="46.496398290619254" lon="8.469332624226809">
        <ele>2011.7</ele>
        <time>2018-08-05T07:33:50Z</time>
      </trkpt>
      <trkpt lat="46.496445229277015" lon="8.469319632276893">
        <ele>2013.1400000000001</ele>
        <time>2018-08-05T07:33:59Z</time>
      </trkpt>
      <trkpt lat="46.496474901214242" lon="8.469271436333656">
        <ele>2014.0999999999999</ele>
        <time>2018-08-05T07:34:09Z</time>
      </trkpt>
      <trkpt lat="46.49648655205965" lon="8.469241177663207">
        <ele>2014.0999999999999</ele>
        <time>2018-08-05T07:34:13Z</time>
      </trkpt>
      <trkpt lat="46.49656031280756" lon="8.469176972284913">
        <ele>2016.5</ele>
        <time>2018-08-05T07:34:23Z</time>
      </trkpt>
      <trkpt lat="46.496610185131431" lon="8.469121232628822">
        <ele>2016.02</ele>
        <time>2018-08-05T07:34:33Z</time>
      </trkpt>
      <trkpt lat="46.496659805998206" lon="8.469077982008457">
        <ele>2017.46</ele>
        <time>2018-08-05T07:34:44Z</time>
      </trkpt>
      <trkpt lat="46.496690651401877" lon="8.469040095806122">
        <ele>2018.4300000000001</ele>
        <time>2018-08-05T07:34:55Z</time>
      </trkpt>
      <trkpt lat="46.496699117124081" lon="8.469025176018477">
        <ele>2018.9100000000001</ele>
        <time>2018-08-05T07:34:57Z</time>
      </trkpt>
      <trkpt lat="46.496730046346784" lon="8.468972705304623">
        <ele>2019.8699999999999</ele>
        <time>2018-08-05T07:35:07Z</time>
      </trkpt>
      <trkpt lat="46.49678461253643" lon="8.468938926234841">
        <ele>2021.3099999999999</ele>
        <time>2018-08-05T07:35:16Z</time>
      </trkpt>
      <trkpt lat="46.496813111007214" lon="8.468870110809803">
        <ele>2022.27</ele>
        <time>2018-08-05T07:35:26Z</time>
      </trkpt>
      <trkpt lat="46.496865497902036" lon="8.468764163553715">
        <ele>2023.71</ele>
        <time>2018-08-05T07:35:36Z</time>
      </trkpt>
      <trkpt lat="46.496861139312387" lon="8.468671208247542">
        <ele>2024.1900000000001</ele>
        <time>2018-08-05T07:35:46Z</time>
      </trkpt>
      <trkpt lat="46.496883267536759" lon="8.468583030626178">
        <ele>2025.6400000000001</ele>
        <time>2018-08-05T07:35:58Z</time>
      </trkpt>
      <trkpt lat="46.496909921988845" lon="8.468506168574095">
        <ele>2027.5599999999999</ele>
        <time>2018-08-05T07:36:11Z</time>
      </trkpt>
      <trkpt lat="46.496917465701699" lon="8.468431569635868">
        <ele>2029</ele>
        <time>2018-08-05T07:36:21Z</time>
      </trkpt>
      <trkpt lat="46.496935235336423" lon="8.46830508671701">
        <ele>2029.48</ele>
        <time>2018-08-05T07:36:33Z</time>
      </trkpt>
      <trkpt lat="46.496966416016221" lon="8.468218082562089">
        <ele>2029.48</ele>
        <time>2018-08-05T07:36:42Z</time>
      </trkpt>
      <trkpt lat="46.49699566885829" lon="8.468125881627202">
        <ele>2030.4400000000001</ele>
        <time>2018-08-05T07:36:51Z</time>
      </trkpt>
      <trkpt lat="46.496998434886336" lon="8.468040721490979">
        <ele>2031.4000000000001</ele>
        <time>2018-08-05T07:37:00Z</time>
      </trkpt>
      <trkpt lat="46.497006565332413" lon="8.46796989440918">
        <ele>2031.8800000000001</ele>
        <time>2018-08-05T07:37:10Z</time>
      </trkpt>
      <trkpt lat="46.497027771547437" lon="8.467887751758099">
        <ele>2032.8399999999999</ele>
        <time>2018-08-05T07:37:20Z</time>
      </trkpt>
      <trkpt lat="46.497034560889006" lon="8.467786079272628">
        <ele>2033.8099999999999</ele>
        <time>2018-08-05T07:37:31Z</time>
      </trkpt>
      <trkpt lat="46.497055599465966" lon="8.467724053189158">
        <ele>2035.25</ele>
        <time>2018-08-05T07:37:40Z</time>
      </trkpt>
      <trkpt lat="46.49705434218049" lon="8.467658590525389">
        <ele>2037.1700000000001</ele>
        <time>2018-08-05T07:37:52Z</time>
      </trkpt>
      <trkpt lat="46.497102286666632" lon="8.467672923579812">
        <ele>2038.6099999999999</ele>
        <time>2018-08-05T07:38:01Z</time>
      </trkpt>
      <trkpt lat="46.497131120413542" lon="8.467719694599509">
        <ele>2039.5699999999999</ele>
        <time>2018-08-05T07:38:08Z</time>
      </trkpt>
      <trkpt lat="46.497145621106029" lon="8.467719694599509">
        <ele>2040.54</ele>
        <time>2018-08-05T07:38:17Z</time>
      </trkpt>
      <trkpt lat="46.497196331620216" lon="8.467730255797505">
        <ele>2042.46</ele>
        <time>2018-08-05T07:38:29Z</time>
      </trkpt>
      <trkpt lat="46.49720773100853" lon="8.467759173363447">
        <ele>2043.4200000000001</ele>
        <time>2018-08-05T07:38:40Z</time>
      </trkpt>
      <trkpt lat="46.497242264449596" lon="8.467750288546085">
        <ele>2044.8599999999999</ele>
        <time>2018-08-05T07:38:48Z</time>
      </trkpt>
      <trkpt lat="46.497270343825221" lon="8.467702679336071">
        <ele>2046.3</ele>
        <time>2018-08-05T07:38:58Z</time>
      </trkpt>
      <trkpt lat="46.49728937074542" lon="8.46766697242856">
        <ele>2048.23</ele>
        <time>2018-08-05T07:39:09Z</time>
      </trkpt>
      <trkpt lat="46.497301775962114" lon="8.467687927186489">
        <ele>2049.1900000000001</ele>
        <time>2018-08-05T07:39:13Z</time>
      </trkpt>
      <trkpt lat="46.497316192835569" lon="8.467703014612198">
        <ele>2049.1900000000001</ele>
        <time>2018-08-05T07:39:15Z</time>
      </trkpt>
      <trkpt lat="46.497332789003849" lon="8.467711564153433">
        <ele>2049.6700000000001</ele>
        <time>2018-08-05T07:39:17Z</time>
      </trkpt>
      <trkpt lat="46.497343014925718" lon="8.467724472284317">
        <ele>2050.1500000000001</ele>
        <time>2018-08-05T07:39:19Z</time>
      </trkpt>
      <trkpt lat="46.497367490082979" lon="8.467773087322712">
        <ele>2051.5900000000001</ele>
        <time>2018-08-05T07:39:29Z</time>
      </trkpt>
      <trkpt lat="46.497385008260608" lon="8.467776523903012">
        <ele>2052.5500000000002</ele>
        <time>2018-08-05T07:39:38Z</time>
      </trkpt>
      <trkpt lat="46.497371010482311" lon="8.467828743159771">
        <ele>2054.4699999999998</ele>
        <time>2018-08-05T07:39:49Z</time>
      </trkpt>
      <trkpt lat="46.497400347143412" lon="8.467792868614197">
        <ele>2055.4400000000001</ele>
        <time>2018-08-05T07:39:58Z</time>
      </trkpt>
      <trkpt lat="46.497447201982141" lon="8.467819606885314">
        <ele>2056.4000000000001</ele>
        <time>2018-08-05T07:40:07Z</time>
      </trkpt>
      <trkpt lat="46.497463211417198" lon="8.46782136708498">
        <ele>2057.3600000000001</ele>
        <time>2018-08-05T07:40:13Z</time>
      </trkpt>
      <trkpt lat="46.497496319934726" lon="8.467857493087649">
        <ele>2058.8000000000002</ele>
        <time>2018-08-05T07:40:23Z</time>
      </trkpt>
      <trkpt lat="46.497496655210853" lon="8.467882471159101">
        <ele>2060.2399999999998</ele>
        <time>2018-08-05T07:40:34Z</time>
      </trkpt>
      <trkpt lat="46.497493218630552" lon="8.467922704294324">
        <ele>2060.7199999999998</ele>
        <time>2018-08-05T07:40:38Z</time>
      </trkpt>
      <trkpt lat="46.497519202530384" lon="8.467943239957094">
        <ele>2061.1999999999998</ele>
        <time>2018-08-05T07:40:42Z</time>
      </trkpt>
      <trkpt lat="46.497554574161768" lon="8.468032674863935">
        <ele>2062.6500000000001</ele>
        <time>2018-08-05T07:40:52Z</time>
      </trkpt>
      <trkpt lat="46.497553233057261" lon="8.468015324324369">
        <ele>2063.6100000000001</ele>
        <time>2018-08-05T07:41:01Z</time>
      </trkpt>
      <trkpt lat="46.497556669637561" lon="8.467974420636892">
        <ele>2064.5700000000002</ele>
        <time>2018-08-05T07:41:16Z</time>
      </trkpt>
      <trkpt lat="46.497598327696323" lon="8.46795522607863">
        <ele>2066.4899999999998</ele>
        <time>2018-08-05T07:41:25Z</time>
      </trkpt>
      <trkpt lat="46.497638812288642" lon="8.467950951308012">
        <ele>2068.4099999999999</ele>
        <time>2018-08-05T07:41:35Z</time>
      </trkpt>
      <trkpt lat="46.497643673792481" lon="8.46796746365726">
        <ele>2068.8899999999999</ele>
        <time>2018-08-05T07:41:44Z</time>
      </trkpt>
      <trkpt lat="46.497667394578457" lon="8.467921949923039">
        <ele>2070.8200000000002</ele>
        <time>2018-08-05T07:41:54Z</time>
      </trkpt>
      <trkpt lat="46.497716512531042" lon="8.467936450615525">
        <ele>2072.7399999999998</ele>
        <time>2018-08-05T07:42:07Z</time>
      </trkpt>
      <trkpt lat="46.497744843363762" lon="8.467962937429547">
        <ele>2074.6599999999999</ele>
        <time>2018-08-05T07:42:18Z</time>
      </trkpt>
      <trkpt lat="46.497752051800489" lon="8.46791272982955">
        <ele>2076.5900000000001</ele>
        <time>2018-08-05T07:42:27Z</time>
      </trkpt>
      <trkpt lat="46.49776085279882" lon="8.467859169468284">
        <ele>2077.5500000000002</ele>
        <time>2018-08-05T07:42:38Z</time>
      </trkpt>
      <trkpt lat="46.49775649420917" lon="8.467811392620206">
        <ele>2078.0300000000002</ele>
        <time>2018-08-05T07:42:46Z</time>
      </trkpt>
      <trkpt lat="46.497739730402827" lon="8.467774428427219">
        <ele>2079.4699999999998</ele>
        <time>2018-08-05T07:42:57Z</time>
      </trkpt>
      <trkpt lat="46.497750375419855" lon="8.467761436477304">
        <ele>2079.9499999999998</ele>
        <time>2018-08-05T07:43:11Z</time>
      </trkpt>
      <trkpt lat="46.497731180861592" lon="8.467735284939408">
        <ele>2080.9099999999999</ele>
        <time>2018-08-05T07:43:23Z</time>
      </trkpt>
      <trkpt lat="46.497722128406167" lon="8.467695051804185">
        <ele>2081.8699999999999</ele>
        <time>2018-08-05T07:43:34Z</time>
      </trkpt>
      <trkpt lat="46.497765379026532" lon="8.467663619667292">
        <ele>2083.3099999999999</ele>
        <time>2018-08-05T07:43:44Z</time>
      </trkpt>
      <trkpt lat="46.497758673503995" lon="8.467637887224555">
        <ele>2084.7600000000002</ele>
        <time>2018-08-05T07:43:56Z</time>
      </trkpt>
      <trkpt lat="46.497769486159086" lon="8.467574687674642">
        <ele>2086.6799999999998</ele>
        <time>2018-08-05T07:44:05Z</time>
      </trkpt>
      <trkpt lat="46.497794548049569" lon="8.46757267601788">
        <ele>2087.6399999999999</ele>
        <time>2018-08-05T07:44:13Z</time>
      </trkpt>
      <trkpt lat="46.497835703194141" lon="8.467606538906694">
        <ele>2088.5999999999999</ele>
        <time>2018-08-05T07:44:24Z</time>
      </trkpt>
      <trkpt lat="46.49782388471067" lon="8.467544093728066">
        <ele>2091</ele>
        <time>2018-08-05T07:44:37Z</time>
      </trkpt>
      <trkpt lat="46.497854813933372" lon="8.467531185597181">
        <ele>2091.9699999999998</ele>
        <time>2018-08-05T07:44:46Z</time>
      </trkpt>
      <trkpt lat="46.497897310182452" lon="8.467535376548767">
        <ele>2093.4099999999999</ele>
        <time>2018-08-05T07:44:56Z</time>
      </trkpt>
      <trkpt lat="46.497921701520681" lon="8.467502854764462">
        <ele>2094.3699999999999</ele>
        <time>2018-08-05T07:45:05Z</time>
      </trkpt>
      <trkpt lat="46.497935196384788" lon="8.467465220019221">
        <ele>2095.8099999999999</ele>
        <time>2018-08-05T07:45:16Z</time>
      </trkpt>
      <trkpt lat="46.497973836958408" lon="8.467479636892676">
        <ele>2097.73</ele>
        <time>2018-08-05T07:45:28Z</time>
      </trkpt>
      <trkpt lat="46.49800468236208" lon="8.46753403544426">
        <ele>2099.1799999999998</ele>
        <time>2018-08-05T07:45:40Z</time>
      </trkpt>
      <trkpt lat="46.498031001538038" lon="8.467510063201189">
        <ele>2100.1399999999999</ele>
        <time>2018-08-05T07:45:53Z</time>
      </trkpt>
      <trkpt lat="46.498056147247553" lon="8.467506123706698">
        <ele>2101.5799999999999</ele>
        <time>2018-08-05T07:46:02Z</time>
      </trkpt>
      <trkpt lat="46.49807752110064" lon="8.467532945796847">
        <ele>2103.02</ele>
        <time>2018-08-05T07:46:12Z</time>
      </trkpt>
      <trkpt lat="46.498110461980104" lon="8.467539818957448">
        <ele>2104.46</ele>
        <time>2018-08-05T07:46:24Z</time>
      </trkpt>
      <trkpt lat="46.49812538176775" lon="8.467574687674642">
        <ele>2106.3899999999999</ele>
        <time>2018-08-05T07:46:34Z</time>
      </trkpt>
      <trkpt lat="46.498140469193459" lon="8.467589104548097">
        <ele>2107.3499999999999</ele>
        <time>2018-08-05T07:46:46Z</time>
      </trkpt>
      <trkpt lat="46.49817232042551" lon="8.467580387368798">
        <ele>2109.27</ele>
        <time>2018-08-05T07:46:56Z</time>
      </trkpt>
      <trkpt lat="46.498201154172421" lon="8.467680467292666">
        <ele>2111.1900000000001</ele>
        <time>2018-08-05T07:47:09Z</time>
      </trkpt>
      <trkpt lat="46.49822554551065" lon="8.467747857794166">
        <ele>2112.1500000000001</ele>
        <time>2018-08-05T07:47:19Z</time>
      </trkpt>
      <trkpt lat="46.498226886615157" lon="8.467759676277638">
        <ele>2113.1199999999999</ele>
        <time>2018-08-05T07:47:30Z</time>
      </trkpt>
      <trkpt lat="46.498236106708646" lon="8.467765459790826">
        <ele>2114.0799999999999</ele>
        <time>2018-08-05T07:47:37Z</time>
      </trkpt>
      <trkpt lat="46.49825245141983" lon="8.467870065942407">
        <ele>2115.52</ele>
        <time>2018-08-05T07:47:47Z</time>
      </trkpt>
      <trkpt lat="46.498261084780097" lon="8.467892780900002">
        <ele>2116.48</ele>
        <time>2018-08-05T07:47:56Z</time>
      </trkpt>
      <trkpt lat="46.49828078225255" lon="8.467928487807512">
        <ele>2118.4000000000001</ele>
        <time>2018-08-05T07:48:07Z</time>
      </trkpt>
      <trkpt lat="46.498297210782766" lon="8.467969223856926">
        <ele>2119.3600000000001</ele>
        <time>2018-08-05T07:48:17Z</time>
      </trkpt>
      <trkpt lat="46.498287236317992" lon="8.467998309060931">
        <ele>2120.3200000000002</ele>
        <time>2018-08-05T07:48:24Z</time>
      </trkpt>
      <trkpt lat="46.498335432261229" lon="8.468017252162099">
        <ele>2121.77</ele>
        <time>2018-08-05T07:48:33Z</time>
      </trkpt>
      <trkpt lat="46.498353704810143" lon="8.468026556074619">
        <ele>2122.73</ele>
        <time>2018-08-05T07:48:40Z</time>
      </trkpt>
      <trkpt lat="46.498393015936017" lon="8.468102412298322">
        <ele>2124.1700000000001</ele>
        <time>2018-08-05T07:48:51Z</time>
      </trkpt>
      <trkpt lat="46.498422520235181" lon="8.468054132536054">
        <ele>2125.6100000000001</ele>
        <time>2018-08-05T07:49:00Z</time>
      </trkpt>
      <trkpt lat="46.498430650681257" lon="8.468058155849576">
        <ele>2127.0500000000002</ele>
        <time>2018-08-05T07:49:10Z</time>
      </trkpt>
      <trkpt lat="46.498461160808802" lon="8.467997973784804">
        <ele>2128.5</ele>
        <time>2018-08-05T07:49:20Z</time>
      </trkpt>
      <trkpt lat="46.498517151921988" lon="8.467984143644571">
        <ele>2129.9400000000001</ele>
        <time>2018-08-05T07:49:30Z</time>
      </trkpt>
      <trkpt lat="46.498544225469232" lon="8.46801876090467">
        <ele>2130.9000000000001</ele>
        <time>2018-08-05T07:49:39Z</time>
      </trkpt>
      <trkpt lat="46.498568030074239" lon="8.467964781448245">
        <ele>2131.8600000000001</ele>
        <time>2018-08-05T07:49:51Z</time>
      </trkpt>
      <trkpt lat="46.498604491353035" lon="8.467980958521366">
        <ele>2133.3000000000002</ele>
        <time>2018-08-05T07:50:02Z</time>
      </trkpt>
      <trkpt lat="46.49862821213901" lon="8.467906611040235">
        <ele>2135.23</ele>
        <time>2018-08-05T07:50:12Z</time>
      </trkpt>
      <trkpt lat="46.498623853549361" lon="8.467868305742741">
        <ele>2136.6700000000001</ele>
        <time>2018-08-05T07:50:21Z</time>
      </trkpt>
      <trkpt lat="46.498628547415137" lon="8.467800412327051">
        <ele>2139.0700000000002</ele>
        <time>2018-08-05T07:50:31Z</time>
      </trkpt>
      <trkpt lat="46.498640784993768" lon="8.46771189942956">
        <ele>2140.0300000000002</ele>
        <time>2018-08-05T07:50:41Z</time>
      </trkpt>
      <trkpt lat="46.498613627627492" lon="8.467659931629896">
        <ele>2140.9899999999998</ele>
        <time>2018-08-05T07:50:51Z</time>
      </trkpt>
      <trkpt lat="46.498587727546692" lon="8.467548955231905">
        <ele>2142.4400000000001</ele>
        <time>2018-08-05T07:51:03Z</time>
      </trkpt>
      <trkpt lat="46.498604491353035" lon="8.467465387657285">
        <ele>2144.3600000000001</ele>
        <time>2018-08-05T07:51:15Z</time>
      </trkpt>
      <trkpt lat="46.498629553243518" lon="8.467365307733417">
        <ele>2145.3200000000002</ele>
        <time>2018-08-05T07:51:25Z</time>
      </trkpt>
      <trkpt lat="46.498649166896939" lon="8.467242261394858">
        <ele>2145.8000000000002</ele>
        <time>2018-08-05T07:51:36Z</time>
      </trkpt>
      <trkpt lat="46.498660566285253" lon="8.467145198956132">
        <ele>2146.7600000000002</ele>
        <time>2018-08-05T07:51:47Z</time>
      </trkpt>
      <trkpt lat="46.498651849105954" lon="8.467054422944784">
        <ele>2148.1999999999998</ele>
        <time>2018-08-05T07:52:00Z</time>
      </trkpt>
      <trkpt lat="46.498628463596106" lon="8.466946464031935">
        <ele>2149.1599999999999</ele>
        <time>2018-08-05T07:52:12Z</time>
      </trkpt>
      <trkpt lat="46.498638857156038" lon="8.466883851215243">
        <ele>2150.6100000000001</ele>
        <time>2018-08-05T07:52:23Z</time>
      </trkpt>
      <trkpt lat="46.498618740588427" lon="8.466832051053643">
        <ele>2153.0100000000002</ele>
        <time>2018-08-05T07:52:32Z</time>
      </trkpt>
      <trkpt lat="46.498605832457542" lon="8.466783352196217">
        <ele>2153.0100000000002</ele>
        <time>2018-08-05T07:52:42Z</time>
      </trkpt>
      <trkpt lat="46.498604323714972" lon="8.466727193444967">
        <ele>2154.9299999999998</ele>
        <time>2018-08-05T07:52:52Z</time>
      </trkpt>
      <trkpt lat="46.49860817939043" lon="8.466741526499391">
        <ele>2154.9299999999998</ele>
        <time>2018-08-05T07:53:09Z</time>
      </trkpt>
      <trkpt lat="46.498615220189095" lon="8.466680338606238">
        <ele>2156.3699999999999</ele>
        <time>2018-08-05T07:53:21Z</time>
      </trkpt>
      <trkpt lat="46.49862234480679" lon="8.466626694425941">
        <ele>2158.7800000000002</ele>
        <time>2018-08-05T07:53:33Z</time>
      </trkpt>
      <trkpt lat="46.498660482466221" lon="8.46656508743763">
        <ele>2160.6999999999998</ele>
        <time>2018-08-05T07:53:45Z</time>
      </trkpt>
      <trkpt lat="46.498663332313299" lon="8.466516891494393">
        <ele>2162.1399999999999</ele>
        <time>2018-08-05T07:53:55Z</time>
      </trkpt>
      <trkpt lat="46.498646819964051" lon="8.466491242870688">
        <ele>2162.6199999999999</ele>
        <time>2018-08-05T07:54:04Z</time>
      </trkpt>
      <trkpt lat="46.498587979003787" lon="8.466416643932462">
        <ele>2163.0999999999999</ele>
        <time>2018-08-05T07:54:15Z</time>
      </trkpt>
      <trkpt lat="46.498607089743018" lon="8.466387977823615">
        <ele>2163.0999999999999</ele>
        <time>2018-08-05T07:54:35Z</time>
      </trkpt>
      <trkpt lat="46.498612454161048" lon="8.466369537636638">
        <ele>2163.5799999999999</ele>
        <time>2018-08-05T07:54:49Z</time>
      </trkpt>
      <trkpt lat="46.498661320656538" lon="8.466320754960179">
        <ele>2165.5100000000002</ele>
        <time>2018-08-05T07:54:59Z</time>
      </trkpt>
      <trkpt lat="46.498697949573398" lon="8.466288484632969">
        <ele>2166.9499999999998</ele>
        <time>2018-08-05T07:55:11Z</time>
      </trkpt>
      <trkpt lat="46.498731812462211" lon="8.466285550966859">
        <ele>2169.3499999999999</ele>
        <time>2018-08-05T07:55:21Z</time>
      </trkpt>
      <trkpt lat="46.498787216842175" lon="8.466371297836304">
        <ele>2170.79</ele>
        <time>2018-08-05T07:55:32Z</time>
      </trkpt>
      <trkpt lat="46.498831221833825" lon="8.466301979497075">
        <ele>2172.7199999999998</ele>
        <time>2018-08-05T07:55:45Z</time>
      </trkpt>
      <trkpt lat="46.498855361714959" lon="8.466298542916775">
        <ele>2174.1599999999999</ele>
        <time>2018-08-05T07:55:54Z</time>
      </trkpt>
      <trkpt lat="46.498889056965709" lon="8.466255124658346">
        <ele>2175.5999999999999</ele>
        <time>2018-08-05T07:56:04Z</time>
      </trkpt>
      <trkpt lat="46.498920656740665" lon="8.466200307011604">
        <ele>2177.52</ele>
        <time>2018-08-05T07:56:14Z</time>
      </trkpt>
      <trkpt lat="46.498969774693251" lon="8.466178262606263">
        <ele>2179.4499999999998</ele>
        <time>2018-08-05T07:56:24Z</time>
      </trkpt>
      <trkpt lat="46.499011600390077" lon="8.466192930936813">
        <ele>2181.3699999999999</ele>
        <time>2018-08-05T07:56:35Z</time>
      </trkpt>
      <trkpt lat="46.49903230369091" lon="8.46619619987905">
        <ele>2182.3299999999999</ele>
        <time>2018-08-05T07:56:44Z</time>
      </trkpt>
      <trkpt lat="46.499063149094582" lon="8.4662005584687">
        <ele>2184.25</ele>
        <time>2018-08-05T07:56:55Z</time>
      </trkpt>
      <trkpt lat="46.499073039740324" lon="8.466133922338486">
        <ele>2185.6900000000001</ele>
        <time>2018-08-05T07:57:08Z</time>
      </trkpt>
      <trkpt lat="46.499112183228135" lon="8.466147249564529">
        <ele>2187.6199999999999</ele>
        <time>2018-08-05T07:57:18Z</time>
      </trkpt>
      <trkpt lat="46.499135065823793" lon="8.46613266505301">
        <ele>2188.0999999999999</ele>
        <time>2018-08-05T07:57:28Z</time>
      </trkpt>
      <trkpt lat="46.499137412756681" lon="8.466120176017284">
        <ele>2188.0999999999999</ele>
        <time>2018-08-05T07:57:39Z</time>
      </trkpt>
      <trkpt lat="46.49914663285017" lon="8.466134006157517">
        <ele>2189.0599999999999</ele>
        <time>2018-08-05T07:57:53Z</time>
      </trkpt>
      <trkpt lat="46.499182758852839" lon="8.466065358370543">
        <ele>2192.4200000000001</ele>
        <time>2018-08-05T07:58:07Z</time>
      </trkpt>
      <trkpt lat="46.49921796284616" lon="8.46601196564734">
        <ele>2193.8699999999999</ele>
        <time>2018-08-05T07:58:17Z</time>
      </trkpt>
      <trkpt lat="46.499236235395074" lon="8.465948766097426">
        <ele>2194.8299999999999</ele>
        <time>2018-08-05T07:58:25Z</time>
      </trkpt>
      <trkpt lat="46.499222572892904" lon="8.465859666466713">
        <ele>2196.27</ele>
        <time>2018-08-05T07:58:36Z</time>
      </trkpt>
      <trkpt lat="46.499234978109598" lon="8.465820355340838">
        <ele>2196.75</ele>
        <time>2018-08-05T07:58:46Z</time>
      </trkpt>
      <trkpt lat="46.499236822128296" lon="8.465785905718803">
        <ele>2197.23</ele>
        <time>2018-08-05T07:58:58Z</time>
      </trkpt>
      <trkpt lat="46.499227099120617" lon="8.465707451105118">
        <ele>2198.1900000000001</ele>
        <time>2018-08-05T07:59:10Z</time>
      </trkpt>
      <trkpt lat="46.499242689460516" lon="8.465638468042016">
        <ele>2200.5900000000001</ele>
        <time>2018-08-05T07:59:22Z</time>
      </trkpt>
      <trkpt lat="46.499242102727294" lon="8.465589350089431">
        <ele>2202.04</ele>
        <time>2018-08-05T07:59:34Z</time>
      </trkpt>
      <trkpt lat="46.499231290072203" lon="8.4655702393502">
        <ele>2202.04</ele>
        <time>2018-08-05T07:59:45Z</time>
      </trkpt>
      <trkpt lat="46.499222321435809" lon="8.46555657684803">
        <ele>2201.5599999999999</ele>
        <time>2018-08-05T07:59:55Z</time>
      </trkpt>
      <trkpt lat="46.499222405254841" lon="8.465555235743523">
        <ele>2202.04</ele>
        <time>2018-08-05T08:00:01Z</time>
      </trkpt>
      <trkpt lat="46.499150823801756" lon="8.465515337884426">
        <ele>2203</ele>
        <time>2018-08-05T08:00:11Z</time>
      </trkpt>
      <trkpt lat="46.49912710301578" lon="8.465518020093441">
        <ele>2203</ele>
        <time>2018-08-05T08:00:14Z</time>
      </trkpt>
      <trkpt lat="46.499107489362359" lon="8.465436967089772">
        <ele>2204.9200000000001</ele>
        <time>2018-08-05T08:00:25Z</time>
      </trkpt>
      <trkpt lat="46.499119475483894" lon="8.465384747833014">
        <ele>2205.8800000000001</ele>
        <time>2018-08-05T08:00:34Z</time>
      </trkpt>
      <trkpt lat="46.499118218198419" lon="8.465351555496454">
        <ele>2207.3200000000002</ele>
        <time>2018-08-05T08:00:43Z</time>
      </trkpt>
      <trkpt lat="46.499115619808435" lon="8.46539044752717">
        <ele>2207.3200000000002</ele>
        <time>2018-08-05T08:00:54Z</time>
      </trkpt>
      <trkpt lat="46.499082343652844" lon="8.465390950441361">
        <ele>2208.29</ele>
        <time>2018-08-05T08:01:08Z</time>
      </trkpt>
      <trkpt lat="46.499049318954349" lon="8.465378545224667">
        <ele>2209.73</ele>
        <time>2018-08-05T08:01:18Z</time>
      </trkpt>
      <trkpt lat="46.499086953699589" lon="8.465268909931183">
        <ele>2211.1700000000001</ele>
        <time>2018-08-05T08:01:30Z</time>
      </trkpt>
      <trkpt lat="46.49909139610827" lon="8.46520428545773">
        <ele>2213.0900000000001</ele>
        <time>2018-08-05T08:01:41Z</time>
      </trkpt>
      <trkpt lat="46.499074213206768" lon="8.465172098949552">
        <ele>2215.0100000000002</ele>
        <time>2018-08-05T08:01:53Z</time>
      </trkpt>
      <trkpt lat="46.499061053618789" lon="8.46516665071249">
        <ele>2215.98</ele>
        <time>2018-08-05T08:02:04Z</time>
      </trkpt>
      <trkpt lat="46.499036075547338" lon="8.465104624629021">
        <ele>2217.4200000000001</ele>
        <time>2018-08-05T08:02:15Z</time>
      </trkpt>
      <trkpt lat="46.499001206830144" lon="8.465036898851395">
        <ele>2218.3800000000001</ele>
        <time>2018-08-05T08:02:25Z</time>
      </trkpt>
      <trkpt lat="46.498980419710279" lon="8.465027259662747">
        <ele>2218.8600000000001</ele>
        <time>2018-08-05T08:02:33Z</time>
      </trkpt>
      <trkpt lat="46.498923925682902" lon="8.464988116174936">
        <ele>2219.8200000000002</ele>
        <time>2018-08-05T08:02:43Z</time>
      </trkpt>
      <trkpt lat="46.498882686719298" lon="8.464938914403319">
        <ele>2221.2600000000002</ele>
        <time>2018-08-05T08:02:55Z</time>
      </trkpt>
      <trkpt lat="46.498854272067547" lon="8.464896585792303">
        <ele>2222.71</ele>
        <time>2018-08-05T08:03:05Z</time>
      </trkpt>
      <trkpt lat="46.498871706426144" lon="8.464796338230372">
        <ele>2224.6300000000001</ele>
        <time>2018-08-05T08:03:18Z</time>
      </trkpt>
      <trkpt lat="46.498865336179733" lon="8.464735234156251">
        <ele>2225.5900000000001</ele>
        <time>2018-08-05T08:03:28Z</time>
      </trkpt>
      <trkpt lat="46.498836921527982" lon="8.464718051254749">
        <ele>2225.5900000000001</ele>
        <time>2018-08-05T08:03:36Z</time>
      </trkpt>
      <trkpt lat="46.498810015618801" lon="8.464739676564932">
        <ele>2226.5500000000002</ele>
        <time>2018-08-05T08:03:45Z</time>
      </trkpt>
      <trkpt lat="46.498786546289921" lon="8.464732132852078">
        <ele>2226.5500000000002</ele>
        <time>2018-08-05T08:03:59Z</time>
      </trkpt>
      <trkpt lat="46.498772464692593" lon="8.464666586369276">
        <ele>2228.4699999999998</ele>
        <time>2018-08-05T08:04:10Z</time>
      </trkpt>
      <trkpt lat="46.498788557946682" lon="8.464586287736893">
        <ele>2230.4000000000001</ele>
        <time>2018-08-05T08:04:22Z</time>
      </trkpt>
      <trkpt lat="46.498777158558369" lon="8.464539181441069">
        <ele>2231.8400000000001</ele>
        <time>2018-08-05T08:04:32Z</time>
      </trkpt>
      <trkpt lat="46.498813200742006" lon="8.464505905285478">
        <ele>2233.2800000000002</ele>
        <time>2018-08-05T08:04:44Z</time>
      </trkpt>
      <trkpt lat="46.498803477734327" lon="8.464457541704178">
        <ele>2234.7199999999998</ele>
        <time>2018-08-05T08:04:56Z</time>
      </trkpt>
      <trkpt lat="46.498804735019803" lon="8.464436922222376">
        <ele>2236.1599999999999</ele>
        <time>2018-08-05T08:05:05Z</time>
      </trkpt>
      <trkpt lat="46.498815296217799" lon="8.464356288313866">
        <ele>2238.0900000000001</ele>
        <time>2018-08-05T08:05:17Z</time>
      </trkpt>
      <trkpt lat="46.498839603736997" lon="8.464311109855771">
        <ele>2239.0500000000002</ele>
        <time>2018-08-05T08:05:27Z</time>
      </trkpt>
      <trkpt lat="46.498820492997766" lon="8.464313205331564">
        <ele>2240.4899999999998</ele>
        <time>2018-08-05T08:05:38Z</time>
      </trkpt>
      <trkpt lat="46.498808842152357" lon="8.464278671890497">
        <ele>2241.9299999999998</ele>
        <time>2018-08-05T08:05:48Z</time>
      </trkpt>
      <trkpt lat="46.498766345903277" lon="8.464242797344923">
        <ele>2243.3699999999999</ele>
        <time>2018-08-05T08:06:00Z</time>
      </trkpt>
      <trkpt lat="46.49874840863049" lon="8.464190075173974">
        <ele>2244.8200000000002</ele>
        <time>2018-08-05T08:06:12Z</time>
      </trkpt>
      <trkpt lat="46.498727537691593" lon="8.464138275012374">
        <ele>2245.3000000000002</ele>
        <time>2018-08-05T08:06:25Z</time>
      </trkpt>
      <trkpt lat="46.498726364225149" lon="8.464092426002026">
        <ele>2246.2600000000002</ele>
        <time>2018-08-05T08:06:35Z</time>
      </trkpt>
      <trkpt lat="46.49871563538909" lon="8.464086055755615">
        <ele>2246.7399999999998</ele>
        <time>2018-08-05T08:06:49Z</time>
      </trkpt>
      <trkpt lat="46.498689819127321" lon="8.464091839268804">
        <ele>2247.2199999999998</ele>
        <time>2018-08-05T08:07:00Z</time>
      </trkpt>
      <trkpt lat="46.498660231009126" lon="8.464065184816718">
        <ele>2247.2199999999998</ele>
        <time>2018-08-05T08:07:10Z</time>
      </trkpt>
      <trkpt lat="46.498650340363383" lon="8.46399980597198">
        <ele>2249.1399999999999</ele>
        <time>2018-08-05T08:07:20Z</time>
      </trkpt>
      <trkpt lat="46.498641539365053" lon="8.463975917547941">
        <ele>2248.6599999999999</ele>
        <time>2018-08-05T08:07:30Z</time>
      </trkpt>
      <trkpt lat="46.498632822185755" lon="8.463994106277823">
        <ele>2248.1799999999998</ele>
        <time>2018-08-05T08:07:39Z</time>
      </trkpt>
      <trkpt lat="46.498645897954702" lon="8.464031489565969">
        <ele>2247.6999999999998</ele>
        <time>2018-08-05T08:08:04Z</time>
      </trkpt>
      <trkpt lat="46.49863550439477" lon="8.4640056733042">
        <ele>2248.1799999999998</ele>
        <time>2018-08-05T08:08:23Z</time>
      </trkpt>
      <trkpt lat="46.498620416969061" lon="8.464000895619392">
        <ele>2248.6599999999999</ele>
        <time>2018-08-05T08:08:42Z</time>
      </trkpt>
      <trkpt lat="46.498628715053201" lon="8.463995782658458">
        <ele>2248.6599999999999</ele>
        <time>2018-08-05T08:09:06Z</time>
      </trkpt>
      <trkpt lat="46.498613459989429" lon="8.464007936418057">
        <ele>2248.6599999999999</ele>
        <time>2018-08-05T08:09:38Z</time>
      </trkpt>
      <trkpt lat="46.498651597648859" lon="8.464010702446103">
        <ele>2249.1399999999999</ele>
        <time>2018-08-05T08:10:10Z</time>
      </trkpt>
      <trkpt lat="46.498627038672566" lon="8.464015396311879">
        <ele>2249.1399999999999</ele>
        <time>2018-08-05T08:10:28Z</time>
      </trkpt>
      <trkpt lat="46.498627541586757" lon="8.464000644162297">
        <ele>2249.1399999999999</ele>
        <time>2018-08-05T08:10:55Z</time>
      </trkpt>
      <trkpt lat="46.4986511785537" lon="8.464009277522564">
        <ele>2249.6199999999999</ele>
        <time>2018-08-05T08:11:34Z</time>
      </trkpt>
      <trkpt lat="46.498646065592766" lon="8.46401397138834">
        <ele>2249.6199999999999</ele>
        <time>2018-08-05T08:12:09Z</time>
      </trkpt>
      <trkpt lat="46.498653190210462" lon="8.464000727981329">
        <ele>2250.0999999999999</ele>
        <time>2018-08-05T08:12:39Z</time>
      </trkpt>
      <trkpt lat="46.498627373948693" lon="8.463987987488508">
        <ele>2250.0999999999999</ele>
        <time>2018-08-05T08:13:04Z</time>
      </trkpt>
      <trkpt lat="46.498652268201113" lon="8.463977593928576">
        <ele>2251.0599999999999</ele>
        <time>2018-08-05T08:13:16Z</time>
      </trkpt>
      <trkpt lat="46.498665763065219" lon="8.46401053480804">
        <ele>2251.0599999999999</ele>
        <time>2018-08-05T08:13:29Z</time>
      </trkpt>
      <trkpt lat="46.498651597648859" lon="8.464021682739258">
        <ele>2251.54</ele>
        <time>2018-08-05T08:13:40Z</time>
      </trkpt>
      <trkpt lat="46.498649837449193" lon="8.46400466747582">
        <ele>2251.54</ele>
        <time>2018-08-05T08:13:55Z</time>
      </trkpt>
      <trkpt lat="46.498642126098275" lon="8.463979102671146">
        <ele>2251.54</ele>
        <time>2018-08-05T08:14:05Z</time>
      </trkpt>
      <trkpt lat="46.498659560456872" lon="8.463960913941264">
        <ele>2252.0300000000002</ele>
        <time>2018-08-05T08:14:12Z</time>
      </trkpt>
      <trkpt lat="46.498686131089926" lon="8.463933924213052">
        <ele>2252.9899999999998</ele>
        <time>2018-08-05T08:14:22Z</time>
      </trkpt>
      <trkpt lat="46.498711863532662" lon="8.463949514552951">
        <ele>2253.4699999999998</ele>
        <time>2018-08-05T08:14:32Z</time>
      </trkpt>
      <trkpt lat="46.498725023120642" lon="8.463957142084837">
        <ele>2253.4699999999998</ele>
        <time>2018-08-05T08:14:49Z</time>
      </trkpt>
      <trkpt lat="46.498763747513294" lon="8.46398807130754">
        <ele>2253.4699999999998</ele>
        <time>2018-08-05T08:15:01Z</time>
      </trkpt>
      <trkpt lat="46.498785205185413" lon="8.463979521766305">
        <ele>2254.9099999999999</ele>
        <time>2018-08-05T08:15:11Z</time>
      </trkpt>
      <trkpt lat="46.49877623654902" lon="8.46393920481205">
        <ele>2255.3899999999999</ele>
        <time>2018-08-05T08:15:23Z</time>
      </trkpt>
      <trkpt lat="46.498786881566048" lon="8.46391087397933">
        <ele>2256.3499999999999</ele>
        <time>2018-08-05T08:15:35Z</time>
      </trkpt>
      <trkpt lat="46.498789647594094" lon="8.463889919221401">
        <ele>2256.3499999999999</ele>
        <time>2018-08-05T08:15:51Z</time>
      </trkpt>
      <trkpt lat="46.498787803575397" lon="8.463882710784674">
        <ele>2257.3099999999999</ele>
        <time>2018-08-05T08:16:04Z</time>
      </trkpt>
      <trkpt lat="46.498780511319637" lon="8.46383904106915">
        <ele>2258.75</ele>
        <time>2018-08-05T08:16:15Z</time>
      </trkpt>
      <trkpt lat="46.498778080567718" lon="8.463786067441106">
        <ele>2260.6799999999998</ele>
        <time>2018-08-05T08:16:23Z</time>
      </trkpt>
      <trkpt lat="46.498783277347684" lon="8.463752623647451">
        <ele>2262.1199999999999</ele>
        <time>2018-08-05T08:16:31Z</time>
      </trkpt>
      <trkpt lat="46.498830048367381" lon="8.463791348040104">
        <ele>2263.5599999999999</ele>
        <time>2018-08-05T08:16:41Z</time>
      </trkpt>
      <trkpt lat="46.49885343387723" lon="8.463751869276166">
        <ele>2265</ele>
        <time>2018-08-05T08:16:51Z</time>
      </trkpt>
      <trkpt lat="46.498829796910286" lon="8.463709875941277">
        <ele>2266.4499999999998</ele>
        <time>2018-08-05T08:17:03Z</time>
      </trkpt>
      <trkpt lat="46.498816134408116" lon="8.463684394955635">
        <ele>2268.8499999999999</ele>
        <time>2018-08-05T08:17:14Z</time>
      </trkpt>
      <trkpt lat="46.498806746676564" lon="8.463625386357307">
        <ele>2270.29</ele>
        <time>2018-08-05T08:17:26Z</time>
      </trkpt>
      <trkpt lat="46.498762238770723" lon="8.463580124080181">
        <ele>2271.25</ele>
        <time>2018-08-05T08:17:37Z</time>
      </trkpt>
      <trkpt lat="46.498779086396098" lon="8.463536789640784">
        <ele>2272.6900000000001</ele>
        <time>2018-08-05T08:17:47Z</time>
      </trkpt>
      <trkpt lat="46.498792665079236" lon="8.463524216786027">
        <ele>2274.6199999999999</ele>
        <time>2018-08-05T08:17:58Z</time>
      </trkpt>
      <trkpt lat="46.498772464692593" lon="8.463476439937949">
        <ele>2276.0599999999999</ele>
        <time>2018-08-05T08:18:09Z</time>
      </trkpt>
      <trkpt lat="46.49876550771296" lon="8.463434195145965">
        <ele>2277.5</ele>
        <time>2018-08-05T08:18:19Z</time>
      </trkpt>
      <trkpt lat="46.498743211850524" lon="8.463385747745633">
        <ele>2279.4200000000001</ele>
        <time>2018-08-05T08:18:30Z</time>
      </trkpt>
      <trkpt lat="46.498735165223479" lon="8.463341994211078">
        <ele>2279.9000000000001</ele>
        <time>2018-08-05T08:18:42Z</time>
      </trkpt>
      <trkpt lat="46.498748576268554" lon="8.463287595659494">
        <ele>2281.3499999999999</ele>
        <time>2018-08-05T08:18:51Z</time>
      </trkpt>
      <trkpt lat="46.498757293447852" lon="8.463217606768012">
        <ele>2282.79</ele>
        <time>2018-08-05T08:19:02Z</time>
      </trkpt>
      <trkpt lat="46.498773973435163" lon="8.46317645162344">
        <ele>2284.23</ele>
        <time>2018-08-05T08:19:11Z</time>
      </trkpt>
      <trkpt lat="46.498759808018804" lon="8.463166980072856">
        <ele>2284.23</ele>
        <time>2018-08-05T08:19:13Z</time>
      </trkpt>
      <trkpt lat="46.498719658702612" lon="8.46309632062912">
        <ele>2285.6700000000001</ele>
        <time>2018-08-05T08:19:25Z</time>
      </trkpt>
      <trkpt lat="46.498696943745017" lon="8.463091123849154">
        <ele>2286.1500000000001</ele>
        <time>2018-08-05T08:19:35Z</time>
      </trkpt>
      <trkpt lat="46.498689232394099" lon="8.463034210726619">
        <ele>2287.5900000000001</ele>
        <time>2018-08-05T08:19:47Z</time>
      </trkpt>
      <trkpt lat="46.498686214908957" lon="8.46300445497036">
        <ele>2289.04</ele>
        <time>2018-08-05T08:20:01Z</time>
      </trkpt>
      <trkpt lat="46.498686131089926" lon="8.462944608181715">
        <ele>2290.96</ele>
        <time>2018-08-05T08:20:12Z</time>
      </trkpt>
      <trkpt lat="46.498658722266555" lon="8.462911918759346">
        <ele>2292.4000000000001</ele>
        <time>2018-08-05T08:20:23Z</time>
      </trkpt>
      <trkpt lat="46.498647993430495" lon="8.462867997586727">
        <ele>2293.3600000000001</ele>
        <time>2018-08-05T08:20:34Z</time>
      </trkpt>
      <trkpt lat="46.498615052551031" lon="8.462821310386062">
        <ele>2294.8000000000002</ele>
        <time>2018-08-05T08:20:45Z</time>
      </trkpt>
      <trkpt lat="46.498640282079577" lon="8.462772108614445">
        <ele>2296.73</ele>
        <time>2018-08-05T08:20:55Z</time>
      </trkpt>
      <trkpt lat="46.498689651489258" lon="8.462803373113275">
        <ele>2297.21</ele>
        <time>2018-08-05T08:21:04Z</time>
      </trkpt>
      <trkpt lat="46.498709851875901" lon="8.462783843278885">
        <ele>2298.6500000000001</ele>
        <time>2018-08-05T08:21:14Z</time>
      </trkpt>
      <trkpt lat="46.498675066977739" lon="8.46271762624383">
        <ele>2299.6100000000001</ele>
        <time>2018-08-05T08:21:26Z</time>
      </trkpt>
      <trkpt lat="46.498631229624152" lon="8.462678147479892">
        <ele>2301.5300000000002</ele>
        <time>2018-08-05T08:21:39Z</time>
      </trkpt>
      <trkpt lat="46.498583955690265" lon="8.462651493027806">
        <ele>2302.4899999999998</ele>
        <time>2018-08-05T08:21:50Z</time>
      </trkpt>
      <trkpt lat="46.49852997623384" lon="8.46264386549592">
        <ele>2303.46</ele>
        <time>2018-08-05T08:22:00Z</time>
      </trkpt>
      <trkpt lat="46.498486222699285" lon="8.462615618482232">
        <ele>2304.4200000000001</ele>
        <time>2018-08-05T08:22:11Z</time>
      </trkpt>
      <trkpt lat="46.498430902138352" lon="8.462536325678229">
        <ele>2305.3800000000001</ele>
        <time>2018-08-05T08:22:23Z</time>
      </trkpt>
      <trkpt lat="46.498396620154381" lon="8.462486956268549">
        <ele>2306.3400000000001</ele>
        <time>2018-08-05T08:22:35Z</time>
      </trkpt>
      <trkpt lat="46.49838631041348" lon="8.462453931570053">
        <ele>2307.7800000000002</ele>
        <time>2018-08-05T08:22:47Z</time>
      </trkpt>
      <trkpt lat="46.49837750941515" lon="8.46240783110261">
        <ele>2310.1900000000001</ele>
        <time>2018-08-05T08:22:58Z</time>
      </trkpt>
      <trkpt lat="46.49835018441081" lon="8.462366256862879">
        <ele>2311.1500000000001</ele>
        <time>2018-08-05T08:23:09Z</time>
      </trkpt>
      <trkpt lat="46.498317830264568" lon="8.462316719815135">
        <ele>2312.5900000000001</ele>
        <time>2018-08-05T08:23:20Z</time>
      </trkpt>
      <trkpt lat="46.498291343450546" lon="8.462268020957708">
        <ele>2314.0300000000002</ele>
        <time>2018-08-05T08:23:32Z</time>
      </trkpt>
      <trkpt lat="46.498269215226173" lon="8.462244803085923">
        <ele>2314.5100000000002</ele>
        <time>2018-08-05T08:23:38Z</time>
      </trkpt>
      <trkpt lat="46.498241974040866" lon="8.462176490575075">
        <ele>2314.9899999999998</ele>
        <time>2018-08-05T08:23:48Z</time>
      </trkpt>
      <trkpt lat="46.498254714533687" lon="8.462085379287601">
        <ele>2316.4299999999998</ele>
        <time>2018-08-05T08:23:59Z</time>
      </trkpt>
      <trkpt lat="46.498229904100299" lon="8.462033830583096">
        <ele>2317.8800000000001</ele>
        <time>2018-08-05T08:24:10Z</time>
      </trkpt>
      <trkpt lat="46.498218001797795" lon="8.461985550820828">
        <ele>2318.8400000000001</ele>
        <time>2018-08-05T08:24:20Z</time>
      </trkpt>
      <trkpt lat="46.498231496661901" lon="8.461948921903968">
        <ele>2319.8000000000002</ele>
        <time>2018-08-05T08:24:31Z</time>
      </trkpt>
      <trkpt lat="46.498262844979763" lon="8.461922518908978">
        <ele>2321.7199999999998</ele>
        <time>2018-08-05T08:24:44Z</time>
      </trkpt>
      <trkpt lat="46.498286901041865" lon="8.461916651576757">
        <ele>2322.6799999999998</ele>
        <time>2018-08-05T08:24:49Z</time>
      </trkpt>
      <trkpt lat="46.498346161097288" lon="8.461925368756056">
        <ele>2323.1599999999999</ele>
        <time>2018-08-05T08:25:01Z</time>
      </trkpt>
      <trkpt lat="46.498374408110976" lon="8.461906593292952">
        <ele>2324.1199999999999</ele>
        <time>2018-08-05T08:25:11Z</time>
      </trkpt>
      <trkpt lat="46.498396620154381" lon="8.461887566372752">
        <ele>2325.0900000000001</ele>
        <time>2018-08-05T08:25:20Z</time>
      </trkpt>
      <trkpt lat="46.498441128060222" lon="8.461873317137361">
        <ele>2327.4899999999998</ele>
        <time>2018-08-05T08:25:33Z</time>
      </trkpt>
      <trkpt lat="46.498456718400121" lon="8.461859151721001">
        <ele>2327.9699999999998</ele>
        <time>2018-08-05T08:25:42Z</time>
      </trkpt>
      <trkpt lat="46.498503489419818" lon="8.461901815608144">
        <ele>2328.9299999999998</ele>
        <time>2018-08-05T08:25:51Z</time>
      </trkpt>
      <trkpt lat="46.4985182415694" lon="8.461834844201803">
        <ele>2331.8099999999999</ele>
        <time>2018-08-05T08:26:03Z</time>
      </trkpt>
      <trkpt lat="46.498514972627163" lon="8.461835347115994">
        <ele>2332.3000000000002</ele>
        <time>2018-08-05T08:26:04Z</time>
      </trkpt>
      <trkpt lat="46.498519415035844" lon="8.461832832545042">
        <ele>2331.8099999999999</ele>
        <time>2018-08-05T08:26:17Z</time>
      </trkpt>
      <trkpt lat="46.498526707291603" lon="8.461838951334357">
        <ele>2332.3000000000002</ele>
        <time>2018-08-05T08:26:37Z</time>
      </trkpt>
      <trkpt lat="46.498537687584758" lon="8.461796538904309">
        <ele>2334.2199999999998</ele>
        <time>2018-08-05T08:26:48Z</time>
      </trkpt>
      <trkpt lat="46.498550176620483" lon="8.461750689893961">
        <ele>2335.1799999999998</ele>
        <time>2018-08-05T08:26:56Z</time>
      </trkpt>
      <trkpt lat="46.498566186055541" lon="8.461718168109655">
        <ele>2335.6599999999999</ele>
        <time>2018-08-05T08:27:06Z</time>
      </trkpt>
      <trkpt lat="46.498604826629162" lon="8.461650777608156">
        <ele>2336.6199999999999</ele>
        <time>2018-08-05T08:27:17Z</time>
      </trkpt>
      <trkpt lat="46.498657297343016" lon="8.461620016023517">
        <ele>2338.54</ele>
        <time>2018-08-05T08:27:27Z</time>
      </trkpt>
      <trkpt lat="46.49866190738976" lon="8.461584225296974">
        <ele>2340.9499999999998</ele>
        <time>2018-08-05T08:27:39Z</time>
      </trkpt>
      <trkpt lat="46.498614298179746" lon="8.461548183113337">
        <ele>2340.9499999999998</ele>
        <time>2018-08-05T08:27:51Z</time>
      </trkpt>
      <trkpt lat="46.49857054464519" lon="8.461476769298315">
        <ele>2341.9099999999999</ele>
        <time>2018-08-05T08:28:00Z</time>
      </trkpt>
      <trkpt lat="46.498543890193105" lon="8.461424130946398">
        <ele>2342.8699999999999</ele>
        <time>2018-08-05T08:28:10Z</time>
      </trkpt>
      <trkpt lat="46.498528635129333" lon="8.461368307471275">
        <ele>2344.79</ele>
        <time>2018-08-05T08:28:22Z</time>
      </trkpt>
      <trkpt lat="46.498481696471572" lon="8.461348861455917">
        <ele>2345.75</ele>
        <time>2018-08-05T08:28:33Z</time>
      </trkpt>
      <trkpt lat="46.498498963192105" lon="8.46126445569098">
        <ele>2347.1999999999998</ele>
        <time>2018-08-05T08:28:43Z</time>
      </trkpt>
      <trkpt lat="46.49856124073267" lon="8.461227072402835">
        <ele>2348.6399999999999</ele>
        <time>2018-08-05T08:28:54Z</time>
      </trkpt>
      <trkpt lat="46.498593930155039" lon="8.461182145401835">
        <ele>2351.52</ele>
        <time>2018-08-05T08:29:06Z</time>
      </trkpt>
      <trkpt lat="46.49860373698175" lon="8.461148450151086">
        <ele>2352.96</ele>
        <time>2018-08-05T08:29:11Z</time>
      </trkpt>
      <trkpt lat="46.498601641505957" lon="8.461098577827215">
        <ele>2353.9299999999998</ele>
        <time>2018-08-05T08:29:21Z</time>
      </trkpt>
      <trkpt lat="46.498603820800781" lon="8.461059182882309">
        <ele>2353.9299999999998</ele>
        <time>2018-08-05T08:29:35Z</time>
      </trkpt>
      <trkpt lat="46.498608514666557" lon="8.461041497066617">
        <ele>2353.9299999999998</ele>
        <time>2018-08-05T08:29:48Z</time>
      </trkpt>
      <trkpt lat="46.498602228239179" lon="8.461024481803179">
        <ele>2353.9299999999998</ele>
        <time>2018-08-05T08:30:10Z</time>
      </trkpt>
      <trkpt lat="46.498627625405788" lon="8.460982069373131">
        <ele>2354.4099999999999</ele>
        <time>2018-08-05T08:30:20Z</time>
      </trkpt>
      <trkpt lat="46.498650759458542" lon="8.460957678034902">
        <ele>2355.3699999999999</ele>
        <time>2018-08-05T08:30:30Z</time>
      </trkpt>
      <trkpt lat="46.498703062534332" lon="8.460916355252266">
        <ele>2357.29</ele>
        <time>2018-08-05T08:30:42Z</time>
      </trkpt>
      <trkpt lat="46.498774057254195" lon="8.460889533162117">
        <ele>2357.77</ele>
        <time>2018-08-05T08:30:54Z</time>
      </trkpt>
      <trkpt lat="46.498843459412456" lon="8.460860196501017">
        <ele>2357.77</ele>
        <time>2018-08-05T08:31:07Z</time>
      </trkpt>
      <trkpt lat="46.49890230037272" lon="8.460845109075308">
        <ele>2358.73</ele>
        <time>2018-08-05T08:31:18Z</time>
      </trkpt>
      <trkpt lat="46.498935157433152" lon="8.460806803777814">
        <ele>2359.6900000000001</ele>
        <time>2018-08-05T08:31:29Z</time>
      </trkpt>
      <trkpt lat="46.498947227373719" lon="8.460795404389501">
        <ele>2359.6900000000001</ele>
        <time>2018-08-05T08:31:31Z</time>
      </trkpt>
      <trkpt lat="46.498999027535319" lon="8.460839744657278">
        <ele>2359.21</ele>
        <time>2018-08-05T08:31:41Z</time>
      </trkpt>
      <trkpt lat="46.49901813827455" lon="8.460934963077307">
        <ele>2357.77</ele>
        <time>2018-08-05T08:31:51Z</time>
      </trkpt>
      <trkpt lat="46.499051414430141" lon="8.46101182512939">
        <ele>2355.3699999999999</ele>
        <time>2018-08-05T08:32:02Z</time>
      </trkpt>
      <trkpt lat="46.499088294804096" lon="8.461097152903676">
        <ele>2353.4400000000001</ele>
        <time>2018-08-05T08:32:13Z</time>
      </trkpt>
      <trkpt lat="46.499097514897585" lon="8.460998414084315">
        <ele>2352</ele>
        <time>2018-08-05T08:32:22Z</time>
      </trkpt>
      <trkpt lat="46.499110255390406" lon="8.460941500961781">
        <ele>2351.52</ele>
        <time>2018-08-05T08:32:28Z</time>
      </trkpt>
      <trkpt lat="46.49912852793932" lon="8.460867237299681">
        <ele>2351.52</ele>
        <time>2018-08-05T08:32:38Z</time>
      </trkpt>
      <trkpt lat="46.499138586223125" lon="8.460858436301351">
        <ele>2351.52</ele>
        <time>2018-08-05T08:32:48Z</time>
      </trkpt>
      <trkpt lat="46.499144537374377" lon="8.460809821262956">
        <ele>2352.48</ele>
        <time>2018-08-05T08:32:53Z</time>
      </trkpt>
      <trkpt lat="46.499178316444159" lon="8.460769923403859">
        <ele>2353.4400000000001</ele>
        <time>2018-08-05T08:33:02Z</time>
      </trkpt>
      <trkpt lat="46.499213939532638" lon="8.460717285051942">
        <ele>2354.4099999999999</ele>
        <time>2018-08-05T08:33:12Z</time>
      </trkpt>
      <trkpt lat="46.499215615913272" lon="8.460704125463963">
        <ele>2353.9299999999998</ele>
        <time>2018-08-05T08:33:21Z</time>
      </trkpt>
      <trkpt lat="46.499227937310934" lon="8.460696246474981">
        <ele>2353.4400000000001</ele>
        <time>2018-08-05T08:33:35Z</time>
      </trkpt>
      <trkpt lat="46.499273031949997" lon="8.460661880671978">
        <ele>2352</ele>
        <time>2018-08-05T08:33:45Z</time>
      </trkpt>
      <trkpt lat="46.499274959787726" lon="8.46063950099051">
        <ele>2351.04</ele>
        <time>2018-08-05T08:33:48Z</time>
      </trkpt>
      <trkpt lat="46.499295746907592" lon="8.460591807961464">
        <ele>2351.52</ele>
        <time>2018-08-05T08:33:59Z</time>
      </trkpt>
      <trkpt lat="46.499294741079211" lon="8.460550988093019">
        <ele>2351.04</ele>
        <time>2018-08-05T08:34:08Z</time>
      </trkpt>
      <trkpt lat="46.499294489622116" lon="8.460523998364806">
        <ele>2352</ele>
        <time>2018-08-05T08:34:16Z</time>
      </trkpt>
      <trkpt lat="46.499319551512599" lon="8.460494326427579">
        <ele>2352.48</ele>
        <time>2018-08-05T08:34:23Z</time>
      </trkpt>
      <trkpt lat="46.499332040548325" lon="8.460475215688348">
        <ele>2352.48</ele>
        <time>2018-08-05T08:34:34Z</time>
      </trkpt>
      <trkpt lat="46.499322149902582" lon="8.460443364456296">
        <ele>2352.96</ele>
        <time>2018-08-05T08:34:45Z</time>
      </trkpt>
      <trkpt lat="46.499328184872866" lon="8.460445292294025">
        <ele>2353.4400000000001</ele>
        <time>2018-08-05T08:34:47Z</time>
      </trkpt>
      <trkpt lat="46.499342350289226" lon="8.460444118827581">
        <ele>2353.4400000000001</ele>
        <time>2018-08-05T08:34:49Z</time>
      </trkpt>
      <trkpt lat="46.499375374987721" lon="8.460438083857298">
        <ele>2353.9299999999998</ele>
        <time>2018-08-05T08:34:59Z</time>
      </trkpt>
      <trkpt lat="46.499359030276537" lon="8.460440598428249">
        <ele>2352.96</ele>
        <time>2018-08-05T08:35:16Z</time>
      </trkpt>
      <trkpt lat="46.49936799891293" lon="8.460434898734093">
        <ele>2354.8899999999999</ele>
        <time>2018-08-05T08:35:18Z</time>
      </trkpt>
      <trkpt lat="46.499347882345319" lon="8.460398940369487">
        <ele>2353.9299999999998</ele>
        <time>2018-08-05T08:35:32Z</time>
      </trkpt>
      <trkpt lat="46.499347547069192" lon="8.460395084694028">
        <ele>2353.9299999999998</ele>
        <time>2018-08-05T08:35:35Z</time>
      </trkpt>
      <trkpt lat="46.499362969771028" lon="8.460337081924081">
        <ele>2354.4099999999999</ele>
        <time>2018-08-05T08:35:44Z</time>
      </trkpt>
      <trkpt lat="46.499374285340309" lon="8.46030380576849">
        <ele>2354.8899999999999</ele>
        <time>2018-08-05T08:35:56Z</time>
      </trkpt>
      <trkpt lat="46.49941929616034" lon="8.460233649238944">
        <ele>2356.3299999999999</ele>
        <time>2018-08-05T08:36:07Z</time>
      </trkpt>
      <trkpt lat="46.499427929520607" lon="8.460205318406224">
        <ele>2356.8099999999999</ele>
        <time>2018-08-05T08:36:17Z</time>
      </trkpt>
      <trkpt lat="46.499450895935297" lon="8.460220405831933">
        <ele>2356.8099999999999</ele>
        <time>2018-08-05T08:36:27Z</time>
      </trkpt>
      <trkpt lat="46.499479729682207" lon="8.460184447467327">
        <ele>2357.29</ele>
        <time>2018-08-05T08:36:35Z</time>
      </trkpt>
      <trkpt lat="46.499528344720602" lon="8.460205821320415">
        <ele>2359.21</ele>
        <time>2018-08-05T08:36:45Z</time>
      </trkpt>
      <trkpt lat="46.499553909525275" lon="8.460146896541119">
        <ele>2359.6900000000001</ele>
        <time>2018-08-05T08:36:56Z</time>
      </trkpt>
      <trkpt lat="46.499604620039463" lon="8.460096018388867">
        <ele>2360.6500000000001</ele>
        <time>2018-08-05T08:37:05Z</time>
      </trkpt>
      <trkpt lat="46.499633956700563" lon="8.460072381421924">
        <ele>2361.6199999999999</ele>
        <time>2018-08-05T08:37:13Z</time>
      </trkpt>
      <trkpt lat="46.499690534546971" lon="8.460055701434612">
        <ele>2362.5799999999999</ele>
        <time>2018-08-05T08:37:23Z</time>
      </trkpt>
      <trkpt lat="46.499741664156318" lon="8.460090570151806">
        <ele>2363.0599999999999</ele>
        <time>2018-08-05T08:37:32Z</time>
      </trkpt>
      <trkpt lat="46.499726073816419" lon="8.460080092772842">
        <ele>2363.54</ele>
        <time>2018-08-05T08:37:44Z</time>
      </trkpt>
      <trkpt lat="46.499761193990707" lon="8.460118984803557">
        <ele>2363.54</ele>
        <time>2018-08-05T08:38:02Z</time>
      </trkpt>
      <trkpt lat="46.499810982495546" lon="8.46000524237752">
        <ele>2364.02</ele>
        <time>2018-08-05T08:38:13Z</time>
      </trkpt>
      <trkpt lat="46.499844342470169" lon="8.459919830784202">
        <ele>2364.5</ele>
        <time>2018-08-05T08:38:25Z</time>
      </trkpt>
      <trkpt lat="46.499869488179684" lon="8.459868868812919">
        <ele>2364.5</ele>
        <time>2018-08-05T08:38:36Z</time>
      </trkpt>
      <trkpt lat="46.499906368553638" lon="8.459821259602904">
        <ele>2366.4200000000001</ele>
        <time>2018-08-05T08:38:46Z</time>
      </trkpt>
      <trkpt lat="46.49992304854095" lon="8.45975998789072">
        <ele>2365.46</ele>
        <time>2018-08-05T08:39:00Z</time>
      </trkpt>
      <trkpt lat="46.499922713264823" lon="8.459749510511756">
        <ele>2365.46</ele>
        <time>2018-08-05T08:39:16Z</time>
      </trkpt>
      <trkpt lat="46.499919276684523" lon="8.459721766412258">
        <ele>2365.9400000000001</ele>
        <time>2018-08-05T08:39:34Z</time>
      </trkpt>
      <trkpt lat="46.500042490661144" lon="8.45973844639957">
        <ele>2365.9400000000001</ele>
        <time>2018-08-05T08:39:46Z</time>
      </trkpt>
      <trkpt lat="46.500094793736935" lon="8.459743307903409">
        <ele>2366.4200000000001</ele>
        <time>2018-08-05T08:39:54Z</time>
      </trkpt>
      <trkpt lat="46.500130416825414" lon="8.459722939878702">
        <ele>2365.46</ele>
        <time>2018-08-05T08:40:00Z</time>
      </trkpt>
      <trkpt lat="46.500205770134926" lon="8.459647670388222">
        <ele>2364.98</ele>
        <time>2018-08-05T08:40:11Z</time>
      </trkpt>
      <trkpt lat="46.500284811481833" lon="8.459634007886052">
        <ele>2366.4200000000001</ele>
        <time>2018-08-05T08:40:23Z</time>
      </trkpt>
      <trkpt lat="46.500343652442098" lon="8.459631409496069">
        <ele>2367.3800000000001</ele>
        <time>2018-08-05T08:40:34Z</time>
      </trkpt>
      <trkpt lat="46.500371061265469" lon="8.459569634869695">
        <ele>2368.3499999999999</ele>
        <time>2018-08-05T08:40:43Z</time>
      </trkpt>
      <trkpt lat="46.500426717102528" lon="8.4595278929919">
        <ele>2368.3499999999999</ele>
        <time>2018-08-05T08:40:53Z</time>
      </trkpt>
      <trkpt lat="46.500476337969303" lon="8.459492940455675">
        <ele>2369.79</ele>
        <time>2018-08-05T08:41:05Z</time>
      </trkpt>
      <trkpt lat="46.500500729307532" lon="8.459403337910771">
        <ele>2370.27</ele>
        <time>2018-08-05T08:41:14Z</time>
      </trkpt>
      <trkpt lat="46.500518582761288" lon="8.459370732307434">
        <ele>2370.27</ele>
        <time>2018-08-05T08:41:18Z</time>
      </trkpt>
      <trkpt lat="46.500558312982321" lon="8.459321446716785">
        <ele>2371.71</ele>
        <time>2018-08-05T08:41:28Z</time>
      </trkpt>
      <trkpt lat="46.50056803599" lon="8.459291020408273">
        <ele>2372.1900000000001</ele>
        <time>2018-08-05T08:41:38Z</time>
      </trkpt>
      <trkpt lat="46.500595025718212" lon="8.459262857213616">
        <ele>2374.1100000000001</ele>
        <time>2018-08-05T08:41:50Z</time>
      </trkpt>
      <trkpt lat="46.500590499490499" lon="8.459231173619628">
        <ele>2373.1500000000001</ele>
        <time>2018-08-05T08:42:07Z</time>
      </trkpt>
      <trkpt lat="46.500570131465793" lon="8.459234274923801">
        <ele>2374.1100000000001</ele>
        <time>2018-08-05T08:42:32Z</time>
      </trkpt>
      <trkpt lat="46.500613801181316" lon="8.459250284358859">
        <ele>2373.6300000000001</ele>
        <time>2018-08-05T08:42:49Z</time>
      </trkpt>
      <trkpt lat="46.500604245811701" lon="8.459253134205937">
        <ele>2374.1100000000001</ele>
        <time>2018-08-05T08:42:59Z</time>
      </trkpt>
      <trkpt lat="46.500604916363955" lon="8.459258414804936">
        <ele>2374.5900000000001</ele>
        <time>2018-08-05T08:43:21Z</time>
      </trkpt>
      <trkpt lat="46.500617153942585" lon="8.459177864715457">
        <ele>2376.04</ele>
        <time>2018-08-05T08:43:31Z</time>
      </trkpt>
      <trkpt lat="46.500637521967292" lon="8.459111396223307">
        <ele>2377.48</ele>
        <time>2018-08-05T08:43:41Z</time>
      </trkpt>
      <trkpt lat="46.500662164762616" lon="8.45908323302865">
        <ele>2378.4400000000001</ele>
        <time>2018-08-05T08:43:52Z</time>
      </trkpt>
      <trkpt lat="46.500700218603015" lon="8.459043251350522">
        <ele>2379.8800000000001</ele>
        <time>2018-08-05T08:44:02Z</time>
      </trkpt>
      <trkpt lat="46.500731566920877" lon="8.458991032093763">
        <ele>2380.8400000000001</ele>
        <time>2018-08-05T08:44:12Z</time>
      </trkpt>
      <trkpt lat="46.500726789236069" lon="8.458986086770892">
        <ele>2381.3200000000002</ele>
        <time>2018-08-05T08:44:13Z</time>
      </trkpt>
      <trkpt lat="46.500744894146919" lon="8.458972591906786">
        <ele>2381.8000000000002</ele>
        <time>2018-08-05T08:44:23Z</time>
      </trkpt>
      <trkpt lat="46.500779511407018" lon="8.459014585241675">
        <ele>2382.7600000000002</ele>
        <time>2018-08-05T08:44:34Z</time>
      </trkpt>
      <trkpt lat="46.50080893188715" lon="8.459020117297769">
        <ele>2382.7600000000002</ele>
        <time>2018-08-05T08:44:40Z</time>
      </trkpt>
      <trkpt lat="46.500854445621371" lon="8.459057416766882">
        <ele>2384.21</ele>
        <time>2018-08-05T08:44:51Z</time>
      </trkpt>
      <trkpt lat="46.500874981284142" lon="8.459041994065046">
        <ele>2384.6900000000001</ele>
        <time>2018-08-05T08:44:59Z</time>
      </trkpt>
      <trkpt lat="46.500911610201001" lon="8.459004359319806">
        <ele>2385.6500000000001</ele>
        <time>2018-08-05T08:45:10Z</time>
      </trkpt>
      <trkpt lat="46.500929547473788" lon="8.45897426828742">
        <ele>2386.6100000000001</ele>
        <time>2018-08-05T08:45:22Z</time>
      </trkpt>
      <trkpt lat="46.500955866649747" lon="8.458965132012963">
        <ele>2388.0500000000002</ele>
        <time>2018-08-05T08:45:33Z</time>
      </trkpt>
      <trkpt lat="46.500964164733887" lon="8.458933364599943">
        <ele>2389.0100000000002</ele>
        <time>2018-08-05T08:45:45Z</time>
      </trkpt>
      <trkpt lat="46.500989394262433" lon="8.458907045423985">
        <ele>2389.9699999999998</ele>
        <time>2018-08-05T08:45:56Z</time>
      </trkpt>
      <trkpt lat="46.500988891348243" lon="8.458878546953201">
        <ele>2390.46</ele>
        <time>2018-08-05T08:46:06Z</time>
      </trkpt>
      <trkpt lat="46.500983610749245" lon="8.458862705156207">
        <ele>2391.9000000000001</ele>
        <time>2018-08-05T08:46:14Z</time>
      </trkpt>
      <trkpt lat="46.501007499173284" lon="8.458878295496106">
        <ele>2391.9000000000001</ele>
        <time>2018-08-05T08:46:22Z</time>
      </trkpt>
      <trkpt lat="46.501007499173284" lon="8.458852814510465">
        <ele>2392.8600000000001</ele>
        <time>2018-08-05T08:46:39Z</time>
      </trkpt>
      <trkpt lat="46.501046055927873" lon="8.458876870572567">
        <ele>2394.3000000000002</ele>
        <time>2018-08-05T08:46:50Z</time>
      </trkpt>
      <trkpt lat="46.501083020120859" lon="8.45887703821063">
        <ele>2395.2600000000002</ele>
        <time>2018-08-05T08:47:00Z</time>
      </trkpt>
      <trkpt lat="46.501124761998653" lon="8.458885671570897">
        <ele>2396.6999999999998</ele>
        <time>2018-08-05T08:47:10Z</time>
      </trkpt>
      <trkpt lat="46.501123672351241" lon="8.458862286061049">
        <ele>2396.6999999999998</ele>
        <time>2018-08-05T08:47:26Z</time>
      </trkpt>
      <trkpt lat="46.501117805019021" lon="8.458821717649698">
        <ele>2398.6300000000001</ele>
        <time>2018-08-05T08:47:39Z</time>
      </trkpt>
      <trkpt lat="46.501113614067435" lon="8.458769246935844">
        <ele>2399.5900000000001</ele>
        <time>2018-08-05T08:47:48Z</time>
      </trkpt>
      <trkpt lat="46.501109171658754" lon="8.458742257207632">
        <ele>2400.0700000000002</ele>
        <time>2018-08-05T08:47:59Z</time>
      </trkpt>
      <trkpt lat="46.501121576875448" lon="8.458704371005297">
        <ele>2401.5100000000002</ele>
        <time>2018-08-05T08:48:15Z</time>
      </trkpt>
      <trkpt lat="46.501134568825364" lon="8.458670759573579">
        <ele>2402.4699999999998</ele>
        <time>2018-08-05T08:48:26Z</time>
      </trkpt>
      <trkpt lat="46.501132221892476" lon="8.458614433184266">
        <ele>2403.9099999999999</ele>
        <time>2018-08-05T08:48:37Z</time>
      </trkpt>
      <trkpt lat="46.501142112538218" lon="8.45857604406774">
        <ele>2403.9099999999999</ele>
        <time>2018-08-05T08:48:49Z</time>
      </trkpt>
      <trkpt lat="46.501186788082123" lon="8.458558944985271">
        <ele>2405.3600000000001</ele>
        <time>2018-08-05T08:49:00Z</time>
      </trkpt>
      <trkpt lat="46.501215454190969" lon="8.458556598052383">
        <ele>2405.8400000000001</ele>
        <time>2018-08-05T08:49:08Z</time>
      </trkpt>
      <trkpt lat="46.501231798902154" lon="8.458568165078759">
        <ele>2406.3200000000002</ele>
        <time>2018-08-05T08:49:21Z</time>
      </trkpt>
      <trkpt lat="46.501224422827363" lon="8.458560537546873">
        <ele>2405.3600000000001</ele>
        <time>2018-08-05T08:49:37Z</time>
      </trkpt>
      <trkpt lat="46.501220148056746" lon="8.458538493141532">
        <ele>2406.8000000000002</ele>
        <time>2018-08-05T08:49:50Z</time>
      </trkpt>
      <trkpt lat="46.501213442534208" lon="8.458539666607976">
        <ele>2407.7600000000002</ele>
        <time>2018-08-05T08:49:54Z</time>
      </trkpt>
      <trkpt lat="46.50121352635324" lon="8.458467246964574">
        <ele>2408.7199999999998</ele>
        <time>2018-08-05T08:50:05Z</time>
      </trkpt>
      <trkpt lat="46.501243701204658" lon="8.458420308306813">
        <ele>2410.1599999999999</ele>
        <time>2018-08-05T08:50:15Z</time>
      </trkpt>
      <trkpt lat="46.501260465011001" lon="8.458426427096129">
        <ele>2410.1599999999999</ele>
        <time>2018-08-05T08:50:27Z</time>
      </trkpt>
      <trkpt lat="46.501263650134206" lon="8.458373537287116">
        <ele>2411.5999999999999</ele>
        <time>2018-08-05T08:50:43Z</time>
      </trkpt>
      <trkpt lat="46.501253005117178" lon="8.458335902541876">
        <ele>2412.5700000000002</ele>
        <time>2018-08-05T08:50:52Z</time>
      </trkpt>
      <trkpt lat="46.501268176361918" lon="8.458298938348889">
        <ele>2413.0500000000002</ele>
        <time>2018-08-05T08:51:03Z</time>
      </trkpt>
      <trkpt lat="46.501271864399314" lon="8.458278067409992">
        <ele>2414.0100000000002</ele>
        <time>2018-08-05T08:51:12Z</time>
      </trkpt>
      <trkpt lat="46.501279072836041" lon="8.458261219784617">
        <ele>2414.4899999999998</ele>
        <time>2018-08-05T08:51:22Z</time>
      </trkpt>
      <trkpt lat="46.501278486102819" lon="8.458228362724185">
        <ele>2415.4499999999998</ele>
        <time>2018-08-05T08:51:40Z</time>
      </trkpt>
      <trkpt lat="46.501303296536207" lon="8.45818561501801">
        <ele>2417.3699999999999</ele>
        <time>2018-08-05T08:51:52Z</time>
      </trkpt>
      <trkpt lat="46.501306649297476" lon="8.458145381882787">
        <ele>2417.8499999999999</ele>
        <time>2018-08-05T08:52:03Z</time>
      </trkpt>
      <trkpt lat="46.501283179968596" lon="8.458127863705158">
        <ele>2419.3000000000002</ele>
        <time>2018-08-05T08:52:14Z</time>
      </trkpt>
      <trkpt lat="46.501339673995972" lon="8.458150746300817">
        <ele>2419.7800000000002</ele>
        <time>2018-08-05T08:52:27Z</time>
      </trkpt>
      <trkpt lat="46.501345122233033" lon="8.458172790706158">
        <ele>2419.3000000000002</ele>
        <time>2018-08-05T08:52:41Z</time>
      </trkpt>
      <trkpt lat="46.501338500529528" lon="8.458198020234704">
        <ele>2419.3000000000002</ele>
        <time>2018-08-05T08:53:01Z</time>
      </trkpt>
      <trkpt lat="46.501351492479444" lon="8.458202630281448">
        <ele>2419.3000000000002</ele>
        <time>2018-08-05T08:53:30Z</time>
      </trkpt>
      <trkpt lat="46.501335650682449" lon="8.458184106275439">
        <ele>2419.7800000000002</ele>
        <time>2018-08-05T08:53:51Z</time>
      </trkpt>
      <trkpt lat="46.501364735886455" lon="8.458194499835372">
        <ele>2420.2600000000002</ele>
        <time>2018-08-05T08:54:02Z</time>
      </trkpt>
      <trkpt lat="46.501362221315503" lon="8.458151584491134">
        <ele>2421.2199999999998</ele>
        <time>2018-08-05T08:54:17Z</time>
      </trkpt>
      <trkpt lat="46.501342691481113" lon="8.458126354962587">
        <ele>2422.6599999999999</ele>
        <time>2018-08-05T08:54:28Z</time>
      </trkpt>
      <trkpt lat="46.501381918787956" lon="8.458118392154574">
        <ele>2424.0999999999999</ele>
        <time>2018-08-05T08:54:38Z</time>
      </trkpt>
      <trkpt lat="46.501374626532197" lon="8.458074303343892">
        <ele>2426.02</ele>
        <time>2018-08-05T08:54:49Z</time>
      </trkpt>
      <trkpt lat="46.501398766413331" lon="8.458053767681122">
        <ele>2427.4699999999998</ele>
        <time>2018-08-05T08:55:02Z</time>
      </trkpt>
      <trkpt lat="46.501411590725183" lon="8.458006074652076">
        <ele>2428.9099999999999</ele>
        <time>2018-08-05T08:55:12Z</time>
      </trkpt>
      <trkpt lat="46.501414608210325" lon="8.457963243126869">
        <ele>2429.8699999999999</ele>
        <time>2018-08-05T08:55:22Z</time>
      </trkpt>
      <trkpt lat="46.501421481370926" lon="8.457931056618691">
        <ele>2431.3099999999999</ele>
        <time>2018-08-05T08:55:32Z</time>
      </trkpt>
      <trkpt lat="46.501418044790626" lon="8.457894846796989">
        <ele>2432.27</ele>
        <time>2018-08-05T08:55:41Z</time>
      </trkpt>
      <trkpt lat="46.501450734212995" lon="8.457877663895488">
        <ele>2433.23</ele>
        <time>2018-08-05T08:55:49Z</time>
      </trkpt>
      <trkpt lat="46.501490799710155" lon="8.457882441580296">
        <ele>2434.1999999999998</ele>
        <time>2018-08-05T08:56:00Z</time>
      </trkpt>
      <trkpt lat="46.501516280695796" lon="8.45786408521235">
        <ele>2435.1599999999999</ele>
        <time>2018-08-05T08:56:10Z</time>
      </trkpt>
      <trkpt lat="46.501517537981272" lon="8.457829467952251">
        <ele>2436.1199999999999</ele>
        <time>2018-08-05T08:56:23Z</time>
      </trkpt>
      <trkpt lat="46.501514101400971" lon="8.457800634205341">
        <ele>2437.0799999999999</ele>
        <time>2018-08-05T08:56:34Z</time>
      </trkpt>
      <trkpt lat="46.501541258767247" lon="8.457779511809349">
        <ele>2438.04</ele>
        <time>2018-08-05T08:56:45Z</time>
      </trkpt>
      <trkpt lat="46.501537067815661" lon="8.457764592021704">
        <ele>2439</ele>
        <time>2018-08-05T08:56:55Z</time>
      </trkpt>
      <trkpt lat="46.501584928482771" lon="8.457769956439734">
        <ele>2439</ele>
        <time>2018-08-05T08:57:06Z</time>
      </trkpt>
      <trkpt lat="46.501587526872754" lon="8.457763502374291">
        <ele>2439.48</ele>
        <time>2018-08-05T08:57:23Z</time>
      </trkpt>
      <trkpt lat="46.501579312607646" lon="8.457729890942574">
        <ele>2441.4099999999999</ele>
        <time>2018-08-05T08:57:34Z</time>
      </trkpt>
      <trkpt lat="46.501608397811651" lon="8.457693597301841">
        <ele>2441.8899999999999</ele>
        <time>2018-08-05T08:57:45Z</time>
      </trkpt>
      <trkpt lat="46.50160638615489" lon="8.457703487947583">
        <ele>2442.3699999999999</ele>
        <time>2018-08-05T08:57:57Z</time>
      </trkpt>
      <trkpt lat="46.501664640381932" lon="8.45767448656261">
        <ele>2443.8099999999999</ele>
        <time>2018-08-05T08:58:09Z</time>
      </trkpt>
      <trkpt lat="46.501668998971581" lon="8.457640875130892">
        <ele>2444.77</ele>
        <time>2018-08-05T08:58:22Z</time>
      </trkpt>
      <trkpt lat="46.501679476350546" lon="8.457651352509856">
        <ele>2445.73</ele>
        <time>2018-08-05T08:58:30Z</time>
      </trkpt>
      <trkpt lat="46.501693725585937" lon="8.457649843767285">
        <ele>2446.21</ele>
        <time>2018-08-05T08:58:44Z</time>
      </trkpt>
      <trkpt lat="46.50172658264637" lon="8.457638276740909">
        <ele>2447.6500000000001</ele>
        <time>2018-08-05T08:58:56Z</time>
      </trkpt>
      <trkpt lat="46.501716859638691" lon="8.457599300891161">
        <ele>2449.0999999999999</ele>
        <time>2018-08-05T08:59:06Z</time>
      </trkpt>
      <trkpt lat="46.501709735020995" lon="8.457566946744919">
        <ele>2450.54</ele>
        <time>2018-08-05T08:59:16Z</time>
      </trkpt>
      <trkpt lat="46.50171241723001" lon="8.457551607862115">
        <ele>2451.02</ele>
        <time>2018-08-05T08:59:26Z</time>
      </trkpt>
      <trkpt lat="46.501706466078758" lon="8.457532161846757">
        <ele>2451.5</ele>
        <time>2018-08-05T08:59:41Z</time>
      </trkpt>
      <trkpt lat="46.501709315925837" lon="8.457499304786325">
        <ele>2451.98</ele>
        <time>2018-08-05T09:00:00Z</time>
      </trkpt>
      <trkpt lat="46.501710992306471" lon="8.457478098571301">
        <ele>2452.9400000000001</ele>
        <time>2018-08-05T09:00:10Z</time>
      </trkpt>
      <trkpt lat="46.501729600131512" lon="8.457446163520217">
        <ele>2453.4200000000001</ele>
        <time>2018-08-05T09:00:22Z</time>
      </trkpt>
      <trkpt lat="46.501719877123833" lon="8.457417832687497">
        <ele>2455.3400000000001</ele>
        <time>2018-08-05T09:00:34Z</time>
      </trkpt>
      <trkpt lat="46.501706633716822" lon="8.457395788282156">
        <ele>2456.79</ele>
        <time>2018-08-05T09:00:47Z</time>
      </trkpt>
      <trkpt lat="46.501721637323499" lon="8.457353627309203">
        <ele>2457.75</ele>
        <time>2018-08-05T09:00:58Z</time>
      </trkpt>
      <trkpt lat="46.501726247370243" lon="8.457323620095849">
        <ele>2459.1900000000001</ele>
        <time>2018-08-05T09:01:08Z</time>
      </trkpt>
      <trkpt lat="46.501708896830678" lon="8.457305431365967">
        <ele>2459.1900000000001</ele>
        <time>2018-08-05T09:01:21Z</time>
      </trkpt>
      <trkpt lat="46.501710573211312" lon="8.457270730286837">
        <ele>2460.6300000000001</ele>
        <time>2018-08-05T09:01:35Z</time>
      </trkpt>
      <trkpt lat="46.501702526584268" lon="8.457257654517889">
        <ele>2461.1100000000001</ele>
        <time>2018-08-05T09:01:45Z</time>
      </trkpt>
      <trkpt lat="46.50170654989779" lon="8.457250446081162">
        <ele>2461.5900000000001</ele>
        <time>2018-08-05T09:02:02Z</time>
      </trkpt>
      <trkpt lat="46.501723397523165" lon="8.457298139110208">
        <ele>2461.1100000000001</ele>
        <time>2018-08-05T09:02:19Z</time>
      </trkpt>
      <trkpt lat="46.501725409179926" lon="8.45726452767849">
        <ele>2461.1100000000001</ele>
        <time>2018-08-05T09:02:38Z</time>
      </trkpt>
      <trkpt lat="46.501726247370243" lon="8.457260252907872">
        <ele>2461.1100000000001</ele>
        <time>2018-08-05T09:02:56Z</time>
      </trkpt>
      <trkpt lat="46.501734042540193" lon="8.457266958430409">
        <ele>2462.0700000000002</ele>
        <time>2018-08-05T09:03:12Z</time>
      </trkpt>
      <trkpt lat="46.501732366159558" lon="8.457214906811714">
        <ele>2463.52</ele>
        <time>2018-08-05T09:03:23Z</time>
      </trkpt>
      <trkpt lat="46.501738568767905" lon="8.457205016165972">
        <ele>2465.4400000000001</ele>
        <time>2018-08-05T09:03:34Z</time>
      </trkpt>
      <trkpt lat="46.501729348674417" lon="8.457152796909213">
        <ele>2466.4000000000001</ele>
        <time>2018-08-05T09:03:44Z</time>
      </trkpt>
      <trkpt lat="46.501761199906468" lon="8.457121029496193">
        <ele>2467.3600000000001</ele>
        <time>2018-08-05T09:03:54Z</time>
      </trkpt>
      <trkpt lat="46.501767570152879" lon="8.457114994525909">
        <ele>2468.8000000000002</ele>
        <time>2018-08-05T09:04:05Z</time>
      </trkpt>
      <trkpt lat="46.501744017004967" lon="8.457096219062805">
        <ele>2469.2800000000002</ele>
        <time>2018-08-05T09:04:16Z</time>
      </trkpt>
      <trkpt lat="46.50174074806273" lon="8.457060009241104">
        <ele>2470.2399999999998</ele>
        <time>2018-08-05T09:04:28Z</time>
      </trkpt>
      <trkpt lat="46.501733707264066" lon="8.457011645659804">
        <ele>2471.6900000000001</ele>
        <time>2018-08-05T09:04:38Z</time>
      </trkpt>
      <trkpt lat="46.501765558496118" lon="8.456992786377668">
        <ele>2472.1700000000001</ele>
        <time>2018-08-05T09:04:47Z</time>
      </trkpt>
      <trkpt lat="46.501766229048371" lon="8.456962695345283">
        <ele>2473.1300000000001</ele>
        <time>2018-08-05T09:04:59Z</time>
      </trkpt>
      <trkpt lat="46.501790871843696" lon="8.456929251551628">
        <ele>2474.5700000000002</ele>
        <time>2018-08-05T09:05:15Z</time>
      </trkpt>
      <trkpt lat="46.501828674226999" lon="8.456920282915235">
        <ele>2475.5300000000002</ele>
        <time>2018-08-05T09:05:25Z</time>
      </trkpt>
      <trkpt lat="46.501826578751206" lon="8.456907290965319">
        <ele>2476.9699999999998</ele>
        <time>2018-08-05T09:05:35Z</time>
      </trkpt>
      <trkpt lat="46.501834625378251" lon="8.456871332600713">
        <ele>2478.4200000000001</ele>
        <time>2018-08-05T09:05:47Z</time>
      </trkpt>
      <trkpt lat="46.501846108585596" lon="8.456860017031431">
        <ele>2479.3800000000001</ele>
        <time>2018-08-05T09:05:58Z</time>
      </trkpt>
      <trkpt lat="46.50184920988977" lon="8.456844929605722">
        <ele>2480.8200000000002</ele>
        <time>2018-08-05T09:06:08Z</time>
      </trkpt>
      <trkpt lat="46.501871170476079" lon="8.456818275153637">
        <ele>2481.7800000000002</ele>
        <time>2018-08-05T09:06:21Z</time>
      </trkpt>
      <trkpt lat="46.501860106363893" lon="8.456793464720249">
        <ele>2483.2199999999998</ele>
        <time>2018-08-05T09:06:34Z</time>
      </trkpt>
      <trkpt lat="46.501878881826997" lon="8.456770498305559">
        <ele>2484.6599999999999</ele>
        <time>2018-08-05T09:06:47Z</time>
      </trkpt>
      <trkpt lat="46.501883659511805" lon="8.456769911572337">
        <ele>2485.1500000000001</ele>
        <time>2018-08-05T09:06:57Z</time>
      </trkpt>
      <trkpt lat="46.501841666176915" lon="8.456749208271503">
        <ele>2485.6300000000001</ele>
        <time>2018-08-05T09:07:14Z</time>
      </trkpt>
      <trkpt lat="46.501831104978919" lon="8.456751052290201">
        <ele>2485.1500000000001</ele>
        <time>2018-08-05T09:07:33Z</time>
      </trkpt>
      <trkpt lat="46.50186781771481" lon="8.456721296533942">
        <ele>2486.5900000000001</ele>
        <time>2018-08-05T09:07:45Z</time>
      </trkpt>
      <trkpt lat="46.501881396397948" lon="8.456684164702892">
        <ele>2488.0300000000002</ele>
        <time>2018-08-05T09:07:57Z</time>
      </trkpt>
      <trkpt lat="46.501921294257045" lon="8.456697072833777">
        <ele>2489.9499999999998</ele>
        <time>2018-08-05T09:08:11Z</time>
      </trkpt>
      <trkpt lat="46.501934370025992" lon="8.456671675667167">
        <ele>2490.9099999999999</ele>
        <time>2018-08-05T09:08:22Z</time>
      </trkpt>
      <trkpt lat="46.501926993951201" lon="8.456666143611074">
        <ele>2490.9099999999999</ele>
        <time>2018-08-05T09:08:37Z</time>
      </trkpt>
      <trkpt lat="46.501932106912136" lon="8.456646278500557">
        <ele>2492.3600000000001</ele>
        <time>2018-08-05T09:08:48Z</time>
      </trkpt>
      <trkpt lat="46.501944344490767" lon="8.456618953496218">
        <ele>2493.8000000000002</ele>
        <time>2018-08-05T09:09:00Z</time>
      </trkpt>
      <trkpt lat="46.501957420259714" lon="8.456590287387371">
        <ele>2495.2399999999998</ele>
        <time>2018-08-05T09:09:11Z</time>
      </trkpt>
      <trkpt lat="46.501975608989596" lon="8.456544354557991">
        <ele>2496.1999999999998</ele>
        <time>2018-08-05T09:09:23Z</time>
      </trkpt>
      <trkpt lat="46.50197527371347" lon="8.456535637378693">
        <ele>2497.6399999999999</ele>
        <time>2018-08-05T09:09:37Z</time>
      </trkpt>
      <trkpt lat="46.502000084146857" lon="8.456503283232451">
        <ele>2498.5999999999999</ele>
        <time>2018-08-05T09:09:48Z</time>
      </trkpt>
      <trkpt lat="46.501999916508794" lon="8.456472354009748">
        <ele>2500.0500000000002</ele>
        <time>2018-08-05T09:10:01Z</time>
      </trkpt>
      <trkpt lat="46.502015423029661" lon="8.456471432000399">
        <ele>2501.0100000000002</ele>
        <time>2018-08-05T09:10:12Z</time>
      </trkpt>
      <trkpt lat="46.502028247341514" lon="8.456462547183037">
        <ele>2501.9699999999998</ele>
        <time>2018-08-05T09:10:25Z</time>
      </trkpt>
      <trkpt lat="46.502032857388258" lon="8.456477718427777">
        <ele>2501.4899999999998</ele>
        <time>2018-08-05T09:10:51Z</time>
      </trkpt>
      <trkpt lat="46.502048363909125" lon="8.456461541354656">
        <ele>2503.4099999999999</ele>
        <time>2018-08-05T09:11:02Z</time>
      </trkpt>
      <trkpt lat="46.502078454941511" lon="8.456420470029116">
        <ele>2505.8099999999999</ele>
        <time>2018-08-05T09:11:13Z</time>
      </trkpt>
      <trkpt lat="46.50209010578692" lon="8.456383338198066">
        <ele>2507.2600000000002</ele>
        <time>2018-08-05T09:11:23Z</time>
      </trkpt>
      <trkpt lat="46.50210234336555" lon="8.456374537199736">
        <ele>2508.6999999999998</ele>
        <time>2018-08-05T09:11:32Z</time>
      </trkpt>
      <trkpt lat="46.502112653106451" lon="8.45636397600174">
        <ele>2509.6599999999999</ele>
        <time>2018-08-05T09:11:46Z</time>
      </trkpt>
      <trkpt lat="46.502143247053027" lon="8.456351822242141">
        <ele>2511.0999999999999</ele>
        <time>2018-08-05T09:11:57Z</time>
      </trkpt>
      <trkpt lat="46.502131512388587" lon="8.456313600763679">
        <ele>2512.0599999999999</ele>
        <time>2018-08-05T09:12:08Z</time>
      </trkpt>
      <trkpt lat="46.50213360786438" lon="8.456282168626785">
        <ele>2513.5</ele>
        <time>2018-08-05T09:12:17Z</time>
      </trkpt>
      <trkpt lat="46.502162273973227" lon="8.456282755360007">
        <ele>2514.4699999999998</ele>
        <time>2018-08-05T09:12:29Z</time>
      </trkpt>
      <trkpt lat="46.502157244831324" lon="8.456251909956336">
        <ele>2515.9099999999999</ele>
        <time>2018-08-05T09:12:40Z</time>
      </trkpt>
      <trkpt lat="46.502173589542508" lon="8.45622718334198">
        <ele>2516.8699999999999</ele>
        <time>2018-08-05T09:12:49Z</time>
      </trkpt>
      <trkpt lat="46.502148527652025" lon="8.456206144765019">
        <ele>2518.3099999999999</ele>
        <time>2018-08-05T09:12:58Z</time>
      </trkpt>
      <trkpt lat="46.502161854878068" lon="8.456185273826122">
        <ele>2518.3099999999999</ele>
        <time>2018-08-05T09:13:08Z</time>
      </trkpt>
      <trkpt lat="46.502173002809286" lon="8.45615828409791">
        <ele>2520.23</ele>
        <time>2018-08-05T09:13:19Z</time>
      </trkpt>
      <trkpt lat="46.502184486016631" lon="8.456134647130966">
        <ele>2521.1900000000001</ele>
        <time>2018-08-05T09:13:29Z</time>
      </trkpt>
      <trkpt lat="46.502189766615629" lon="8.456096928566694">
        <ele>2522.6399999999999</ele>
        <time>2018-08-05T09:13:40Z</time>
      </trkpt>
      <trkpt lat="46.502211727201939" lon="8.456107908859849">
        <ele>2524.0799999999999</ele>
        <time>2018-08-05T09:13:51Z</time>
      </trkpt>
      <trkpt lat="46.502199992537498" lon="8.456062562763691">
        <ele>2525.52</ele>
        <time>2018-08-05T09:14:04Z</time>
      </trkpt>
      <trkpt lat="46.502186581492424" lon="8.456021742895246">
        <ele>2526.48</ele>
        <time>2018-08-05T09:14:15Z</time>
      </trkpt>
      <trkpt lat="46.502200998365879" lon="8.456025095656514">
        <ele>2526.96</ele>
        <time>2018-08-05T09:14:26Z</time>
      </trkpt>
      <trkpt lat="46.502191610634327" lon="8.45597262494266">
        <ele>2528.4000000000001</ele>
        <time>2018-08-05T09:14:36Z</time>
      </trkpt>
      <trkpt lat="46.502191945910454" lon="8.455933649092913">
        <ele>2529.8499999999999</ele>
        <time>2018-08-05T09:14:49Z</time>
      </trkpt>
      <trkpt lat="46.502186497673392" lon="8.455862067639828">
        <ele>2530.8099999999999</ele>
        <time>2018-08-05T09:14:58Z</time>
      </trkpt>
      <trkpt lat="46.502188257873058" lon="8.455864666029811">
        <ele>2530.8099999999999</ele>
        <time>2018-08-05T09:15:16Z</time>
      </trkpt>
      <trkpt lat="46.502218935638666" lon="8.455866342410445">
        <ele>2531.77</ele>
        <time>2018-08-05T09:15:33Z</time>
      </trkpt>
      <trkpt lat="46.502219270914793" lon="8.455832814797759">
        <ele>2533.6900000000001</ele>
        <time>2018-08-05T09:15:45Z</time>
      </trkpt>
      <trkpt lat="46.502229496836662" lon="8.455835832282901">
        <ele>2535.1300000000001</ele>
        <time>2018-08-05T09:15:57Z</time>
      </trkpt>
      <trkpt lat="46.502241566777229" lon="8.45585192553699">
        <ele>2534.1700000000001</ele>
        <time>2018-08-05T09:16:15Z</time>
      </trkpt>
      <trkpt lat="46.502244248986244" lon="8.455769866704941">
        <ele>2536.0999999999999</ele>
        <time>2018-08-05T09:16:27Z</time>
      </trkpt>
      <trkpt lat="46.502257408574224" lon="8.45571706071496">
        <ele>2537.0599999999999</ele>
        <time>2018-08-05T09:16:38Z</time>
      </trkpt>
      <trkpt lat="46.502263359725475" lon="8.455661488696933">
        <ele>2538.5</ele>
        <time>2018-08-05T09:16:50Z</time>
      </trkpt>
      <trkpt lat="46.502262940630317" lon="8.455633325502276">
        <ele>2540.4200000000001</ele>
        <time>2018-08-05T09:17:00Z</time>
      </trkpt>
      <trkpt lat="46.502328403294086" lon="8.4556769952178">
        <ele>2540.9000000000001</ele>
        <time>2018-08-05T09:17:10Z</time>
      </trkpt>
      <trkpt lat="46.502343406900764" lon="8.455668278038502">
        <ele>2541.8600000000001</ele>
        <time>2018-08-05T09:17:18Z</time>
      </trkpt>
      <trkpt lat="46.502326223999262" lon="8.455640953034163">
        <ele>2542.8200000000002</ele>
        <time>2018-08-05T09:17:29Z</time>
      </trkpt>
      <trkpt lat="46.502313232049346" lon="8.455619998276234">
        <ele>2542.8200000000002</ele>
        <time>2018-08-05T09:17:41Z</time>
      </trkpt>
      <trkpt lat="46.502320189028978" lon="8.455618070438504">
        <ele>2542.8200000000002</ele>
        <time>2018-08-05T09:17:56Z</time>
      </trkpt>
      <trkpt lat="46.502277692779899" lon="8.455573227256537">
        <ele>2542.8200000000002</ele>
        <time>2018-08-05T09:18:15Z</time>
      </trkpt>
      <trkpt lat="46.502312058582902" lon="8.455565180629492">
        <ele>2544.75</ele>
        <time>2018-08-05T09:18:27Z</time>
      </trkpt>
      <trkpt lat="46.502374922856688" lon="8.455590745434165">
        <ele>2547.1500000000001</ele>
        <time>2018-08-05T09:18:39Z</time>
      </trkpt>
      <trkpt lat="46.502377269789577" lon="8.455572724342346">
        <ele>2547.6300000000001</ele>
        <time>2018-08-05T09:18:48Z</time>
      </trkpt>
      <trkpt lat="46.502383556216955" lon="8.45554850064218">
        <ele>2549.0700000000002</ele>
        <time>2018-08-05T09:19:01Z</time>
      </trkpt>
      <trkpt lat="46.502404762431979" lon="8.455548165366054">
        <ele>2550.0300000000002</ele>
        <time>2018-08-05T09:19:11Z</time>
      </trkpt>
      <trkpt lat="46.502414988353848" lon="8.455531988292933">
        <ele>2551</ele>
        <time>2018-08-05T09:19:20Z</time>
      </trkpt>
      <trkpt lat="46.502413060516119" lon="8.45548446290195">
        <ele>2552.4400000000001</ele>
        <time>2018-08-05T09:19:32Z</time>
      </trkpt>
      <trkpt lat="46.502424711361527" lon="8.455463172867894">
        <ele>2553.8800000000001</ele>
        <time>2018-08-05T09:19:43Z</time>
      </trkpt>
      <trkpt lat="46.502471063286066" lon="8.455472560599446">
        <ele>2555.3200000000002</ele>
        <time>2018-08-05T09:19:56Z</time>
      </trkpt>
      <trkpt lat="46.502515571191907" lon="8.455476835370064">
        <ele>2557.2399999999998</ele>
        <time>2018-08-05T09:20:07Z</time>
      </trkpt>
      <trkpt lat="46.502522863447666" lon="8.455451522022486">
        <ele>2558.6900000000001</ele>
        <time>2018-08-05T09:20:19Z</time>
      </trkpt>
      <trkpt lat="46.502517247572541" lon="8.455415898934007">
        <ele>2559.6500000000001</ele>
        <time>2018-08-05T09:20:29Z</time>
      </trkpt>
      <trkpt lat="46.502518840134144" lon="8.455402068793774">
        <ele>2561.0900000000001</ele>
        <time>2018-08-05T09:20:38Z</time>
      </trkpt>
      <trkpt lat="46.502553708851337" lon="8.455379437655211">
        <ele>2563.0100000000002</ele>
        <time>2018-08-05T09:20:47Z</time>
      </trkpt>
      <trkpt lat="46.502601820975542" lon="8.45540382899344">
        <ele>2564.4499999999998</ele>
        <time>2018-08-05T09:20:56Z</time>
      </trkpt>
      <trkpt lat="46.502588158473372" lon="8.455411456525326">
        <ele>2564.9299999999998</ele>
        <time>2018-08-05T09:21:06Z</time>
      </trkpt>
      <trkpt lat="46.502582123503089" lon="8.455341132357717">
        <ele>2566.8600000000001</ele>
        <time>2018-08-05T09:21:19Z</time>
      </trkpt>
      <trkpt lat="46.502630654722452" lon="8.45532420091331">
        <ele>2569.2600000000002</ele>
        <time>2018-08-05T09:21:30Z</time>
      </trkpt>
      <trkpt lat="46.502622105181217" lon="8.455284805968404">
        <ele>2570.6999999999998</ele>
        <time>2018-08-05T09:21:37Z</time>
      </trkpt>
      <trkpt lat="46.502615148201585" lon="8.455230323597789">
        <ele>2572.6300000000001</ele>
        <time>2018-08-05T09:21:45Z</time>
      </trkpt>
      <trkpt lat="46.502623446285725" lon="8.4551986400038">
        <ele>2573.1100000000001</ele>
        <time>2018-08-05T09:21:55Z</time>
      </trkpt>
      <trkpt lat="46.502788066864014" lon="8.454388277605176">
        <ele>2561.0900000000001</ele>
        <time>2018-08-05T09:33:27Z</time>
      </trkpt>
      <trkpt lat="46.502792173996568" lon="8.454386349767447">
        <ele>2564.4499999999998</ele>
        <time>2018-08-05T09:33:29Z</time>
      </trkpt>
      <trkpt lat="46.502798711881042" lon="8.454385511577129">
        <ele>2568.3000000000002</ele>
        <time>2018-08-05T09:33:32Z</time>
      </trkpt>
      <trkpt lat="46.502788905054331" lon="8.454396743327379">
        <ele>2572.6300000000001</ele>
        <time>2018-08-05T09:33:35Z</time>
      </trkpt>
      <trkpt lat="46.502778930589557" lon="8.454369502142072">
        <ele>2575.9899999999998</ele>
        <time>2018-08-05T09:33:38Z</time>
      </trkpt>
      <trkpt lat="46.502776918932796" lon="8.45433278940618">
        <ele>2579.3499999999999</ele>
        <time>2018-08-05T09:33:41Z</time>
      </trkpt>
      <trkpt lat="46.50278689339757" lon="8.454302027821541">
        <ele>2583.1999999999998</ele>
        <time>2018-08-05T09:33:44Z</time>
      </trkpt>
      <trkpt lat="46.502766441553831" lon="8.454236146062613">
        <ele>2587.04</ele>
        <time>2018-08-05T09:33:50Z</time>
      </trkpt>
      <trkpt lat="46.50279032997787" lon="8.454204462468624">
        <ele>2588.4899999999998</ele>
        <time>2018-08-05T09:33:53Z</time>
      </trkpt>
      <trkpt lat="46.50282989256084" lon="8.454171186313033">
        <ele>2591.8499999999999</ele>
        <time>2018-08-05T09:33:58Z</time>
      </trkpt>
      <trkpt lat="46.502856547012925" lon="8.454129779711366">
        <ele>2594.7399999999998</ele>
        <time>2018-08-05T09:34:02Z</time>
      </trkpt>
      <trkpt lat="46.502872053533792" lon="8.454098934307694">
        <ele>2596.1799999999998</ele>
        <time>2018-08-05T09:34:05Z</time>
      </trkpt>
      <trkpt lat="46.502880519255996" lon="8.454066831618547">
        <ele>2599.0599999999999</ele>
        <time>2018-08-05T09:34:10Z</time>
      </trkpt>
      <trkpt lat="46.502874400466681" lon="8.454005643725395">
        <ele>2602.4299999999998</ele>
        <time>2018-08-05T09:34:15Z</time>
      </trkpt>
      <trkpt lat="46.502886386588216" lon="8.453952586278319">
        <ele>2605.79</ele>
        <time>2018-08-05T09:34:22Z</time>
      </trkpt>
      <trkpt lat="46.502892421558499" lon="8.453883267939091">
        <ele>2609.1599999999999</ele>
        <time>2018-08-05T09:34:31Z</time>
      </trkpt>
      <trkpt lat="46.502907508984208" lon="8.45385979861021">
        <ele>2612.52</ele>
        <time>2018-08-05T09:34:37Z</time>
      </trkpt>
      <trkpt lat="46.502912202849984" lon="8.453859211876988">
        <ele>2612.04</ele>
        <time>2018-08-05T09:34:38Z</time>
      </trkpt>
      <trkpt lat="46.502919914200902" lon="8.453803472220898">
        <ele>2614.9200000000001</ele>
        <time>2018-08-05T09:34:48Z</time>
      </trkpt>
      <trkpt lat="46.502938689664006" lon="8.45376449637115">
        <ele>2616.8499999999999</ele>
        <time>2018-08-05T09:35:01Z</time>
      </trkpt>
      <trkpt lat="46.502947574481368" lon="8.453709427267313">
        <ele>2618.29</ele>
        <time>2018-08-05T09:35:13Z</time>
      </trkpt>
      <trkpt lat="46.502961656078696" lon="8.453644886612892">
        <ele>2619.73</ele>
        <time>2018-08-05T09:35:25Z</time>
      </trkpt>
      <trkpt lat="46.502982610836625" lon="8.453582609072328">
        <ele>2621.1700000000001</ele>
        <time>2018-08-05T09:35:39Z</time>
      </trkpt>
      <trkpt lat="46.503006163984537" lon="8.453548494726419">
        <ele>2622.1300000000001</ele>
        <time>2018-08-05T09:35:49Z</time>
      </trkpt>
      <trkpt lat="46.503013707697392" lon="8.453482780605555">
        <ele>2623.0900000000001</ele>
        <time>2018-08-05T09:36:00Z</time>
      </trkpt>
      <trkpt lat="46.50304882787168" lon="8.453430980443955">
        <ele>2624.54</ele>
        <time>2018-08-05T09:36:10Z</time>
      </trkpt>
      <trkpt lat="46.50307422503829" lon="8.45338529907167">
        <ele>2625.5</ele>
        <time>2018-08-05T09:36:21Z</time>
      </trkpt>
      <trkpt lat="46.50306299328804" lon="8.453355459496379">
        <ele>2626.9400000000001</ele>
        <time>2018-08-05T09:36:34Z</time>
      </trkpt>
      <trkpt lat="46.503064334392548" lon="8.453307347372174">
        <ele>2627.4200000000001</ele>
        <time>2018-08-05T09:36:43Z</time>
      </trkpt>
      <trkpt lat="46.503076488152146" lon="8.453209279105067">
        <ele>2629.3400000000001</ele>
        <time>2018-08-05T09:36:55Z</time>
      </trkpt>
      <trkpt lat="46.503066681325436" lon="8.453134261071682">
        <ele>2630.3000000000002</ele>
        <time>2018-08-05T09:37:06Z</time>
      </trkpt>
      <trkpt lat="46.50305419228971" lon="8.45307307317853">
        <ele>2631.27</ele>
        <time>2018-08-05T09:37:19Z</time>
      </trkpt>
      <trkpt lat="46.503047067672014" lon="8.453002916648984">
        <ele>2632.23</ele>
        <time>2018-08-05T09:37:31Z</time>
      </trkpt>
      <trkpt lat="46.503050336614251" lon="8.452880205586553">
        <ele>2633.6700000000001</ele>
        <time>2018-08-05T09:37:46Z</time>
      </trkpt>
      <trkpt lat="46.503073219209909" lon="8.452797392383218">
        <ele>2635.1100000000001</ele>
        <time>2018-08-05T09:37:58Z</time>
      </trkpt>
      <trkpt lat="46.503076823428273" lon="8.452732851728797">
        <ele>2636.0700000000002</ele>
        <time>2018-08-05T09:38:11Z</time>
      </trkpt>
      <trkpt lat="46.503089647740126" lon="8.452651798725128">
        <ele>2637.0300000000002</ele>
        <time>2018-08-05T09:38:23Z</time>
      </trkpt>
      <trkpt lat="46.503082690760493" lon="8.452576948329806">
        <ele>2637.9899999999998</ele>
        <time>2018-08-05T09:38:33Z</time>
      </trkpt>
      <trkpt lat="46.503099370747805" lon="8.452509976923466">
        <ele>2638.96</ele>
        <time>2018-08-05T09:38:43Z</time>
      </trkpt>
      <trkpt lat="46.5031255222857" lon="8.452441832050681">
        <ele>2639.9200000000001</ele>
        <time>2018-08-05T09:38:55Z</time>
      </trkpt>
      <trkpt lat="46.503162235021591" lon="8.452338147908449">
        <ele>2640.8800000000001</ele>
        <time>2018-08-05T09:39:07Z</time>
      </trkpt>
      <trkpt lat="46.503175143152475" lon="8.452290035784245">
        <ele>2641.3600000000001</ele>
        <time>2018-08-05T09:39:18Z</time>
      </trkpt>
      <trkpt lat="46.503206072375178" lon="8.452194901183248">
        <ele>2642.8000000000002</ele>
        <time>2018-08-05T09:39:31Z</time>
      </trkpt>
      <trkpt lat="46.503211604431272" lon="8.452158607542515">
        <ele>2643.2800000000002</ele>
        <time>2018-08-05T09:39:39Z</time>
      </trkpt>
      <trkpt lat="46.503217807039618" lon="8.452117368578911">
        <ele>2644.7199999999998</ele>
        <time>2018-08-05T09:39:49Z</time>
      </trkpt>
      <trkpt lat="46.503226021304727" lon="8.452061880379915">
        <ele>2645.6900000000001</ele>
        <time>2018-08-05T09:39:59Z</time>
      </trkpt>
      <trkpt lat="46.503250831738114" lon="8.451993819326162">
        <ele>2646.1700000000001</ele>
        <time>2018-08-05T09:40:10Z</time>
      </trkpt>
      <trkpt lat="46.503258207812905" lon="8.451965823769569">
        <ele>2646.6500000000001</ele>
        <time>2018-08-05T09:40:16Z</time>
      </trkpt>
      <trkpt lat="46.503284107893705" lon="8.451929781585932">
        <ele>2647.6100000000001</ele>
        <time>2018-08-05T09:40:29Z</time>
      </trkpt>
      <trkpt lat="46.503303218632936" lon="8.45187546685338">
        <ele>2649.0500000000002</ele>
        <time>2018-08-05T09:40:41Z</time>
      </trkpt>
      <trkpt lat="46.503312606364489" lon="8.451796257868409">
        <ele>2649.5300000000002</ele>
        <time>2018-08-05T09:40:52Z</time>
      </trkpt>
      <trkpt lat="46.503342194482684" lon="8.451793491840363">
        <ele>2650.4899999999998</ele>
        <time>2018-08-05T09:41:05Z</time>
      </trkpt>
      <trkpt lat="46.503372369334102" lon="8.451732974499464">
        <ele>2652.4200000000001</ele>
        <time>2018-08-05T09:41:18Z</time>
      </trkpt>
      <trkpt lat="46.5033810865134" lon="8.451690394431353">
        <ele>2652.9000000000001</ele>
        <time>2018-08-05T09:41:30Z</time>
      </trkpt>
      <trkpt lat="46.503397934138775" lon="8.451628033071756">
        <ele>2654.3400000000001</ele>
        <time>2018-08-05T09:41:43Z</time>
      </trkpt>
      <trkpt lat="46.503411009907722" lon="8.45159056596458">
        <ele>2654.8200000000002</ele>
        <time>2018-08-05T09:41:54Z</time>
      </trkpt>
      <trkpt lat="46.503383684903383" lon="8.451506579294801">
        <ele>2656.2600000000002</ele>
        <time>2018-08-05T09:42:05Z</time>
      </trkpt>
      <trkpt lat="46.503403130918741" lon="8.451460646465421">
        <ele>2657.2199999999998</ele>
        <time>2018-08-05T09:42:16Z</time>
      </trkpt>
      <trkpt lat="46.503411177545786" lon="8.451408762484789">
        <ele>2658.6599999999999</ele>
        <time>2018-08-05T09:42:28Z</time>
      </trkpt>
      <trkpt lat="46.503271199762821" lon="8.451268617063761">
        <ele>2661.5500000000002</ele>
        <time>2018-08-05T09:42:41Z</time>
      </trkpt>
      <trkpt lat="46.503281593322754" lon="8.451222516596317">
        <ele>2661.0700000000002</ele>
        <time>2018-08-05T09:42:54Z</time>
      </trkpt>
      <trkpt lat="46.503283437341452" lon="8.451186642050743">
        <ele>2662.0300000000002</ele>
        <time>2018-08-05T09:43:05Z</time>
      </trkpt>
      <trkpt lat="46.503285113722086" lon="8.45115520991385">
        <ele>2662.9899999999998</ele>
        <time>2018-08-05T09:43:18Z</time>
      </trkpt>
      <trkpt lat="46.503280252218246" lon="8.451113635674119">
        <ele>2663.9499999999998</ele>
        <time>2018-08-05T09:43:29Z</time>
      </trkpt>
      <trkpt lat="46.503310846164823" lon="8.451104750856757">
        <ele>2664.4299999999998</ele>
        <time>2018-08-05T09:43:47Z</time>
      </trkpt>
      <trkpt lat="46.503378069028258" lon="8.451128304004669">
        <ele>2663.9499999999998</ele>
        <time>2018-08-05T09:44:08Z</time>
      </trkpt>
      <trkpt lat="46.503347642719746" lon="8.451082454994321">
        <ele>2664.9099999999999</ele>
        <time>2018-08-05T09:44:22Z</time>
      </trkpt>
      <trkpt lat="46.503336830064654" lon="8.451087903231382">
        <ele>2664.9099999999999</ele>
        <time>2018-08-05T09:44:35Z</time>
      </trkpt>
      <trkpt lat="46.503321910277009" lon="8.45107457600534">
        <ele>2666.3499999999999</ele>
        <time>2018-08-05T09:44:44Z</time>
      </trkpt>
      <trkpt lat="46.503324089571834" lon="8.451005928218365">
        <ele>2668.2800000000002</ele>
        <time>2018-08-05T09:44:54Z</time>
      </trkpt>
      <trkpt lat="46.503285281360149" lon="8.450942561030388">
        <ele>2668.7600000000002</ele>
        <time>2018-08-05T09:45:04Z</time>
      </trkpt>
      <trkpt lat="46.503261728212237" lon="8.4508952870965">
        <ele>2668.7600000000002</ele>
        <time>2018-08-05T09:45:17Z</time>
      </trkpt>
      <trkpt lat="46.503253765404224" lon="8.45086888410151">
        <ele>2670.1999999999998</ele>
        <time>2018-08-05T09:45:32Z</time>
      </trkpt>
      <trkpt lat="46.503235325217247" lon="8.450820185244083">
        <ele>2672.5999999999999</ele>
        <time>2018-08-05T09:45:45Z</time>
      </trkpt>
      <trkpt lat="46.503231469541788" lon="8.450777940452099">
        <ele>2672.5999999999999</ele>
        <time>2018-08-05T09:45:52Z</time>
      </trkpt>
      <trkpt lat="46.50324278511107" lon="8.45071155577898">
        <ele>2673.0799999999999</ele>
        <time>2018-08-05T09:46:01Z</time>
      </trkpt>
      <trkpt lat="46.503262398764491" lon="8.450677776709199">
        <ele>2675.0100000000002</ele>
        <time>2018-08-05T09:46:13Z</time>
      </trkpt>
      <trkpt lat="46.50327555835247" lon="8.450636956840754">
        <ele>2675.4899999999998</ele>
        <time>2018-08-05T09:46:26Z</time>
      </trkpt>
      <trkpt lat="46.503253849223256" lon="8.45059672370553">
        <ele>2676.4499999999998</ele>
        <time>2018-08-05T09:46:37Z</time>
      </trkpt>
      <trkpt lat="46.503228871151805" lon="8.450545175001025">
        <ele>2676.9299999999998</ele>
        <time>2018-08-05T09:46:49Z</time>
      </trkpt>
      <trkpt lat="46.503231720998883" lon="8.450524806976318">
        <ele>2676.4499999999998</ele>
        <time>2018-08-05T09:47:03Z</time>
      </trkpt>
      <trkpt lat="46.503229206427932" lon="8.450531680136919">
        <ele>2676.9299999999998</ele>
        <time>2018-08-05T09:47:23Z</time>
      </trkpt>
      <trkpt lat="46.503238845616579" lon="8.450522543862462">
        <ele>2676.9299999999998</ele>
        <time>2018-08-05T09:47:40Z</time>
      </trkpt>
      <trkpt lat="46.503245299682021" lon="8.45047895796597">
        <ele>2675.4899999999998</ele>
        <time>2018-08-05T09:47:49Z</time>
      </trkpt>
      <trkpt lat="46.503247898072004" lon="8.450468648225069">
        <ele>2675.4899999999998</ele>
        <time>2018-08-05T09:48:11Z</time>
      </trkpt>
      <trkpt lat="46.503266589716077" lon="8.450508797541261">
        <ele>2675.9699999999998</ele>
        <time>2018-08-05T09:48:23Z</time>
      </trkpt>
      <trkpt lat="46.50325845927" lon="8.450491866096854">
        <ele>2675.9699999999998</ele>
        <time>2018-08-05T09:48:37Z</time>
      </trkpt>
      <trkpt lat="46.503263488411903" lon="8.450521286576986">
        <ele>2675.0100000000002</ele>
        <time>2018-08-05T09:48:50Z</time>
      </trkpt>
      <trkpt lat="46.503252759575844" lon="8.450527573004365">
        <ele>2675.9699999999998</ele>
        <time>2018-08-05T09:49:06Z</time>
      </trkpt>
      <trkpt lat="46.503238929435611" lon="8.450496308505535">
        <ele>2675.4899999999998</ele>
        <time>2018-08-05T09:49:16Z</time>
      </trkpt>
      <trkpt lat="46.503251669928432" lon="8.450472336262465">
        <ele>2675.4899999999998</ele>
        <time>2018-08-05T09:49:32Z</time>
      </trkpt>
      <trkpt lat="46.503287879750133" lon="8.450445514172316">
        <ele>2676.9299999999998</ele>
        <time>2018-08-05T09:49:42Z</time>
      </trkpt>
      <trkpt lat="46.503315288573503" lon="8.450511228293181">
        <ele>2679.3299999999999</ele>
        <time>2018-08-05T09:49:52Z</time>
      </trkpt>
      <trkpt lat="46.503324592486024" lon="8.450525896623731">
        <ele>2679.8099999999999</ele>
        <time>2018-08-05T09:49:55Z</time>
      </trkpt>
      <trkpt lat="46.503349235281348" lon="8.450475689023733">
        <ele>2681.25</ele>
        <time>2018-08-05T09:50:05Z</time>
      </trkpt>
      <trkpt lat="46.503383936360478" lon="8.450436880812049">
        <ele>2683.1799999999998</ele>
        <time>2018-08-05T09:50:16Z</time>
      </trkpt>
      <trkpt lat="46.503433641046286" lon="8.450435372069478">
        <ele>2684.1399999999999</ele>
        <time>2018-08-05T09:50:26Z</time>
      </trkpt>
      <trkpt lat="46.503456439822912" lon="8.450410142540932">
        <ele>2683.6599999999999</ele>
        <time>2018-08-05T09:50:35Z</time>
      </trkpt>
      <trkpt lat="46.503485944122076" lon="8.450423134490848">
        <ele>2682.2199999999998</ele>
        <time>2018-08-05T09:50:43Z</time>
      </trkpt>
      <trkpt lat="46.50350958108902" lon="8.450507372617722">
        <ele>2681.73</ele>
        <time>2018-08-05T09:50:54Z</time>
      </trkpt>
      <trkpt lat="46.503520729020238" lon="8.450592700392008">
        <ele>2681.25</ele>
        <time>2018-08-05T09:51:04Z</time>
      </trkpt>
      <trkpt lat="46.503543695434928" lon="8.450525226071477">
        <ele>2680.77</ele>
        <time>2018-08-05T09:51:17Z</time>
      </trkpt>
      <trkpt lat="46.503572026267648" lon="8.450604770332575">
        <ele>2678.3699999999999</ele>
        <time>2018-08-05T09:51:27Z</time>
      </trkpt>
      <trkpt lat="46.503579150885344" lon="8.450624635443091">
        <ele>2678.3699999999999</ele>
        <time>2018-08-05T09:51:30Z</time>
      </trkpt>
      <trkpt lat="46.503638913854957" lon="8.450666209682822">
        <ele>2677.8899999999999</ele>
        <time>2018-08-05T09:51:40Z</time>
      </trkpt>
      <trkpt lat="46.503680991008878" lon="8.45066461712122">
        <ele>2678.8499999999999</ele>
        <time>2018-08-05T09:51:49Z</time>
      </trkpt>
      <trkpt lat="46.503712087869644" lon="8.450672328472138">
        <ele>2680.29</ele>
        <time>2018-08-05T09:51:58Z</time>
      </trkpt>
      <trkpt lat="46.503754081204534" lon="8.450645925477147">
        <ele>2680.77</ele>
        <time>2018-08-05T09:52:08Z</time>
      </trkpt>
      <trkpt lat="46.503784758970141" lon="8.450642321258783">
        <ele>2680.77</ele>
        <time>2018-08-05T09:52:18Z</time>
      </trkpt>
      <trkpt lat="46.503763133659959" lon="8.450597142800689">
        <ele>2680.77</ele>
        <time>2018-08-05T09:52:29Z</time>
      </trkpt>
      <trkpt lat="46.503773359581828" lon="8.450532769784331">
        <ele>2681.25</ele>
        <time>2018-08-05T09:52:41Z</time>
      </trkpt>
      <trkpt lat="46.503788782283664" lon="8.450473677366972">
        <ele>2681.25</ele>
        <time>2018-08-05T09:52:50Z</time>
      </trkpt>
      <trkpt lat="46.50380278006196" lon="8.450442245230079">
        <ele>2682.2199999999998</ele>
        <time>2018-08-05T09:52:58Z</time>
      </trkpt>
      <trkpt lat="46.503839828073978" lon="8.45042129047215">
        <ele>2682.6999999999998</ele>
        <time>2018-08-05T09:53:06Z</time>
      </trkpt>
      <trkpt lat="46.503888694569468" lon="8.450441155582666">
        <ele>2683.6599999999999</ele>
        <time>2018-08-05T09:53:14Z</time>
      </trkpt>
      <trkpt lat="46.503894394263625" lon="8.450471665710211">
        <ele>2684.1399999999999</ele>
        <time>2018-08-05T09:53:24Z</time>
      </trkpt>
      <trkpt lat="46.503904201090336" lon="8.450492117553949">
        <ele>2684.1399999999999</ele>
        <time>2018-08-05T09:53:40Z</time>
      </trkpt>
      <trkpt lat="46.503942757844925" lon="8.450495302677155">
        <ele>2684.6199999999999</ele>
        <time>2018-08-05T09:53:53Z</time>
      </trkpt>
      <trkpt lat="46.503967484459281" lon="8.450491279363632">
        <ele>2687.02</ele>
        <time>2018-08-05T09:54:04Z</time>
      </trkpt>
      <trkpt lat="46.503987349569798" lon="8.450494715943933">
        <ele>2688.46</ele>
        <time>2018-08-05T09:54:13Z</time>
      </trkpt>
      <trkpt lat="46.504012830555439" lon="8.450517263263464">
        <ele>2689.4299999999998</ele>
        <time>2018-08-05T09:54:26Z</time>
      </trkpt>
      <trkpt lat="46.504019116982818" lon="8.450474347919226">
        <ele>2691.3499999999999</ele>
        <time>2018-08-05T09:54:39Z</time>
      </trkpt>
      <trkpt lat="46.504038814455271" lon="8.450437216088176">
        <ele>2692.79</ele>
        <time>2018-08-05T09:54:50Z</time>
      </trkpt>
      <trkpt lat="46.504046861082315" lon="8.450422547757626">
        <ele>2693.75</ele>
        <time>2018-08-05T09:54:59Z</time>
      </trkpt>
      <trkpt lat="46.504075862467289" lon="8.45039589330554">
        <ele>2695.1900000000001</ele>
        <time>2018-08-05T09:55:09Z</time>
      </trkpt>
      <trkpt lat="46.504068151116371" lon="8.450374603271484">
        <ele>2696.6399999999999</ele>
        <time>2018-08-05T09:55:20Z</time>
      </trkpt>
      <trkpt lat="46.504082232713699" lon="8.450295645743609">
        <ele>2697.5999999999999</ele>
        <time>2018-08-05T09:55:29Z</time>
      </trkpt>
      <trkpt lat="46.504081394523382" lon="8.450245773419738">
        <ele>2698.5599999999999</ele>
        <time>2018-08-05T09:55:38Z</time>
      </trkpt>
      <trkpt lat="46.504093799740076" lon="8.450181651860476">
        <ele>2699.52</ele>
        <time>2018-08-05T09:55:48Z</time>
      </trkpt>
      <trkpt lat="46.504155742004514" lon="8.45015985891223">
        <ele>2700.48</ele>
        <time>2018-08-05T09:56:00Z</time>
      </trkpt>
      <trkpt lat="46.504186755046248" lon="8.450161870568991">
        <ele>2701.9200000000001</ele>
        <time>2018-08-05T09:56:09Z</time>
      </trkpt>
      <trkpt lat="46.504195975139737" lon="8.4501285944134">
        <ele>2702.8800000000001</ele>
        <time>2018-08-05T09:56:19Z</time>
      </trkpt>
      <trkpt lat="46.50422983802855" lon="8.450149800628424">
        <ele>2704.3299999999999</ele>
        <time>2018-08-05T09:56:28Z</time>
      </trkpt>
      <trkpt lat="46.504247775301337" lon="8.450145442038775">
        <ele>2705.77</ele>
        <time>2018-08-05T09:56:40Z</time>
      </trkpt>
      <trkpt lat="46.504257079213858" lon="8.450114177539945">
        <ele>2708.1700000000001</ele>
        <time>2018-08-05T09:56:50Z</time>
      </trkpt>
      <trkpt lat="46.504266215488315" lon="8.450087439268827">
        <ele>2707.6900000000001</ele>
        <time>2018-08-05T09:56:59Z</time>
      </trkpt>
      <trkpt lat="46.504275687038898" lon="8.450077213346958">
        <ele>2708.1700000000001</ele>
        <time>2018-08-05T09:57:09Z</time>
      </trkpt>
      <trkpt lat="46.504275351762772" lon="8.450075453147292">
        <ele>2708.1700000000001</ele>
        <time>2018-08-05T09:57:24Z</time>
      </trkpt>
      <trkpt lat="46.504289265722036" lon="8.450054749846458">
        <ele>2709.1300000000001</ele>
        <time>2018-08-05T09:57:43Z</time>
      </trkpt>
      <trkpt lat="46.504285829141736" lon="8.450050558894873">
        <ele>2709.6100000000001</ele>
        <time>2018-08-05T09:57:55Z</time>
      </trkpt>
      <trkpt lat="46.504286667332053" lon="8.450045781210065">
        <ele>2709.1300000000001</ele>
        <time>2018-08-05T09:58:18Z</time>
      </trkpt>
      <trkpt lat="46.504285493865609" lon="8.450038740411401">
        <ele>2709.1300000000001</ele>
        <time>2018-08-05T09:58:30Z</time>
      </trkpt>
      <trkpt lat="46.504282644018531" lon="8.450046703219414">
        <ele>2708.6500000000001</ele>
        <time>2018-08-05T09:58:44Z</time>
      </trkpt>
      <trkpt lat="46.50429043918848" lon="8.450098503381014">
        <ele>2709.1300000000001</ele>
        <time>2018-08-05T09:59:09Z</time>
      </trkpt>
      <trkpt lat="46.5042963065207" lon="8.450064891949296">
        <ele>2709.1300000000001</ele>
        <time>2018-08-05T09:59:37Z</time>
      </trkpt>
      <trkpt lat="46.504282727837563" lon="8.450053660199046">
        <ele>2709.6100000000001</ele>
        <time>2018-08-05T09:59:50Z</time>
      </trkpt>
      <trkpt lat="46.504298821091652" lon="8.450045948848128">
        <ele>2709.1300000000001</ele>
        <time>2018-08-05T10:00:05Z</time>
      </trkpt>
      <trkpt lat="46.504306364804506" lon="8.449996411800385">
        <ele>2710.0900000000001</ele>
        <time>2018-08-05T10:00:17Z</time>
      </trkpt>
      <trkpt lat="46.504313154146075" lon="8.449951568618417">
        <ele>2711.54</ele>
        <time>2018-08-05T10:00:28Z</time>
      </trkpt>
      <trkpt lat="46.504324469715357" lon="8.449927261099219">
        <ele>2713.46</ele>
        <time>2018-08-05T10:00:40Z</time>
      </trkpt>
      <trkpt lat="46.504340311512351" lon="8.449901947751641">
        <ele>2714.4200000000001</ele>
        <time>2018-08-05T10:00:50Z</time>
      </trkpt>
      <trkpt lat="46.504376772791147" lon="8.449891218915582">
        <ele>2715.8600000000001</ele>
        <time>2018-08-05T10:00:58Z</time>
      </trkpt>
      <trkpt lat="46.504352716729045" lon="8.449845034629107">
        <ele>2717.3000000000002</ele>
        <time>2018-08-05T10:01:07Z</time>
      </trkpt>
      <trkpt lat="46.504352549090981" lon="8.449808740988374">
        <ele>2717.3000000000002</ele>
        <time>2018-08-05T10:01:17Z</time>
      </trkpt>
      <trkpt lat="46.504392279312015" lon="8.449779823422432">
        <ele>2718.75</ele>
        <time>2018-08-05T10:01:29Z</time>
      </trkpt>
      <trkpt lat="46.504416838288307" lon="8.449824079871178">
        <ele>2720.1900000000001</ele>
        <time>2018-08-05T10:01:38Z</time>
      </trkpt>
      <trkpt lat="46.504444079473615" lon="8.449872862547636">
        <ele>2721.6300000000001</ele>
        <time>2018-08-05T10:01:48Z</time>
      </trkpt>
      <trkpt lat="46.504467045888305" lon="8.449897337704897">
        <ele>2723.0700000000002</ele>
        <time>2018-08-05T10:02:00Z</time>
      </trkpt>
      <trkpt lat="46.504479367285967" lon="8.44994586892426">
        <ele>2724.0300000000002</ele>
        <time>2018-08-05T10:02:11Z</time>
      </trkpt>
      <trkpt lat="46.504499902948737" lon="8.44998300075531">
        <ele>2725.48</ele>
        <time>2018-08-05T10:02:21Z</time>
      </trkpt>
      <trkpt lat="46.504507949575782" lon="8.449936313554645">
        <ele>2727.4000000000001</ele>
        <time>2018-08-05T10:02:31Z</time>
      </trkpt>
      <trkpt lat="46.504467129707336" lon="8.449928853660822">
        <ele>2727.4000000000001</ele>
        <time>2018-08-05T10:02:43Z</time>
      </trkpt>
      <trkpt lat="46.504496885463595" lon="8.449887530878186">
        <ele>2728.8400000000001</ele>
        <time>2018-08-05T10:02:50Z</time>
      </trkpt>
      <trkpt lat="46.504541896283627" lon="8.449868755415082">
        <ele>2730.7600000000002</ele>
        <time>2018-08-05T10:02:58Z</time>
      </trkpt>
      <trkpt lat="46.504548517987132" lon="8.449829360470176">
        <ele>2732.6799999999998</ele>
        <time>2018-08-05T10:03:07Z</time>
      </trkpt>
      <trkpt lat="46.504580285400152" lon="8.449850482866168">
        <ele>2732.6799999999998</ele>
        <time>2018-08-05T10:03:17Z</time>
      </trkpt>
      <trkpt lat="46.504601240158081" lon="8.449807902798057">
        <ele>2733.6500000000001</ele>
        <time>2018-08-05T10:03:26Z</time>
      </trkpt>
      <trkpt lat="46.504618674516678" lon="8.449768172577024">
        <ele>2734.1300000000001</ele>
        <time>2018-08-05T10:03:35Z</time>
      </trkpt>
      <trkpt lat="46.504635522142053" lon="8.449746547266841">
        <ele>2736.0500000000002</ele>
        <time>2018-08-05T10:03:45Z</time>
      </trkpt>
      <trkpt lat="46.504642479121685" lon="8.449711510911584">
        <ele>2736.5300000000002</ele>
        <time>2018-08-05T10:03:54Z</time>
      </trkpt>
      <trkpt lat="46.504682963714004" lon="8.449686700478196">
        <ele>2737.4899999999998</ele>
        <time>2018-08-05T10:04:04Z</time>
      </trkpt>
      <trkpt lat="46.504721604287624" lon="8.449674881994724">
        <ele>2738.4499999999998</ele>
        <time>2018-08-05T10:04:13Z</time>
      </trkpt>
      <trkpt lat="46.504755215719342" lon="8.449665745720267">
        <ele>2739.8899999999999</ele>
        <time>2018-08-05T10:04:22Z</time>
      </trkpt>
      <trkpt lat="46.504771560430527" lon="8.44961553812027">
        <ele>2740.3800000000001</ele>
        <time>2018-08-05T10:04:30Z</time>
      </trkpt>
      <trkpt lat="46.504781031981111" lon="8.449556864798069">
        <ele>2740.8600000000001</ele>
        <time>2018-08-05T10:04:38Z</time>
      </trkpt>
      <trkpt lat="46.504779020324349" lon="8.449497856199741">
        <ele>2741.3400000000001</ele>
        <time>2018-08-05T10:04:46Z</time>
      </trkpt>
      <trkpt lat="46.50477365590632" lon="8.449478494003415">
        <ele>2741.3400000000001</ele>
        <time>2018-08-05T10:04:55Z</time>
      </trkpt>
      <trkpt lat="46.504790671169758" lon="8.449465502053499">
        <ele>2741.3400000000001</ele>
        <time>2018-08-05T10:05:02Z</time>
      </trkpt>
      <trkpt lat="46.504828557372093" lon="8.449461814016104">
        <ele>2741.8200000000002</ele>
        <time>2018-08-05T10:05:11Z</time>
      </trkpt>
      <trkpt lat="46.504859235137701" lon="8.449383610859513">
        <ele>2742.3000000000002</ele>
        <time>2018-08-05T10:05:20Z</time>
      </trkpt>
      <trkpt lat="46.504886224865913" lon="8.449300965294242">
        <ele>2742.7800000000002</ele>
        <time>2018-08-05T10:05:29Z</time>
      </trkpt>
      <trkpt lat="46.504884883761406" lon="8.449273388832808">
        <ele>2743.2600000000002</ele>
        <time>2018-08-05T10:05:33Z</time>
      </trkpt>
      <trkpt lat="46.504901060834527" lon="8.449212117120624">
        <ele>2742.3000000000002</ele>
        <time>2018-08-05T10:05:38Z</time>
      </trkpt>
      <trkpt lat="46.504933414980769" lon="8.449109690263867">
        <ele>2742.3000000000002</ele>
        <time>2018-08-05T10:05:48Z</time>
      </trkpt>
      <trkpt lat="46.504957135766745" lon="8.449093261733651">
        <ele>2742.7800000000002</ele>
        <time>2018-08-05T10:05:57Z</time>
      </trkpt>
      <trkpt lat="46.504967026412487" lon="8.449085298925638">
        <ele>2742.3000000000002</ele>
        <time>2018-08-05T10:06:07Z</time>
      </trkpt>
      <trkpt lat="46.505010444670916" lon="8.449042215943337">
        <ele>2743.7399999999998</ele>
        <time>2018-08-05T10:06:17Z</time>
      </trkpt>
      <trkpt lat="46.505027627572417" lon="8.449056968092918">
        <ele>2745.1799999999998</ele>
        <time>2018-08-05T10:06:21Z</time>
      </trkpt>
      <trkpt lat="46.505048917606473" lon="8.449102398008108">
        <ele>2745.6599999999999</ele>
        <time>2018-08-05T10:06:30Z</time>
      </trkpt>
      <trkpt lat="46.505055287852883" lon="8.449142882600427">
        <ele>2746.6199999999999</ele>
        <time>2018-08-05T10:06:40Z</time>
      </trkpt>
      <trkpt lat="46.505077332258224" lon="8.449135841801763">
        <ele>2747.5900000000001</ele>
        <time>2018-08-05T10:06:48Z</time>
      </trkpt>
      <trkpt lat="46.505079092457891" lon="8.44919485040009">
        <ele>2749.0300000000002</ele>
        <time>2018-08-05T10:06:59Z</time>
      </trkpt>
      <trkpt lat="46.505100969225168" lon="8.449225779622793">
        <ele>2750.4699999999998</ele>
        <time>2018-08-05T10:07:08Z</time>
      </trkpt>
      <trkpt lat="46.505135502666235" lon="8.449222426861525">
        <ele>2752.8699999999999</ele>
        <time>2018-08-05T10:07:20Z</time>
      </trkpt>
      <trkpt lat="46.505133071914315" lon="8.449251176789403">
        <ele>2754.3099999999999</ele>
        <time>2018-08-05T10:07:29Z</time>
      </trkpt>
      <trkpt lat="46.505164671689272" lon="8.449280010536313">
        <ele>2755.2800000000002</ele>
        <time>2018-08-05T10:07:40Z</time>
      </trkpt>
      <trkpt lat="46.505175568163395" lon="8.449302138760686">
        <ele>2756.7199999999998</ele>
        <time>2018-08-05T10:07:50Z</time>
      </trkpt>
      <trkpt lat="46.505185291171074" lon="8.449347317218781">
        <ele>2758.1599999999999</ele>
        <time>2018-08-05T10:08:01Z</time>
      </trkpt>
      <trkpt lat="46.505204485729337" lon="8.449315214529634">
        <ele>2759.5999999999999</ele>
        <time>2018-08-05T10:08:12Z</time>
      </trkpt>
      <trkpt lat="46.505162660032511" lon="8.44926810823381">
        <ele>2760.0799999999999</ele>
        <time>2018-08-05T10:08:25Z</time>
      </trkpt>
      <trkpt lat="46.505160983651876" lon="8.449197532609105">
        <ele>2761.52</ele>
        <time>2018-08-05T10:08:36Z</time>
      </trkpt>
      <trkpt lat="46.505194008350372" lon="8.449149923399091">
        <ele>2763.4499999999998</ele>
        <time>2018-08-05T10:08:46Z</time>
      </trkpt>
      <trkpt lat="46.505251508206129" lon="8.449161825701594">
        <ele>2765.3699999999999</ele>
        <time>2018-08-05T10:08:57Z</time>
      </trkpt>
      <trkpt lat="46.505290567874908" lon="8.449254026636481">
        <ele>2767.29</ele>
        <time>2018-08-05T10:09:08Z</time>
      </trkpt>
      <trkpt lat="46.505308002233505" lon="8.449289230629802">
        <ele>2768.25</ele>
        <time>2018-08-05T10:09:16Z</time>
      </trkpt>
      <trkpt lat="46.505346307530999" lon="8.449274646118283">
        <ele>2769.21</ele>
        <time>2018-08-05T10:09:25Z</time>
      </trkpt>
      <trkpt lat="46.505361562594771" lon="8.449259055778384">
        <ele>2770.1799999999998</ele>
        <time>2018-08-05T10:09:33Z</time>
      </trkpt>
      <trkpt lat="46.505400286987424" lon="8.44926567748189">
        <ele>2771.6199999999999</ele>
        <time>2018-08-05T10:09:44Z</time>
      </trkpt>
      <trkpt lat="46.50540447793901" lon="8.449359890073538">
        <ele>2773.0599999999999</ele>
        <time>2018-08-05T10:09:53Z</time>
      </trkpt>
      <trkpt lat="46.505366759374738" lon="8.449381850659847">
        <ele>2773.0599999999999</ele>
        <time>2018-08-05T10:10:06Z</time>
      </trkpt>
      <trkpt lat="46.505347648635507" lon="8.449424849823117">
        <ele>2773.0599999999999</ele>
        <time>2018-08-05T10:10:22Z</time>
      </trkpt>
      <trkpt lat="46.505360137671232" lon="8.44944890588522">
        <ele>2774.02</ele>
        <time>2018-08-05T10:10:33Z</time>
      </trkpt>
      <trkpt lat="46.505396431311965" lon="8.449407164007425">
        <ele>2774.98</ele>
        <time>2018-08-05T10:10:43Z</time>
      </trkpt>
      <trkpt lat="46.505409339442849" lon="8.449385622516275">
        <ele>2775.46</ele>
        <time>2018-08-05T10:10:51Z</time>
      </trkpt>
      <trkpt lat="46.505440520122647" lon="8.449383862316608">
        <ele>2776.4200000000001</ele>
        <time>2018-08-05T10:11:00Z</time>
      </trkpt>
      <trkpt lat="46.505475807934999" lon="8.449368858709931">
        <ele>2777.3899999999999</ele>
        <time>2018-08-05T10:11:10Z</time>
      </trkpt>
      <trkpt lat="46.505497433245182" lon="8.44938394613564">
        <ele>2778.3499999999999</ele>
        <time>2018-08-05T10:11:18Z</time>
      </trkpt>
      <trkpt lat="46.505501372739673" lon="8.449347233399749">
        <ele>2779.79</ele>
        <time>2018-08-05T10:11:28Z</time>
      </trkpt>
      <trkpt lat="46.505503132939339" lon="8.449300797656179">
        <ele>2781.71</ele>
        <time>2018-08-05T10:11:38Z</time>
      </trkpt>
      <trkpt lat="46.505488632246852" lon="8.449275568127632">
        <ele>2782.6700000000001</ele>
        <time>2018-08-05T10:11:43Z</time>
      </trkpt>
      <trkpt lat="46.505528781563044" lon="8.449231395497918">
        <ele>2783.6300000000001</ele>
        <time>2018-08-05T10:11:52Z</time>
      </trkpt>
      <trkpt lat="46.505547389388084" lon="8.449185714125633">
        <ele>2784.1199999999999</ele>
        <time>2018-08-05T10:12:02Z</time>
      </trkpt>
      <trkpt lat="46.505560716614127" lon="8.449126370251179">
        <ele>2784.1199999999999</ele>
        <time>2018-08-05T10:12:10Z</time>
      </trkpt>
      <trkpt lat="46.505578905344009" lon="8.449099631980062">
        <ele>2784.5999999999999</ele>
        <time>2018-08-05T10:12:20Z</time>
      </trkpt>
      <trkpt lat="46.50560581125319" lon="8.449133997783065">
        <ele>2785.5599999999999</ele>
        <time>2018-08-05T10:12:30Z</time>
      </trkpt>
      <trkpt lat="46.505622491240501" lon="8.449124358594418">
        <ele>2786.52</ele>
        <time>2018-08-05T10:12:37Z</time>
      </trkpt>
      <trkpt lat="46.505650822073221" lon="8.449084293097258">
        <ele>2787.48</ele>
        <time>2018-08-05T10:12:46Z</time>
      </trkpt>
      <trkpt lat="46.505656354129314" lon="8.449045233428478">
        <ele>2787.96</ele>
        <time>2018-08-05T10:12:55Z</time>
      </trkpt>
      <trkpt lat="46.505649145692587" lon="8.449039366096258">
        <ele>2787.96</ele>
        <time>2018-08-05T10:13:08Z</time>
      </trkpt>
      <trkpt lat="46.505668004974723" lon="8.449050011113286">
        <ele>2789.4000000000001</ele>
        <time>2018-08-05T10:13:20Z</time>
      </trkpt>
      <trkpt lat="46.505700275301933" lon="8.44903165474534">
        <ele>2790.8400000000001</ele>
        <time>2018-08-05T10:13:29Z</time>
      </trkpt>
      <trkpt lat="46.505730953067541" lon="8.449056716635823">
        <ele>2791.8099999999999</ele>
        <time>2018-08-05T10:13:38Z</time>
      </trkpt>
      <trkpt lat="46.505761966109276" lon="8.449047077447176">
        <ele>2793.73</ele>
        <time>2018-08-05T10:13:47Z</time>
      </trkpt>
      <trkpt lat="46.505779651924968" lon="8.449066355824471">
        <ele>2794.6900000000001</ele>
        <time>2018-08-05T10:13:56Z</time>
      </trkpt>
      <trkpt lat="46.505747968330979" lon="8.449147325009108">
        <ele>2795.1700000000001</ele>
        <time>2018-08-05T10:14:13Z</time>
      </trkpt>
      <trkpt lat="46.505745286121964" lon="8.449213961139321">
        <ele>2797.5700000000002</ele>
        <time>2018-08-05T10:14:25Z</time>
      </trkpt>
      <trkpt lat="46.505759032443166" lon="8.449295433238149">
        <ele>2798.54</ele>
        <time>2018-08-05T10:14:36Z</time>
      </trkpt>
      <trkpt lat="46.5057900454849" lon="8.449293421581388">
        <ele>2800.46</ele>
        <time>2018-08-05T10:14:45Z</time>
      </trkpt>
      <trkpt lat="46.505827680230141" lon="8.449301971122623">
        <ele>2801.9000000000001</ele>
        <time>2018-08-05T10:14:55Z</time>
      </trkpt>
      <trkpt lat="46.505862632766366" lon="8.449296774342656">
        <ele>2802.8600000000001</ele>
        <time>2018-08-05T10:15:06Z</time>
      </trkpt>
      <trkpt lat="46.50588140822947" lon="8.449274562299252">
        <ele>2803.8200000000002</ele>
        <time>2018-08-05T10:15:17Z</time>
      </trkpt>
      <trkpt lat="46.505911080166698" lon="8.449285374954343">
        <ele>2806.23</ele>
        <time>2018-08-05T10:15:25Z</time>
      </trkpt>
      <trkpt lat="46.505922311916947" lon="8.449318315833807">
        <ele>2805.2600000000002</ele>
        <time>2018-08-05T10:15:35Z</time>
      </trkpt>
      <trkpt lat="46.505928430706263" lon="8.449328122660518">
        <ele>2807.1900000000001</ele>
        <time>2018-08-05T10:15:48Z</time>
      </trkpt>
      <trkpt lat="46.505977883934975" lon="8.449350586161017">
        <ele>2808.6300000000001</ele>
        <time>2018-08-05T10:15:56Z</time>
      </trkpt>
      <trkpt lat="46.505971681326628" lon="8.449416551738977">
        <ele>2810.5500000000002</ele>
        <time>2018-08-05T10:16:07Z</time>
      </trkpt>
      <trkpt lat="46.50598400272429" lon="8.449440021067858">
        <ele>2811.9899999999998</ele>
        <time>2018-08-05T10:16:17Z</time>
      </trkpt>
      <trkpt lat="46.505984840914607" lon="8.449485953897238">
        <ele>2812.96</ele>
        <time>2018-08-05T10:16:28Z</time>
      </trkpt>
      <trkpt lat="46.506017697975039" lon="8.449515206739306">
        <ele>2814.8800000000001</ele>
        <time>2018-08-05T10:16:39Z</time>
      </trkpt>
      <trkpt lat="46.506036724895239" lon="8.44942644238472">
        <ele>2815.3600000000001</ele>
        <time>2018-08-05T10:16:49Z</time>
      </trkpt>
      <trkpt lat="46.506056673824787" lon="8.449382856488228">
        <ele>2815.3600000000001</ele>
        <time>2018-08-05T10:16:58Z</time>
      </trkpt>
      <trkpt lat="46.506063295528293" lon="8.4493428748101">
        <ele>2814.4000000000001</ele>
        <time>2018-08-05T10:17:05Z</time>
      </trkpt>
      <trkpt lat="46.50608810596168" lon="8.449296858161688">
        <ele>2815.8400000000001</ele>
        <time>2018-08-05T10:17:14Z</time>
      </trkpt>
      <trkpt lat="46.50614719837904" lon="8.449299959465861">
        <ele>2817.7600000000002</ele>
        <time>2018-08-05T10:17:23Z</time>
      </trkpt>
      <trkpt lat="46.506181731820107" lon="8.449333319440484">
        <ele>2819.1999999999998</ele>
        <time>2018-08-05T10:17:35Z</time>
      </trkpt>
      <trkpt lat="46.506176954135299" lon="8.449395261704922">
        <ele>2820.6500000000001</ele>
        <time>2018-08-05T10:17:46Z</time>
      </trkpt>
      <trkpt lat="46.50620436295867" lon="8.449422670528293">
        <ele>2822.0900000000001</ele>
        <time>2018-08-05T10:17:54Z</time>
      </trkpt>
      <trkpt lat="46.50621903128922" lon="8.449467765167356">
        <ele>2824.4899999999998</ele>
        <time>2018-08-05T10:18:07Z</time>
      </trkpt>
      <trkpt lat="46.506258342415094" lon="8.449545046314597">
        <ele>2826.8899999999999</ele>
        <time>2018-08-05T10:18:20Z</time>
      </trkpt>
      <trkpt lat="46.506249876692891" lon="8.449589554220438">
        <ele>2827.3699999999999</ele>
        <time>2018-08-05T10:18:27Z</time>
      </trkpt>
      <trkpt lat="46.506256498396397" lon="8.449634900316596">
        <ele>2827.8499999999999</ele>
        <time>2018-08-05T10:18:39Z</time>
      </trkpt>
      <trkpt lat="46.506234118714929" lon="8.44965317286551">
        <ele>2828.3400000000001</ele>
        <time>2018-08-05T10:18:56Z</time>
      </trkpt>
      <trkpt lat="46.506267143413424" lon="8.449682760983706">
        <ele>2829.3000000000002</ele>
        <time>2018-08-05T10:19:09Z</time>
      </trkpt>
      <trkpt lat="46.506284242495894" lon="8.449743110686541">
        <ele>2831.2199999999998</ele>
        <time>2018-08-05T10:19:20Z</time>
      </trkpt>
      <trkpt lat="46.506311148405075" lon="8.449769262224436">
        <ele>2832.6599999999999</ele>
        <time>2018-08-05T10:19:29Z</time>
      </trkpt>
      <trkpt lat="46.506308801472187" lon="8.449837239459157">
        <ele>2834.0999999999999</ele>
        <time>2018-08-05T10:19:41Z</time>
      </trkpt>
      <trkpt lat="46.506302179768682" lon="8.449876550585032">
        <ele>2835.0599999999999</ele>
        <time>2018-08-05T10:19:50Z</time>
      </trkpt>
      <trkpt lat="46.506303353235126" lon="8.449914017692208">
        <ele>2836.0300000000002</ele>
        <time>2018-08-05T10:19:58Z</time>
      </trkpt>
      <trkpt lat="46.506323721259832" lon="8.44993899576366">
        <ele>2836.9899999999998</ele>
        <time>2018-08-05T10:20:09Z</time>
      </trkpt>
      <trkpt lat="46.506306370720267" lon="8.449980150908232">
        <ele>2837.9499999999998</ele>
        <time>2018-08-05T10:20:18Z</time>
      </trkpt>
      <trkpt lat="46.506302179768682" lon="8.449989035725594">
        <ele>2838.9099999999999</ele>
        <time>2018-08-05T10:20:26Z</time>
      </trkpt>
      <trkpt lat="46.506287595257163" lon="8.450022311881185">
        <ele>2839.3899999999999</ele>
        <time>2018-08-05T10:20:34Z</time>
      </trkpt>
      <trkpt lat="46.506291618570685" lon="8.450018875300884">
        <ele>2840.3499999999999</ele>
        <time>2018-08-05T10:20:44Z</time>
      </trkpt>
      <trkpt lat="46.506267981603742" lon="8.4500543307513">
        <ele>2841.79</ele>
        <time>2018-08-05T10:20:58Z</time>
      </trkpt>
      <trkpt lat="46.506312154233456" lon="8.450092971324921">
        <ele>2843.7199999999998</ele>
        <time>2018-08-05T10:21:08Z</time>
      </trkpt>
      <trkpt lat="46.506338389590383" lon="8.450125576928258">
        <ele>2844.6799999999998</ele>
        <time>2018-08-05T10:21:19Z</time>
      </trkpt>
      <trkpt lat="46.506305783987045" lon="8.450189782306552">
        <ele>2845.6399999999999</ele>
        <time>2018-08-05T10:21:28Z</time>
      </trkpt>
      <trkpt lat="46.506303185597062" lon="8.450250718742609">
        <ele>2847.0799999999999</ele>
        <time>2018-08-05T10:21:39Z</time>
      </trkpt>
      <trkpt lat="46.506311818957329" lon="8.450279133394361">
        <ele>2847.5599999999999</ele>
        <time>2018-08-05T10:21:48Z</time>
      </trkpt>
      <trkpt lat="46.506322296336293" lon="8.45031282864511">
        <ele>2849.48</ele>
        <time>2018-08-05T10:21:58Z</time>
      </trkpt>
      <trkpt lat="46.506334533914924" lon="8.450306877493858">
        <ele>2849.9699999999998</ele>
        <time>2018-08-05T10:22:09Z</time>
      </trkpt>
      <trkpt lat="46.506338976323605" lon="8.450277289375663">
        <ele>2851.4099999999999</ele>
        <time>2018-08-05T10:22:20Z</time>
      </trkpt>
      <trkpt lat="46.50636320002377" lon="8.450269997119904">
        <ele>2852.8499999999999</ele>
        <time>2018-08-05T10:22:29Z</time>
      </trkpt>
      <trkpt lat="46.506367977708578" lon="8.450309475883842">
        <ele>2854.29</ele>
        <time>2018-08-05T10:22:40Z</time>
      </trkpt>
      <trkpt lat="46.506375186145306" lon="8.45029866322875">
        <ele>2855.25</ele>
        <time>2018-08-05T10:22:52Z</time>
      </trkpt>
      <trkpt lat="46.506397649645805" lon="8.450276032090187">
        <ele>2855.73</ele>
        <time>2018-08-05T10:23:01Z</time>
      </trkpt>
      <trkpt lat="46.506387256085873" lon="8.450272595509887">
        <ele>2856.21</ele>
        <time>2018-08-05T10:23:12Z</time>
      </trkpt>
      <trkpt lat="46.506392536684871" lon="8.450251556932926">
        <ele>2855.73</ele>
        <time>2018-08-05T10:23:22Z</time>
      </trkpt>
      <trkpt lat="46.506394632160664" lon="8.450239906087518">
        <ele>2855.73</ele>
        <time>2018-08-05T10:23:43Z</time>
      </trkpt>
      <trkpt lat="46.506385495886207" lon="8.450243175029755">
        <ele>2855.73</ele>
        <time>2018-08-05T10:23:59Z</time>
      </trkpt>
      <trkpt lat="46.506389770656824" lon="8.450265554711223">
        <ele>2856.21</ele>
        <time>2018-08-05T10:24:13Z</time>
      </trkpt>
      <trkpt lat="46.506383316591382" lon="8.450209898874164">
        <ele>2856.6900000000001</ele>
        <time>2018-08-05T10:24:29Z</time>
      </trkpt>
      <trkpt lat="46.506389267742634" lon="8.450233787298203">
        <ele>2856.21</ele>
        <time>2018-08-05T10:24:42Z</time>
      </trkpt>
      <trkpt lat="46.506415167823434" lon="8.450268991291523">
        <ele>2856.6900000000001</ele>
        <time>2018-08-05T10:25:04Z</time>
      </trkpt>
      <trkpt lat="46.506424555554986" lon="8.450267817825079">
        <ele>2857.1799999999998</ele>
        <time>2018-08-05T10:25:17Z</time>
      </trkpt>
      <trkpt lat="46.506444336846471" lon="8.450308050960302">
        <ele>2857.6599999999999</ele>
        <time>2018-08-05T10:25:36Z</time>
      </trkpt>
      <trkpt lat="46.506432183086872" lon="8.450273098424077">
        <ele>2858.1399999999999</ele>
        <time>2018-08-05T10:25:48Z</time>
      </trkpt>
      <trkpt lat="46.506424555554986" lon="8.450315091758966">
        <ele>2859.0999999999999</ele>
        <time>2018-08-05T10:25:58Z</time>
      </trkpt>
      <trkpt lat="46.506409803405404" lon="8.450292879715562">
        <ele>2859.0999999999999</ele>
        <time>2018-08-05T10:26:07Z</time>
      </trkpt>
      <trkpt lat="46.506411815062165" lon="8.450307967141271">
        <ele>2858.6199999999999</ele>
        <time>2018-08-05T10:26:17Z</time>
      </trkpt>
      <trkpt lat="46.506424136459827" lon="8.450303273275495">
        <ele>2859.0999999999999</ele>
        <time>2018-08-05T10:26:39Z</time>
      </trkpt>
      <trkpt lat="46.506472835317254" lon="8.450348787009716">
        <ele>2861.5</ele>
        <time>2018-08-05T10:26:50Z</time>
      </trkpt>
      <trkpt lat="46.506524300202727" lon="8.45037636347115">
        <ele>2863.9000000000001</ele>
        <time>2018-08-05T10:27:01Z</time>
      </trkpt>
      <trkpt lat="46.506543662399054" lon="8.450354151427746">
        <ele>2864.3899999999999</ele>
        <time>2018-08-05T10:27:08Z</time>
      </trkpt>
      <trkpt lat="46.506569311022758" lon="8.450344847515225">
        <ele>2865.8299999999999</ele>
        <time>2018-08-05T10:27:17Z</time>
      </trkpt>
      <trkpt lat="46.506610130891204" lon="8.450353648513556">
        <ele>2867.75</ele>
        <time>2018-08-05T10:27:25Z</time>
      </trkpt>
      <trkpt lat="46.506655560806394" lon="8.450369825586677">
        <ele>2868.71</ele>
        <time>2018-08-05T10:27:35Z</time>
      </trkpt>
      <trkpt lat="46.506693782284856" lon="8.450385499745607">
        <ele>2869.1900000000001</ele>
        <time>2018-08-05T10:27:49Z</time>
      </trkpt>
      <trkpt lat="46.506697218865156" lon="8.450375609099865">
        <ele>2870.6300000000001</ele>
        <time>2018-08-05T10:28:00Z</time>
      </trkpt>
      <trkpt lat="46.506723202764988" lon="8.450368987396359">
        <ele>2872.0799999999999</ele>
        <time>2018-08-05T10:28:10Z</time>
      </trkpt>
      <trkpt lat="46.506726555526257" lon="8.450330179184675">
        <ele>2872.0799999999999</ele>
        <time>2018-08-05T10:28:19Z</time>
      </trkpt>
      <trkpt lat="46.506737535819411" lon="8.450303692370653">
        <ele>2873.04</ele>
        <time>2018-08-05T10:28:27Z</time>
      </trkpt>
      <trkpt lat="46.506732339039445" lon="8.450258849188685">
        <ele>2873.52</ele>
        <time>2018-08-05T10:28:35Z</time>
      </trkpt>
      <trkpt lat="46.506727812811732" lon="8.450218196958304">
        <ele>2872.5599999999999</ele>
        <time>2018-08-05T10:28:44Z</time>
      </trkpt>
      <trkpt lat="46.506746169179678" lon="8.450189866125584">
        <ele>2872.0799999999999</ele>
        <time>2018-08-05T10:28:50Z</time>
      </trkpt>
      <trkpt lat="46.506774500012398" lon="8.450138065963984">
        <ele>2873.04</ele>
        <time>2018-08-05T10:29:01Z</time>
      </trkpt>
      <trkpt lat="46.506790174171329" lon="8.450077716261149">
        <ele>2873.52</ele>
        <time>2018-08-05T10:29:09Z</time>
      </trkpt>
      <trkpt lat="46.506827222183347" lon="8.45002650283277">
        <ele>2874</ele>
        <time>2018-08-05T10:29:17Z</time>
      </trkpt>
      <trkpt lat="46.506866868585348" lon="8.450048714876175">
        <ele>2875.9200000000001</ele>
        <time>2018-08-05T10:29:26Z</time>
      </trkpt>
      <trkpt lat="46.506891846656799" lon="8.450075872242451">
        <ele>2877.3600000000001</ele>
        <time>2018-08-05T10:29:36Z</time>
      </trkpt>
      <trkpt lat="46.506914142519236" lon="8.450072770938277">
        <ele>2879.29</ele>
        <time>2018-08-05T10:29:45Z</time>
      </trkpt>
      <trkpt lat="46.506919674575329" lon="8.450151309370995">
        <ele>2880.73</ele>
        <time>2018-08-05T10:29:57Z</time>
      </trkpt>
      <trkpt lat="46.50693099014461" lon="8.450133204460144">
        <ele>2881.21</ele>
        <time>2018-08-05T10:30:03Z</time>
      </trkpt>
      <trkpt lat="46.506963595747948" lon="8.45014963299036">
        <ele>2882.6500000000001</ele>
        <time>2018-08-05T10:30:13Z</time>
      </trkpt>
      <trkpt lat="46.506974492222071" lon="8.450181065127254">
        <ele>2884.5700000000002</ele>
        <time>2018-08-05T10:30:23Z</time>
      </trkpt>
      <trkpt lat="46.506987987086177" lon="8.450172180309892">
        <ele>2886.02</ele>
        <time>2018-08-05T10:30:33Z</time>
      </trkpt>
      <trkpt lat="46.507012881338596" lon="8.450198750942946">
        <ele>2887.9400000000001</ele>
        <time>2018-08-05T10:30:42Z</time>
      </trkpt>
      <trkpt lat="46.507011037319899" lon="8.450154745951295">
        <ele>2889.3800000000001</ele>
        <time>2018-08-05T10:30:53Z</time>
      </trkpt>
      <trkpt lat="46.507037607952952" lon="8.450103532522917">
        <ele>2889.8600000000001</ele>
        <time>2018-08-05T10:31:03Z</time>
      </trkpt>
      <trkpt lat="46.507068956270814" lon="8.450068160891533">
        <ele>2891.3000000000002</ele>
        <time>2018-08-05T10:31:14Z</time>
      </trkpt>
      <trkpt lat="46.507092425599694" lon="8.45006070099771">
        <ele>2892.2600000000002</ele>
        <time>2018-08-05T10:31:28Z</time>
      </trkpt>
      <trkpt lat="46.507117655128241" lon="8.450023988261819">
        <ele>2893.71</ele>
        <time>2018-08-05T10:31:39Z</time>
      </trkpt>
      <trkpt lat="46.507133832201362" lon="8.450058102607727">
        <ele>2895.6300000000001</ele>
        <time>2018-08-05T10:31:48Z</time>
      </trkpt>
      <trkpt lat="46.507153445854783" lon="8.450093809515238">
        <ele>2897.0700000000002</ele>
        <time>2018-08-05T10:31:59Z</time>
      </trkpt>
      <trkpt lat="46.50717431679368" lon="8.450123146176338">
        <ele>2899.4699999999998</ele>
        <time>2018-08-05T10:32:11Z</time>
      </trkpt>
      <trkpt lat="46.507189236581326" lon="8.450153740122914">
        <ele>2900.9200000000001</ele>
        <time>2018-08-05T10:32:21Z</time>
      </trkpt>
      <trkpt lat="46.507194936275482" lon="8.450226495042443">
        <ele>2902.8400000000001</ele>
        <time>2018-08-05T10:32:32Z</time>
      </trkpt>
      <trkpt lat="46.507226368412375" lon="8.450240157544613">
        <ele>2904.7600000000002</ele>
        <time>2018-08-05T10:32:43Z</time>
      </trkpt>
      <trkpt lat="46.507234666496515" lon="8.450195817276835">
        <ele>2905.2399999999998</ele>
        <time>2018-08-05T10:32:49Z</time>
      </trkpt>
      <trkpt lat="46.507256040349603" lon="8.450184753164649">
        <ele>2906.6799999999998</ele>
        <time>2018-08-05T10:33:01Z</time>
      </trkpt>
      <trkpt lat="46.507271714508533" lon="8.450177712365985">
        <ele>2908.6100000000001</ele>
        <time>2018-08-05T10:33:13Z</time>
      </trkpt>
      <trkpt lat="46.507301721721888" lon="8.450155165046454">
        <ele>2909.5700000000002</ele>
        <time>2018-08-05T10:33:23Z</time>
      </trkpt>
      <trkpt lat="46.507318401709199" lon="8.450123984366655">
        <ele>2911.0100000000002</ele>
        <time>2018-08-05T10:33:33Z</time>
      </trkpt>
      <trkpt lat="46.507350672036409" lon="8.450089870020747">
        <ele>2911.4899999999998</ele>
        <time>2018-08-05T10:33:42Z</time>
      </trkpt>
      <trkpt lat="46.507385624572635" lon="8.450080063194037">
        <ele>2914.3699999999999</ele>
        <time>2018-08-05T10:33:54Z</time>
      </trkpt>
      <trkpt lat="46.507410435006022" lon="8.450052654370666">
        <ele>2915.8200000000002</ele>
        <time>2018-08-05T10:34:05Z</time>
      </trkpt>
      <trkpt lat="46.507429126650095" lon="8.450062796473503">
        <ele>2916.3000000000002</ele>
        <time>2018-08-05T10:34:16Z</time>
      </trkpt>
      <trkpt lat="46.507439855486155" lon="8.450070004910231">
        <ele>2918.2199999999998</ele>
        <time>2018-08-05T10:34:26Z</time>
      </trkpt>
      <trkpt lat="46.507455529645085" lon="8.450052486732602">
        <ele>2919.6599999999999</ele>
        <time>2018-08-05T10:34:35Z</time>
      </trkpt>
      <trkpt lat="46.507460810244083" lon="8.450087942183018">
        <ele>2921.0999999999999</ele>
        <time>2018-08-05T10:34:47Z</time>
      </trkpt>
      <trkpt lat="46.50748603977263" lon="8.450096575543284">
        <ele>2923.0300000000002</ele>
        <time>2018-08-05T10:34:57Z</time>
      </trkpt>
      <trkpt lat="46.507515963166952" lon="8.450099593028426">
        <ele>2925.4299999999998</ele>
        <time>2018-08-05T10:35:08Z</time>
      </trkpt>
      <trkpt lat="46.507539097219706" lon="8.450110908597708">
        <ele>2925.9099999999999</ele>
        <time>2018-08-05T10:35:17Z</time>
      </trkpt>
      <trkpt lat="46.507516549900174" lon="8.450127001851797">
        <ele>2924.9499999999998</ele>
        <time>2018-08-05T10:35:26Z</time>
      </trkpt>
      <trkpt lat="46.5075031388551" lon="8.450128342956305">
        <ele>2925.4299999999998</ele>
        <time>2018-08-05T10:35:45Z</time>
      </trkpt>
      <trkpt lat="46.507506910711527" lon="8.450124738737941">
        <ele>2925.9099999999999</ele>
        <time>2018-08-05T10:36:00Z</time>
      </trkpt>
      <trkpt lat="46.507510263472795" lon="8.450113674625754">
        <ele>2925.9099999999999</ele>
        <time>2018-08-05T10:36:14Z</time>
      </trkpt>
      <trkpt lat="46.507509173825383" lon="8.450104370713234">
        <ele>2925.9099999999999</ele>
        <time>2018-08-05T10:36:29Z</time>
      </trkpt>
      <trkpt lat="46.507502971217036" lon="8.450108477845788">
        <ele>2926.3899999999999</ele>
        <time>2018-08-05T10:36:40Z</time>
      </trkpt>
      <trkpt lat="46.507493164390326" lon="8.450089618563652">
        <ele>2926.8699999999999</ele>
        <time>2018-08-05T10:36:57Z</time>
      </trkpt>
      <trkpt lat="46.507478076964617" lon="8.450077380985022">
        <ele>2926.3899999999999</ele>
        <time>2018-08-05T10:37:14Z</time>
      </trkpt>
      <trkpt lat="46.507483525201678" lon="8.450087103992701">
        <ele>2926.3899999999999</ele>
        <time>2018-08-05T10:37:29Z</time>
      </trkpt>
      <trkpt lat="46.507489308714867" lon="8.45007486641407">
        <ele>2926.8699999999999</ele>
        <time>2018-08-05T10:37:41Z</time>
      </trkpt>
      <trkpt lat="46.507499534636736" lon="8.450072854757309">
        <ele>2926.3899999999999</ele>
        <time>2018-08-05T10:37:56Z</time>
      </trkpt>
      <trkpt lat="46.507504647597671" lon="8.450083835050464">
        <ele>2926.8699999999999</ele>
        <time>2018-08-05T10:38:16Z</time>
      </trkpt>
      <trkpt lat="46.507499115541577" lon="8.450111327692866">
        <ele>2926.8699999999999</ele>
        <time>2018-08-05T10:38:31Z</time>
      </trkpt>
      <trkpt lat="46.507525937631726" lon="8.450154159218073">
        <ele>2927.8299999999999</ele>
        <time>2018-08-05T10:38:42Z</time>
      </trkpt>
      <trkpt lat="46.507535995915532" lon="8.450213754549623">
        <ele>2929.75</ele>
        <time>2018-08-05T10:38:53Z</time>
      </trkpt>
      <trkpt lat="46.507533732801676" lon="8.450279803946614">
        <ele>2931.1999999999998</ele>
        <time>2018-08-05T10:39:02Z</time>
      </trkpt>
      <trkpt lat="46.507560051977634" lon="8.450293047353625">
        <ele>2932.6399999999999</ele>
        <time>2018-08-05T10:39:11Z</time>
      </trkpt>
      <trkpt lat="46.507588885724545" lon="8.450350882485509">
        <ele>2934.0799999999999</ele>
        <time>2018-08-05T10:39:20Z</time>
      </trkpt>
      <trkpt lat="46.507599866017699" lon="8.450409807264805">
        <ele>2935.04</ele>
        <time>2018-08-05T10:39:30Z</time>
      </trkpt>
      <trkpt lat="46.507585030049086" lon="8.450439982116222">
        <ele>2937.4499999999998</ele>
        <time>2018-08-05T10:39:40Z</time>
      </trkpt>
      <trkpt lat="46.507611935958266" lon="8.450487507507205">
        <ele>2938.4099999999999</ele>
        <time>2018-08-05T10:39:50Z</time>
      </trkpt>
      <trkpt lat="46.507612271234393" lon="8.450546935200691">
        <ele>2940.8099999999999</ele>
        <time>2018-08-05T10:40:01Z</time>
      </trkpt>
      <trkpt lat="46.507619982585311" lon="8.450583815574646">
        <ele>2941.29</ele>
        <time>2018-08-05T10:40:10Z</time>
      </trkpt>
      <trkpt lat="46.507646888494492" lon="8.450616085901856">
        <ele>2942.73</ele>
        <time>2018-08-05T10:40:21Z</time>
      </trkpt>
      <trkpt lat="46.507653845474124" lon="8.450639136135578">
        <ele>2944.1700000000001</ele>
        <time>2018-08-05T10:40:28Z</time>
      </trkpt>
      <trkpt lat="46.507630040869117" lon="8.450685823336244">
        <ele>2945.1399999999999</ele>
        <time>2018-08-05T10:40:37Z</time>
      </trkpt>
      <trkpt lat="46.507608331739902" lon="8.450695797801018">
        <ele>2946.0999999999999</ele>
        <time>2018-08-05T10:40:45Z</time>
      </trkpt>
      <trkpt lat="46.507612522691488" lon="8.45072572119534">
        <ele>2948.02</ele>
        <time>2018-08-05T10:40:55Z</time>
      </trkpt>
      <trkpt lat="46.507631633430719" lon="8.450766792520881">
        <ele>2949.9400000000001</ele>
        <time>2018-08-05T10:41:03Z</time>
      </trkpt>
      <trkpt lat="46.507630376145244" lon="8.450799649581313">
        <ele>2950.9000000000001</ele>
        <time>2018-08-05T10:41:11Z</time>
      </trkpt>
      <trkpt lat="46.507656276226044" lon="8.450821693986654">
        <ele>2952.3499999999999</ele>
        <time>2018-08-05T10:41:20Z</time>
      </trkpt>
      <trkpt lat="46.507665999233723" lon="8.45084935426712">
        <ele>2953.3099999999999</ele>
        <time>2018-08-05T10:41:29Z</time>
      </trkpt>
      <trkpt lat="46.507687456905842" lon="8.45090308226645">
        <ele>2955.23</ele>
        <time>2018-08-05T10:41:39Z</time>
      </trkpt>
      <trkpt lat="46.50766977109015" lon="8.45096318051219">
        <ele>2957.1500000000001</ele>
        <time>2018-08-05T10:41:50Z</time>
      </trkpt>
      <trkpt lat="46.507677482441068" lon="8.450999725610018">
        <ele>2959.0799999999999</ele>
        <time>2018-08-05T10:42:00Z</time>
      </trkpt>
      <trkpt lat="46.507693491876125" lon="8.451030654832721">
        <ele>2961</ele>
        <time>2018-08-05T10:42:12Z</time>
      </trkpt>
      <trkpt lat="46.507719643414021" lon="8.451050939038396">
        <ele>2961.48</ele>
        <time>2018-08-05T10:42:23Z</time>
      </trkpt>
      <trkpt lat="46.507730120792985" lon="8.451093770563602">
        <ele>2962.9200000000001</ele>
        <time>2018-08-05T10:42:31Z</time>
      </trkpt>
      <trkpt lat="46.507723079994321" lon="8.451147247105837">
        <ele>2964.3600000000001</ele>
        <time>2018-08-05T10:42:41Z</time>
      </trkpt>
      <trkpt lat="46.507726600393653" lon="8.451175577938557">
        <ele>2966.29</ele>
        <time>2018-08-05T10:42:50Z</time>
      </trkpt>
      <trkpt lat="46.507708998396993" lon="8.451216649264097">
        <ele>2967.73</ele>
        <time>2018-08-05T10:42:59Z</time>
      </trkpt>
      <trkpt lat="46.507736491039395" lon="8.451239950954914">
        <ele>2970.1300000000001</ele>
        <time>2018-08-05T10:43:11Z</time>
      </trkpt>
      <trkpt lat="46.507760966196656" lon="8.451269203796983">
        <ele>2972.0500000000002</ele>
        <time>2018-08-05T10:43:22Z</time>
      </trkpt>
      <trkpt lat="46.507779574021697" lon="8.45130817964673">
        <ele>2973.5</ele>
        <time>2018-08-05T10:43:33Z</time>
      </trkpt>
      <trkpt lat="46.507790302857757" lon="8.451329050585628">
        <ele>2974.9400000000001</ele>
        <time>2018-08-05T10:43:43Z</time>
      </trkpt>
      <trkpt lat="46.507805557921529" lon="8.451370038092136">
        <ele>2976.3800000000001</ele>
        <time>2018-08-05T10:43:51Z</time>
      </trkpt>
      <trkpt lat="46.50781930424273" lon="8.451398033648729">
        <ele>2978.3000000000002</ele>
        <time>2018-08-05T10:44:03Z</time>
      </trkpt>
      <trkpt lat="46.507807821035385" lon="8.451422676444054">
        <ele>2979.2600000000002</ele>
        <time>2018-08-05T10:44:12Z</time>
      </trkpt>
      <trkpt lat="46.507810670882463" lon="8.451459389179945">
        <ele>2980.2199999999998</ele>
        <time>2018-08-05T10:44:26Z</time>
      </trkpt>
      <trkpt lat="46.507789464667439" lon="8.451479002833366">
        <ele>2982.1500000000001</ele>
        <time>2018-08-05T10:44:36Z</time>
      </trkpt>
      <trkpt lat="46.507805390283465" lon="8.451507920399308">
        <ele>2983.1100000000001</ele>
        <time>2018-08-05T10:44:46Z</time>
      </trkpt>
      <trkpt lat="46.507828021422029" lon="8.451490486040711">
        <ele>2984.5500000000002</ele>
        <time>2018-08-05T10:44:53Z</time>
      </trkpt>
      <trkpt lat="46.507848724722862" lon="8.451506830751896">
        <ele>2984.5500000000002</ele>
        <time>2018-08-05T10:45:01Z</time>
      </trkpt>
      <trkpt lat="46.507862387225032" lon="8.451547734439373">
        <ele>2985.9899999999998</ele>
        <time>2018-08-05T10:45:13Z</time>
      </trkpt>
      <trkpt lat="46.507862471044064" lon="8.451579753309488">
        <ele>2986.9499999999998</ele>
        <time>2018-08-05T10:45:22Z</time>
      </trkpt>
      <trkpt lat="46.507842354476452" lon="8.451613029465079">
        <ele>2989.3600000000001</ele>
        <time>2018-08-05T10:45:32Z</time>
      </trkpt>
      <trkpt lat="46.50784813798964" lon="8.451615963131189">
        <ele>2989.3600000000001</ele>
        <time>2018-08-05T10:45:46Z</time>
      </trkpt>
      <trkpt lat="46.507835565134883" lon="8.451608503237367">
        <ele>2988.8800000000001</ele>
        <time>2018-08-05T10:46:01Z</time>
      </trkpt>
      <trkpt lat="46.507826847955585" lon="8.451652508229017">
        <ele>2990.8000000000002</ele>
        <time>2018-08-05T10:46:10Z</time>
      </trkpt>
      <trkpt lat="46.507823579013348" lon="8.451656782999635">
        <ele>2991.2800000000002</ele>
        <time>2018-08-05T10:46:19Z</time>
      </trkpt>
      <trkpt lat="46.507840342819691" lon="8.451699111610651">
        <ele>2993.6799999999998</ele>
        <time>2018-08-05T10:46:30Z</time>
      </trkpt>
      <trkpt lat="46.507877726107836" lon="8.451721323654056">
        <ele>2995.1199999999999</ele>
        <time>2018-08-05T10:46:40Z</time>
      </trkpt>
      <trkpt lat="46.507856016978621" lon="8.45175669528544">
        <ele>2996.0900000000001</ele>
        <time>2018-08-05T10:46:48Z</time>
      </trkpt>
      <trkpt lat="46.507825423032045" lon="8.451794581487775">
        <ele>2998.0100000000002</ele>
        <time>2018-08-05T10:46:57Z</time>
      </trkpt>
      <trkpt lat="46.507814778015018" lon="8.451836993917823">
        <ele>2999.4499999999998</ele>
        <time>2018-08-05T10:47:08Z</time>
      </trkpt>
      <trkpt lat="46.507842857390642" lon="8.451838837936521">
        <ele>3000.8899999999999</ele>
        <time>2018-08-05T10:47:16Z</time>
      </trkpt>
      <trkpt lat="46.507872361689806" lon="8.45183196477592">
        <ele>3001.8499999999999</ele>
        <time>2018-08-05T10:47:26Z</time>
      </trkpt>
      <trkpt lat="46.507895747199655" lon="8.451850907877088">
        <ele>3002.8200000000002</ele>
        <time>2018-08-05T10:47:37Z</time>
      </trkpt>
      <trkpt lat="46.507918545976281" lon="8.451858116313815">
        <ele>3004.2600000000002</ele>
        <time>2018-08-05T10:47:47Z</time>
      </trkpt>
      <trkpt lat="46.507909912616014" lon="8.451873874291778">
        <ele>3005.2199999999998</ele>
        <time>2018-08-05T10:47:58Z</time>
      </trkpt>
      <trkpt lat="46.507903710007668" lon="8.451884603127837">
        <ele>3005.6999999999998</ele>
        <time>2018-08-05T10:48:06Z</time>
      </trkpt>
      <trkpt lat="46.507922653108835" lon="8.451916705816984">
        <ele>3007.6199999999999</ele>
        <time>2018-08-05T10:48:17Z</time>
      </trkpt>
      <trkpt lat="46.507935309782624" lon="8.451951239258051">
        <ele>3009.0599999999999</ele>
        <time>2018-08-05T10:48:29Z</time>
      </trkpt>
      <trkpt lat="46.507934220135212" lon="8.451979653909802">
        <ele>3010.9899999999998</ele>
        <time>2018-08-05T10:48:38Z</time>
      </trkpt>
      <trkpt lat="46.507956515997648" lon="8.451985605061054">
        <ele>3012.4299999999998</ele>
        <time>2018-08-05T10:48:49Z</time>
      </trkpt>
      <trkpt lat="46.50795073248446" lon="8.452035309746862">
        <ele>3013.8699999999999</ele>
        <time>2018-08-05T10:48:58Z</time>
      </trkpt>
      <trkpt lat="46.50797956623137" lon="8.452058108523488">
        <ele>3015.3099999999999</ele>
        <time>2018-08-05T10:49:06Z</time>
      </trkpt>
      <trkpt lat="46.507964814081788" lon="8.452086942270398">
        <ele>3016.75</ele>
        <time>2018-08-05T10:49:16Z</time>
      </trkpt>
      <trkpt lat="46.507993396371603" lon="8.452084260061383">
        <ele>3018.1999999999998</ele>
        <time>2018-08-05T10:49:27Z</time>
      </trkpt>
      <trkpt lat="46.50800546631217" lon="8.452105382457376">
        <ele>3019.1599999999999</ele>
        <time>2018-08-05T10:49:37Z</time>
      </trkpt>
      <trkpt lat="46.508018039166927" lon="8.452132204547525">
        <ele>3020.5999999999999</ele>
        <time>2018-08-05T10:49:47Z</time>
      </trkpt>
      <trkpt lat="46.508038491010666" lon="8.452171515673399">
        <ele>3022.04</ele>
        <time>2018-08-05T10:49:59Z</time>
      </trkpt>
      <trkpt lat="46.508009657263756" lon="8.452204540371895">
        <ele>3022.52</ele>
        <time>2018-08-05T10:50:10Z</time>
      </trkpt>
      <trkpt lat="46.508018290624022" lon="8.452206468209624">
        <ele>3023.48</ele>
        <time>2018-08-05T10:50:18Z</time>
      </trkpt>
      <trkpt lat="46.508040837943554" lon="8.452214850112796">
        <ele>3024.9299999999998</ele>
        <time>2018-08-05T10:50:27Z</time>
      </trkpt>
      <trkpt lat="46.508019464090466" lon="8.452247539535165">
        <ele>3026.3699999999999</ele>
        <time>2018-08-05T10:50:37Z</time>
      </trkpt>
      <trkpt lat="46.508034467697144" lon="8.452276960015297">
        <ele>3027.8099999999999</ele>
        <time>2018-08-05T10:50:47Z</time>
      </trkpt>
      <trkpt lat="46.508057853206992" lon="8.452298082411289">
        <ele>3029.73</ele>
        <time>2018-08-05T10:50:59Z</time>
      </trkpt>
      <trkpt lat="46.508069168776274" lon="8.452306548133493">
        <ele>3030.21</ele>
        <time>2018-08-05T10:51:10Z</time>
      </trkpt>
      <trkpt lat="46.508088950067759" lon="8.452313588932157">
        <ele>3031.6599999999999</ele>
        <time>2018-08-05T10:51:21Z</time>
      </trkpt>
      <trkpt lat="46.508081993088126" lon="8.452354827895761">
        <ele>3033.0999999999999</ele>
        <time>2018-08-05T10:51:30Z</time>
      </trkpt>
      <trkpt lat="46.508076544851065" lon="8.45239682123065">
        <ele>3034.54</ele>
        <time>2018-08-05T10:51:40Z</time>
      </trkpt>
      <trkpt lat="46.508091883733869" lon="8.452395563945174">
        <ele>3035.98</ele>
        <time>2018-08-05T10:51:51Z</time>
      </trkpt>
      <trkpt lat="46.508086016401649" lon="8.452435461804271">
        <ele>3037.4200000000001</ele>
        <time>2018-08-05T10:52:02Z</time>
      </trkpt>
      <trkpt lat="46.508095404133201" lon="8.452441580593586">
        <ele>3038.3800000000001</ele>
        <time>2018-08-05T10:52:13Z</time>
      </trkpt>
      <trkpt lat="46.50809783488512" lon="8.452461613342166">
        <ele>3039.8299999999999</ele>
        <time>2018-08-05T10:52:22Z</time>
      </trkpt>
      <trkpt lat="46.508118957281113" lon="8.452465049922466">
        <ele>3040.79</ele>
        <time>2018-08-05T10:52:33Z</time>
      </trkpt>
      <trkpt lat="46.508142929524183" lon="8.452472258359194">
        <ele>3041.75</ele>
        <time>2018-08-05T10:52:42Z</time>
      </trkpt>
      <trkpt lat="46.508153406903148" lon="8.452507127076387">
        <ele>3042.71</ele>
        <time>2018-08-05T10:52:52Z</time>
      </trkpt>
      <trkpt lat="46.508150976151228" lon="8.452549707144499">
        <ele>3044.6300000000001</ele>
        <time>2018-08-05T10:53:03Z</time>
      </trkpt>
      <trkpt lat="46.508173020556569" lon="8.45252338796854">
        <ele>3046.5599999999999</ele>
        <time>2018-08-05T10:53:14Z</time>
      </trkpt>
      <trkpt lat="46.508151814341545" lon="8.452578624710441">
        <ele>3047.04</ele>
        <time>2018-08-05T10:53:23Z</time>
      </trkpt>
      <trkpt lat="46.508161872625351" lon="8.452609721571207">
        <ele>3048.48</ele>
        <time>2018-08-05T10:53:33Z</time>
      </trkpt>
      <trkpt lat="46.508157094940543" lon="8.452627994120121">
        <ele>3048.96</ele>
        <time>2018-08-05T10:53:48Z</time>
      </trkpt>
      <trkpt lat="46.508182156831026" lon="8.452651547268033">
        <ele>3049.9200000000001</ele>
        <time>2018-08-05T10:54:00Z</time>
      </trkpt>
      <trkpt lat="46.508200513198972" lon="8.452667975798249">
        <ele>3051.8400000000001</ele>
        <time>2018-08-05T10:54:08Z</time>
      </trkpt>
      <trkpt lat="46.508204955607653" lon="8.45269245095551">
        <ele>3053.2800000000002</ele>
        <time>2018-08-05T10:54:19Z</time>
      </trkpt>
      <trkpt lat="46.508194813504815" lon="8.452738216146827">
        <ele>3054.73</ele>
        <time>2018-08-05T10:54:30Z</time>
      </trkpt>
      <trkpt lat="46.508180480450392" lon="8.452773923054338">
        <ele>3056.6500000000001</ele>
        <time>2018-08-05T10:54:40Z</time>
      </trkpt>
      <trkpt lat="46.508168578147888" lon="8.452773252502084">
        <ele>3057.1300000000001</ele>
        <time>2018-08-05T10:54:54Z</time>
      </trkpt>
      <trkpt lat="46.508155418559909" lon="8.45280040986836">
        <ele>3057.1300000000001</ele>
        <time>2018-08-05T10:55:07Z</time>
      </trkpt>
      <trkpt lat="46.508156256750226" lon="8.452817844226956">
        <ele>3060.0100000000002</ele>
        <time>2018-08-05T10:55:17Z</time>
      </trkpt>
      <trkpt lat="46.508141253143549" lon="8.452832764014602">
        <ele>3059.5300000000002</ele>
        <time>2018-08-05T10:55:25Z</time>
      </trkpt>
      <trkpt lat="46.50813203305006" lon="8.452850449830294">
        <ele>3060.0100000000002</ele>
        <time>2018-08-05T10:55:35Z</time>
      </trkpt>
      <trkpt lat="46.508126081898808" lon="8.452840391546488">
        <ele>3060.0100000000002</ele>
        <time>2018-08-05T10:55:49Z</time>
      </trkpt>
      <trkpt lat="46.508130943402648" lon="8.452840307727456">
        <ele>3060.0100000000002</ele>
        <time>2018-08-05T10:56:06Z</time>
      </trkpt>
      <trkpt lat="46.508135134354234" lon="8.45284097827971">
        <ele>3060.4899999999998</ele>
        <time>2018-08-05T10:56:22Z</time>
      </trkpt>
      <trkpt lat="46.50814519263804" lon="8.452863106504083">
        <ele>3061.46</ele>
        <time>2018-08-05T10:56:35Z</time>
      </trkpt>
      <trkpt lat="46.508136726915836" lon="8.45290208235383">
        <ele>3062.9000000000001</ele>
        <time>2018-08-05T10:56:48Z</time>
      </trkpt>
      <trkpt lat="46.508142510429025" lon="8.45295094884932">
        <ele>3063.3800000000001</ele>
        <time>2018-08-05T10:56:58Z</time>
      </trkpt>
      <trkpt lat="46.508126500993967" lon="8.452952206134796">
        <ele>3064.3400000000001</ele>
        <time>2018-08-05T10:57:06Z</time>
      </trkpt>
      <trkpt lat="46.508127925917506" lon="8.452955139800906">
        <ele>3064.8200000000002</ele>
        <time>2018-08-05T10:57:19Z</time>
      </trkpt>
      <trkpt lat="46.508142091333866" lon="8.452961761504412">
        <ele>3064.3400000000001</ele>
        <time>2018-08-05T10:57:28Z</time>
      </trkpt>
      <trkpt lat="46.508132619783282" lon="8.453006353229284">
        <ele>3065.3000000000002</ele>
        <time>2018-08-05T10:57:40Z</time>
      </trkpt>
      <trkpt lat="46.508106719702482" lon="8.453014651313424">
        <ele>3065.3000000000002</ele>
        <time>2018-08-05T10:57:49Z</time>
      </trkpt>
      <trkpt lat="46.50808610022068" lon="8.453014148399234">
        <ele>3065.7800000000002</ele>
        <time>2018-08-05T10:58:00Z</time>
      </trkpt>
      <trkpt lat="46.508097499608994" lon="8.452982297167182">
        <ele>3065.7800000000002</ele>
        <time>2018-08-05T10:58:14Z</time>
      </trkpt>
      <trkpt lat="46.508095236495137" lon="8.452988583594561">
        <ele>3065.7800000000002</ele>
        <time>2018-08-05T10:58:32Z</time>
      </trkpt>
      <trkpt lat="46.508101020008326" lon="8.453000737354159">
        <ele>3065.7800000000002</ele>
        <time>2018-08-05T10:58:45Z</time>
      </trkpt>
      <trkpt lat="46.50809146463871" lon="8.452992858365178">
        <ele>3065.7800000000002</ele>
        <time>2018-08-05T10:58:56Z</time>
      </trkpt>
      <trkpt lat="46.508091632276773" lon="8.45296804793179">
        <ele>3065.7800000000002</ele>
        <time>2018-08-05T10:59:12Z</time>
      </trkpt>
      <trkpt lat="46.508102947846055" lon="8.452967209741473">
        <ele>3065.3000000000002</ele>
        <time>2018-08-05T10:59:22Z</time>
      </trkpt>
      <trkpt lat="46.508123148232698" lon="8.452981878072023">
        <ele>3065.3000000000002</ele>
        <time>2018-08-05T10:59:31Z</time>
      </trkpt>
      <trkpt lat="46.508129602298141" lon="8.453000318259001">
        <ele>3065.3000000000002</ele>
        <time>2018-08-05T10:59:48Z</time>
      </trkpt>
      <trkpt lat="46.508114682510495" lon="8.452996546402574">
        <ele>3065.7800000000002</ele>
        <time>2018-08-05T11:00:07Z</time>
      </trkpt>
      <trkpt lat="46.50811979547143" lon="8.452982716262341">
        <ele>3065.7800000000002</ele>
        <time>2018-08-05T11:00:20Z</time>
      </trkpt>
      <trkpt lat="46.508125830441713" lon="8.452977938577533">
        <ele>3064.8200000000002</ele>
        <time>2018-08-05T11:00:30Z</time>
      </trkpt>
      <trkpt lat="46.508122058585286" lon="8.452982129529119">
        <ele>3064.8200000000002</ele>
        <time>2018-08-05T11:00:50Z</time>
      </trkpt>
      <trkpt lat="46.508124908432364" lon="8.452981961891055">
        <ele>3065.3000000000002</ele>
        <time>2018-08-05T11:00:52Z</time>
      </trkpt>
      <trkpt lat="46.508122477680445" lon="8.452988583594561">
        <ele>3065.3000000000002</ele>
        <time>2018-08-05T11:01:01Z</time>
      </trkpt>
      <trkpt lat="46.508130524307489" lon="8.452974166721106">
        <ele>3065.7800000000002</ele>
        <time>2018-08-05T11:01:12Z</time>
      </trkpt>
      <trkpt lat="46.50813153013587" lon="8.452993193641305">
        <ele>3065.7800000000002</ele>
        <time>2018-08-05T11:01:29Z</time>
      </trkpt>
      <trkpt lat="46.508153155446053" lon="8.452993528917432">
        <ele>3065.7800000000002</ele>
        <time>2018-08-05T11:01:42Z</time>
      </trkpt>
      <trkpt lat="46.508143432438374" lon="8.452939465641975">
        <ele>3065.3000000000002</ele>
        <time>2018-08-05T11:01:53Z</time>
      </trkpt>
      <trkpt lat="46.508137229830027" lon="8.452913817018271">
        <ele>3065.3000000000002</ele>
        <time>2018-08-05T11:02:03Z</time>
      </trkpt>
      <trkpt lat="46.508141169324517" lon="8.45292747952044">
        <ele>3065.3000000000002</ele>
        <time>2018-08-05T11:02:23Z</time>
      </trkpt>
      <trkpt lat="46.508145360276103" lon="8.452917169779539">
        <ele>3065.3000000000002</ele>
        <time>2018-08-05T11:02:41Z</time>
      </trkpt>
      <trkpt lat="46.508133541792631" lon="8.452920354902744">
        <ele>3065.3000000000002</ele>
        <time>2018-08-05T11:02:57Z</time>
      </trkpt>
      <trkpt lat="46.508135050535202" lon="8.452932927757502">
        <ele>3065.3000000000002</ele>
        <time>2018-08-05T11:03:14Z</time>
      </trkpt>
      <trkpt lat="46.508146282285452" lon="8.452909793704748">
        <ele>3065.3000000000002</ele>
        <time>2018-08-05T11:03:28Z</time>
      </trkpt>
      <trkpt lat="46.508154748007655" lon="8.452917505055666">
        <ele>3064.8200000000002</ele>
        <time>2018-08-05T11:03:40Z</time>
      </trkpt>
      <trkpt lat="46.508160112425685" lon="8.452939298003912">
        <ele>3065.7800000000002</ele>
        <time>2018-08-05T11:04:00Z</time>
      </trkpt>
      <trkpt lat="46.508143348619342" lon="8.452919516712427">
        <ele>3065.3000000000002</ele>
        <time>2018-08-05T11:04:12Z</time>
      </trkpt>
      <trkpt lat="46.508149635046721" lon="8.452908117324114">
        <ele>3065.3000000000002</ele>
        <time>2018-08-05T11:04:29Z</time>
      </trkpt>
      <trkpt lat="46.508149048313498" lon="8.45290107652545">
        <ele>3065.3000000000002</ele>
        <time>2018-08-05T11:04:43Z</time>
      </trkpt>
      <trkpt lat="46.508154412731528" lon="8.452907027676702">
        <ele>3065.3000000000002</ele>
        <time>2018-08-05T11:05:02Z</time>
      </trkpt>
      <trkpt lat="46.50814619846642" lon="8.452900070697069">
        <ele>3065.7800000000002</ele>
        <time>2018-08-05T11:05:24Z</time>
      </trkpt>
      <trkpt lat="46.508143851533532" lon="8.452909709885716">
        <ele>3065.7800000000002</ele>
        <time>2018-08-05T11:05:49Z</time>
      </trkpt>
      <trkpt lat="46.508145108819008" lon="8.452909458428621">
        <ele>3065.7800000000002</ele>
        <time>2018-08-05T11:06:18Z</time>
      </trkpt>
      <trkpt lat="46.508136726915836" lon="8.452905602753162">
        <ele>3065.7800000000002</ele>
        <time>2018-08-05T11:06:38Z</time>
      </trkpt>
      <trkpt lat="46.508126500993967" lon="8.452910212799907">
        <ele>3065.3000000000002</ele>
        <time>2018-08-05T11:07:06Z</time>
      </trkpt>
      <trkpt lat="46.508128512650728" lon="8.452908955514431">
        <ele>3065.3000000000002</ele>
        <time>2018-08-05T11:07:36Z</time>
      </trkpt>
      <trkpt lat="46.508125076070428" lon="8.452906860038638">
        <ele>3065.7800000000002</ele>
        <time>2018-08-05T11:08:15Z</time>
      </trkpt>
      <trkpt lat="46.508123818784952" lon="8.452898310497403">
        <ele>3065.7800000000002</ele>
        <time>2018-08-05T11:08:46Z</time>
      </trkpt>
      <trkpt lat="46.508126584812999" lon="8.452901663258672">
        <ele>3065.7800000000002</ele>
        <time>2018-08-05T11:09:11Z</time>
      </trkpt>
      <trkpt lat="46.508121304214001" lon="8.452905770391226">
        <ele>3065.7800000000002</ele>
        <time>2018-08-05T11:09:36Z</time>
      </trkpt>
      <trkpt lat="46.508121974766254" lon="8.452907530590892">
        <ele>3065.7800000000002</ele>
        <time>2018-08-05T11:10:05Z</time>
      </trkpt>
      <trkpt lat="46.508135134354234" lon="8.452909458428621">
        <ele>3066.7399999999998</ele>
        <time>2018-08-05T11:10:31Z</time>
      </trkpt>
      <trkpt lat="46.508147874847054" lon="8.452923623844981">
        <ele>3066.7399999999998</ele>
        <time>2018-08-05T11:11:06Z</time>
      </trkpt>
      <trkpt lat="46.508141169324517" lon="8.452903004363179">
        <ele>3066.2600000000002</ele>
        <time>2018-08-05T11:11:39Z</time>
      </trkpt>
      <trkpt lat="46.508127255365252" lon="8.452900825068355">
        <ele>3066.7399999999998</ele>
        <time>2018-08-05T11:12:07Z</time>
      </trkpt>
      <trkpt lat="46.508117616176605" lon="8.452901998534799">
        <ele>3066.7399999999998</ele>
        <time>2018-08-05T11:12:34Z</time>
      </trkpt>
      <trkpt lat="46.508125076070428" lon="8.452904596924782">
        <ele>3066.2600000000002</ele>
        <time>2018-08-05T11:13:05Z</time>
      </trkpt>
      <trkpt lat="46.508125746622682" lon="8.452905099838972">
        <ele>3066.7399999999998</ele>
        <time>2018-08-05T11:13:33Z</time>
      </trkpt>
      <trkpt lat="46.50812616571784" lon="8.452902501448989">
        <ele>3067.2199999999998</ele>
        <time>2018-08-05T11:14:03Z</time>
      </trkpt>
      <trkpt lat="46.508122561499476" lon="8.452911553904414">
        <ele>3067.2199999999998</ele>
        <time>2018-08-05T11:14:32Z</time>
      </trkpt>
      <trkpt lat="46.508131111040711" lon="8.452922282740474">
        <ele>3067.6999999999998</ele>
        <time>2018-08-05T11:15:03Z</time>
      </trkpt>
      <trkpt lat="46.508142426609993" lon="8.452905770391226">
        <ele>3067.2199999999998</ele>
        <time>2018-08-05T11:15:15Z</time>
      </trkpt>
      <trkpt lat="46.508160699158907" lon="8.452911721542478">
        <ele>3067.2199999999998</ele>
        <time>2018-08-05T11:15:35Z</time>
      </trkpt>
      <trkpt lat="46.508154161274433" lon="8.452905938029289">
        <ele>3067.2199999999998</ele>
        <time>2018-08-05T11:15:48Z</time>
      </trkpt>
      <trkpt lat="46.508153490722179" lon="8.452905351296067">
        <ele>3067.2199999999998</ele>
        <time>2018-08-05T11:16:09Z</time>
      </trkpt>
      <trkpt lat="46.508152317255735" lon="8.452899483963847">
        <ele>3067.2199999999998</ele>
        <time>2018-08-05T11:16:31Z</time>
      </trkpt>
      <trkpt lat="46.508149802684784" lon="8.452900741249323">
        <ele>3067.6999999999998</ele>
        <time>2018-08-05T11:16:58Z</time>
      </trkpt>
      <trkpt lat="46.508137648925185" lon="8.452906189486384">
        <ele>3067.2199999999998</ele>
        <time>2018-08-05T11:17:17Z</time>
      </trkpt>
      <trkpt lat="46.50813396088779" lon="8.452940974384546">
        <ele>3067.6999999999998</ele>
        <time>2018-08-05T11:17:28Z</time>
      </trkpt>
      <trkpt lat="46.508147036656737" lon="8.452924964949489">
        <ele>3067.2199999999998</ele>
        <time>2018-08-05T11:17:49Z</time>
      </trkpt>
      <trkpt lat="46.508144438266754" lon="8.452938292175531">
        <ele>3067.6999999999998</ele>
        <time>2018-08-05T11:18:03Z</time>
      </trkpt>
      <trkpt lat="46.508147371932864" lon="8.452914990484715">
        <ele>3067.2199999999998</ele>
        <time>2018-08-05T11:18:24Z</time>
      </trkpt>
      <trkpt lat="46.508151395246387" lon="8.452907530590892">
        <ele>3067.6999999999998</ele>
        <time>2018-08-05T11:18:41Z</time>
      </trkpt>
      <trkpt lat="46.508141839876771" lon="8.452911637723446">
        <ele>3067.6999999999998</ele>
        <time>2018-08-05T11:18:57Z</time>
      </trkpt>
      <trkpt lat="46.508145863190293" lon="8.452904596924782">
        <ele>3067.2199999999998</ele>
        <time>2018-08-05T11:19:22Z</time>
      </trkpt>
      <trkpt lat="46.508137648925185" lon="8.452900992706418">
        <ele>3067.6999999999998</ele>
        <time>2018-08-05T11:19:36Z</time>
      </trkpt>
      <trkpt lat="46.508158184587955" lon="8.452882887795568">
        <ele>3067.2199999999998</ele>
        <time>2018-08-05T11:19:50Z</time>
      </trkpt>
      <trkpt lat="46.508167739957571" lon="8.452871572226286">
        <ele>3066.7399999999998</ele>
        <time>2018-08-05T11:19:59Z</time>
      </trkpt>
      <trkpt lat="46.508156256750226" lon="8.452846007421613">
        <ele>3065.7800000000002</ele>
        <time>2018-08-05T11:20:07Z</time>
      </trkpt>
      <trkpt lat="46.508148042485118" lon="8.452827734872699">
        <ele>3064.8200000000002</ele>
        <time>2018-08-05T11:20:18Z</time>
      </trkpt>
      <trkpt lat="46.508166398853064" lon="8.452830836176872">
        <ele>3064.8200000000002</ele>
        <time>2018-08-05T11:20:30Z</time>
      </trkpt>
      <trkpt lat="46.508168410509825" lon="8.452828405424953">
        <ele>3065.3000000000002</ele>
        <time>2018-08-05T11:20:49Z</time>
      </trkpt>
      <trkpt lat="46.508168075233698" lon="8.452815329656005">
        <ele>3064.8200000000002</ele>
        <time>2018-08-05T11:20:59Z</time>
      </trkpt>
      <trkpt lat="46.508165895938873" lon="8.452791357412934">
        <ele>3063.8600000000001</ele>
        <time>2018-08-05T11:21:12Z</time>
      </trkpt>
      <trkpt lat="46.508169583976269" lon="8.452782472595573">
        <ele>3063.3800000000001</ele>
        <time>2018-08-05T11:21:25Z</time>
      </trkpt>
      <trkpt lat="46.508171763271093" lon="8.452779287472367">
        <ele>3062.9000000000001</ele>
        <time>2018-08-05T11:21:35Z</time>
      </trkpt>
      <trkpt lat="46.508200094103813" lon="8.452744670212269">
        <ele>3061.46</ele>
        <time>2018-08-05T11:21:44Z</time>
      </trkpt>
      <trkpt lat="46.508215600624681" lon="8.452698988839984">
        <ele>3060.0100000000002</ele>
        <time>2018-08-05T11:21:54Z</time>
      </trkpt>
      <trkpt lat="46.508213421329856" lon="8.452659761533141">
        <ele>3058.5700000000002</ele>
        <time>2018-08-05T11:22:05Z</time>
      </trkpt>
      <trkpt lat="46.508194897323847" lon="8.452656408771873">
        <ele>3057.6100000000001</ele>
        <time>2018-08-05T11:22:15Z</time>
      </trkpt>
      <trkpt lat="46.508180228993297" lon="8.452670741826296">
        <ele>3057.6100000000001</ele>
        <time>2018-08-05T11:22:22Z</time>
      </trkpt>
      <trkpt lat="46.508184000849724" lon="8.45262648537755">
        <ele>3056.1700000000001</ele>
        <time>2018-08-05T11:22:31Z</time>
      </trkpt>
      <trkpt lat="46.508177043870091" lon="8.452624306082726">
        <ele>3055.6900000000001</ele>
        <time>2018-08-05T11:22:38Z</time>
      </trkpt>
      <trkpt lat="46.508199842646718" lon="8.452597986906767">
        <ele>3054.25</ele>
        <time>2018-08-05T11:22:46Z</time>
      </trkpt>
      <trkpt lat="46.508210739120841" lon="8.452598406001926">
        <ele>3055.21</ele>
        <time>2018-08-05T11:22:55Z</time>
      </trkpt>
      <trkpt lat="46.508196741342545" lon="8.452610978856683">
        <ele>3054.25</ele>
        <time>2018-08-05T11:23:05Z</time>
      </trkpt>
      <trkpt lat="46.50817452929914" lon="8.452592371031642">
        <ele>3052.8000000000002</ele>
        <time>2018-08-05T11:23:17Z</time>
      </trkpt>
      <trkpt lat="46.508161704987288" lon="8.452554903924465">
        <ele>3051.8400000000001</ele>
        <time>2018-08-05T11:23:26Z</time>
      </trkpt>
      <trkpt lat="46.508146449923515" lon="8.452573847025633">
        <ele>3052.8000000000002</ele>
        <time>2018-08-05T11:23:34Z</time>
      </trkpt>
      <trkpt lat="46.508156759664416" lon="8.452548868954182">
        <ele>3050.8800000000001</ele>
        <time>2018-08-05T11:23:37Z</time>
      </trkpt>
      <trkpt lat="46.508162543177605" lon="8.452524142339826">
        <ele>3049.4400000000001</ele>
        <time>2018-08-05T11:23:47Z</time>
      </trkpt>
      <trkpt lat="46.508138570934534" lon="8.452497655525804">
        <ele>3048</ele>
        <time>2018-08-05T11:23:55Z</time>
      </trkpt>
      <trkpt lat="46.508125327527523" lon="8.452481226995587">
        <ele>3047.52</ele>
        <time>2018-08-05T11:24:04Z</time>
      </trkpt>
      <trkpt lat="46.508110323920846" lon="8.452479802072048">
        <ele>3047.04</ele>
        <time>2018-08-05T11:24:09Z</time>
      </trkpt>
      <trkpt lat="46.508110156282783" lon="8.452431606128812">
        <ele>3046.0700000000002</ele>
        <time>2018-08-05T11:24:18Z</time>
      </trkpt>
      <trkpt lat="46.508136224001646" lon="8.45240218564868">
        <ele>3044.6300000000001</ele>
        <time>2018-08-05T11:24:26Z</time>
      </trkpt>
      <trkpt lat="46.508118286728859" lon="8.452393300831318">
        <ele>3043.1900000000001</ele>
        <time>2018-08-05T11:24:37Z</time>
      </trkpt>
      <trkpt lat="46.508099175989628" lon="8.452384751290083">
        <ele>3041.27</ele>
        <time>2018-08-05T11:24:48Z</time>
      </trkpt>
      <trkpt lat="46.508091799914837" lon="8.45234259031713">
        <ele>3039.8299999999999</ele>
        <time>2018-08-05T11:24:58Z</time>
      </trkpt>
      <trkpt lat="46.508095236495137" lon="8.452332280576229">
        <ele>3039.3499999999999</ele>
        <time>2018-08-05T11:25:06Z</time>
      </trkpt>
      <trkpt lat="46.508093308657408" lon="8.45232255756855">
        <ele>3038.8600000000001</ele>
        <time>2018-08-05T11:25:15Z</time>
      </trkpt>
      <trkpt lat="46.508076461032033" lon="8.452294394373894">
        <ele>3037.4200000000001</ele>
        <time>2018-08-05T11:25:26Z</time>
      </trkpt>
      <trkpt lat="46.50806849822402" lon="8.452322641387582">
        <ele>3037.4200000000001</ele>
        <time>2018-08-05T11:25:40Z</time>
      </trkpt>
      <trkpt lat="46.508045447990298" lon="8.452307637780905">
        <ele>3036.9400000000001</ele>
        <time>2018-08-05T11:25:52Z</time>
      </trkpt>
      <trkpt lat="46.508069168776274" lon="8.452268745750189">
        <ele>3036.46</ele>
        <time>2018-08-05T11:26:01Z</time>
      </trkpt>
      <trkpt lat="46.508057517930865" lon="8.4522526524961">
        <ele>3034.54</ele>
        <time>2018-08-05T11:26:12Z</time>
      </trkpt>
      <trkpt lat="46.508050980046391" lon="8.452224992215633">
        <ele>3033.5799999999999</ele>
        <time>2018-08-05T11:26:20Z</time>
      </trkpt>
      <trkpt lat="46.508029270917177" lon="8.452209150418639">
        <ele>3032.1399999999999</ele>
        <time>2018-08-05T11:26:28Z</time>
      </trkpt>
      <trkpt lat="46.508016865700483" lon="8.452182831242681">
        <ele>3031.1700000000001</ele>
        <time>2018-08-05T11:26:36Z</time>
      </trkpt>
      <trkpt lat="46.50801720097661" lon="8.452148297801614">
        <ele>3029.25</ele>
        <time>2018-08-05T11:26:45Z</time>
      </trkpt>
      <trkpt lat="46.508014686405659" lon="8.452137233689427">
        <ele>3028.77</ele>
        <time>2018-08-05T11:26:54Z</time>
      </trkpt>
      <trkpt lat="46.507998341694474" lon="8.452115021646023">
        <ele>3026.8499999999999</ele>
        <time>2018-08-05T11:27:03Z</time>
      </trkpt>
      <trkpt lat="46.507984343916178" lon="8.45208752900362">
        <ele>3025.4099999999999</ele>
        <time>2018-08-05T11:27:13Z</time>
      </trkpt>
      <trkpt lat="46.507965568453074" lon="8.452070932835341">
        <ele>3023.96</ele>
        <time>2018-08-05T11:27:24Z</time>
      </trkpt>
      <trkpt lat="46.507960120216012" lon="8.452028101310134">
        <ele>3023</ele>
        <time>2018-08-05T11:27:33Z</time>
      </trkpt>
      <trkpt lat="46.507951570674777" lon="8.452016366645694">
        <ele>3020.5999999999999</ele>
        <time>2018-08-05T11:27:43Z</time>
      </trkpt>
      <trkpt lat="46.50794486515224" lon="8.451991975307465">
        <ele>3019.6399999999999</ele>
        <time>2018-08-05T11:27:52Z</time>
      </trkpt>
      <trkpt lat="46.507933549582958" lon="8.451961800456047">
        <ele>3017.7199999999998</ele>
        <time>2018-08-05T11:28:03Z</time>
      </trkpt>
      <trkpt lat="46.50789306499064" lon="8.451949814334512">
        <ele>3016.27</ele>
        <time>2018-08-05T11:28:13Z</time>
      </trkpt>
      <trkpt lat="46.507875630632043" lon="8.451912011951208">
        <ele>3014.8299999999999</ele>
        <time>2018-08-05T11:28:21Z</time>
      </trkpt>
      <trkpt lat="46.507889376953244" lon="8.451885860413313">
        <ele>3012.9099999999999</ele>
        <time>2018-08-05T11:28:28Z</time>
      </trkpt>
      <trkpt lat="46.507902704179287" lon="8.451860547065735">
        <ele>3011.4699999999998</ele>
        <time>2018-08-05T11:28:40Z</time>
      </trkpt>
      <trkpt lat="46.507873199880123" lon="8.451840849593282">
        <ele>3009.54</ele>
        <time>2018-08-05T11:28:50Z</time>
      </trkpt>
      <trkpt lat="46.507867500185966" lon="8.45181779935956">
        <ele>3008.0999999999999</ele>
        <time>2018-08-05T11:28:59Z</time>
      </trkpt>
      <trkpt lat="46.50783883407712" lon="8.451787875965238">
        <ele>3006.6599999999999</ele>
        <time>2018-08-05T11:29:08Z</time>
      </trkpt>
      <trkpt lat="46.507869595661759" lon="8.4517224971205">
        <ele>3004.2600000000002</ele>
        <time>2018-08-05T11:29:19Z</time>
      </trkpt>
      <trkpt lat="46.507842438295484" lon="8.451681258156896">
        <ele>3002.3299999999999</ele>
        <time>2018-08-05T11:29:29Z</time>
      </trkpt>
      <trkpt lat="46.507843108847737" lon="8.451676731929183">
        <ele>3001.8499999999999</ele>
        <time>2018-08-05T11:29:30Z</time>
      </trkpt>
      <trkpt lat="46.50785299949348" lon="8.451638929545879">
        <ele>3000.8899999999999</ele>
        <time>2018-08-05T11:29:38Z</time>
      </trkpt>
      <trkpt lat="46.50785693898797" lon="8.451622081920505">
        <ele>2999.4499999999998</ele>
        <time>2018-08-05T11:29:48Z</time>
      </trkpt>
      <trkpt lat="46.50784570723772" lon="8.451589392498136">
        <ele>2998.0100000000002</ele>
        <time>2018-08-05T11:29:58Z</time>
      </trkpt>
      <trkpt lat="46.507865404710174" lon="8.451557122170925">
        <ele>2996.0900000000001</ele>
        <time>2018-08-05T11:30:08Z</time>
      </trkpt>
      <trkpt lat="46.507861968129873" lon="8.451529797166586">
        <ele>2994.6399999999999</ele>
        <time>2018-08-05T11:30:19Z</time>
      </trkpt>
      <trkpt lat="46.507845120504498" lon="8.451509848237038">
        <ele>2993.1999999999998</ele>
        <time>2018-08-05T11:30:27Z</time>
      </trkpt>
      <trkpt lat="46.507804552093148" lon="8.451496856287122">
        <ele>2991.2800000000002</ele>
        <time>2018-08-05T11:30:36Z</time>
      </trkpt>
      <trkpt lat="46.507792733609676" lon="8.451476404443383">
        <ele>2990.3200000000002</ele>
        <time>2018-08-05T11:30:44Z</time>
      </trkpt>
      <trkpt lat="46.507777813822031" lon="8.451473638415337">
        <ele>2989.3600000000001</ele>
        <time>2018-08-05T11:30:54Z</time>
      </trkpt>
      <trkpt lat="46.507813185453415" lon="8.451412450522184">
        <ele>2988.4000000000001</ele>
        <time>2018-08-05T11:31:03Z</time>
      </trkpt>
      <trkpt lat="46.507794912904501" lon="8.451400296762586">
        <ele>2987.4299999999998</ele>
        <time>2018-08-05T11:31:15Z</time>
      </trkpt>
      <trkpt lat="46.507797008380294" lon="8.451360817998648">
        <ele>2985.9899999999998</ele>
        <time>2018-08-05T11:31:24Z</time>
      </trkpt>
      <trkpt lat="46.50778703391552" lon="8.451332151889801">
        <ele>2984.0700000000002</ele>
        <time>2018-08-05T11:31:35Z</time>
      </trkpt>
      <trkpt lat="46.507788207381964" lon="8.451291332021356">
        <ele>2982.6300000000001</ele>
        <time>2018-08-05T11:31:45Z</time>
      </trkpt>
      <trkpt lat="46.507767671719193" lon="8.451273059472442">
        <ele>2980.71</ele>
        <time>2018-08-05T11:31:58Z</time>
      </trkpt>
      <trkpt lat="46.507747136056423" lon="8.451273562386632">
        <ele>2979.2600000000002</ele>
        <time>2018-08-05T11:32:05Z</time>
      </trkpt>
      <trkpt lat="46.507732635363936" lon="8.45125587657094">
        <ele>2977.8200000000002</ele>
        <time>2018-08-05T11:32:13Z</time>
      </trkpt>
      <trkpt lat="46.507736407220364" lon="8.451212793588638">
        <ele>2976.8600000000001</ele>
        <time>2018-08-05T11:32:22Z</time>
      </trkpt>
      <trkpt lat="46.507768593728542" lon="8.451135344803333">
        <ele>2974.46</ele>
        <time>2018-08-05T11:32:33Z</time>
      </trkpt>
      <trkpt lat="46.507782591506839" lon="8.451112294569612">
        <ele>2973.0100000000002</ele>
        <time>2018-08-05T11:32:40Z</time>
      </trkpt>
      <trkpt lat="46.507752668112516" lon="8.451082287356257">
        <ele>2971.0900000000001</ele>
        <time>2018-08-05T11:32:51Z</time>
      </trkpt>
      <trkpt lat="46.507732803002" lon="8.45105211250484">
        <ele>2969.1700000000001</ele>
        <time>2018-08-05T11:33:03Z</time>
      </trkpt>
      <trkpt lat="46.507740095257759" lon="8.45100131817162">
        <ele>2967.73</ele>
        <time>2018-08-05T11:33:12Z</time>
      </trkpt>
      <trkpt lat="46.507703131064773" lon="8.450956894084811">
        <ele>2965.3200000000002</ele>
        <time>2018-08-05T11:33:23Z</time>
      </trkpt>
      <trkpt lat="46.507693156599998" lon="8.45089235343039">
        <ele>2963.8800000000001</ele>
        <time>2018-08-05T11:33:32Z</time>
      </trkpt>
      <trkpt lat="46.507668513804674" lon="8.450809037312865">
        <ele>2961.96</ele>
        <time>2018-08-05T11:33:42Z</time>
      </trkpt>
      <trkpt lat="46.507657784968615" lon="8.450738796964288">
        <ele>2960.04</ele>
        <time>2018-08-05T11:33:52Z</time>
      </trkpt>
      <trkpt lat="46.507647056132555" lon="8.450694959610701">
        <ele>2957.6300000000001</ele>
        <time>2018-08-05T11:34:03Z</time>
      </trkpt>
      <trkpt lat="46.507647894322872" lon="8.450640812516213">
        <ele>2955.71</ele>
        <time>2018-08-05T11:34:13Z</time>
      </trkpt>
      <trkpt lat="46.507636159658432" lon="8.45061331987381">
        <ele>2954.27</ele>
        <time>2018-08-05T11:34:22Z</time>
      </trkpt>
      <trkpt lat="46.507641104981303" lon="8.450571410357952">
        <ele>2952.8299999999999</ele>
        <time>2018-08-05T11:34:31Z</time>
      </trkpt>
      <trkpt lat="46.507655018940568" lon="8.450526567175984">
        <ele>2950.9000000000001</ele>
        <time>2018-08-05T11:34:42Z</time>
      </trkpt>
      <trkpt lat="46.507616378366947" lon="8.450478203594685">
        <ele>2949.46</ele>
        <time>2018-08-05T11:34:54Z</time>
      </trkpt>
      <trkpt lat="46.50762333534658" lon="8.45042372122407">
        <ele>2948.5</ele>
        <time>2018-08-05T11:35:02Z</time>
      </trkpt>
      <trkpt lat="46.507584024220705" lon="8.450350211933255">
        <ele>2945.6199999999999</ele>
        <time>2018-08-05T11:35:14Z</time>
      </trkpt>
      <trkpt lat="46.50756717659533" lon="8.450303776189685">
        <ele>2943.21</ele>
        <time>2018-08-05T11:35:23Z</time>
      </trkpt>
      <trkpt lat="46.507558291777968" lon="8.4502615313977">
        <ele>2941.29</ele>
        <time>2018-08-05T11:35:33Z</time>
      </trkpt>
      <trkpt lat="46.507563320919871" lon="8.450248958542943">
        <ele>2941.29</ele>
        <time>2018-08-05T11:35:45Z</time>
      </trkpt>
      <trkpt lat="46.507546892389655" lon="8.450205372646451">
        <ele>2939.8499999999999</ele>
        <time>2018-08-05T11:35:55Z</time>
      </trkpt>
      <trkpt lat="46.507555777207017" lon="8.45015206374228">
        <ele>2938.4099999999999</ele>
        <time>2018-08-05T11:36:04Z</time>
      </trkpt>
      <trkpt lat="46.507546054199338" lon="8.450119122862816">
        <ele>2937.4499999999998</ele>
        <time>2018-08-05T11:36:14Z</time>
      </trkpt>
      <trkpt lat="46.507520405575633" lon="8.450134294107556">
        <ele>2936.9699999999998</ele>
        <time>2018-08-05T11:36:23Z</time>
      </trkpt>
      <trkpt lat="46.507496349513531" lon="8.450137730687857">
        <ele>2934.5599999999999</ele>
        <time>2018-08-05T11:36:35Z</time>
      </trkpt>
      <trkpt lat="46.507490230724216" lon="8.45014913007617">
        <ele>2934.0799999999999</ele>
        <time>2018-08-05T11:36:45Z</time>
      </trkpt>
      <trkpt lat="46.507508922368288" lon="8.450130019336939">
        <ele>2934.0799999999999</ele>
        <time>2018-08-05T11:36:53Z</time>
      </trkpt>
      <trkpt lat="46.50749827735126" lon="8.450124906376004">
        <ele>2933.1199999999999</ele>
        <time>2018-08-05T11:37:09Z</time>
      </trkpt>
      <trkpt lat="46.507504479959607" lon="8.450107891112566">
        <ele>2933.5999999999999</ele>
        <time>2018-08-05T11:37:16Z</time>
      </trkpt>
      <trkpt lat="46.507499702274799" lon="8.450130773708224">
        <ele>2933.5999999999999</ele>
        <time>2018-08-05T11:37:24Z</time>
      </trkpt>
      <trkpt lat="46.507489560171962" lon="8.450148794800043">
        <ele>2934.0799999999999</ele>
        <time>2018-08-05T11:37:34Z</time>
      </trkpt>
      <trkpt lat="46.507462235167623" lon="8.450145022943616">
        <ele>2933.1199999999999</ele>
        <time>2018-08-05T11:37:44Z</time>
      </trkpt>
      <trkpt lat="46.507463240996003" lon="8.450128929689527">
        <ele>2932.6399999999999</ele>
        <time>2018-08-05T11:37:46Z</time>
      </trkpt>
      <trkpt lat="46.507447902113199" lon="8.450125828385353">
        <ele>2931.6799999999998</ele>
        <time>2018-08-05T11:37:57Z</time>
      </trkpt>
      <trkpt lat="46.507444968447089" lon="8.450115099549294">
        <ele>2931.1999999999998</ele>
        <time>2018-08-05T11:38:07Z</time>
      </trkpt>
      <trkpt lat="46.507442202419043" lon="8.450133455917239">
        <ele>2929.75</ele>
        <time>2018-08-05T11:38:17Z</time>
      </trkpt>
      <trkpt lat="46.507418984547257" lon="8.450125241652131">
        <ele>2928.3099999999999</ele>
        <time>2018-08-05T11:38:26Z</time>
      </trkpt>
      <trkpt lat="46.507408171892166" lon="8.450136389583349">
        <ele>2927.8299999999999</ele>
        <time>2018-08-05T11:38:38Z</time>
      </trkpt>
      <trkpt lat="46.50739224627614" lon="8.450127001851797">
        <ele>2926.3899999999999</ele>
        <time>2018-08-05T11:38:48Z</time>
      </trkpt>
      <trkpt lat="46.507379254326224" lon="8.450149381533265">
        <ele>2925.4299999999998</ele>
        <time>2018-08-05T11:38:57Z</time>
      </trkpt>
      <trkpt lat="46.507349833846092" lon="8.45013689249754">
        <ele>2924.9499999999998</ele>
        <time>2018-08-05T11:39:05Z</time>
      </trkpt>
      <trkpt lat="46.507326113060117" lon="8.450169246643782">
        <ele>2922.54</ele>
        <time>2018-08-05T11:39:15Z</time>
      </trkpt>
      <trkpt lat="46.507295938208699" lon="8.450157679617405">
        <ele>2921.0999999999999</ele>
        <time>2018-08-05T11:39:25Z</time>
      </trkpt>
      <trkpt lat="46.50728914886713" lon="8.450170252472162">
        <ele>2920.6199999999999</ele>
        <time>2018-08-05T11:39:35Z</time>
      </trkpt>
      <trkpt lat="46.507243132218719" lon="8.450204031541944">
        <ele>2918.6999999999998</ele>
        <time>2018-08-05T11:39:46Z</time>
      </trkpt>
      <trkpt lat="46.507217232137918" lon="8.450215179473162">
        <ele>2917.2600000000002</ele>
        <time>2018-08-05T11:39:55Z</time>
      </trkpt>
      <trkpt lat="46.507191583514214" lon="8.450223477557302">
        <ele>2915.8200000000002</ele>
        <time>2018-08-05T11:40:04Z</time>
      </trkpt>
      <trkpt lat="46.50716844946146" lon="8.450218364596367">
        <ele>2914.8499999999999</ele>
        <time>2018-08-05T11:40:12Z</time>
      </trkpt>
      <trkpt lat="46.507167192175984" lon="8.450231608003378">
        <ele>2915.3400000000001</ele>
        <time>2018-08-05T11:40:27Z</time>
      </trkpt>
      <trkpt lat="46.50715185329318" lon="8.450254406780005">
        <ele>2913.4099999999999</ele>
        <time>2018-08-05T11:40:44Z</time>
      </trkpt>
      <trkpt lat="46.507130395621061" lon="8.450250886380673">
        <ele>2912.9299999999998</ele>
        <time>2018-08-05T11:40:54Z</time>
      </trkpt>
      <trkpt lat="46.507131736725569" lon="8.450256166979671">
        <ele>2911.0100000000002</ele>
        <time>2018-08-05T11:41:01Z</time>
      </trkpt>
      <trkpt lat="46.507094101980329" lon="8.450273768976331">
        <ele>2910.0500000000002</ele>
        <time>2018-08-05T11:41:11Z</time>
      </trkpt>
      <trkpt lat="46.507083205506206" lon="8.45027519389987">
        <ele>2909.0900000000001</ele>
        <time>2018-08-05T11:41:22Z</time>
      </trkpt>
      <trkpt lat="46.507074655964971" lon="8.450274188071489">
        <ele>2908.1300000000001</ele>
        <time>2018-08-05T11:41:32Z</time>
      </trkpt>
      <trkpt lat="46.507048504427075" lon="8.450304865837097">
        <ele>2906.1999999999998</ele>
        <time>2018-08-05T11:41:41Z</time>
      </trkpt>
      <trkpt lat="46.507038278505206" lon="8.450310984626412">
        <ele>2905.2399999999998</ele>
        <time>2018-08-05T11:41:52Z</time>
      </trkpt>
      <trkpt lat="46.507019000127912" lon="8.4503133315593">
        <ele>2905.2399999999998</ele>
        <time>2018-08-05T11:42:05Z</time>
      </trkpt>
      <trkpt lat="46.507007097825408" lon="8.450304614380002">
        <ele>2902.3600000000001</ele>
        <time>2018-08-05T11:42:14Z</time>
      </trkpt>
      <trkpt lat="46.506983209401369" lon="8.450265387073159">
        <ele>2900.4400000000001</ele>
        <time>2018-08-05T11:42:25Z</time>
      </trkpt>
      <trkpt lat="46.506966361775994" lon="8.45024292357266">
        <ele>2899.4699999999998</ele>
        <time>2018-08-05T11:42:34Z</time>
      </trkpt>
      <trkpt lat="46.506942138075829" lon="8.450227919965982">
        <ele>2897.5500000000002</ele>
        <time>2018-08-05T11:42:40Z</time>
      </trkpt>
      <trkpt lat="46.50693048723042" lon="8.450252814218402">
        <ele>2897.0700000000002</ele>
        <time>2018-08-05T11:42:47Z</time>
      </trkpt>
      <trkpt lat="46.506924368441105" lon="8.450263710692525">
        <ele>2896.1100000000001</ele>
        <time>2018-08-05T11:42:55Z</time>
      </trkpt>
      <trkpt lat="46.50691338814795" lon="8.450228422880173">
        <ele>2894.1900000000001</ele>
        <time>2018-08-05T11:43:02Z</time>
      </trkpt>
      <trkpt lat="46.506906263530254" lon="8.450190033763647">
        <ele>2893.23</ele>
        <time>2018-08-05T11:43:10Z</time>
      </trkpt>
      <trkpt lat="46.506885308772326" lon="8.45016916282475">
        <ele>2891.3000000000002</ele>
        <time>2018-08-05T11:43:17Z</time>
      </trkpt>
      <trkpt lat="46.506859660148621" lon="8.450149213895202">
        <ele>2890.3400000000001</ele>
        <time>2018-08-05T11:43:25Z</time>
      </trkpt>
      <trkpt lat="46.506853792816401" lon="8.450126331299543">
        <ele>2889.3800000000001</ele>
        <time>2018-08-05T11:43:33Z</time>
      </trkpt>
      <trkpt lat="46.506822695955634" lon="8.450122894719243">
        <ele>2887.9400000000001</ele>
        <time>2018-08-05T11:43:41Z</time>
      </trkpt>
      <trkpt lat="46.506812637671828" lon="8.450070759281516">
        <ele>2886.02</ele>
        <time>2018-08-05T11:43:49Z</time>
      </trkpt>
      <trkpt lat="46.506795454770327" lon="8.450067238882184">
        <ele>2884.0900000000001</ele>
        <time>2018-08-05T11:43:58Z</time>
      </trkpt>
      <trkpt lat="46.506765112280846" lon="8.450042931362987">
        <ele>2882.6500000000001</ele>
        <time>2018-08-05T11:44:10Z</time>
      </trkpt>
      <trkpt lat="46.506775338202715" lon="8.449991382658482">
        <ele>2881.6900000000001</ele>
        <time>2018-08-05T11:44:19Z</time>
      </trkpt>
      <trkpt lat="46.506748264655471" lon="8.450038740411401">
        <ele>2880.25</ele>
        <time>2018-08-05T11:44:28Z</time>
      </trkpt>
      <trkpt lat="46.506731333211064" lon="8.450050475075841">
        <ele>2879.29</ele>
        <time>2018-08-05T11:44:36Z</time>
      </trkpt>
      <trkpt lat="46.506714066490531" lon="8.450050391256809">
        <ele>2878.3200000000002</ele>
        <time>2018-08-05T11:44:45Z</time>
      </trkpt>
      <trkpt lat="46.506692860275507" lon="8.450066903606057">
        <ele>2876.8800000000001</ele>
        <time>2018-08-05T11:44:58Z</time>
      </trkpt>
      <trkpt lat="46.506681796163321" lon="8.450032705441117">
        <ele>2875.4400000000001</ele>
        <time>2018-08-05T11:45:07Z</time>
      </trkpt>
      <trkpt lat="46.506661931052804" lon="8.450035303831101">
        <ele>2875.4400000000001</ele>
        <time>2018-08-05T11:45:16Z</time>
      </trkpt>
      <trkpt lat="46.506644077599049" lon="8.450035387650132">
        <ele>2874</ele>
        <time>2018-08-05T11:45:26Z</time>
      </trkpt>
      <trkpt lat="46.506612477824092" lon="8.450063215568662">
        <ele>2873.04</ele>
        <time>2018-08-05T11:45:37Z</time>
      </trkpt>
      <trkpt lat="46.50658548809588" lon="8.450081739574671">
        <ele>2872.0799999999999</ele>
        <time>2018-08-05T11:45:48Z</time>
      </trkpt>
      <trkpt lat="46.506555313244462" lon="8.450082745403051">
        <ele>2870.6300000000001</ele>
        <time>2018-08-05T11:45:57Z</time>
      </trkpt>
      <trkpt lat="46.506544919684529" lon="8.450112333521247">
        <ele>2869.6700000000001</ele>
        <time>2018-08-05T11:46:08Z</time>
      </trkpt>
      <trkpt lat="46.506507536396384" lon="8.450119625777006">
        <ele>2868.71</ele>
        <time>2018-08-05T11:46:17Z</time>
      </trkpt>
      <trkpt lat="46.506518013775349" lon="8.450088026002049">
        <ele>2867.27</ele>
        <time>2018-08-05T11:46:25Z</time>
      </trkpt>
      <trkpt lat="46.506505021825433" lon="8.4500836674124">
        <ele>2865.3499999999999</ele>
        <time>2018-08-05T11:46:35Z</time>
      </trkpt>
      <trkpt lat="46.506471578031778" lon="8.450095653533936">
        <ele>2863.9000000000001</ele>
        <time>2018-08-05T11:46:45Z</time>
      </trkpt>
      <trkpt lat="46.506439726799726" lon="8.450043853372335">
        <ele>2861.5</ele>
        <time>2018-08-05T11:46:54Z</time>
      </trkpt>
      <trkpt lat="46.506412569433451" lon="8.450006050989032">
        <ele>2859.5799999999999</ele>
        <time>2018-08-05T11:47:02Z</time>
      </trkpt>
      <trkpt lat="46.506415084004402" lon="8.449975959956646">
        <ele>2859.0999999999999</ele>
        <time>2018-08-05T11:47:14Z</time>
      </trkpt>
      <trkpt lat="46.506378455087543" lon="8.449943102896214">
        <ele>2857.6599999999999</ele>
        <time>2018-08-05T11:47:27Z</time>
      </trkpt>
      <trkpt lat="46.506356997415423" lon="8.449924327433109">
        <ele>2856.21</ele>
        <time>2018-08-05T11:47:37Z</time>
      </trkpt>
      <trkpt lat="46.50634559802711" lon="8.449981072917581">
        <ele>2855.73</ele>
        <time>2018-08-05T11:47:48Z</time>
      </trkpt>
      <trkpt lat="46.506347190588713" lon="8.44997419975698">
        <ele>2852.8499999999999</ele>
        <time>2018-08-05T11:48:00Z</time>
      </trkpt>
      <trkpt lat="46.506309472024441" lon="8.449978977441788">
        <ele>2851.8899999999999</ele>
        <time>2018-08-05T11:48:10Z</time>
      </trkpt>
      <trkpt lat="46.506310645490885" lon="8.449945952743292">
        <ele>2850.4499999999998</ele>
        <time>2018-08-05T11:48:21Z</time>
      </trkpt>
      <trkpt lat="46.506295893341303" lon="8.449907898902893">
        <ele>2849</ele>
        <time>2018-08-05T11:48:30Z</time>
      </trkpt>
      <trkpt lat="46.506269406527281" lon="8.44988870434463">
        <ele>2847.0799999999999</ele>
        <time>2018-08-05T11:48:39Z</time>
      </trkpt>
      <trkpt lat="46.506247613579035" lon="8.449827516451478">
        <ele>2845.1599999999999</ele>
        <time>2018-08-05T11:48:49Z</time>
      </trkpt>
      <trkpt lat="46.506224814802408" lon="8.449792731553316">
        <ele>2843.7199999999998</ele>
        <time>2018-08-05T11:48:59Z</time>
      </trkpt>
      <trkpt lat="46.506215762346983" lon="8.449767334386706">
        <ele>2842.7600000000002</ele>
        <time>2018-08-05T11:49:06Z</time>
      </trkpt>
      <trkpt lat="46.506212661042809" lon="8.449669182300568">
        <ele>2842.2800000000002</ele>
        <time>2018-08-05T11:49:16Z</time>
      </trkpt>
      <trkpt lat="46.506223808974028" lon="8.44962241128087">
        <ele>2841.3099999999999</ele>
        <time>2018-08-05T11:49:20Z</time>
      </trkpt>
      <trkpt lat="46.506223976612091" lon="8.449523001909256">
        <ele>2838.9099999999999</ele>
        <time>2018-08-05T11:49:31Z</time>
      </trkpt>
      <trkpt lat="46.506209140643477" lon="8.449489055201411">
        <ele>2838.4299999999998</ele>
        <time>2018-08-05T11:49:36Z</time>
      </trkpt>
      <trkpt lat="46.506189024075866" lon="8.44941571354866">
        <ele>2836.0300000000002</ele>
        <time>2018-08-05T11:49:46Z</time>
      </trkpt>
      <trkpt lat="46.506170835345984" lon="8.449399620294571">
        <ele>2834.5799999999999</ele>
        <time>2018-08-05T11:49:56Z</time>
      </trkpt>
      <trkpt lat="46.506158849224448" lon="8.449314376339316">
        <ele>2832.1799999999998</ele>
        <time>2018-08-05T11:50:07Z</time>
      </trkpt>
      <trkpt lat="46.506158178672194" lon="8.449309598654509">
        <ele>2831.6999999999998</ele>
        <time>2018-08-05T11:50:08Z</time>
      </trkpt>
      <trkpt lat="46.506141498684883" lon="8.449283950030804">
        <ele>2831.2199999999998</ele>
        <time>2018-08-05T11:50:17Z</time>
      </trkpt>
      <trkpt lat="46.506104534491897" lon="8.449300043284893">
        <ele>2828.8200000000002</ele>
        <time>2018-08-05T11:50:29Z</time>
      </trkpt>
      <trkpt lat="46.506065977737308" lon="8.449258636683226">
        <ele>2827.3699999999999</ele>
        <time>2018-08-05T11:50:38Z</time>
      </trkpt>
      <trkpt lat="46.506078466773033" lon="8.449248326942325">
        <ele>2826.4099999999999</ele>
        <time>2018-08-05T11:50:48Z</time>
      </trkpt>
      <trkpt lat="46.506090452894568" lon="8.449265006929636">
        <ele>2825.4499999999998</ele>
        <time>2018-08-05T11:51:06Z</time>
      </trkpt>
      <trkpt lat="46.506062122061849" lon="8.449255367740989">
        <ele>2825.9299999999998</ele>
        <time>2018-08-05T11:51:25Z</time>
      </trkpt>
      <trkpt lat="46.506064301356673" lon="8.449260648339987">
        <ele>2826.8899999999999</ele>
        <time>2018-08-05T11:51:36Z</time>
      </trkpt>
      <trkpt lat="46.506056003272533" lon="8.449295181781054">
        <ele>2827.3699999999999</ele>
        <time>2018-08-05T11:51:50Z</time>
      </trkpt>
      <trkpt lat="46.506056590005755" lon="8.449344132095575">
        <ele>2824.9699999999998</ele>
        <time>2018-08-05T11:52:02Z</time>
      </trkpt>
      <trkpt lat="46.50602163746953" lon="8.449356034398079">
        <ele>2823.0500000000002</ele>
        <time>2018-08-05T11:52:12Z</time>
      </trkpt>
      <trkpt lat="46.505993558093905" lon="8.449331559240818">
        <ele>2821.6100000000001</ele>
        <time>2018-08-05T11:52:20Z</time>
      </trkpt>
      <trkpt lat="46.505986349657178" lon="8.449324434623122">
        <ele>2820.6500000000001</ele>
        <time>2018-08-05T11:52:28Z</time>
      </trkpt>
      <trkpt lat="46.505942260846496" lon="8.449325272813439">
        <ele>2820.1599999999999</ele>
        <time>2018-08-05T11:52:35Z</time>
      </trkpt>
      <trkpt lat="46.505905045196414" lon="8.449353603646159">
        <ele>2818.7199999999998</ele>
        <time>2018-08-05T11:52:44Z</time>
      </trkpt>
      <trkpt lat="46.505917282775044" lon="8.449357124045491">
        <ele>2818.7199999999998</ele>
        <time>2018-08-05T11:52:59Z</time>
      </trkpt>
      <trkpt lat="46.505884090438485" lon="8.449325524270535">
        <ele>2816.8000000000002</ele>
        <time>2018-08-05T11:53:08Z</time>
      </trkpt>
      <trkpt lat="46.505895741283894" lon="8.449262995272875">
        <ele>2816.3200000000002</ele>
        <time>2018-08-05T11:53:19Z</time>
      </trkpt>
      <trkpt lat="46.505902362987399" lon="8.449262911453843">
        <ele>2816.3200000000002</ele>
        <time>2018-08-05T11:53:34Z</time>
      </trkpt>
      <trkpt lat="46.505893645808101" lon="8.449297193437815">
        <ele>2817.7600000000002</ele>
        <time>2018-08-05T11:53:52Z</time>
      </trkpt>
      <trkpt lat="46.50587604381144" lon="8.449299540370703">
        <ele>2815.8400000000001</ele>
        <time>2018-08-05T11:53:55Z</time>
      </trkpt>
      <trkpt lat="46.505854586139321" lon="8.449253104627132">
        <ele>2814.4000000000001</ele>
        <time>2018-08-05T11:54:06Z</time>
      </trkpt>
      <trkpt lat="46.505798930302262" lon="8.449235167354345">
        <ele>2812.96</ele>
        <time>2018-08-05T11:54:16Z</time>
      </trkpt>
      <trkpt lat="46.50575484149158" lon="8.44927741214633">
        <ele>2810.5500000000002</ele>
        <time>2018-08-05T11:54:27Z</time>
      </trkpt>
      <trkpt lat="46.505729360505939" lon="8.449272215366364">
        <ele>2809.5900000000001</ele>
        <time>2018-08-05T11:54:38Z</time>
      </trkpt>
      <trkpt lat="46.505706310272217" lon="8.449233407154679">
        <ele>2807.6700000000001</ele>
        <time>2018-08-05T11:54:47Z</time>
      </trkpt>
      <trkpt lat="46.505678985267878" lon="8.449220163747668">
        <ele>2805.2600000000002</ele>
        <time>2018-08-05T11:54:56Z</time>
      </trkpt>
      <trkpt lat="46.505663981661201" lon="8.449214212596417">
        <ele>2803.8200000000002</ele>
        <time>2018-08-05T11:55:05Z</time>
      </trkpt>
      <trkpt lat="46.505629029124975" lon="8.449174901470542">
        <ele>2801.9000000000001</ele>
        <time>2018-08-05T11:55:13Z</time>
      </trkpt>
      <trkpt lat="46.505619892850518" lon="8.449181690812111">
        <ele>2800.9400000000001</ele>
        <time>2018-08-05T11:55:21Z</time>
      </trkpt>
      <trkpt lat="46.505592316389084" lon="8.449235334992409">
        <ele>2799.5</ele>
        <time>2018-08-05T11:55:30Z</time>
      </trkpt>
      <trkpt lat="46.505559040233493" lon="8.449236508458853">
        <ele>2797.5700000000002</ele>
        <time>2018-08-05T11:55:38Z</time>
      </trkpt>
      <trkpt lat="46.50553154759109" lon="8.449256373569369">
        <ele>2796.1300000000001</ele>
        <time>2018-08-05T11:55:45Z</time>
      </trkpt>
      <trkpt lat="46.505506318062544" lon="8.449328877031803">
        <ele>2794.21</ele>
        <time>2018-08-05T11:55:56Z</time>
      </trkpt>
      <trkpt lat="46.50548025034368" lon="8.449364667758346">
        <ele>2792.29</ele>
        <time>2018-08-05T11:56:06Z</time>
      </trkpt>
      <trkpt lat="46.505439514294267" lon="8.449384616687894">
        <ele>2790.3600000000001</ele>
        <time>2018-08-05T11:56:15Z</time>
      </trkpt>
      <trkpt lat="46.505420487374067" lon="8.449391406029463">
        <ele>2789.4000000000001</ele>
        <time>2018-08-05T11:56:23Z</time>
      </trkpt>
      <trkpt lat="46.505396096035838" lon="8.449367685243487">
        <ele>2787.96</ele>
        <time>2018-08-05T11:56:32Z</time>
      </trkpt>
      <trkpt lat="46.505361814051867" lon="8.449369696900249">
        <ele>2786.04</ele>
        <time>2018-08-05T11:56:41Z</time>
      </trkpt>
      <trkpt lat="46.505363574251533" lon="8.449264755472541">
        <ele>2784.5999999999999</ele>
        <time>2018-08-05T11:56:50Z</time>
      </trkpt>
      <trkpt lat="46.505340104922652" lon="8.449261737987399">
        <ele>2782.6700000000001</ele>
        <time>2018-08-05T11:57:00Z</time>
      </trkpt>
      <trkpt lat="46.505296435207129" lon="8.449273053556681">
        <ele>2780.75</ele>
        <time>2018-08-05T11:57:11Z</time>
      </trkpt>
      <trkpt lat="46.505268942564726" lon="8.449247572571039">
        <ele>2778.8299999999999</ele>
        <time>2018-08-05T11:57:20Z</time>
      </trkpt>
      <trkpt lat="46.505263661965728" lon="8.449251176789403">
        <ele>2779.3099999999999</ele>
        <time>2018-08-05T11:57:22Z</time>
      </trkpt>
      <trkpt lat="46.505260141566396" lon="8.449277244508266">
        <ele>2778.3499999999999</ele>
        <time>2018-08-05T11:57:31Z</time>
      </trkpt>
      <trkpt lat="46.505229044705629" lon="8.449258552864194">
        <ele>2776.4200000000001</ele>
        <time>2018-08-05T11:57:40Z</time>
      </trkpt>
      <trkpt lat="46.505202809348702" lon="8.449260229244828">
        <ele>2775.46</ele>
        <time>2018-08-05T11:57:49Z</time>
      </trkpt>
      <trkpt lat="46.505197696387768" lon="8.449295936152339">
        <ele>2773.0599999999999</ele>
        <time>2018-08-05T11:58:01Z</time>
      </trkpt>
      <trkpt lat="46.505178837105632" lon="8.4493169747293">
        <ele>2772.0999999999999</ele>
        <time>2018-08-05T11:58:10Z</time>
      </trkpt>
      <trkpt lat="46.505160061642528" lon="8.449316136538982">
        <ele>2771.1399999999999</ele>
        <time>2018-08-05T11:58:21Z</time>
      </trkpt>
      <trkpt lat="46.505151847377419" lon="8.449272885918617">
        <ele>2769.6999999999998</ele>
        <time>2018-08-05T11:58:31Z</time>
      </trkpt>
      <trkpt lat="46.505133910104632" lon="8.449280764907599">
        <ele>2768.25</ele>
        <time>2018-08-05T11:58:41Z</time>
      </trkpt>
      <trkpt lat="46.505108848214149" lon="8.449281519278884">
        <ele>2767.29</ele>
        <time>2018-08-05T11:58:52Z</time>
      </trkpt>
      <trkpt lat="46.505106501281261" lon="8.449225276708603">
        <ele>2766.3299999999999</ele>
        <time>2018-08-05T11:59:03Z</time>
      </trkpt>
      <trkpt lat="46.505091916769743" lon="8.449198789894581">
        <ele>2764.4099999999999</ele>
        <time>2018-08-05T11:59:14Z</time>
      </trkpt>
      <trkpt lat="46.505072470754385" lon="8.449202813208103">
        <ele>2762.9699999999998</ele>
        <time>2018-08-05T11:59:25Z</time>
      </trkpt>
      <trkpt lat="46.505072051659226" lon="8.449161909520626">
        <ele>2762.4899999999998</ele>
        <time>2018-08-05T11:59:35Z</time>
      </trkpt>
      <trkpt lat="46.505059562623501" lon="8.449112959206104">
        <ele>2760.5599999999999</ele>
        <time>2018-08-05T11:59:45Z</time>
      </trkpt>
      <trkpt lat="46.505028884857893" lon="8.449116395786405">
        <ele>2759.1199999999999</ele>
        <time>2018-08-05T11:59:54Z</time>
      </trkpt>
      <trkpt lat="46.504999548196793" lon="8.449121089652181">
        <ele>2757.6799999999998</ele>
        <time>2018-08-05T12:00:03Z</time>
      </trkpt>
      <trkpt lat="46.50497012771666" lon="8.449156796559691">
        <ele>2755.7600000000002</ele>
        <time>2018-08-05T12:00:14Z</time>
      </trkpt>
      <trkpt lat="46.504936264827847" lon="8.449162663891912">
        <ele>2754.3099999999999</ele>
        <time>2018-08-05T12:00:24Z</time>
      </trkpt>
      <trkpt lat="46.504915226250887" lon="8.449195688590407">
        <ele>2753.8299999999999</ele>
        <time>2018-08-05T12:00:33Z</time>
      </trkpt>
      <trkpt lat="46.504866862669587" lon="8.449206417426467">
        <ele>2752.8699999999999</ele>
        <time>2018-08-05T12:00:42Z</time>
      </trkpt>
      <trkpt lat="46.504844818264246" lon="8.449246734380722">
        <ele>2752.3899999999999</ele>
        <time>2018-08-05T12:00:47Z</time>
      </trkpt>
      <trkpt lat="46.504818666726351" lon="8.449321333318949">
        <ele>2752.3899999999999</ele>
        <time>2018-08-05T12:00:56Z</time>
      </trkpt>
      <trkpt lat="46.504761334508657" lon="8.449343629181385">
        <ele>2751.4299999999998</ele>
        <time>2018-08-05T12:01:05Z</time>
      </trkpt>
      <trkpt lat="46.504747839644551" lon="8.44941814430058">
        <ele>2750.4699999999998</ele>
        <time>2018-08-05T12:01:17Z</time>
      </trkpt>
      <trkpt lat="46.504712803289294" lon="8.449480505660176">
        <ele>2749.0300000000002</ele>
        <time>2018-08-05T12:01:27Z</time>
      </trkpt>
      <trkpt lat="46.504683047533035" lon="8.449530713260174">
        <ele>2748.5500000000002</ele>
        <time>2018-08-05T12:01:35Z</time>
      </trkpt>
      <trkpt lat="46.504681035876274" lon="8.449587961658835">
        <ele>2749.0300000000002</ele>
        <time>2018-08-05T12:01:43Z</time>
      </trkpt>
      <trkpt lat="46.504649352282286" lon="8.449644790962338">
        <ele>2748.0700000000002</ele>
        <time>2018-08-05T12:01:51Z</time>
      </trkpt>
      <trkpt lat="46.504599982872605" lon="8.449701704084873">
        <ele>2746.6199999999999</ele>
        <time>2018-08-05T12:02:01Z</time>
      </trkpt>
      <trkpt lat="46.504612388089299" lon="8.44972257502377">
        <ele>2746.6199999999999</ele>
        <time>2018-08-05T12:02:11Z</time>
      </trkpt>
      <trkpt lat="46.504631750285625" lon="8.449804885312915">
        <ele>2746.6199999999999</ele>
        <time>2018-08-05T12:02:21Z</time>
      </trkpt>
      <trkpt lat="46.50459973141551" lon="8.449830869212747">
        <ele>2746.1399999999999</ele>
        <time>2018-08-05T12:02:30Z</time>
      </trkpt>
      <trkpt lat="46.504552708938718" lon="8.449873784556985">
        <ele>2745.1799999999998</ele>
        <time>2018-08-05T12:02:39Z</time>
      </trkpt>
      <trkpt lat="46.504518426954746" lon="8.449884261935949">
        <ele>2743.7399999999998</ele>
        <time>2018-08-05T12:02:52Z</time>
      </trkpt>
      <trkpt lat="46.50453276000917" lon="8.449925417080522">
        <ele>2742.7800000000002</ele>
        <time>2018-08-05T12:03:01Z</time>
      </trkpt>
      <trkpt lat="46.504549356177449" lon="8.449949640780687">
        <ele>2741.8200000000002</ele>
        <time>2018-08-05T12:03:11Z</time>
      </trkpt>
      <trkpt lat="46.504543405026197" lon="8.449943773448467">
        <ele>2740.3800000000001</ele>
        <time>2018-08-05T12:03:20Z</time>
      </trkpt>
      <trkpt lat="46.504523120820522" lon="8.449926422908902">
        <ele>2740.8600000000001</ele>
        <time>2018-08-05T12:03:35Z</time>
      </trkpt>
      <trkpt lat="46.504522617906332" lon="8.449923153966665">
        <ele>2740.3800000000001</ele>
        <time>2018-08-05T12:03:42Z</time>
      </trkpt>
      <trkpt lat="46.504524126648903" lon="8.449889374896884">
        <ele>2740.3800000000001</ele>
        <time>2018-08-05T12:03:51Z</time>
      </trkpt>
      <trkpt lat="46.504537872970104" lon="8.449902199208736">
        <ele>2740.3800000000001</ele>
        <time>2018-08-05T12:04:01Z</time>
      </trkpt>
      <trkpt lat="46.504492862150073" lon="8.449933128431439">
        <ele>2741.3400000000001</ele>
        <time>2018-08-05T12:04:20Z</time>
      </trkpt>
      <trkpt lat="46.504509961232543" lon="8.449990125373006">
        <ele>2740.3800000000001</ele>
        <time>2018-08-05T12:04:34Z</time>
      </trkpt>
      <trkpt lat="46.504497556015849" lon="8.450051648542285">
        <ele>2737.9699999999998</ele>
        <time>2018-08-05T12:04:45Z</time>
      </trkpt>
      <trkpt lat="46.504486156627536" lon="8.450111914426088">
        <ele>2736.5300000000002</ele>
        <time>2018-08-05T12:04:56Z</time>
      </trkpt>
      <trkpt lat="46.504458328709006" lon="8.450167402625084">
        <ele>2734.1300000000001</ele>
        <time>2018-08-05T12:05:07Z</time>
      </trkpt>
      <trkpt lat="46.504421615973115" lon="8.450113842263818">
        <ele>2732.1999999999998</ele>
        <time>2018-08-05T12:05:17Z</time>
      </trkpt>
      <trkpt lat="46.504408540204167" lon="8.450104286894202">
        <ele>2731.2399999999998</ele>
        <time>2018-08-05T12:05:28Z</time>
      </trkpt>
      <trkpt lat="46.504387250170112" lon="8.450130270794034">
        <ele>2729.8000000000002</ele>
        <time>2018-08-05T12:05:38Z</time>
      </trkpt>
      <trkpt lat="46.504366965964437" lon="8.450109818950295">
        <ele>2727.8800000000001</ele>
        <time>2018-08-05T12:05:51Z</time>
      </trkpt>
      <trkpt lat="46.504339138045907" lon="8.450072854757309">
        <ele>2725.96</ele>
        <time>2018-08-05T12:06:02Z</time>
      </trkpt>
      <trkpt lat="46.504328157752752" lon="8.450114596635103">
        <ele>2724.0300000000002</ele>
        <time>2018-08-05T12:06:12Z</time>
      </trkpt>
      <trkpt lat="46.504307789728045" lon="8.450135551393032">
        <ele>2722.5900000000001</ele>
        <time>2018-08-05T12:06:23Z</time>
      </trkpt>
      <trkpt lat="46.504283733665943" lon="8.450138904154301">
        <ele>2720.6700000000001</ele>
        <time>2018-08-05T12:06:33Z</time>
      </trkpt>
      <trkpt lat="46.50426747277379" lon="8.450143933296204">
        <ele>2719.71</ele>
        <time>2018-08-05T12:06:42Z</time>
      </trkpt>
      <trkpt lat="46.504257582128048" lon="8.45015499740839">
        <ele>2718.27</ele>
        <time>2018-08-05T12:06:48Z</time>
      </trkpt>
      <trkpt lat="46.504235453903675" lon="8.45018089748919">
        <ele>2716.8200000000002</ele>
        <time>2018-08-05T12:06:58Z</time>
      </trkpt>
      <trkpt lat="46.504186587408185" lon="8.450150219723582">
        <ele>2714.9000000000001</ele>
        <time>2018-08-05T12:07:10Z</time>
      </trkpt>
      <trkpt lat="46.50416437536478" lon="8.450184585526586">
        <ele>2713.46</ele>
        <time>2018-08-05T12:07:19Z</time>
      </trkpt>
      <trkpt lat="46.504121879115701" lon="8.45019699074328">
        <ele>2711.54</ele>
        <time>2018-08-05T12:07:28Z</time>
      </trkpt>
      <trkpt lat="46.50407200679183" lon="8.450264967978001">
        <ele>2710.0900000000001</ele>
        <time>2018-08-05T12:07:39Z</time>
      </trkpt>
      <trkpt lat="46.504044011235237" lon="8.450289778411388">
        <ele>2709.1300000000001</ele>
        <time>2018-08-05T12:07:47Z</time>
      </trkpt>
      <trkpt lat="46.504048202186823" lon="8.450306793674827">
        <ele>2708.6500000000001</ele>
        <time>2018-08-05T12:07:57Z</time>
      </trkpt>
      <trkpt lat="46.503999922424555" lon="8.450329676270485">
        <ele>2707.21</ele>
        <time>2018-08-05T12:08:07Z</time>
      </trkpt>
      <trkpt lat="46.503980476409197" lon="8.45035775564611">
        <ele>2705.29</ele>
        <time>2018-08-05T12:08:18Z</time>
      </trkpt>
      <trkpt lat="46.503939656540751" lon="8.45034409314394">
        <ele>2703.8499999999999</ele>
        <time>2018-08-05T12:08:28Z</time>
      </trkpt>
      <trkpt lat="46.503927670419216" lon="8.450360773131251">
        <ele>2702.8800000000001</ele>
        <time>2018-08-05T12:08:36Z</time>
      </trkpt>
      <trkpt lat="46.503921803086996" lon="8.450346020981669">
        <ele>2702.4000000000001</ele>
        <time>2018-08-05T12:08:45Z</time>
      </trkpt>
      <trkpt lat="46.503915265202522" lon="8.450305536389351">
        <ele>2702.4000000000001</ele>
        <time>2018-08-05T12:08:53Z</time>
      </trkpt>
      <trkpt lat="46.503889281302691" lon="8.450274439528585">
        <ele>2701.4400000000001</ele>
        <time>2018-08-05T12:09:03Z</time>
      </trkpt>
      <trkpt lat="46.503876876085997" lon="8.450295059010387">
        <ele>2699.52</ele>
        <time>2018-08-05T12:09:14Z</time>
      </trkpt>
      <trkpt lat="46.503836056217551" lon="8.450266057625413">
        <ele>2698.0799999999999</ele>
        <time>2018-08-05T12:09:24Z</time>
      </trkpt>
      <trkpt lat="46.503796493634582" lon="8.450324982404709">
        <ele>2697.5999999999999</ele>
        <time>2018-08-05T12:09:34Z</time>
      </trkpt>
      <trkpt lat="46.503751650452614" lon="8.45037879422307">
        <ele>2697.1199999999999</ele>
        <time>2018-08-05T12:09:46Z</time>
      </trkpt>
      <trkpt lat="46.503702783957124" lon="8.450403520837426">
        <ele>2698.0799999999999</ele>
        <time>2018-08-05T12:09:56Z</time>
      </trkpt>
      <trkpt lat="46.503691803663969" lon="8.450426822528243">
        <ele>2698.5599999999999</ele>
        <time>2018-08-05T12:10:05Z</time>
      </trkpt>
      <trkpt lat="46.503643104806542" lon="8.450507121160626">
        <ele>2698.0799999999999</ele>
        <time>2018-08-05T12:10:15Z</time>
      </trkpt>
      <trkpt lat="46.503618210554123" lon="8.4505395591259">
        <ele>2697.5999999999999</ele>
        <time>2018-08-05T12:10:24Z</time>
      </trkpt>
      <trkpt lat="46.503584431484342" lon="8.450558502227068">
        <ele>2697.1199999999999</ele>
        <time>2018-08-05T12:10:34Z</time>
      </trkpt>
      <trkpt lat="46.503603123128414" lon="8.450545929372311">
        <ele>2697.1199999999999</ele>
        <time>2018-08-05T12:10:45Z</time>
      </trkpt>
      <trkpt lat="46.503643020987511" lon="8.45050091855228">
        <ele>2697.5999999999999</ele>
        <time>2018-08-05T12:10:57Z</time>
      </trkpt>
      <trkpt lat="46.503680655732751" lon="8.450498320162296">
        <ele>2698.0799999999999</ele>
        <time>2018-08-05T12:11:11Z</time>
      </trkpt>
      <trkpt lat="46.503675123676658" lon="8.450430259108543">
        <ele>2699.04</ele>
        <time>2018-08-05T12:11:21Z</time>
      </trkpt>
      <trkpt lat="46.503675458952785" lon="8.450425900518894">
        <ele>2698.5599999999999</ele>
        <time>2018-08-05T12:11:22Z</time>
      </trkpt>
      <trkpt lat="46.503694988787174" lon="8.45036999322474">
        <ele>2698.5599999999999</ele>
        <time>2018-08-05T12:11:33Z</time>
      </trkpt>
      <trkpt lat="46.503744442015886" lon="8.450354989618063">
        <ele>2697.1199999999999</ele>
        <time>2018-08-05T12:11:42Z</time>
      </trkpt>
      <trkpt lat="46.503787189722061" lon="8.450338561087847">
        <ele>2696.6399999999999</ele>
        <time>2018-08-05T12:11:51Z</time>
      </trkpt>
      <trkpt lat="46.503809988498688" lon="8.450332945212722">
        <ele>2695.6700000000001</ele>
        <time>2018-08-05T12:11:59Z</time>
      </trkpt>
      <trkpt lat="46.503842594102025" lon="8.450439898297191">
        <ele>2693.75</ele>
        <time>2018-08-05T12:12:10Z</time>
      </trkpt>
      <trkpt lat="46.503800600767136" lon="8.450514916330576">
        <ele>2692.79</ele>
        <time>2018-08-05T12:12:21Z</time>
      </trkpt>
      <trkpt lat="46.503792218863964" lon="8.45060208812356">
        <ele>2691.8299999999999</ele>
        <time>2018-08-05T12:12:31Z</time>
      </trkpt>
      <trkpt lat="46.503766067326069" lon="8.450645003467798">
        <ele>2692.3099999999999</ele>
        <time>2018-08-05T12:12:41Z</time>
      </trkpt>
      <trkpt lat="46.503770928829908" lon="8.450680961832404">
        <ele>2691.3499999999999</ele>
        <time>2018-08-05T12:12:50Z</time>
      </trkpt>
      <trkpt lat="46.503739580512047" lon="8.450735528022051">
        <ele>2689.9099999999999</ele>
        <time>2018-08-05T12:13:00Z</time>
      </trkpt>
      <trkpt lat="46.503663053736091" lon="8.450724547728896">
        <ele>2690.3899999999999</ele>
        <time>2018-08-05T12:13:11Z</time>
      </trkpt>
      <trkpt lat="46.503619384020567" lon="8.450683560222387">
        <ele>2689.4299999999998</ele>
        <time>2018-08-05T12:13:21Z</time>
      </trkpt>
      <trkpt lat="46.503589292988181" lon="8.450688421726227">
        <ele>2688.46</ele>
        <time>2018-08-05T12:13:30Z</time>
      </trkpt>
      <trkpt lat="46.503568338230252" lon="8.450671155005693">
        <ele>2688.46</ele>
        <time>2018-08-05T12:13:35Z</time>
      </trkpt>
      <trkpt lat="46.503544868901372" lon="8.450600998476148">
        <ele>2689.4299999999998</ele>
        <time>2018-08-05T12:13:44Z</time>
      </trkpt>
      <trkpt lat="46.503551742061973" lon="8.450570572167635">
        <ele>2689.4299999999998</ele>
        <time>2018-08-05T12:13:57Z</time>
      </trkpt>
      <trkpt lat="46.503549059852958" lon="8.450507204979658">
        <ele>2690.8699999999999</ele>
        <time>2018-08-05T12:14:08Z</time>
      </trkpt>
      <trkpt lat="46.503514358773828" lon="8.450514413416386">
        <ele>2691.8299999999999</ele>
        <time>2018-08-05T12:14:18Z</time>
      </trkpt>
      <trkpt lat="46.503500444814563" lon="8.450487004593015">
        <ele>2691.8299999999999</ele>
        <time>2018-08-05T12:14:24Z</time>
      </trkpt>
      <trkpt lat="46.503477562218904" lon="8.450440065935254">
        <ele>2692.3099999999999</ele>
        <time>2018-08-05T12:14:33Z</time>
      </trkpt>
      <trkpt lat="46.503446800634265" lon="8.45043352805078">
        <ele>2693.75</ele>
        <time>2018-08-05T12:14:44Z</time>
      </trkpt>
      <trkpt lat="46.503434395417571" lon="8.450402179732919">
        <ele>2693.27</ele>
        <time>2018-08-05T12:14:55Z</time>
      </trkpt>
      <trkpt lat="46.503389971330762" lon="8.45044769346714">
        <ele>2692.79</ele>
        <time>2018-08-05T12:15:08Z</time>
      </trkpt>
      <trkpt lat="46.50334395468235" lon="8.450515335425735">
        <ele>2691.3499999999999</ele>
        <time>2018-08-05T12:15:20Z</time>
      </trkpt>
      <trkpt lat="46.503319814801216" lon="8.450546516105533">
        <ele>2689.4299999999998</ele>
        <time>2018-08-05T12:15:31Z</time>
      </trkpt>
      <trkpt lat="46.503311265259981" lon="8.450551377609372">
        <ele>2687.5</ele>
        <time>2018-08-05T12:15:35Z</time>
      </trkpt>
      <trkpt lat="46.503318138420582" lon="8.450569650158286">
        <ele>2688.9400000000001</ele>
        <time>2018-08-05T12:15:38Z</time>
      </trkpt>
      <trkpt lat="46.503346050158143" lon="8.450593035668135">
        <ele>2687.5</ele>
        <time>2018-08-05T12:15:45Z</time>
      </trkpt>
      <trkpt lat="46.503277402371168" lon="8.450597729533911">
        <ele>2686.54</ele>
        <time>2018-08-05T12:15:53Z</time>
      </trkpt>
      <trkpt lat="46.503224596381187" lon="8.450602758675814">
        <ele>2687.02</ele>
        <time>2018-08-05T12:16:03Z</time>
      </trkpt>
      <trkpt lat="46.503197690472007" lon="8.4506172593683">
        <ele>2687.02</ele>
        <time>2018-08-05T12:16:12Z</time>
      </trkpt>
      <trkpt lat="46.503198361024261" lon="8.450608793646097">
        <ele>2686.54</ele>
        <time>2018-08-05T12:16:28Z</time>
      </trkpt>
      <trkpt lat="46.503205904737115" lon="8.450619019567967">
        <ele>2686.0599999999999</ele>
        <time>2018-08-05T12:16:42Z</time>
      </trkpt>
      <trkpt lat="46.503157624974847" lon="8.450642824172974">
        <ele>2686.54</ele>
        <time>2018-08-05T12:16:54Z</time>
      </trkpt>
      <trkpt lat="46.503162989392877" lon="8.45064215362072">
        <ele>2686.54</ele>
        <time>2018-08-05T12:17:04Z</time>
      </trkpt>
      <trkpt lat="46.503147734329104" lon="8.450638465583324">
        <ele>2686.54</ele>
        <time>2018-08-05T12:17:14Z</time>
      </trkpt>
      <trkpt lat="46.503158798441291" lon="8.450636453926563">
        <ele>2685.5799999999999</ele>
        <time>2018-08-05T12:17:23Z</time>
      </trkpt>
      <trkpt lat="46.50316072627902" lon="8.450611056759954">
        <ele>2686.0599999999999</ele>
        <time>2018-08-05T12:17:39Z</time>
      </trkpt>
      <trkpt lat="46.503155697137117" lon="8.450651708990336">
        <ele>2685.5799999999999</ele>
        <time>2018-08-05T12:17:49Z</time>
      </trkpt>
      <trkpt lat="46.503192996606231" lon="8.450633520260453">
        <ele>2685.0999999999999</ele>
        <time>2018-08-05T12:18:07Z</time>
      </trkpt>
      <trkpt lat="46.503181932494044" lon="8.450637543573976">
        <ele>2685.5799999999999</ele>
        <time>2018-08-05T12:18:29Z</time>
      </trkpt>
      <trkpt lat="46.503157373517752" lon="8.450611224398017">
        <ele>2685.5799999999999</ele>
        <time>2018-08-05T12:18:47Z</time>
      </trkpt>
      <trkpt lat="46.503161732107401" lon="8.450605776160955">
        <ele>2685.5799999999999</ele>
        <time>2018-08-05T12:19:13Z</time>
      </trkpt>
      <trkpt lat="46.503136167302728" lon="8.450610721483827">
        <ele>2685.5799999999999</ele>
        <time>2018-08-05T12:19:41Z</time>
      </trkpt>
      <trkpt lat="46.503156116232276" lon="8.45058842562139">
        <ele>2685.0999999999999</ele>
        <time>2018-08-05T12:20:12Z</time>
      </trkpt>
      <trkpt lat="46.503139603883028" lon="8.450560346245766">
        <ele>2685.0999999999999</ele>
        <time>2018-08-05T12:20:35Z</time>
      </trkpt>
      <trkpt lat="46.503147063776851" lon="8.450574344024062">
        <ele>2685.5799999999999</ele>
        <time>2018-08-05T12:21:00Z</time>
      </trkpt>
      <trkpt lat="46.503154188394547" lon="8.450613822788">
        <ele>2685.5799999999999</ele>
        <time>2018-08-05T12:21:24Z</time>
      </trkpt>
      <trkpt lat="46.503148740157485" lon="8.450611308217049">
        <ele>2686.0599999999999</ele>
        <time>2018-08-05T12:21:50Z</time>
      </trkpt>
      <trkpt lat="46.503163408488035" lon="8.450595298781991">
        <ele>2686.0599999999999</ele>
        <time>2018-08-05T12:22:25Z</time>
      </trkpt>
      <trkpt lat="46.503146393224597" lon="8.450582725927234">
        <ele>2685.5799999999999</ele>
        <time>2018-08-05T12:22:54Z</time>
      </trkpt>
      <trkpt lat="46.503162737935781" lon="8.450612314045429">
        <ele>2685.5799999999999</ele>
        <time>2018-08-05T12:23:26Z</time>
      </trkpt>
      <trkpt lat="46.503163743764162" lon="8.450609715655446">
        <ele>2685.5799999999999</ele>
        <time>2018-08-05T12:23:51Z</time>
      </trkpt>
      <trkpt lat="46.503173885867" lon="8.450625976547599">
        <ele>2685.5799999999999</ele>
        <time>2018-08-05T12:24:21Z</time>
      </trkpt>
      <trkpt lat="46.503158546984196" lon="8.450616588816047">
        <ele>2685.0999999999999</ele>
        <time>2018-08-05T12:24:50Z</time>
      </trkpt>
      <trkpt lat="46.50316609069705" lon="8.450662856921554">
        <ele>2685.0999999999999</ele>
        <time>2018-08-05T12:25:15Z</time>
      </trkpt>
      <trkpt lat="46.503190146759152" lon="8.450641985982657">
        <ele>2685.0999999999999</ele>
        <time>2018-08-05T12:25:46Z</time>
      </trkpt>
      <trkpt lat="46.503174724057317" lon="8.450654558837414">
        <ele>2684.6199999999999</ele>
        <time>2018-08-05T12:26:14Z</time>
      </trkpt>
      <trkpt lat="46.503160558640957" lon="8.450647182762623">
        <ele>2684.6199999999999</ele>
        <time>2018-08-05T12:26:45Z</time>
      </trkpt>
      <trkpt lat="46.503167264163494" lon="8.450636034831405">
        <ele>2684.6199999999999</ele>
        <time>2018-08-05T12:27:15Z</time>
      </trkpt>
      <trkpt lat="46.503181010484695" lon="8.450661599636078">
        <ele>2684.1399999999999</ele>
        <time>2018-08-05T12:27:48Z</time>
      </trkpt>
      <trkpt lat="46.50317095220089" lon="8.450665874406695">
        <ele>2684.1399999999999</ele>
        <time>2018-08-05T12:28:17Z</time>
      </trkpt>
      <trkpt lat="46.503183357417583" lon="8.450639806687832">
        <ele>2684.1399999999999</ele>
        <time>2018-08-05T12:28:42Z</time>
      </trkpt>
      <trkpt lat="46.503167850896716" lon="8.450660845264792">
        <ele>2683.6599999999999</ele>
        <time>2018-08-05T12:29:20Z</time>
      </trkpt>
      <trkpt lat="46.503170197829604" lon="8.450651708990336">
        <ele>2683.6599999999999</ele>
        <time>2018-08-05T12:29:42Z</time>
      </trkpt>
      <trkpt lat="46.503178998827934" lon="8.450637795031071">
        <ele>2683.6599999999999</ele>
        <time>2018-08-05T12:29:57Z</time>
      </trkpt>
      <trkpt lat="46.503170281648636" lon="8.450620779767633">
        <ele>2680.77</ele>
        <time>2018-08-05T12:30:15Z</time>
      </trkpt>
      <trkpt lat="46.503172880038619" lon="8.450602171942592">
        <ele>2683.6599999999999</ele>
        <time>2018-08-05T12:30:29Z</time>
      </trkpt>
      <trkpt lat="46.503159804269671" lon="8.45063092187047">
        <ele>2683.1799999999998</ele>
        <time>2018-08-05T12:30:56Z</time>
      </trkpt>
      <trkpt lat="46.503175981342793" lon="8.450629748404026">
        <ele>2683.1799999999998</ele>
        <time>2018-08-05T12:31:26Z</time>
      </trkpt>
      <trkpt lat="46.503177406266332" lon="8.450620360672474">
        <ele>2683.6599999999999</ele>
        <time>2018-08-05T12:31:59Z</time>
      </trkpt>
      <trkpt lat="46.503176065161824" lon="8.450619019567967">
        <ele>2683.6599999999999</ele>
        <time>2018-08-05T12:32:32Z</time>
      </trkpt>
      <trkpt lat="46.503164246678352" lon="8.450623378157616">
        <ele>2683.6599999999999</ele>
        <time>2018-08-05T12:32:49Z</time>
      </trkpt>
      <trkpt lat="46.503158379346132" lon="8.45061918720603">
        <ele>2683.6599999999999</ele>
        <time>2018-08-05T12:33:23Z</time>
      </trkpt>
      <trkpt lat="46.503155613318086" lon="8.450643494725227">
        <ele>2683.6599999999999</ele>
        <time>2018-08-05T12:33:39Z</time>
      </trkpt>
      <trkpt lat="46.503160642459989" lon="8.450616337358952">
        <ele>2683.6599999999999</ele>
        <time>2018-08-05T12:34:03Z</time>
      </trkpt>
      <trkpt lat="46.503168353810906" lon="8.450631927698851">
        <ele>2683.6599999999999</ele>
        <time>2018-08-05T12:34:29Z</time>
      </trkpt>
      <trkpt lat="46.503182854503393" lon="8.450641985982657">
        <ele>2683.1799999999998</ele>
        <time>2018-08-05T12:34:46Z</time>
      </trkpt>
      <trkpt lat="46.503181261941791" lon="8.450622959062457">
        <ele>2683.1799999999998</ele>
        <time>2018-08-05T12:35:07Z</time>
      </trkpt>
      <trkpt lat="46.503197774291039" lon="8.45061575062573">
        <ele>2683.1799999999998</ele>
        <time>2018-08-05T12:35:38Z</time>
      </trkpt>
      <trkpt lat="46.503202384337783" lon="8.450620444491506">
        <ele>2682.6999999999998</ele>
        <time>2018-08-05T12:36:05Z</time>
      </trkpt>
      <trkpt lat="46.503152679651976" lon="8.450640141963959">
        <ele>2682.6999999999998</ele>
        <time>2018-08-05T12:36:31Z</time>
      </trkpt>
      <trkpt lat="46.50318369269371" lon="8.450654139742255">
        <ele>2683.1799999999998</ele>
        <time>2018-08-05T12:36:54Z</time>
      </trkpt>
      <trkpt lat="46.503161396831274" lon="8.450647350400686">
        <ele>2683.1799999999998</ele>
        <time>2018-08-05T12:37:15Z</time>
      </trkpt>
      <trkpt lat="46.503150248900056" lon="8.450640058144927">
        <ele>2682.6999999999998</ele>
        <time>2018-08-05T12:37:29Z</time>
      </trkpt>
      <trkpt lat="46.503143291920424" lon="8.450660174712539">
        <ele>2682.6999999999998</ele>
        <time>2018-08-05T12:37:52Z</time>
      </trkpt>
      <trkpt lat="46.503142369911075" lon="8.450624886900187">
        <ele>2682.6999999999998</ele>
        <time>2018-08-05T12:38:19Z</time>
      </trkpt>
      <trkpt lat="46.503161815926433" lon="8.450646093115211">
        <ele>2682.2199999999998</ele>
        <time>2018-08-05T12:38:46Z</time>
      </trkpt>
      <trkpt lat="46.503156451508403" lon="8.450646428391337">
        <ele>2682.2199999999998</ele>
        <time>2018-08-05T12:39:08Z</time>
      </trkpt>
      <trkpt lat="46.503157960250974" lon="8.45065439119935">
        <ele>2682.2199999999998</ele>
        <time>2018-08-05T12:39:26Z</time>
      </trkpt>
      <trkpt lat="46.503153266385198" lon="8.45062262378633">
        <ele>2682.2199999999998</ele>
        <time>2018-08-05T12:39:55Z</time>
      </trkpt>
      <trkpt lat="46.503181681036949" lon="8.450614493340254">
        <ele>2682.2199999999998</ele>
        <time>2018-08-05T12:40:22Z</time>
      </trkpt>
      <trkpt lat="46.503193750977516" lon="8.450624803081155">
        <ele>2682.2199999999998</ele>
        <time>2018-08-05T12:40:43Z</time>
      </trkpt>
      <trkpt lat="46.503195930272341" lon="8.450646093115211">
        <ele>2682.2199999999998</ele>
        <time>2018-08-05T12:41:04Z</time>
      </trkpt>
      <trkpt lat="46.503170114010572" lon="8.450648607686162">
        <ele>2682.2199999999998</ele>
        <time>2018-08-05T12:41:23Z</time>
      </trkpt>
      <trkpt lat="46.503156702965498" lon="8.450652128085494">
        <ele>2682.2199999999998</ele>
        <time>2018-08-05T12:41:46Z</time>
      </trkpt>
      <trkpt lat="46.503203809261322" lon="8.450606027618051">
        <ele>2682.2199999999998</ele>
        <time>2018-08-05T12:42:08Z</time>
      </trkpt>
      <trkpt lat="46.503211185336113" lon="8.450603345409036">
        <ele>2682.2199999999998</ele>
        <time>2018-08-05T12:42:24Z</time>
      </trkpt>
      <trkpt lat="46.503190062940121" lon="8.450637962669134">
        <ele>2682.2199999999998</ele>
        <time>2018-08-05T12:42:49Z</time>
      </trkpt>
      <trkpt lat="46.503220405429602" lon="8.450634945183992">
        <ele>2682.2199999999998</ele>
        <time>2018-08-05T12:43:11Z</time>
      </trkpt>
      <trkpt lat="46.503201713785529" lon="8.450648356229067">
        <ele>2682.2199999999998</ele>
        <time>2018-08-05T12:43:28Z</time>
      </trkpt>
      <trkpt lat="46.503178915008903" lon="8.450662856921554">
        <ele>2682.2199999999998</ele>
        <time>2018-08-05T12:43:50Z</time>
      </trkpt>
      <trkpt lat="46.503177490085363" lon="8.450636202469468">
        <ele>2683.6599999999999</ele>
        <time>2018-08-05T12:44:17Z</time>
      </trkpt>
      <trkpt lat="46.503174137324095" lon="8.45064215362072">
        <ele>2682.6999999999998</ele>
        <time>2018-08-05T12:44:42Z</time>
      </trkpt>
      <trkpt lat="46.503155278041959" lon="8.450670400634408">
        <ele>2682.6999999999998</ele>
        <time>2018-08-05T12:45:12Z</time>
      </trkpt>
      <trkpt lat="46.503170197829604" lon="8.450622288510203">
        <ele>2682.6999999999998</ele>
        <time>2018-08-05T12:45:36Z</time>
      </trkpt>
      <trkpt lat="46.50314505212009" lon="8.450631257146597">
        <ele>2682.6999999999998</ele>
        <time>2018-08-05T12:45:53Z</time>
      </trkpt>
      <trkpt lat="46.503124265000224" lon="8.450638046488166">
        <ele>2682.6999999999998</ele>
        <time>2018-08-05T12:46:18Z</time>
      </trkpt>
      <trkpt lat="46.50318369269371" lon="8.450605105608702">
        <ele>2683.1799999999998</ele>
        <time>2018-08-05T12:46:50Z</time>
      </trkpt>
      <trkpt lat="46.503203641623259" lon="8.450591443106532">
        <ele>2683.1799999999998</ele>
        <time>2018-08-05T12:47:21Z</time>
      </trkpt>
      <trkpt lat="46.503197271376848" lon="8.450638633221388">
        <ele>2683.1799999999998</ele>
        <time>2018-08-05T12:47:42Z</time>
      </trkpt>
      <trkpt lat="46.503181345760822" lon="8.450631676241756">
        <ele>2683.6599999999999</ele>
        <time>2018-08-05T12:48:05Z</time>
      </trkpt>
      <trkpt lat="46.503169778734446" lon="8.450630838051438">
        <ele>2683.6599999999999</ele>
        <time>2018-08-05T12:48:31Z</time>
      </trkpt>
      <trkpt lat="46.503177909180522" lon="8.450625138357282">
        <ele>2683.1799999999998</ele>
        <time>2018-08-05T12:48:58Z</time>
      </trkpt>
      <trkpt lat="46.503152931109071" lon="8.450620276853442">
        <ele>2683.6599999999999</ele>
        <time>2018-08-05T12:49:25Z</time>
      </trkpt>
      <trkpt lat="46.503169443458319" lon="8.450607117265463">
        <ele>2684.1399999999999</ele>
        <time>2018-08-05T12:49:51Z</time>
      </trkpt>
      <trkpt lat="46.503171706572175" lon="8.450621198862791">
        <ele>2684.1399999999999</ele>
        <time>2018-08-05T12:50:25Z</time>
      </trkpt>
      <trkpt lat="46.503187464550138" lon="8.450630502775312">
        <ele>2684.6199999999999</ele>
        <time>2018-08-05T12:50:55Z</time>
      </trkpt>
      <trkpt lat="46.503176065161824" lon="8.450656905770302">
        <ele>2684.1399999999999</ele>
        <time>2018-08-05T12:51:17Z</time>
      </trkpt>
      <trkpt lat="46.503186374902725" lon="8.450622204691172">
        <ele>2684.1399999999999</ele>
        <time>2018-08-05T12:51:42Z</time>
      </trkpt>
      <trkpt lat="46.503201713785529" lon="8.450591694563627">
        <ele>2684.1399999999999</ele>
        <time>2018-08-05T12:52:13Z</time>
      </trkpt>
      <trkpt lat="46.503179501742125" lon="8.450625305995345">
        <ele>2684.1399999999999</ele>
        <time>2018-08-05T12:52:44Z</time>
      </trkpt>
      <trkpt lat="46.503155529499054" lon="8.450607033446431">
        <ele>2684.6199999999999</ele>
        <time>2018-08-05T12:53:10Z</time>
      </trkpt>
      <trkpt lat="46.503187883645296" lon="8.45057426020503">
        <ele>2684.6199999999999</ele>
        <time>2018-08-05T12:53:38Z</time>
      </trkpt>
      <trkpt lat="46.503165839239955" lon="8.450598316267133">
        <ele>2685.0999999999999</ele>
        <time>2018-08-05T12:54:04Z</time>
      </trkpt>
      <trkpt lat="46.503162821754813" lon="8.450623042881489">
        <ele>2685.0999999999999</ele>
        <time>2018-08-05T12:54:32Z</time>
      </trkpt>
      <trkpt lat="46.503158714622259" lon="8.45064559020102">
        <ele>2685.0999999999999</ele>
        <time>2018-08-05T12:55:00Z</time>
      </trkpt>
      <trkpt lat="46.503155278041959" lon="8.450650703161955">
        <ele>2685.0999999999999</ele>
        <time>2018-08-05T12:55:33Z</time>
      </trkpt>
      <trkpt lat="46.503164917230606" lon="8.450651541352272">
        <ele>2685.0999999999999</ele>
        <time>2018-08-05T12:56:00Z</time>
      </trkpt>
      <trkpt lat="46.50315242819488" lon="8.450636956840754">
        <ele>2685.0999999999999</ele>
        <time>2018-08-05T12:56:23Z</time>
      </trkpt>
      <trkpt lat="46.503142956644297" lon="8.450653217732906">
        <ele>2684.6199999999999</ele>
        <time>2018-08-05T12:56:43Z</time>
      </trkpt>
      <trkpt lat="46.503177573904395" lon="8.450654055923224">
        <ele>2685.0999999999999</ele>
        <time>2018-08-05T12:57:07Z</time>
      </trkpt>
      <trkpt lat="46.503172712400556" lon="8.450636118650436">
        <ele>2685.0999999999999</ele>
        <time>2018-08-05T12:57:30Z</time>
      </trkpt>
      <trkpt lat="46.503188973292708" lon="8.450647853314877">
        <ele>2685.0999999999999</ele>
        <time>2018-08-05T12:57:51Z</time>
      </trkpt>
      <trkpt lat="46.503179166465998" lon="8.450652128085494">
        <ele>2685.0999999999999</ele>
        <time>2018-08-05T12:58:16Z</time>
      </trkpt>
      <trkpt lat="46.50317195802927" lon="8.450687164440751">
        <ele>2684.6199999999999</ele>
        <time>2018-08-05T12:58:44Z</time>
      </trkpt>
      <trkpt lat="46.503202551975846" lon="8.45065975561738">
        <ele>2685.0999999999999</ele>
        <time>2018-08-05T12:59:08Z</time>
      </trkpt>
      <trkpt lat="46.503171203657985" lon="8.450671155005693">
        <ele>2685.0999999999999</ele>
        <time>2018-08-05T12:59:29Z</time>
      </trkpt>
      <trkpt lat="46.503184614703059" lon="8.450650200247765">
        <ele>2685.0999999999999</ele>
        <time>2018-08-05T13:00:03Z</time>
      </trkpt>
      <trkpt lat="46.503202216699719" lon="8.450629245489836">
        <ele>2685.5799999999999</ele>
        <time>2018-08-05T13:00:25Z</time>
      </trkpt>
      <trkpt lat="46.503191823139787" lon="8.450634945183992">
        <ele>2685.0999999999999</ele>
        <time>2018-08-05T13:00:41Z</time>
      </trkpt>
      <trkpt lat="46.503174640238285" lon="8.450658917427063">
        <ele>2685.5799999999999</ele>
        <time>2018-08-05T13:01:01Z</time>
      </trkpt>
      <trkpt lat="46.503192158415914" lon="8.450641483068466">
        <ele>2685.5799999999999</ele>
        <time>2018-08-05T13:01:26Z</time>
      </trkpt>
      <trkpt lat="46.503185704350471" lon="8.450671406462789">
        <ele>2685.5799999999999</ele>
        <time>2018-08-05T13:01:53Z</time>
      </trkpt>
      <trkpt lat="46.503167767077684" lon="8.450709125027061">
        <ele>2685.5799999999999</ele>
        <time>2018-08-05T13:02:14Z</time>
      </trkpt>
      <trkpt lat="46.503194086253643" lon="8.450648859143257">
        <ele>2686.0599999999999</ele>
        <time>2018-08-05T13:02:38Z</time>
      </trkpt>
      <trkpt lat="46.503191068768501" lon="8.450659085065126">
        <ele>2686.0599999999999</ele>
        <time>2018-08-05T13:02:55Z</time>
      </trkpt>
      <trkpt lat="46.503187045454979" lon="8.450703006237745">
        <ele>2686.0599999999999</ele>
        <time>2018-08-05T13:03:23Z</time>
      </trkpt>
      <trkpt lat="46.503205150365829" lon="8.450653301551938">
        <ele>2686.0599999999999</ele>
        <time>2018-08-05T13:03:45Z</time>
      </trkpt>
      <trkpt lat="46.50318956002593" lon="8.450636956840754">
        <ele>2686.0599999999999</ele>
        <time>2018-08-05T13:04:05Z</time>
      </trkpt>
      <trkpt lat="46.503190901130438" lon="8.450656570494175">
        <ele>2686.0599999999999</ele>
        <time>2018-08-05T13:04:23Z</time>
      </trkpt>
      <trkpt lat="46.503193834796548" lon="8.450639136135578">
        <ele>2686.0599999999999</ele>
        <time>2018-08-05T13:04:52Z</time>
      </trkpt>
      <trkpt lat="46.503202468156815" lon="8.450650619342923">
        <ele>2686.54</ele>
        <time>2018-08-05T13:05:17Z</time>
      </trkpt>
      <trkpt lat="46.503205318003893" lon="8.450669394806027">
        <ele>2686.54</ele>
        <time>2018-08-05T13:05:31Z</time>
      </trkpt>
      <trkpt lat="46.503201546147466" lon="8.450704934075475">
        <ele>2686.54</ele>
        <time>2018-08-05T13:05:49Z</time>
      </trkpt>
      <trkpt lat="46.503210347145796" lon="8.450682470574975">
        <ele>2686.0599999999999</ele>
        <time>2018-08-05T13:06:13Z</time>
      </trkpt>
      <trkpt lat="46.503182603046298" lon="8.450639555230737">
        <ele>2686.0599999999999</ele>
        <time>2018-08-05T13:06:29Z</time>
      </trkpt>
      <trkpt lat="46.503170784562826" lon="8.450629832223058">
        <ele>2686.54</ele>
        <time>2018-08-05T13:06:49Z</time>
      </trkpt>
      <trkpt lat="46.503168772906065" lon="8.450655480846763">
        <ele>2686.54</ele>
        <time>2018-08-05T13:07:07Z</time>
      </trkpt>
      <trkpt lat="46.503144716843963" lon="8.450630754232407">
        <ele>2686.54</ele>
        <time>2018-08-05T13:07:35Z</time>
      </trkpt>
      <trkpt lat="46.5031255222857" lon="8.450636621564627">
        <ele>2686.54</ele>
        <time>2018-08-05T13:08:06Z</time>
      </trkpt>
      <trkpt lat="46.503098867833614" lon="8.450607787817717">
        <ele>2686.54</ele>
        <time>2018-08-05T13:08:33Z</time>
      </trkpt>
      <trkpt lat="46.503121247515082" lon="8.450596891343594">
        <ele>2686.54</ele>
        <time>2018-08-05T13:08:54Z</time>
      </trkpt>
      <trkpt lat="46.503144465386868" lon="8.45059915445745">
        <ele>2687.02</ele>
        <time>2018-08-05T13:09:18Z</time>
      </trkpt>
      <trkpt lat="46.503133317455649" lon="8.450614493340254">
        <ele>2687.02</ele>
        <time>2018-08-05T13:09:42Z</time>
      </trkpt>
      <trkpt lat="46.503177741542459" lon="8.450619857758284">
        <ele>2687.02</ele>
        <time>2018-08-05T13:10:09Z</time>
      </trkpt>
      <trkpt lat="46.503218812867999" lon="8.450658665969968">
        <ele>2687.5</ele>
        <time>2018-08-05T13:10:33Z</time>
      </trkpt>
      <trkpt lat="46.503177238628268" lon="8.450657157227397">
        <ele>2687.5</ele>
        <time>2018-08-05T13:10:55Z</time>
      </trkpt>
      <trkpt lat="46.503181681036949" lon="8.450634777545929">
        <ele>2688.9400000000001</ele>
        <time>2018-08-05T13:11:15Z</time>
      </trkpt>
      <trkpt lat="46.503191152587533" lon="8.450619857758284">
        <ele>2687.02</ele>
        <time>2018-08-05T13:11:42Z</time>
      </trkpt>
      <trkpt lat="46.50318318977952" lon="8.450666125863791">
        <ele>2687.5</ele>
        <time>2018-08-05T13:12:07Z</time>
      </trkpt>
      <trkpt lat="46.503194840624928" lon="8.450633436441422">
        <ele>2687.5</ele>
        <time>2018-08-05T13:12:35Z</time>
      </trkpt>
      <trkpt lat="46.503179334104061" lon="8.450625808909535">
        <ele>2687.5</ele>
        <time>2018-08-05T13:13:02Z</time>
      </trkpt>
      <trkpt lat="46.503163073211908" lon="8.450632011517882">
        <ele>2687.5</ele>
        <time>2018-08-05T13:13:27Z</time>
      </trkpt>
      <trkpt lat="46.503199450671673" lon="8.450620779767633">
        <ele>2687.5</ele>
        <time>2018-08-05T13:13:51Z</time>
      </trkpt>
      <trkpt lat="46.503176400437951" lon="8.450645925477147">
        <ele>2687.5</ele>
        <time>2018-08-05T13:14:16Z</time>
      </trkpt>
      <trkpt lat="46.503187464550138" lon="8.450674759224057">
        <ele>2687.5</ele>
        <time>2018-08-05T13:14:41Z</time>
      </trkpt>
      <trkpt lat="46.50319542735815" lon="8.45062748529017">
        <ele>2687.5</ele>
        <time>2018-08-05T13:15:06Z</time>
      </trkpt>
      <trkpt lat="46.503131724894047" lon="8.45064265653491">
        <ele>2687.5</ele>
        <time>2018-08-05T13:15:30Z</time>
      </trkpt>
      <trkpt lat="46.503139603883028" lon="8.450653804466128">
        <ele>2687.98</ele>
        <time>2018-08-05T13:15:52Z</time>
      </trkpt>
      <trkpt lat="46.503149410709739" lon="8.450634609907866">
        <ele>2687.98</ele>
        <time>2018-08-05T13:16:17Z</time>
      </trkpt>
      <trkpt lat="46.503180675208569" lon="8.450603680685163">
        <ele>2687.98</ele>
        <time>2018-08-05T13:16:38Z</time>
      </trkpt>
      <trkpt lat="46.503197103738785" lon="8.450643830001354">
        <ele>2687.98</ele>
        <time>2018-08-05T13:17:06Z</time>
      </trkpt>
      <trkpt lat="46.503204647451639" lon="8.450629077851772">
        <ele>2687.98</ele>
        <time>2018-08-05T13:17:41Z</time>
      </trkpt>
      <trkpt lat="46.503153350204229" lon="8.450642069801688">
        <ele>2687.98</ele>
        <time>2018-08-05T13:18:02Z</time>
      </trkpt>
      <trkpt lat="46.503146644681692" lon="8.450632933527231">
        <ele>2687.98</ele>
        <time>2018-08-05T13:18:21Z</time>
      </trkpt>
      <trkpt lat="46.503179166465998" lon="8.45061868429184">
        <ele>2687.98</ele>
        <time>2018-08-05T13:18:49Z</time>
      </trkpt>
      <trkpt lat="46.503194756805897" lon="8.450658079236746">
        <ele>2687.98</ele>
        <time>2018-08-05T13:19:05Z</time>
      </trkpt>
      <trkpt lat="46.503174724057317" lon="8.450686661526561">
        <ele>2687.98</ele>
        <time>2018-08-05T13:19:25Z</time>
      </trkpt>
      <trkpt lat="46.503173382952809" lon="8.450702419504523">
        <ele>2687.5</ele>
        <time>2018-08-05T13:19:46Z</time>
      </trkpt>
      <trkpt lat="46.503204731270671" lon="8.450658665969968">
        <ele>2687.5</ele>
        <time>2018-08-05T13:20:06Z</time>
      </trkpt>
      <trkpt lat="46.503198361024261" lon="8.45063871704042">
        <ele>2687.5</ele>
        <time>2018-08-05T13:20:28Z</time>
      </trkpt>
      <trkpt lat="46.503171287477016" lon="8.450602926313877">
        <ele>2687.5</ele>
        <time>2018-08-05T13:20:40Z</time>
      </trkpt>
      <trkpt lat="46.50315242819488" lon="8.450628574937582">
        <ele>2687.5</ele>
        <time>2018-08-05T13:21:04Z</time>
      </trkpt>
      <trkpt lat="46.503178495913744" lon="8.450661515817046">
        <ele>2687.5</ele>
        <time>2018-08-05T13:21:27Z</time>
      </trkpt>
      <trkpt lat="46.503164581954479" lon="8.45064458437264">
        <ele>2687.5</ele>
        <time>2018-08-05T13:21:44Z</time>
      </trkpt>
      <trkpt lat="46.503156283870339" lon="8.450637962669134">
        <ele>2687.02</ele>
        <time>2018-08-05T13:22:08Z</time>
      </trkpt>
      <trkpt lat="46.503158044070005" lon="8.450637040659785">
        <ele>2687.5</ele>
        <time>2018-08-05T13:22:30Z</time>
      </trkpt>
      <trkpt lat="46.50315779261291" lon="8.450639387592673">
        <ele>2687.98</ele>
        <time>2018-08-05T13:22:51Z</time>
      </trkpt>
      <trkpt lat="46.503178915008903" lon="8.450623461976647">
        <ele>2687.5</ele>
        <time>2018-08-05T13:23:12Z</time>
      </trkpt>
      <trkpt lat="46.503195343539119" lon="8.450636621564627">
        <ele>2687.5</ele>
        <time>2018-08-05T13:23:33Z</time>
      </trkpt>
      <trkpt lat="46.50319148786366" lon="8.450632765889168">
        <ele>2687.02</ele>
        <time>2018-08-05T13:23:57Z</time>
      </trkpt>
      <trkpt lat="46.503172041848302" lon="8.450627233833075">
        <ele>2687.5</ele>
        <time>2018-08-05T13:24:17Z</time>
      </trkpt>
      <trkpt lat="46.503195008262992" lon="8.450655229389668">
        <ele>2687.02</ele>
        <time>2018-08-05T13:24:42Z</time>
      </trkpt>
      <trkpt lat="46.503222836181521" lon="8.450648607686162">
        <ele>2686.54</ele>
        <time>2018-08-05T13:24:58Z</time>
      </trkpt>
      <trkpt lat="46.503223925828934" lon="8.450621953234077">
        <ele>2686.54</ele>
        <time>2018-08-05T13:25:21Z</time>
      </trkpt>
      <trkpt lat="46.503208000212908" lon="8.450611475855112">
        <ele>2686.54</ele>
        <time>2018-08-05T13:25:38Z</time>
      </trkpt>
      <trkpt lat="46.503186039626598" lon="8.45064165070653">
        <ele>2686.0599999999999</ele>
        <time>2018-08-05T13:25:57Z</time>
      </trkpt>
      <trkpt lat="46.503153936937451" lon="8.450619857758284">
        <ele>2686.0599999999999</ele>
        <time>2018-08-05T13:26:18Z</time>
      </trkpt>
      <trkpt lat="46.503163995221257" lon="8.450671238824725">
        <ele>2686.0599999999999</ele>
        <time>2018-08-05T13:26:39Z</time>
      </trkpt>
      <trkpt lat="46.503165168687701" lon="8.450658079236746">
        <ele>2686.0599999999999</ele>
        <time>2018-08-05T13:27:02Z</time>
      </trkpt>
      <trkpt lat="46.503150248900056" lon="8.450657492503524">
        <ele>2686.54</ele>
        <time>2018-08-05T13:27:17Z</time>
      </trkpt>
      <trkpt lat="46.503138933330774" lon="8.450632514432073">
        <ele>2686.54</ele>
        <time>2018-08-05T13:27:39Z</time>
      </trkpt>
      <trkpt lat="46.503155529499054" lon="8.450651289895177">
        <ele>2686.54</ele>
        <time>2018-08-05T13:27:56Z</time>
      </trkpt>
      <trkpt lat="46.503165671601892" lon="8.450674675405026">
        <ele>2686.54</ele>
        <time>2018-08-05T13:28:25Z</time>
      </trkpt>
      <trkpt lat="46.503155613318086" lon="8.450616924092174">
        <ele>2686.54</ele>
        <time>2018-08-05T13:28:47Z</time>
      </trkpt>
      <trkpt lat="46.50318318977952" lon="8.450641818344593">
        <ele>2686.54</ele>
        <time>2018-08-05T13:29:11Z</time>
      </trkpt>
      <trkpt lat="46.503164330497384" lon="8.450655899941921">
        <ele>2686.54</ele>
        <time>2018-08-05T13:29:38Z</time>
      </trkpt>
      <trkpt lat="46.503202887251973" lon="8.450605943799019">
        <ele>2686.54</ele>
        <time>2018-08-05T13:30:01Z</time>
      </trkpt>
      <trkpt lat="46.503218142315745" lon="8.450594209134579">
        <ele>2686.0599999999999</ele>
        <time>2018-08-05T13:30:25Z</time>
      </trkpt>
      <trkpt lat="46.503195092082024" lon="8.450634861364961">
        <ele>2686.0599999999999</ele>
        <time>2018-08-05T13:30:54Z</time>
      </trkpt>
      <trkpt lat="46.503195846453309" lon="8.450655145570636">
        <ele>2686.54</ele>
        <time>2018-08-05T13:31:20Z</time>
      </trkpt>
      <trkpt lat="46.503172628581524" lon="8.450632933527231">
        <ele>2686.0599999999999</ele>
        <time>2018-08-05T13:31:50Z</time>
      </trkpt>
      <trkpt lat="46.503201294690371" lon="8.450644081458449">
        <ele>2686.0599999999999</ele>
        <time>2018-08-05T13:32:19Z</time>
      </trkpt>
      <trkpt lat="46.503206407651305" lon="8.450655732303858">
        <ele>2686.0599999999999</ele>
        <time>2018-08-05T13:32:42Z</time>
      </trkpt>
      <trkpt lat="46.50319199077785" lon="8.450661851093173">
        <ele>2686.0599999999999</ele>
        <time>2018-08-05T13:33:06Z</time>
      </trkpt>
      <trkpt lat="46.503197522833943" lon="8.450641566887498">
        <ele>2687.5</ele>
        <time>2018-08-05T13:33:28Z</time>
      </trkpt>
      <trkpt lat="46.503189895302057" lon="8.45063678920269">
        <ele>2686.0599999999999</ele>
        <time>2018-08-05T13:33:57Z</time>
      </trkpt>
      <trkpt lat="46.50318662635982" lon="8.450636453926563">
        <ele>2686.0599999999999</ele>
        <time>2018-08-05T13:34:25Z</time>
      </trkpt>
      <trkpt lat="46.503198528662324" lon="8.450650870800018">
        <ele>2686.0599999999999</ele>
        <time>2018-08-05T13:34:48Z</time>
      </trkpt>
      <trkpt lat="46.503209508955479" lon="8.450620612129569">
        <ele>2686.0599999999999</ele>
        <time>2018-08-05T13:35:15Z</time>
      </trkpt>
      <trkpt lat="46.503189811483026" lon="8.450646512210369">
        <ele>2686.0599999999999</ele>
        <time>2018-08-05T13:35:33Z</time>
      </trkpt>
      <trkpt lat="46.503199450671673" lon="8.450658246874809">
        <ele>2686.0599999999999</ele>
        <time>2018-08-05T13:36:04Z</time>
      </trkpt>
      <trkpt lat="46.503199702128768" lon="8.450658665969968">
        <ele>2686.0599999999999</ele>
        <time>2018-08-05T13:36:27Z</time>
      </trkpt>
      <trkpt lat="46.503201797604561" lon="8.450638968497515">
        <ele>2686.0599999999999</ele>
        <time>2018-08-05T13:36:47Z</time>
      </trkpt>
      <trkpt lat="46.503207078203559" lon="8.450641566887498">
        <ele>2686.0599999999999</ele>
        <time>2018-08-05T13:37:05Z</time>
      </trkpt>
      <trkpt lat="46.503226859495044" lon="8.450660090893507">
        <ele>2686.54</ele>
        <time>2018-08-05T13:37:35Z</time>
      </trkpt>
      <trkpt lat="46.50322375819087" lon="8.450658246874809">
        <ele>2686.0599999999999</ele>
        <time>2018-08-05T13:37:57Z</time>
      </trkpt>
      <trkpt lat="46.503231804817915" lon="8.450651206076145">
        <ele>2686.0599999999999</ele>
        <time>2018-08-05T13:38:20Z</time>
      </trkpt>
      <trkpt lat="46.503250580281019" lon="8.450644416734576">
        <ele>2686.0599999999999</ele>
        <time>2018-08-05T13:38:48Z</time>
      </trkpt>
      <trkpt lat="46.503222668543458" lon="8.450666042044759">
        <ele>2686.54</ele>
        <time>2018-08-05T13:38:58Z</time>
      </trkpt>
      <trkpt lat="46.503183776512742" lon="8.450665958225727">
        <ele>2686.54</ele>
        <time>2018-08-05T13:39:06Z</time>
      </trkpt>
      <trkpt lat="46.503175310790539" lon="8.450672496110201">
        <ele>2686.54</ele>
        <time>2018-08-05T13:39:23Z</time>
      </trkpt>
      <trkpt lat="46.503145974129438" lon="8.450673082843423">
        <ele>2688.46</ele>
        <time>2018-08-05T13:39:31Z</time>
      </trkpt>
      <trkpt lat="46.503154523670673" lon="8.450644752010703">
        <ele>2687.5</ele>
        <time>2018-08-05T13:39:39Z</time>
      </trkpt>
      <trkpt lat="46.503171371296048" lon="8.450641231611371">
        <ele>2687.02</ele>
        <time>2018-08-05T13:39:49Z</time>
      </trkpt>
      <trkpt lat="46.503179837018251" lon="8.450645925477147">
        <ele>2687.02</ele>
        <time>2018-08-05T13:39:51Z</time>
      </trkpt>
      <trkpt lat="46.503186710178852" lon="8.450647098943591">
        <ele>2686.54</ele>
        <time>2018-08-05T13:39:59Z</time>
      </trkpt>
      <trkpt lat="46.503224261105061" lon="8.450619271025062">
        <ele>2686.0599999999999</ele>
        <time>2018-08-05T13:40:11Z</time>
      </trkpt>
      <trkpt lat="46.503234151750803" lon="8.450602758675814">
        <ele>2686.0599999999999</ele>
        <time>2018-08-05T13:40:21Z</time>
      </trkpt>
      <trkpt lat="46.50327555835247" lon="8.450658833608031">
        <ele>2684.6199999999999</ele>
        <time>2018-08-05T13:40:29Z</time>
      </trkpt>
      <trkpt lat="46.503296094015241" lon="8.450682554394007">
        <ele>2684.1399999999999</ele>
        <time>2018-08-05T13:40:33Z</time>
      </trkpt>
      <trkpt lat="46.503320652991533" lon="8.450716584920883">
        <ele>2683.1799999999998</ele>
        <time>2018-08-05T13:40:40Z</time>
      </trkpt>
      <trkpt lat="46.503321239724755" lon="8.450725302100182">
        <ele>2683.1799999999998</ele>
        <time>2018-08-05T13:40:41Z</time>
      </trkpt>
      <trkpt lat="46.503313025459647" lon="8.450793782249093">
        <ele>2682.2199999999998</ele>
        <time>2018-08-05T13:40:51Z</time>
      </trkpt>
      <trkpt lat="46.503306990489364" lon="8.450830494984984">
        <ele>2681.25</ele>
        <time>2018-08-05T13:40:58Z</time>
      </trkpt>
      <trkpt lat="46.503274971619248" lon="8.450867794454098">
        <ele>2681.25</ele>
        <time>2018-08-05T13:41:05Z</time>
      </trkpt>
      <trkpt lat="46.503284191712737" lon="8.450907608494163">
        <ele>2680.29</ele>
        <time>2018-08-05T13:41:12Z</time>
      </trkpt>
      <trkpt lat="46.503295255824924" lon="8.450952954590321">
        <ele>2678.8499999999999</ele>
        <time>2018-08-05T13:41:23Z</time>
      </trkpt>
      <trkpt lat="46.503275642171502" lon="8.450998971238732">
        <ele>2677.4099999999999</ele>
        <time>2018-08-05T13:41:31Z</time>
      </trkpt>
      <trkpt lat="46.503257285803556" lon="8.451034259051085">
        <ele>2676.9299999999998</ele>
        <time>2018-08-05T13:41:41Z</time>
      </trkpt>
      <trkpt lat="46.503259213641286" lon="8.451067116111517">
        <ele>2675.4899999999998</ele>
        <time>2018-08-05T13:41:50Z</time>
      </trkpt>
      <trkpt lat="46.503280671313405" lon="8.451105672866106">
        <ele>2674.04</ele>
        <time>2018-08-05T13:42:00Z</time>
      </trkpt>
      <trkpt lat="46.503313444554806" lon="8.451251098886132">
        <ele>2671.1599999999999</ele>
        <time>2018-08-05T13:42:12Z</time>
      </trkpt>
      <trkpt lat="46.50330631993711" lon="8.451289655640721">
        <ele>2670.6799999999998</ele>
        <time>2018-08-05T13:42:15Z</time>
      </trkpt>
      <trkpt lat="46.50329559110105" lon="8.451403565704823">
        <ele>2668.7600000000002</ele>
        <time>2018-08-05T13:42:24Z</time>
      </trkpt>
      <trkpt lat="46.503293244168162" lon="8.451527114957571">
        <ele>2666.3499999999999</ele>
        <time>2018-08-05T13:42:34Z</time>
      </trkpt>
      <trkpt lat="46.503259716555476" lon="8.451646808534861">
        <ele>2664.9099999999999</ele>
        <time>2018-08-05T13:42:46Z</time>
      </trkpt>
      <trkpt lat="46.503255777060986" lon="8.451655022799969">
        <ele>2664.4299999999998</ele>
        <time>2018-08-05T13:42:47Z</time>
      </trkpt>
      <trkpt lat="46.503245299682021" lon="8.451696261763573">
        <ele>2664.4299999999998</ele>
        <time>2018-08-05T13:42:51Z</time>
      </trkpt>
      <trkpt lat="46.503227446228266" lon="8.451818721368909">
        <ele>2662.0300000000002</ele>
        <time>2018-08-05T13:43:02Z</time>
      </trkpt>
      <trkpt lat="46.503210598602891" lon="8.451884184032679">
        <ele>2660.5900000000001</ele>
        <time>2018-08-05T13:43:09Z</time>
      </trkpt>
      <trkpt lat="46.503205569460988" lon="8.451930535957217">
        <ele>2661.0700000000002</ele>
        <time>2018-08-05T13:43:13Z</time>
      </trkpt>
      <trkpt lat="46.503198361024261" lon="8.451957777142525">
        <ele>2660.1100000000001</ele>
        <time>2018-08-05T13:43:15Z</time>
      </trkpt>
      <trkpt lat="46.503197019919753" lon="8.451997507363558">
        <ele>2660.1100000000001</ele>
        <time>2018-08-05T13:43:18Z</time>
      </trkpt>
      <trkpt lat="46.503217807039618" lon="8.452042518183589">
        <ele>2658.6599999999999</ele>
        <time>2018-08-05T13:43:22Z</time>
      </trkpt>
      <trkpt lat="46.503198696300387" lon="8.452123906463385">
        <ele>2657.2199999999998</ele>
        <time>2018-08-05T13:43:27Z</time>
      </trkpt>
      <trkpt lat="46.503194589167833" lon="8.452182747423649">
        <ele>2656.2600000000002</ele>
        <time>2018-08-05T13:43:31Z</time>
      </trkpt>
      <trkpt lat="46.503172880038619" lon="8.452272601425648">
        <ele>2655.3000000000002</ele>
        <time>2018-08-05T13:43:37Z</time>
      </trkpt>
      <trkpt lat="46.503155529499054" lon="8.452440071851015">
        <ele>2652.9000000000001</ele>
        <time>2018-08-05T13:43:48Z</time>
      </trkpt>
      <trkpt lat="46.503123426809907" lon="8.452615505084395">
        <ele>2651.4499999999998</ele>
        <time>2018-08-05T13:44:00Z</time>
      </trkpt>
      <trkpt lat="46.503111943602562" lon="8.452752716839314">
        <ele>2649.5300000000002</ele>
        <time>2018-08-05T13:44:09Z</time>
      </trkpt>
      <trkpt lat="46.503093084320426" lon="8.45281608402729">
        <ele>2649.0500000000002</ele>
        <time>2018-08-05T13:44:13Z</time>
      </trkpt>
      <trkpt lat="46.503091743215919" lon="8.452878361567855">
        <ele>2648.0900000000001</ele>
        <time>2018-08-05T13:44:17Z</time>
      </trkpt>
      <trkpt lat="46.503101130947471" lon="8.452934855595231">
        <ele>2647.6100000000001</ele>
        <time>2018-08-05T13:44:21Z</time>
      </trkpt>
      <trkpt lat="46.50309769436717" lon="8.453058991581202">
        <ele>2646.1700000000001</ele>
        <time>2018-08-05T13:44:30Z</time>
      </trkpt>
      <trkpt lat="46.503077996894717" lon="8.453206093981862">
        <ele>2643.2800000000002</ele>
        <time>2018-08-05T13:44:39Z</time>
      </trkpt>
      <trkpt lat="46.503078164532781" lon="8.45322017557919">
        <ele>2642.8000000000002</ele>
        <time>2018-08-05T13:44:40Z</time>
      </trkpt>
      <trkpt lat="46.503071542829275" lon="8.453388400375843">
        <ele>2640.4000000000001</ele>
        <time>2018-08-05T13:44:51Z</time>
      </trkpt>
      <trkpt lat="46.503027873113751" lon="8.453537682071328">
        <ele>2637.5100000000002</ele>
        <time>2018-08-05T13:45:03Z</time>
      </trkpt>
      <trkpt lat="46.503003062680364" lon="8.453678917139769">
        <ele>2634.6300000000001</ele>
        <time>2018-08-05T13:45:15Z</time>
      </trkpt>
      <trkpt lat="46.50297406129539" lon="8.45375913195312">
        <ele>2633.1900000000001</ele>
        <time>2018-08-05T13:45:23Z</time>
      </trkpt>
      <trkpt lat="46.50297456420958" lon="8.45376986078918">
        <ele>2633.1900000000001</ele>
        <time>2018-08-05T13:45:24Z</time>
      </trkpt>
      <trkpt lat="46.502954782918096" lon="8.453830881044269">
        <ele>2631.75</ele>
        <time>2018-08-05T13:45:30Z</time>
      </trkpt>
      <trkpt lat="46.502932487055659" lon="8.453943952918053">
        <ele>2628.8600000000001</ele>
        <time>2018-08-05T13:45:39Z</time>
      </trkpt>
      <trkpt lat="46.502914130687714" lon="8.453995585441589">
        <ele>2627.4200000000001</ele>
        <time>2018-08-05T13:45:43Z</time>
      </trkpt>
      <trkpt lat="46.502885380759835" lon="8.454135227948427">
        <ele>2624.54</ele>
        <time>2018-08-05T13:45:55Z</time>
      </trkpt>
      <trkpt lat="46.502875909209251" lon="8.454253245145083">
        <ele>2625.02</ele>
        <time>2018-08-05T13:46:07Z</time>
      </trkpt>
      <trkpt lat="46.502851434051991" lon="8.454293981194496">
        <ele>2625.5</ele>
        <time>2018-08-05T13:46:12Z</time>
      </trkpt>
      <trkpt lat="46.502795107662678" lon="8.454359108582139">
        <ele>2625.5</ele>
        <time>2018-08-05T13:46:20Z</time>
      </trkpt>
      <trkpt lat="46.502751186490059" lon="8.454435048624873">
        <ele>2624.54</ele>
        <time>2018-08-05T13:46:30Z</time>
      </trkpt>
      <trkpt lat="46.50274976156652" lon="8.454431276768446">
        <ele>2624.54</ele>
        <time>2018-08-05T13:46:34Z</time>
      </trkpt>
      <trkpt lat="46.502734757959843" lon="8.454413004219532">
        <ele>2623.5799999999999</ele>
        <time>2018-08-05T13:46:41Z</time>
      </trkpt>
      <trkpt lat="46.502758730202913" lon="8.454397497698665">
        <ele>2624.0599999999999</ele>
        <time>2018-08-05T13:46:57Z</time>
      </trkpt>
      <trkpt lat="46.502761328592896" lon="8.454379141330719">
        <ele>2624.54</ele>
        <time>2018-08-05T13:47:11Z</time>
      </trkpt>
      <trkpt lat="46.50275370106101" lon="8.454416356980801">
        <ele>2624.54</ele>
        <time>2018-08-05T13:47:21Z</time>
      </trkpt>
      <trkpt lat="46.502761747688055" lon="8.454465223476291">
        <ele>2625.02</ele>
        <time>2018-08-05T13:47:30Z</time>
      </trkpt>
      <trkpt lat="46.502753533422947" lon="8.454479388892651">
        <ele>2624.54</ele>
        <time>2018-08-05T13:47:44Z</time>
      </trkpt>
      <trkpt lat="46.502764681354165" lon="8.454511240124703">
        <ele>2624.54</ele>
        <time>2018-08-05T13:47:56Z</time>
      </trkpt>
      <trkpt lat="46.502753449603915" lon="8.454585419967771">
        <ele>2624.0599999999999</ele>
        <time>2018-08-05T13:48:06Z</time>
      </trkpt>
      <trkpt lat="46.502740122377872" lon="8.454594640061259">
        <ele>2623.5799999999999</ele>
        <time>2018-08-05T13:48:13Z</time>
      </trkpt>
      <trkpt lat="46.50274439714849" lon="8.454631604254246">
        <ele>2621.6500000000001</ele>
        <time>2018-08-05T13:48:24Z</time>
      </trkpt>
      <trkpt lat="46.502734757959843" lon="8.454633448272944">
        <ele>2620.21</ele>
        <time>2018-08-05T13:48:26Z</time>
      </trkpt>
      <trkpt lat="46.502719754353166" lon="8.454663790762425">
        <ele>2618.29</ele>
        <time>2018-08-05T13:48:36Z</time>
      </trkpt>
      <trkpt lat="46.502721263095737" lon="8.454709807410836">
        <ele>2616.3699999999999</ele>
        <time>2018-08-05T13:48:46Z</time>
      </trkpt>
      <trkpt lat="46.502711120992899" lon="8.454758254811168">
        <ele>2614.4400000000001</ele>
        <time>2018-08-05T13:48:57Z</time>
      </trkpt>
      <trkpt lat="46.50271070189774" lon="8.454789603129029">
        <ele>2613</ele>
        <time>2018-08-05T13:49:07Z</time>
      </trkpt>
      <trkpt lat="46.502737943083048" lon="8.454803014174104">
        <ele>2612.04</ele>
        <time>2018-08-05T13:49:16Z</time>
      </trkpt>
      <trkpt lat="46.502711204811931" lon="8.45485121011734">
        <ele>2610.5999999999999</ele>
        <time>2018-08-05T13:49:25Z</time>
      </trkpt>
      <trkpt lat="46.502730064094067" lon="8.454852048307657">
        <ele>2609.1599999999999</ele>
        <time>2018-08-05T13:49:35Z</time>
      </trkpt>
      <trkpt lat="46.502742972224951" lon="8.454899908974767">
        <ele>2607.23</ele>
        <time>2018-08-05T13:49:44Z</time>
      </trkpt>
      <trkpt lat="46.502734590321779" lon="8.454928072169423">
        <ele>2605.79</ele>
        <time>2018-08-05T13:49:54Z</time>
      </trkpt>
      <trkpt lat="46.502721514552832" lon="8.454978782683611">
        <ele>2604.3499999999999</ele>
        <time>2018-08-05T13:50:03Z</time>
      </trkpt>
      <trkpt lat="46.502739703282714" lon="8.45501197502017">
        <ele>2602.4299999999998</ele>
        <time>2018-08-05T13:50:13Z</time>
      </trkpt>
      <trkpt lat="46.502747163176537" lon="8.455066541209817">
        <ele>2600.5</ele>
        <time>2018-08-05T13:50:23Z</time>
      </trkpt>
      <trkpt lat="46.502737775444984" lon="8.455138122662902">
        <ele>2599.0599999999999</ele>
        <time>2018-08-05T13:50:32Z</time>
      </trkpt>
      <trkpt lat="46.502721011638641" lon="8.455141810700297">
        <ele>2598.0999999999999</ele>
        <time>2018-08-05T13:50:39Z</time>
      </trkpt>
      <trkpt lat="46.502683041617274" lon="8.455172320827842">
        <ele>2595.6999999999998</ele>
        <time>2018-08-05T13:50:49Z</time>
      </trkpt>
      <trkpt lat="46.502682287245989" lon="8.455225545912981">
        <ele>2594.25</ele>
        <time>2018-08-05T13:50:58Z</time>
      </trkpt>
      <trkpt lat="46.502636438235641" lon="8.455257816240192">
        <ele>2592.3299999999999</ele>
        <time>2018-08-05T13:51:07Z</time>
      </trkpt>
      <trkpt lat="46.502638533711433" lon="8.455309448763728">
        <ele>2590.8899999999999</ele>
        <time>2018-08-05T13:51:17Z</time>
      </trkpt>
      <trkpt lat="46.502617998048663" lon="8.455371391028166">
        <ele>2588.0100000000002</ele>
        <time>2018-08-05T13:51:26Z</time>
      </trkpt>
      <trkpt lat="46.502597462385893" lon="8.455399051308632">
        <ele>2586.5599999999999</ele>
        <time>2018-08-05T13:51:37Z</time>
      </trkpt>
      <trkpt lat="46.502564689144492" lon="8.455413552001119">
        <ele>2584.1599999999999</ele>
        <time>2018-08-05T13:51:48Z</time>
      </trkpt>
      <trkpt lat="46.502540549263358" lon="8.455414222553372">
        <ele>2582.7199999999998</ele>
        <time>2018-08-05T13:51:58Z</time>
      </trkpt>
      <trkpt lat="46.502533927559853" lon="8.455452611669898">
        <ele>2580.8000000000002</ele>
        <time>2018-08-05T13:52:09Z</time>
      </trkpt>
      <trkpt lat="46.502510039135814" lon="8.455479349941015">
        <ele>2579.8400000000001</ele>
        <time>2018-08-05T13:52:17Z</time>
      </trkpt>
      <trkpt lat="46.502503668889403" lon="8.455471973866224">
        <ele>2578.8699999999999</ele>
        <time>2018-08-05T13:52:19Z</time>
      </trkpt>
      <trkpt lat="46.502488330006599" lon="8.455504747107625">
        <ele>2576.4699999999998</ele>
        <time>2018-08-05T13:52:31Z</time>
      </trkpt>
      <trkpt lat="46.502450359985232" lon="8.455502903088927">
        <ele>2575.0300000000002</ele>
        <time>2018-08-05T13:52:42Z</time>
      </trkpt>
      <trkpt lat="46.502428902313113" lon="8.455535257235169">
        <ele>2572.6300000000001</ele>
        <time>2018-08-05T13:52:52Z</time>
      </trkpt>
      <trkpt lat="46.502424208447337" lon="8.455564174801111">
        <ele>2571.6599999999999</ele>
        <time>2018-08-05T13:53:00Z</time>
      </trkpt>
      <trkpt lat="46.502381628379226" lon="8.455584039911628">
        <ele>2569.2600000000002</ele>
        <time>2018-08-05T13:53:09Z</time>
      </trkpt>
      <trkpt lat="46.502395207062364" lon="8.45564279705286">
        <ele>2567.3400000000001</ele>
        <time>2018-08-05T13:53:19Z</time>
      </trkpt>
      <trkpt lat="46.502380119636655" lon="8.455732986330986">
        <ele>2565.4200000000001</ele>
        <time>2018-08-05T13:53:30Z</time>
      </trkpt>
      <trkpt lat="46.502369055524468" lon="8.455813368782401">
        <ele>2563.0100000000002</ele>
        <time>2018-08-05T13:53:41Z</time>
      </trkpt>
      <trkpt lat="46.502325301989913" lon="8.455858128145337">
        <ele>2560.6100000000001</ele>
        <time>2018-08-05T13:53:50Z</time>
      </trkpt>
      <trkpt lat="46.50234080851078" lon="8.455909844487906">
        <ele>2558.21</ele>
        <time>2018-08-05T13:54:00Z</time>
      </trkpt>
      <trkpt lat="46.50232563726604" lon="8.45598972402513">
        <ele>2555.8000000000002</ele>
        <time>2018-08-05T13:54:11Z</time>
      </trkpt>
      <trkpt lat="46.50232857093215" lon="8.456041440367699">
        <ele>2553.4000000000001</ele>
        <time>2018-08-05T13:54:21Z</time>
      </trkpt>
      <trkpt lat="46.502317674458027" lon="8.45609575510025">
        <ele>2551</ele>
        <time>2018-08-05T13:54:29Z</time>
      </trkpt>
      <trkpt lat="46.502311639487743" lon="8.456152165308595">
        <ele>2549.0700000000002</ele>
        <time>2018-08-05T13:54:38Z</time>
      </trkpt>
      <trkpt lat="46.502350363880396" lon="8.45617538318038">
        <ele>2547.1500000000001</ele>
        <time>2018-08-05T13:54:48Z</time>
      </trkpt>
      <trkpt lat="46.502332426607609" lon="8.456211593002081">
        <ele>2545.71</ele>
        <time>2018-08-05T13:54:56Z</time>
      </trkpt>
      <trkpt lat="46.502315243706107" lon="8.456293484196067">
        <ele>2543.3099999999999</ele>
        <time>2018-08-05T13:55:07Z</time>
      </trkpt>
      <trkpt lat="46.502311555668712" lon="8.456337153911591">
        <ele>2541.3800000000001</ele>
        <time>2018-08-05T13:55:18Z</time>
      </trkpt>
      <trkpt lat="46.502315243706107" lon="8.456408651545644">
        <ele>2539.46</ele>
        <time>2018-08-05T13:55:29Z</time>
      </trkpt>
      <trkpt lat="46.502325553447008" lon="8.456431115046144">
        <ele>2538.02</ele>
        <time>2018-08-05T13:55:37Z</time>
      </trkpt>
      <trkpt lat="46.502315495163202" lon="8.456482412293553">
        <ele>2536.0999999999999</ele>
        <time>2018-08-05T13:55:46Z</time>
      </trkpt>
      <trkpt lat="46.502295043319464" lon="8.456533625721932">
        <ele>2534.1700000000001</ele>
        <time>2018-08-05T13:55:56Z</time>
      </trkpt>
      <trkpt lat="46.502271154895425" lon="8.456589197739959">
        <ele>2531.77</ele>
        <time>2018-08-05T13:56:07Z</time>
      </trkpt>
      <trkpt lat="46.50228263810277" lon="8.456650888547301">
        <ele>2528.8899999999999</ele>
        <time>2018-08-05T13:56:18Z</time>
      </trkpt>
      <trkpt lat="46.502279788255692" lon="8.456706209108234">
        <ele>2526.96</ele>
        <time>2018-08-05T13:56:28Z</time>
      </trkpt>
      <trkpt lat="46.502275345847011" lon="8.456757925450802">
        <ele>2525.04</ele>
        <time>2018-08-05T13:56:37Z</time>
      </trkpt>
      <trkpt lat="46.502275681123137" lon="8.456796733662486">
        <ele>2522.1599999999999</ele>
        <time>2018-08-05T13:56:47Z</time>
      </trkpt>
      <trkpt lat="46.502237794920802" lon="8.456807378679514">
        <ele>2520.71</ele>
        <time>2018-08-05T13:56:56Z</time>
      </trkpt>
      <trkpt lat="46.5022137388587" lon="8.456845181062818">
        <ele>2518.79</ele>
        <time>2018-08-05T13:57:07Z</time>
      </trkpt>
      <trkpt lat="46.502191526815295" lon="8.456881558522582">
        <ele>2515.9099999999999</ele>
        <time>2018-08-05T13:57:18Z</time>
      </trkpt>
      <trkpt lat="46.502212481573224" lon="8.456915589049459">
        <ele>2514.4699999999998</ele>
        <time>2018-08-05T13:57:27Z</time>
      </trkpt>
      <trkpt lat="46.502178870141506" lon="8.456959677860141">
        <ele>2512.0599999999999</ele>
        <time>2018-08-05T13:57:37Z</time>
      </trkpt>
      <trkpt lat="46.502175601199269" lon="8.456976944580674">
        <ele>2511.5799999999999</ele>
        <time>2018-08-05T13:57:48Z</time>
      </trkpt>
      <trkpt lat="46.502163698896766" lon="8.456991445273161">
        <ele>2511.0999999999999</ele>
        <time>2018-08-05T13:57:57Z</time>
      </trkpt>
      <trkpt lat="46.502173505723476" lon="8.457006616517901">
        <ele>2509.1799999999998</ele>
        <time>2018-08-05T13:58:06Z</time>
      </trkpt>
      <trkpt lat="46.502149114385247" lon="8.457017680630088">
        <ele>2508.2199999999998</ele>
        <time>2018-08-05T13:58:15Z</time>
      </trkpt>
      <trkpt lat="46.502139391377568" lon="8.457046011462808">
        <ele>2506.77</ele>
        <time>2018-08-05T13:58:25Z</time>
      </trkpt>
      <trkpt lat="46.502107037231326" lon="8.457079958170652">
        <ele>2503.8899999999999</ele>
        <time>2018-08-05T13:58:36Z</time>
      </trkpt>
      <trkpt lat="46.502090021967888" lon="8.457110216841102">
        <ele>2501.9699999999998</ele>
        <time>2018-08-05T13:58:47Z</time>
      </trkpt>
      <trkpt lat="46.502044340595603" lon="8.457116084173322">
        <ele>2500.0500000000002</ele>
        <time>2018-08-05T13:58:58Z</time>
      </trkpt>
      <trkpt lat="46.501990780234337" lon="8.457131171599031">
        <ele>2497.6399999999999</ele>
        <time>2018-08-05T13:59:10Z</time>
      </trkpt>
      <trkpt lat="46.501949122175574" lon="8.457168806344271">
        <ele>2494.7600000000002</ele>
        <time>2018-08-05T13:59:20Z</time>
      </trkpt>
      <trkpt lat="46.501905284821987" lon="8.457197053357959">
        <ele>2492.3600000000001</ele>
        <time>2018-08-05T13:59:31Z</time>
      </trkpt>
      <trkpt lat="46.501906542107463" lon="8.457185318693519">
        <ele>2491.3899999999999</ele>
        <time>2018-08-05T13:59:41Z</time>
      </trkpt>
      <trkpt lat="46.50193084962666" lon="8.457174422219396">
        <ele>2490.9099999999999</ele>
        <time>2018-08-05T13:59:57Z</time>
      </trkpt>
      <trkpt lat="46.501910397782922" lon="8.457255391404033">
        <ele>2488.9899999999998</ele>
        <time>2018-08-05T14:00:08Z</time>
      </trkpt>
      <trkpt lat="46.501875277608633" lon="8.457290092483163">
        <ele>2487.0700000000002</ele>
        <time>2018-08-05T14:00:17Z</time>
      </trkpt>
      <trkpt lat="46.50188684463501" lon="8.457347676157951">
        <ele>2484.6599999999999</ele>
        <time>2018-08-05T14:00:29Z</time>
      </trkpt>
      <trkpt lat="46.501861698925495" lon="8.457395788282156">
        <ele>2482.7399999999998</ele>
        <time>2018-08-05T14:00:41Z</time>
      </trkpt>
      <trkpt lat="46.501877205446362" lon="8.457483882084489">
        <ele>2479.8600000000001</ele>
        <time>2018-08-05T14:00:54Z</time>
      </trkpt>
      <trkpt lat="46.501825740560889" lon="8.457488240674138">
        <ele>2478.4200000000001</ele>
        <time>2018-08-05T14:01:05Z</time>
      </trkpt>
      <trkpt lat="46.501811407506466" lon="8.457524366676807">
        <ele>2476.9699999999998</ele>
        <time>2018-08-05T14:01:13Z</time>
      </trkpt>
      <trkpt lat="46.501800343394279" lon="8.457568371668458">
        <ele>2475.0500000000002</ele>
        <time>2018-08-05T14:01:22Z</time>
      </trkpt>
      <trkpt lat="46.501763043925166" lon="8.457584129646421">
        <ele>2473.6100000000001</ele>
        <time>2018-08-05T14:01:31Z</time>
      </trkpt>
      <trkpt lat="46.501746950671077" lon="8.457619585096836">
        <ele>2472.6500000000001</ele>
        <time>2018-08-05T14:01:40Z</time>
      </trkpt>
      <trkpt lat="46.501749800518155" lon="8.457640204578638">
        <ele>2471.21</ele>
        <time>2018-08-05T14:01:53Z</time>
      </trkpt>
      <trkpt lat="46.501722726970911" lon="8.457638192921877">
        <ele>2471.21</ele>
        <time>2018-08-05T14:02:04Z</time>
      </trkpt>
      <trkpt lat="46.501712836325169" lon="8.457635007798672">
        <ele>2470.73</ele>
        <time>2018-08-05T14:02:26Z</time>
      </trkpt>
      <trkpt lat="46.501722391694784" lon="8.457609778270125">
        <ele>2471.21</ele>
        <time>2018-08-05T14:02:44Z</time>
      </trkpt>
      <trkpt lat="46.501746866852045" lon="8.457629978656769">
        <ele>2471.21</ele>
        <time>2018-08-05T14:02:59Z</time>
      </trkpt>
      <trkpt lat="46.501731360331178" lon="8.45762126147747">
        <ele>2471.21</ele>
        <time>2018-08-05T14:03:16Z</time>
      </trkpt>
      <trkpt lat="46.501727672293782" lon="8.45763785764575">
        <ele>2471.21</ele>
        <time>2018-08-05T14:03:31Z</time>
      </trkpt>
      <trkpt lat="46.501721637323499" lon="8.457609359174967">
        <ele>2471.21</ele>
        <time>2018-08-05T14:03:48Z</time>
      </trkpt>
      <trkpt lat="46.501743597909808" lon="8.457603827118874">
        <ele>2470.73</ele>
        <time>2018-08-05T14:04:08Z</time>
      </trkpt>
      <trkpt lat="46.501771174371243" lon="8.457618914544582">
        <ele>2470.73</ele>
        <time>2018-08-05T14:04:24Z</time>
      </trkpt>
      <trkpt lat="46.501756170764565" lon="8.457634253427386">
        <ele>2471.21</ele>
        <time>2018-08-05T14:04:42Z</time>
      </trkpt>
      <trkpt lat="46.501761199906468" lon="8.457664093002677">
        <ele>2470.73</ele>
        <time>2018-08-05T14:05:09Z</time>
      </trkpt>
      <trkpt lat="46.501744519919157" lon="8.457668786868453">
        <ele>2470.73</ele>
        <time>2018-08-05T14:05:27Z</time>
      </trkpt>
      <trkpt lat="46.501742172986269" lon="8.457615310326219">
        <ele>2472.1700000000001</ele>
        <time>2018-08-05T14:05:47Z</time>
      </trkpt>
      <trkpt lat="46.50175885297358" lon="8.45758262090385">
        <ele>2470.73</ele>
        <time>2018-08-05T14:06:06Z</time>
      </trkpt>
      <trkpt lat="46.501760948449373" lon="8.457599971443415">
        <ele>2470.73</ele>
        <time>2018-08-05T14:06:20Z</time>
      </trkpt>
      <trkpt lat="46.501759691163898" lon="8.457615142688155">
        <ele>2470.73</ele>
        <time>2018-08-05T14:06:43Z</time>
      </trkpt>
      <trkpt lat="46.501762121915817" lon="8.457637438550592">
        <ele>2470.73</ele>
        <time>2018-08-05T14:06:58Z</time>
      </trkpt>
      <trkpt lat="46.501733455806971" lon="8.457618579268456">
        <ele>2470.73</ele>
        <time>2018-08-05T14:07:23Z</time>
      </trkpt>
      <trkpt lat="46.501746196299791" lon="8.457683203741908">
        <ele>2470.2399999999998</ele>
        <time>2018-08-05T14:07:37Z</time>
      </trkpt>
      <trkpt lat="46.501707220450044" lon="8.45770139247179">
        <ele>2468.8000000000002</ele>
        <time>2018-08-05T14:07:46Z</time>
      </trkpt>
      <trkpt lat="46.501683918759227" lon="8.45772385597229">
        <ele>2466.8800000000001</ele>
        <time>2018-08-05T14:07:56Z</time>
      </trkpt>
      <trkpt lat="46.50167771615088" lon="8.457771800458431">
        <ele>2464.96</ele>
        <time>2018-08-05T14:08:06Z</time>
      </trkpt>
      <trkpt lat="46.501668998971581" lon="8.457809770479798">
        <ele>2463.52</ele>
        <time>2018-08-05T14:08:16Z</time>
      </trkpt>
      <trkpt lat="46.501649804413319" lon="8.457829551771283">
        <ele>2462.0700000000002</ele>
        <time>2018-08-05T14:08:27Z</time>
      </trkpt>
      <trkpt lat="46.501609571278095" lon="8.457859139889479">
        <ele>2460.6300000000001</ele>
        <time>2018-08-05T14:08:38Z</time>
      </trkpt>
      <trkpt lat="46.501572942361236" lon="8.457859307527542">
        <ele>2460.6300000000001</ele>
        <time>2018-08-05T14:08:45Z</time>
      </trkpt>
      <trkpt lat="46.501526590436697" lon="8.457856206223369">
        <ele>2459.1900000000001</ele>
        <time>2018-08-05T14:08:55Z</time>
      </trkpt>
      <trkpt lat="46.501520723104477" lon="8.457867437973619">
        <ele>2458.23</ele>
        <time>2018-08-05T14:09:06Z</time>
      </trkpt>
      <trkpt lat="46.50150815024972" lon="8.457907252013683">
        <ele>2456.3099999999999</ele>
        <time>2018-08-05T14:09:17Z</time>
      </trkpt>
      <trkpt lat="46.501476801931858" lon="8.457922926172614">
        <ele>2455.3400000000001</ele>
        <time>2018-08-05T14:09:25Z</time>
      </trkpt>
      <trkpt lat="46.501432294026017" lon="8.457952933385968">
        <ele>2454.3800000000001</ele>
        <time>2018-08-05T14:09:34Z</time>
      </trkpt>
      <trkpt lat="46.501450315117836" lon="8.458008170127869">
        <ele>2452.9400000000001</ele>
        <time>2018-08-05T14:09:45Z</time>
      </trkpt>
      <trkpt lat="46.501426761969924" lon="8.45807321369648">
        <ele>2451.02</ele>
        <time>2018-08-05T14:09:56Z</time>
      </trkpt>
      <trkpt lat="46.501408070325851" lon="8.458101795986295">
        <ele>2449.5799999999999</ele>
        <time>2018-08-05T14:10:04Z</time>
      </trkpt>
      <trkpt lat="46.501377811655402" lon="8.458139263093472">
        <ele>2448.1300000000001</ele>
        <time>2018-08-05T14:10:13Z</time>
      </trkpt>
      <trkpt lat="46.501370770856738" lon="8.458170108497143">
        <ele>2446.6900000000001</ele>
        <time>2018-08-05T14:10:20Z</time>
      </trkpt>
      <trkpt lat="46.501339757815003" lon="8.458165749907494">
        <ele>2445.25</ele>
        <time>2018-08-05T14:10:29Z</time>
      </trkpt>
      <trkpt lat="46.501368675380945" lon="8.458193829283118">
        <ele>2444.29</ele>
        <time>2018-08-05T14:10:40Z</time>
      </trkpt>
      <trkpt lat="46.501346714794636" lon="8.458219226449728">
        <ele>2442.8499999999999</ele>
        <time>2018-08-05T14:10:48Z</time>
      </trkpt>
      <trkpt lat="46.50132886134088" lon="8.458230625838041">
        <ele>2442.3699999999999</ele>
        <time>2018-08-05T14:10:57Z</time>
      </trkpt>
      <trkpt lat="46.501321736723185" lon="8.458247808739543">
        <ele>2440.9200000000001</ele>
        <time>2018-08-05T14:11:08Z</time>
      </trkpt>
      <trkpt lat="46.501306146383286" lon="8.458290556445718">
        <ele>2438.52</ele>
        <time>2018-08-05T14:11:19Z</time>
      </trkpt>
      <trkpt lat="46.501298099756241" lon="8.458339925855398">
        <ele>2437.0799999999999</ele>
        <time>2018-08-05T14:11:29Z</time>
      </trkpt>
      <trkpt lat="46.501288963481784" lon="8.458407064899802">
        <ele>2435.6399999999999</ele>
        <time>2018-08-05T14:11:39Z</time>
      </trkpt>
      <trkpt lat="46.501294998452067" lon="8.458414608612657">
        <ele>2435.1599999999999</ele>
        <time>2018-08-05T14:11:49Z</time>
      </trkpt>
      <trkpt lat="46.501257447525859" lon="8.458461547270417">
        <ele>2434.1999999999998</ele>
        <time>2018-08-05T14:12:02Z</time>
      </trkpt>
      <trkpt lat="46.501257531344891" lon="8.458525165915489">
        <ele>2432.27</ele>
        <time>2018-08-05T14:12:12Z</time>
      </trkpt>
      <trkpt lat="46.501236073672771" lon="8.458564057946205">
        <ele>2430.8299999999999</ele>
        <time>2018-08-05T14:12:22Z</time>
      </trkpt>
      <trkpt lat="46.501215621829033" lon="8.458596495911479">
        <ele>2429.3899999999999</ele>
        <time>2018-08-05T14:12:31Z</time>
      </trkpt>
      <trkpt lat="46.50122819468379" lon="8.458637734875083">
        <ele>2428.4299999999998</ele>
        <time>2018-08-05T14:12:41Z</time>
      </trkpt>
      <trkpt lat="46.501183016225696" lon="8.458662880584598">
        <ele>2426.9899999999998</ele>
        <time>2018-08-05T14:12:51Z</time>
      </trkpt>
      <trkpt lat="46.501171952113509" lon="8.458701772615314">
        <ele>2426.5</ele>
        <time>2018-08-05T14:12:59Z</time>
      </trkpt>
      <trkpt lat="46.501157535240054" lon="8.458746783435345">
        <ele>2425.54</ele>
        <time>2018-08-05T14:13:07Z</time>
      </trkpt>
      <trkpt lat="46.501155523583293" lon="8.458755668252707">
        <ele>2425.0599999999999</ele>
        <time>2018-08-05T14:13:17Z</time>
      </trkpt>
      <trkpt lat="46.501141358166933" lon="8.45882716588676">
        <ele>2423.1399999999999</ele>
        <time>2018-08-05T14:13:27Z</time>
      </trkpt>
      <trkpt lat="46.501133227720857" lon="8.458862872794271">
        <ele>2421.6999999999998</ele>
        <time>2018-08-05T14:13:36Z</time>
      </trkpt>
      <trkpt lat="46.501125516369939" lon="8.458916014060378">
        <ele>2420.7399999999998</ele>
        <time>2018-08-05T14:13:45Z</time>
      </trkpt>
      <trkpt lat="46.501132976263762" lon="8.458926994353533">
        <ele>2419.7800000000002</ele>
        <time>2018-08-05T14:13:55Z</time>
      </trkpt>
      <trkpt lat="46.501082768663764" lon="8.458928419277072">
        <ele>2418.8099999999999</ele>
        <time>2018-08-05T14:14:11Z</time>
      </trkpt>
      <trkpt lat="46.501082433387637" lon="8.458934370428324">
        <ele>2418.3299999999999</ele>
        <time>2018-08-05T14:14:20Z</time>
      </trkpt>
      <trkpt lat="46.501078493893147" lon="8.45893369987607">
        <ele>2418.3299999999999</ele>
        <time>2018-08-05T14:14:21Z</time>
      </trkpt>
      <trkpt lat="46.501016216352582" lon="8.458916181698442">
        <ele>2416.8899999999999</ele>
        <time>2018-08-05T14:14:31Z</time>
      </trkpt>
      <trkpt lat="46.501011103391647" lon="8.458928000181913">
        <ele>2415.9299999999998</ele>
        <time>2018-08-05T14:14:39Z</time>
      </trkpt>
      <trkpt lat="46.50098386220634" lon="8.458949206396937">
        <ele>2414.9699999999998</ele>
        <time>2018-08-05T14:14:47Z</time>
      </trkpt>
      <trkpt lat="46.500989142805338" lon="8.458978375419974">
        <ele>2413.5300000000002</ele>
        <time>2018-08-05T14:14:55Z</time>
      </trkpt>
      <trkpt lat="46.500981515273452" lon="8.459016848355532">
        <ele>2412.0900000000001</ele>
        <time>2018-08-05T14:15:05Z</time>
      </trkpt>
      <trkpt lat="46.500941785052419" lon="8.459043838083744">
        <ele>2410.6399999999999</ele>
        <time>2018-08-05T14:15:14Z</time>
      </trkpt>
      <trkpt lat="46.500925188884139" lon="8.459079125896096">
        <ele>2409.6799999999998</ele>
        <time>2018-08-05T14:15:23Z</time>
      </trkpt>
      <trkpt lat="46.500876154750586" lon="8.459108546376228">
        <ele>2408.2399999999998</ele>
        <time>2018-08-05T14:15:33Z</time>
      </trkpt>
      <trkpt lat="46.500850254669785" lon="8.459150204434991">
        <ele>2406.8000000000002</ele>
        <time>2018-08-05T14:15:42Z</time>
      </trkpt>
      <trkpt lat="46.500828880816698" lon="8.459178367629647">
        <ele>2405.3600000000001</ele>
        <time>2018-08-05T14:15:54Z</time>
      </trkpt>
      <trkpt lat="46.500808093696833" lon="8.459211476147175">
        <ele>2403.9099999999999</ele>
        <time>2018-08-05T14:16:03Z</time>
      </trkpt>
      <trkpt lat="46.500778337940574" lon="8.459263779222965">
        <ele>2402.4699999999998</ele>
        <time>2018-08-05T14:16:12Z</time>
      </trkpt>
      <trkpt lat="46.500715054571629" lon="8.459309125319123">
        <ele>2400.5500000000002</ele>
        <time>2018-08-05T14:16:23Z</time>
      </trkpt>
      <trkpt lat="46.500697452574968" lon="8.459337456151843">
        <ele>2399.5900000000001</ele>
        <time>2018-08-05T14:16:31Z</time>
      </trkpt>
      <trkpt lat="46.500659985467792" lon="8.459343407303095">
        <ele>2399.1100000000001</ele>
        <time>2018-08-05T14:16:40Z</time>
      </trkpt>
      <trkpt lat="46.500611789524555" lon="8.459372408688068">
        <ele>2397.6700000000001</ele>
        <time>2018-08-05T14:16:49Z</time>
      </trkpt>
      <trkpt lat="46.500567952170968" lon="8.459406355395913">
        <ele>2396.6999999999998</ele>
        <time>2018-08-05T14:16:56Z</time>
      </trkpt>
      <trkpt lat="46.50053140707314" lon="8.459433764219284">
        <ele>2395.2600000000002</ele>
        <time>2018-08-05T14:17:02Z</time>
      </trkpt>
      <trkpt lat="46.500521181151271" lon="8.459462011232972">
        <ele>2395.2600000000002</ele>
        <time>2018-08-05T14:17:04Z</time>
      </trkpt>
      <trkpt lat="46.500485306605697" lon="8.459534766152501">
        <ele>2394.7800000000002</ele>
        <time>2018-08-05T14:17:12Z</time>
      </trkpt>
      <trkpt lat="46.500445995479822" lon="8.459574328735471">
        <ele>2393.3400000000001</ele>
        <time>2018-08-05T14:17:19Z</time>
      </trkpt>
      <trkpt lat="46.500373911112547" lon="8.459654627367854">
        <ele>2393.3400000000001</ele>
        <time>2018-08-05T14:17:30Z</time>
      </trkpt>
      <trkpt lat="46.500366283580661" lon="8.459653286263347">
        <ele>2392.8600000000001</ele>
        <time>2018-08-05T14:17:31Z</time>
      </trkpt>
      <trkpt lat="46.500305347144604" lon="8.459671977907419">
        <ele>2391.9000000000001</ele>
        <time>2018-08-05T14:17:40Z</time>
      </trkpt>
      <trkpt lat="46.500287996605039" lon="8.459634762257338">
        <ele>2391.9000000000001</ele>
        <time>2018-08-05T14:17:52Z</time>
      </trkpt>
      <trkpt lat="46.500309035181999" lon="8.45961581915617">
        <ele>2391.9000000000001</ele>
        <time>2018-08-05T14:18:08Z</time>
      </trkpt>
      <trkpt lat="46.500264694914222" lon="8.459629397839308">
        <ele>2391.9000000000001</ele>
        <time>2018-08-05T14:18:25Z</time>
      </trkpt>
      <trkpt lat="46.500297803431749" lon="8.459604252129793">
        <ele>2391.4200000000001</ele>
        <time>2018-08-05T14:18:45Z</time>
      </trkpt>
      <trkpt lat="46.500279614701867" lon="8.459612717851996">
        <ele>2391.4200000000001</ele>
        <time>2018-08-05T14:18:59Z</time>
      </trkpt>
      <trkpt lat="46.500264192000031" lon="8.459584973752499">
        <ele>2391.4200000000001</ele>
        <time>2018-08-05T14:19:14Z</time>
      </trkpt>
      <trkpt lat="46.500266455113888" lon="8.459556391462684">
        <ele>2392.3800000000001</ele>
        <time>2018-08-05T14:19:23Z</time>
      </trkpt>
      <trkpt lat="46.500272741541266" lon="8.45953325740993">
        <ele>2392.3800000000001</ele>
        <time>2018-08-05T14:19:41Z</time>
      </trkpt>
      <trkpt lat="46.500251200050116" lon="8.459533005952835">
        <ele>2391.9000000000001</ele>
        <time>2018-08-05T14:19:58Z</time>
      </trkpt>
      <trkpt lat="46.500282129272819" lon="8.459617327898741">
        <ele>2392.3800000000001</ele>
        <time>2018-08-05T14:20:15Z</time>
      </trkpt>
      <trkpt lat="46.500307358801365" lon="8.459654124453664">
        <ele>2391.4200000000001</ele>
        <time>2018-08-05T14:20:26Z</time>
      </trkpt>
      <trkpt lat="46.500270646065474" lon="8.4596505202353">
        <ele>2390.46</ele>
        <time>2018-08-05T14:20:36Z</time>
      </trkpt>
      <trkpt lat="46.500263689085841" lon="8.459666110575199">
        <ele>2389.4899999999998</ele>
        <time>2018-08-05T14:20:44Z</time>
      </trkpt>
      <trkpt lat="46.500268634408712" lon="8.459649430587888">
        <ele>2389.4899999999998</ele>
        <time>2018-08-05T14:20:53Z</time>
      </trkpt>
      <trkpt lat="46.500281542539597" lon="8.459664769470692">
        <ele>2389.0100000000002</ele>
        <time>2018-08-05T14:21:12Z</time>
      </trkpt>
      <trkpt lat="46.500277351588011" lon="8.459662590175867">
        <ele>2389.0100000000002</ele>
        <time>2018-08-05T14:21:29Z</time>
      </trkpt>
      <trkpt lat="46.500268466770649" lon="8.459657644852996">
        <ele>2389.0100000000002</ele>
        <time>2018-08-05T14:21:55Z</time>
      </trkpt>
      <trkpt lat="46.500268718227744" lon="8.459659488871694">
        <ele>2389.0100000000002</ele>
        <time>2018-08-05T14:22:16Z</time>
      </trkpt>
      <trkpt lat="46.5002675447613" lon="8.459666697308421">
        <ele>2389.0100000000002</ele>
        <time>2018-08-05T14:22:39Z</time>
      </trkpt>
      <trkpt lat="46.500275507569313" lon="8.45966468565166">
        <ele>2389.0100000000002</ele>
        <time>2018-08-05T14:23:03Z</time>
      </trkpt>
      <trkpt lat="46.50028120726347" lon="8.459662506356835">
        <ele>2389.4899999999998</ele>
        <time>2018-08-05T14:23:17Z</time>
      </trkpt>
      <trkpt lat="46.500237453728914" lon="8.459659907966852">
        <ele>2388.5300000000002</ele>
        <time>2018-08-05T14:23:26Z</time>
      </trkpt>
      <trkpt lat="46.500222450122237" lon="8.459634259343147">
        <ele>2388.5300000000002</ele>
        <time>2018-08-05T14:23:34Z</time>
      </trkpt>
      <trkpt lat="46.500217840075493" lon="8.459602491930127">
        <ele>2388.5300000000002</ele>
        <time>2018-08-05T14:23:50Z</time>
      </trkpt>
      <trkpt lat="46.500212475657463" lon="8.459678431972861">
        <ele>2388.0500000000002</ele>
        <time>2018-08-05T14:24:05Z</time>
      </trkpt>
      <trkpt lat="46.500235609710217" lon="8.459680611267686">
        <ele>2388.5300000000002</ele>
        <time>2018-08-05T14:24:17Z</time>
      </trkpt>
      <trkpt lat="46.500238459557295" lon="8.45969301648438">
        <ele>2388.0500000000002</ele>
        <time>2018-08-05T14:24:31Z</time>
      </trkpt>
      <trkpt lat="46.500225216150284" lon="8.459689579904079">
        <ele>2388.0500000000002</ele>
        <time>2018-08-05T14:24:46Z</time>
      </trkpt>
      <trkpt lat="46.500236866995692" lon="8.4596505202353">
        <ele>2388.0500000000002</ele>
        <time>2018-08-05T14:25:08Z</time>
      </trkpt>
      <trkpt lat="46.50022991001606" lon="8.459648843854666">
        <ele>2388.0500000000002</ele>
        <time>2018-08-05T14:25:27Z</time>
      </trkpt>
      <trkpt lat="46.500213230028749" lon="8.45962512306869">
        <ele>2387.5700000000002</ele>
        <time>2018-08-05T14:25:49Z</time>
      </trkpt>
      <trkpt lat="46.500221528112888" lon="8.459646748378873">
        <ele>2388.0500000000002</ele>
        <time>2018-08-05T14:26:04Z</time>
      </trkpt>
      <trkpt lat="46.500198226422071" lon="8.459630738943815">
        <ele>2387.5700000000002</ele>
        <time>2018-08-05T14:26:20Z</time>
      </trkpt>
      <trkpt lat="46.500221779569983" lon="8.459630571305752">
        <ele>2387.5700000000002</ele>
        <time>2018-08-05T14:26:48Z</time>
      </trkpt>
      <trkpt lat="46.500227563083172" lon="8.459617914631963">
        <ele>2387.5700000000002</ele>
        <time>2018-08-05T14:27:09Z</time>
      </trkpt>
      <trkpt lat="46.500237621366978" lon="8.459640461951494">
        <ele>2387.5700000000002</ele>
        <time>2018-08-05T14:27:25Z</time>
      </trkpt>
      <trkpt lat="46.50022454559803" lon="8.459659405052662">
        <ele>2387.5700000000002</ele>
        <time>2018-08-05T14:27:43Z</time>
      </trkpt>
      <trkpt lat="46.500216834247112" lon="8.459665942937136">
        <ele>2387.5700000000002</ele>
        <time>2018-08-05T14:27:44Z</time>
      </trkpt>
      <trkpt lat="46.500110384076834" lon="8.45974138006568">
        <ele>2387.0900000000001</ele>
        <time>2018-08-05T14:27:56Z</time>
      </trkpt>
      <trkpt lat="46.500030253082514" lon="8.459791671484709">
        <ele>2388.0500000000002</ele>
        <time>2018-08-05T14:28:06Z</time>
      </trkpt>
      <trkpt lat="46.499935034662485" lon="8.459813296794891">
        <ele>2388.0500000000002</ele>
        <time>2018-08-05T14:28:16Z</time>
      </trkpt>
      <trkpt lat="46.499931765720248" lon="8.45982301980257">
        <ele>2388.0500000000002</ele>
        <time>2018-08-05T14:28:17Z</time>
      </trkpt>
      <trkpt lat="46.499904189258814" lon="8.459862917661667">
        <ele>2387.0900000000001</ele>
        <time>2018-08-05T14:28:21Z</time>
      </trkpt>
      <trkpt lat="46.499878205358982" lon="8.459895690903068">
        <ele>2386.6100000000001</ele>
        <time>2018-08-05T14:28:24Z</time>
      </trkpt>
      <trkpt lat="46.499820034950972" lon="8.460038350895047">
        <ele>2386.6100000000001</ele>
        <time>2018-08-05T14:28:35Z</time>
      </trkpt>
      <trkpt lat="46.499792793765664" lon="8.460063748061657">
        <ele>2386.1300000000001</ele>
        <time>2018-08-05T14:28:38Z</time>
      </trkpt>
      <trkpt lat="46.499760439619422" lon="8.460118398070335">
        <ele>2386.1300000000001</ele>
        <time>2018-08-05T14:28:43Z</time>
      </trkpt>
      <trkpt lat="46.499688606709242" lon="8.460104232653976">
        <ele>2385.1700000000001</ele>
        <time>2018-08-05T14:28:49Z</time>
      </trkpt>
      <trkpt lat="46.49965382181108" lon="8.460089396685362">
        <ele>2385.1700000000001</ele>
        <time>2018-08-05T14:28:54Z</time>
      </trkpt>
      <trkpt lat="46.499569248408079" lon="8.460181765258312">
        <ele>2382.7600000000002</ele>
        <time>2018-08-05T14:29:06Z</time>
      </trkpt>
      <trkpt lat="46.499547455459833" lon="8.460232224315405">
        <ele>2382.2800000000002</ele>
        <time>2018-08-05T14:29:11Z</time>
      </trkpt>
      <trkpt lat="46.499470425769687" lon="8.460251754149795">
        <ele>2380.8400000000001</ele>
        <time>2018-08-05T14:29:21Z</time>
      </trkpt>
      <trkpt lat="46.499431282281876" lon="8.460275139659643">
        <ele>2379.4000000000001</ele>
        <time>2018-08-05T14:29:29Z</time>
      </trkpt>
      <trkpt lat="46.499406388029456" lon="8.46030481159687">
        <ele>2378.4400000000001</ele>
        <time>2018-08-05T14:29:33Z</time>
      </trkpt>
      <trkpt lat="46.499385349452496" lon="8.460402460768819">
        <ele>2377.48</ele>
        <time>2018-08-05T14:29:44Z</time>
      </trkpt>
      <trkpt lat="46.499363472685218" lon="8.460477311164141">
        <ele>2377</ele>
        <time>2018-08-05T14:29:54Z</time>
      </trkpt>
      <trkpt lat="46.499358611181378" lon="8.460537577047944">
        <ele>2376.52</ele>
        <time>2018-08-05T14:30:03Z</time>
      </trkpt>
      <trkpt lat="46.499329106882215" lon="8.460544953122735">
        <ele>2376.04</ele>
        <time>2018-08-05T14:30:12Z</time>
      </trkpt>
      <trkpt lat="46.499326005578041" lon="8.460590299218893">
        <ele>2374.5900000000001</ele>
        <time>2018-08-05T14:30:23Z</time>
      </trkpt>
      <trkpt lat="46.499325754120946" lon="8.460620809346438">
        <ele>2374.5900000000001</ele>
        <time>2018-08-05T14:30:26Z</time>
      </trkpt>
      <trkpt lat="46.499308487400413" lon="8.460678895935416">
        <ele>2374.5900000000001</ele>
        <time>2018-08-05T14:30:35Z</time>
      </trkpt>
      <trkpt lat="46.499299015849829" lon="8.46071912907064">
        <ele>2375.5500000000002</ele>
        <time>2018-08-05T14:30:43Z</time>
      </trkpt>
      <trkpt lat="46.499295998364687" lon="8.460724158212543">
        <ele>2375.0700000000002</ele>
        <time>2018-08-05T14:30:52Z</time>
      </trkpt>
      <trkpt lat="46.499255346134305" lon="8.460734216496348">
        <ele>2376.52</ele>
        <time>2018-08-05T14:31:01Z</time>
      </trkpt>
      <trkpt lat="46.499227602034807" lon="8.460758356377482">
        <ele>2377.48</ele>
        <time>2018-08-05T14:31:08Z</time>
      </trkpt>
      <trkpt lat="46.49920086376369" lon="8.460751483216882">
        <ele>2377.96</ele>
        <time>2018-08-05T14:31:20Z</time>
      </trkpt>
      <trkpt lat="46.499190973117948" lon="8.460759948939085">
        <ele>2377.48</ele>
        <time>2018-08-05T14:31:30Z</time>
      </trkpt>
      <trkpt lat="46.499197678640485" lon="8.4607626311481">
        <ele>2377.48</ele>
        <time>2018-08-05T14:31:48Z</time>
      </trkpt>
      <trkpt lat="46.499192733317614" lon="8.460778975859284">
        <ele>2377.48</ele>
        <time>2018-08-05T14:31:52Z</time>
      </trkpt>
      <trkpt lat="46.49916616268456" lon="8.4607919678092">
        <ele>2377</ele>
        <time>2018-08-05T14:31:55Z</time>
      </trkpt>
      <trkpt lat="46.499154511839151" lon="8.460812252014875">
        <ele>2376.52</ele>
        <time>2018-08-05T14:31:58Z</time>
      </trkpt>
      <trkpt lat="46.499162139371037" lon="8.46084812656045">
        <ele>2375.5500000000002</ele>
        <time>2018-08-05T14:32:05Z</time>
      </trkpt>
      <trkpt lat="46.499121738597751" lon="8.460955331102014">
        <ele>2374.5900000000001</ele>
        <time>2018-08-05T14:32:16Z</time>
      </trkpt>
      <trkpt lat="46.499104052782059" lon="8.461054237559438">
        <ele>2376.04</ele>
        <time>2018-08-05T14:32:26Z</time>
      </trkpt>
      <trkpt lat="46.499031968414783" lon="8.461105534806848">
        <ele>2376.52</ele>
        <time>2018-08-05T14:32:37Z</time>
      </trkpt>
      <trkpt lat="46.49901176802814" lon="8.461147863417864">
        <ele>2377</ele>
        <time>2018-08-05T14:32:41Z</time>
      </trkpt>
      <trkpt lat="46.499000368639827" lon="8.461186084896326">
        <ele>2376.52</ele>
        <time>2018-08-05T14:32:45Z</time>
      </trkpt>
      <trkpt lat="46.498959884047508" lon="8.461212571710348">
        <ele>2376.52</ele>
        <time>2018-08-05T14:32:56Z</time>
      </trkpt>
      <trkpt lat="46.49891747161746" lon="8.461214499548078">
        <ele>2376.04</ele>
        <time>2018-08-05T14:33:11Z</time>
      </trkpt>
      <trkpt lat="46.498860474675894" lon="8.46128398552537">
        <ele>2375.5500000000002</ele>
        <time>2018-08-05T14:33:20Z</time>
      </trkpt>
      <trkpt lat="46.498821247369051" lon="8.461342072114348">
        <ele>2373.1500000000001</ele>
        <time>2018-08-05T14:33:30Z</time>
      </trkpt>
      <trkpt lat="46.498755365610123" lon="8.461383143439889">
        <ele>2371.23</ele>
        <time>2018-08-05T14:33:39Z</time>
      </trkpt>
      <trkpt lat="46.498691495507956" lon="8.461442654952407">
        <ele>2370.75</ele>
        <time>2018-08-05T14:33:49Z</time>
      </trkpt>
      <trkpt lat="46.498654028400779" lon="8.461492275819182">
        <ele>2368.3499999999999</ele>
        <time>2018-08-05T14:33:58Z</time>
      </trkpt>
      <trkpt lat="46.498633911833167" lon="8.461514990776777">
        <ele>2367.3800000000001</ele>
        <time>2018-08-05T14:34:01Z</time>
      </trkpt>
      <trkpt lat="46.498634750023484" lon="8.461578944697976">
        <ele>2365.9400000000001</ele>
        <time>2018-08-05T14:34:10Z</time>
      </trkpt>
      <trkpt lat="46.498654196038842" lon="8.461678102612495">
        <ele>2363.54</ele>
        <time>2018-08-05T14:34:21Z</time>
      </trkpt>
      <trkpt lat="46.498600803315639" lon="8.461728561669588">
        <ele>2361.6199999999999</ele>
        <time>2018-08-05T14:34:30Z</time>
      </trkpt>
      <trkpt lat="46.498560402542353" lon="8.461779523640871">
        <ele>2360.6500000000001</ele>
        <time>2018-08-05T14:34:39Z</time>
      </trkpt>
      <trkpt lat="46.498509692028165" lon="8.461813973262906">
        <ele>2358.73</ele>
        <time>2018-08-05T14:34:49Z</time>
      </trkpt>
      <trkpt lat="46.498497873544693" lon="8.461837945505977">
        <ele>2356.3299999999999</ele>
        <time>2018-08-05T14:34:56Z</time>
      </trkpt>
      <trkpt lat="46.498516900464892" lon="8.46188697963953">
        <ele>2354.8899999999999</ele>
        <time>2018-08-05T14:35:03Z</time>
      </trkpt>
      <trkpt lat="46.498469291254878" lon="8.461885387077928">
        <ele>2353.9299999999998</ele>
        <time>2018-08-05T14:35:13Z</time>
      </trkpt>
      <trkpt lat="46.498417239636183" lon="8.461927883327007">
        <ele>2352</ele>
        <time>2018-08-05T14:35:22Z</time>
      </trkpt>
      <trkpt lat="46.498381700366735" lon="8.461952274665237">
        <ele>2350.0799999999999</ele>
        <time>2018-08-05T14:35:31Z</time>
      </trkpt>
      <trkpt lat="46.498327301815152" lon="8.461974570527673">
        <ele>2348.6399999999999</ele>
        <time>2018-08-05T14:35:39Z</time>
      </trkpt>
      <trkpt lat="46.498242979869246" lon="8.461966775357723">
        <ele>2346.7199999999998</ele>
        <time>2018-08-05T14:35:50Z</time>
      </trkpt>
      <trkpt lat="46.49822655133903" lon="8.462022850289941">
        <ele>2344.79</ele>
        <time>2018-08-05T14:36:01Z</time>
      </trkpt>
      <trkpt lat="46.498248092830181" lon="8.462073309347034">
        <ele>2343.8299999999999</ele>
        <time>2018-08-05T14:36:12Z</time>
      </trkpt>
      <trkpt lat="46.498259659856558" lon="8.462088145315647">
        <ele>2343.3499999999999</ele>
        <time>2018-08-05T14:36:14Z</time>
      </trkpt>
      <trkpt lat="46.498265527188778" lon="8.462215550243855">
        <ele>2341.4299999999998</ele>
        <time>2018-08-05T14:36:24Z</time>
      </trkpt>
      <trkpt lat="46.498270975425839" lon="8.462228374555707">
        <ele>2340.9499999999998</ele>
        <time>2018-08-05T14:36:26Z</time>
      </trkpt>
      <trkpt lat="46.498293858021498" lon="8.462268691509962">
        <ele>2340.9499999999998</ele>
        <time>2018-08-05T14:36:31Z</time>
      </trkpt>
      <trkpt lat="46.498333588242531" lon="8.462318982928991">
        <ele>2339.02</ele>
        <time>2018-08-05T14:36:39Z</time>
      </trkpt>
      <trkpt lat="46.498387400060892" lon="8.462389893829823">
        <ele>2336.6199999999999</ele>
        <time>2018-08-05T14:36:50Z</time>
      </trkpt>
      <trkpt lat="46.498402236029506" lon="8.46246600151062">
        <ele>2334.2199999999998</ele>
        <time>2018-08-05T14:37:02Z</time>
      </trkpt>
      <trkpt lat="46.498450180515647" lon="8.46252853050828">
        <ele>2331.8099999999999</ele>
        <time>2018-08-05T14:37:11Z</time>
      </trkpt>
      <trkpt lat="46.498469626531005" lon="8.462568931281567">
        <ele>2331.3299999999999</ele>
        <time>2018-08-05T14:37:14Z</time>
      </trkpt>
      <trkpt lat="46.498539196327329" lon="8.462622072547674">
        <ele>2329.8899999999999</ele>
        <time>2018-08-05T14:37:25Z</time>
      </trkpt>
      <trkpt lat="46.498560318723321" lon="8.462638752534986">
        <ele>2329.8899999999999</ele>
        <time>2018-08-05T14:37:28Z</time>
      </trkpt>
      <trkpt lat="46.498643383383751" lon="8.462684853002429">
        <ele>2328.4499999999998</ele>
        <time>2018-08-05T14:37:40Z</time>
      </trkpt>
      <trkpt lat="46.498688561841846" lon="8.462724667042494">
        <ele>2327.0100000000002</ele>
        <time>2018-08-05T14:37:47Z</time>
      </trkpt>
      <trkpt lat="46.498702140524983" lon="8.462783759459853">
        <ele>2326.0500000000002</ele>
        <time>2018-08-05T14:37:53Z</time>
      </trkpt>
      <trkpt lat="46.498687891289592" lon="8.462825668975711">
        <ele>2323.6399999999999</ele>
        <time>2018-08-05T14:38:03Z</time>
      </trkpt>
      <trkpt lat="46.498620249330997" lon="8.462815610691905">
        <ele>2323.1599999999999</ele>
        <time>2018-08-05T14:38:14Z</time>
      </trkpt>
      <trkpt lat="46.49866241030395" lon="8.462871098890901">
        <ele>2320.7600000000002</ele>
        <time>2018-08-05T14:38:24Z</time>
      </trkpt>
      <trkpt lat="46.498699290677905" lon="8.462937232106924">
        <ele>2318.8400000000001</ele>
        <time>2018-08-05T14:38:34Z</time>
      </trkpt>
      <trkpt lat="46.498699961230159" lon="8.463019961491227">
        <ele>2316.9099999999999</ele>
        <time>2018-08-05T14:38:44Z</time>
      </trkpt>
      <trkpt lat="46.498686550185084" lon="8.463070252910256">
        <ele>2315.4699999999998</ele>
        <time>2018-08-05T14:38:53Z</time>
      </trkpt>
      <trkpt lat="46.498729214072227" lon="8.46309632062912">
        <ele>2313.5500000000002</ele>
        <time>2018-08-05T14:39:02Z</time>
      </trkpt>
      <trkpt lat="46.498746145516634" lon="8.463097410276532">
        <ele>2312.5900000000001</ele>
        <time>2018-08-05T14:39:04Z</time>
      </trkpt>
      <trkpt lat="46.498774057254195" lon="8.463187851011753">
        <ele>2312.1100000000001</ele>
        <time>2018-08-05T14:39:12Z</time>
      </trkpt>
      <trkpt lat="46.49875620380044" lon="8.463285584002733">
        <ele>2310.6700000000001</ele>
        <time>2018-08-05T14:39:22Z</time>
      </trkpt>
      <trkpt lat="46.49875570088625" lon="8.463365212082863">
        <ele>2308.2600000000002</ele>
        <time>2018-08-05T14:39:33Z</time>
      </trkpt>
      <trkpt lat="46.498784283176064" lon="8.463446432724595">
        <ele>2306.3400000000001</ele>
        <time>2018-08-05T14:39:44Z</time>
      </trkpt>
      <trkpt lat="46.498802807182074" lon="8.46350384876132">
        <ele>2303.46</ele>
        <time>2018-08-05T14:39:53Z</time>
      </trkpt>
      <trkpt lat="46.498789563775063" lon="8.463572496548295">
        <ele>2301.0500000000002</ele>
        <time>2018-08-05T14:40:03Z</time>
      </trkpt>
      <trkpt lat="46.498767519369721" lon="8.46360107883811">
        <ele>2299.1300000000001</ele>
        <time>2018-08-05T14:40:13Z</time>
      </trkpt>
      <trkpt lat="46.498826192691922" lon="8.46365530975163">
        <ele>2297.6900000000001</ele>
        <time>2018-08-05T14:40:23Z</time>
      </trkpt>
      <trkpt lat="46.4988446328789" lon="8.463711887598038">
        <ele>2295.77</ele>
        <time>2018-08-05T14:40:32Z</time>
      </trkpt>
      <trkpt lat="46.498877154663205" lon="8.463789504021406">
        <ele>2293.3600000000001</ele>
        <time>2018-08-05T14:40:43Z</time>
      </trkpt>
      <trkpt lat="46.498851841315627" lon="8.463798891752958">
        <ele>2291.4400000000001</ele>
        <time>2018-08-05T14:40:47Z</time>
      </trkpt>
      <trkpt lat="46.49878453463316" lon="8.463792521506548">
        <ele>2290.48</ele>
        <time>2018-08-05T14:40:57Z</time>
      </trkpt>
      <trkpt lat="46.498792078346014" lon="8.463845578953624">
        <ele>2289.04</ele>
        <time>2018-08-05T14:41:07Z</time>
      </trkpt>
      <trkpt lat="46.498793922364712" lon="8.463868964463472">
        <ele>2287.5900000000001</ele>
        <time>2018-08-05T14:41:14Z</time>
      </trkpt>
      <trkpt lat="46.498801046982408" lon="8.463937863707542">
        <ele>2285.6700000000001</ele>
        <time>2018-08-05T14:41:23Z</time>
      </trkpt>
      <trkpt lat="46.498781349509954" lon="8.464009445160627">
        <ele>2283.27</ele>
        <time>2018-08-05T14:41:33Z</time>
      </trkpt>
      <trkpt lat="46.498774476349354" lon="8.464007098227739">
        <ele>2283.27</ele>
        <time>2018-08-05T14:41:34Z</time>
      </trkpt>
      <trkpt lat="46.498746648430824" lon="8.464020006358624">
        <ele>2281.8299999999999</ele>
        <time>2018-08-05T14:41:37Z</time>
      </trkpt>
      <trkpt lat="46.4987254422158" lon="8.464048756286502">
        <ele>2280.8699999999999</ele>
        <time>2018-08-05T14:41:41Z</time>
      </trkpt>
      <trkpt lat="46.498703733086586" lon="8.464090833440423">
        <ele>2279.4200000000001</ele>
        <time>2018-08-05T14:41:52Z</time>
      </trkpt>
      <trkpt lat="46.498754443600774" lon="8.464174987748265">
        <ele>2277.02</ele>
        <time>2018-08-05T14:42:03Z</time>
      </trkpt>
      <trkpt lat="46.498761065304279" lon="8.464187812060118">
        <ele>2276.54</ele>
        <time>2018-08-05T14:42:05Z</time>
      </trkpt>
      <trkpt lat="46.498824851587415" lon="8.464264506474137">
        <ele>2274.6199999999999</ele>
        <time>2018-08-05T14:42:17Z</time>
      </trkpt>
      <trkpt lat="46.498860390856862" lon="8.46432720310986">
        <ele>2272.21</ele>
        <time>2018-08-05T14:42:27Z</time>
      </trkpt>
      <trkpt lat="46.498821331188083" lon="8.464414961636066">
        <ele>2270.29</ele>
        <time>2018-08-05T14:42:37Z</time>
      </trkpt>
      <trkpt lat="46.498824683949351" lon="8.464477909728885">
        <ele>2267.8899999999999</ele>
        <time>2018-08-05T14:42:48Z</time>
      </trkpt>
      <trkpt lat="46.498830383643508" lon="8.464537924155593">
        <ele>2265.96</ele>
        <time>2018-08-05T14:42:57Z</time>
      </trkpt>
      <trkpt lat="46.498812194913626" lon="8.46459835767746">
        <ele>2264.04</ele>
        <time>2018-08-05T14:43:08Z</time>
      </trkpt>
      <trkpt lat="46.498790737241507" lon="8.464669436216354">
        <ele>2262.5999999999999</ele>
        <time>2018-08-05T14:43:17Z</time>
      </trkpt>
      <trkpt lat="46.498822085559368" lon="8.464713525027037">
        <ele>2260.1999999999998</ele>
        <time>2018-08-05T14:43:28Z</time>
      </trkpt>
      <trkpt lat="46.498815296217799" lon="8.464704556390643">
        <ele>2259.2399999999998</ele>
        <time>2018-08-05T14:43:38Z</time>
      </trkpt>
      <trkpt lat="46.498816972598433" lon="8.464700952172279">
        <ele>2258.27</ele>
        <time>2018-08-05T14:43:40Z</time>
      </trkpt>
      <trkpt lat="46.49883390404284" lon="8.464709920808673">
        <ele>2258.27</ele>
        <time>2018-08-05T14:43:55Z</time>
      </trkpt>
      <trkpt lat="46.498820409178734" lon="8.464731210842729">
        <ele>2258.75</ele>
        <time>2018-08-05T14:44:23Z</time>
      </trkpt>
      <trkpt lat="46.498830132186413" lon="8.464720062911511">
        <ele>2258.27</ele>
        <time>2018-08-05T14:44:31Z</time>
      </trkpt>
      <trkpt lat="46.498842872679234" lon="8.46469852142036">
        <ele>2258.27</ele>
        <time>2018-08-05T14:44:45Z</time>
      </trkpt>
      <trkpt lat="46.498839603736997" lon="8.464693492278457">
        <ele>2258.27</ele>
        <time>2018-08-05T14:44:54Z</time>
      </trkpt>
      <trkpt lat="46.498854523524642" lon="8.464732971042395">
        <ele>2257.79</ele>
        <time>2018-08-05T14:45:02Z</time>
      </trkpt>
      <trkpt lat="46.498849159106612" lon="8.464762726798654">
        <ele>2257.79</ele>
        <time>2018-08-05T14:45:13Z</time>
      </trkpt>
      <trkpt lat="46.498849159106612" lon="8.464774880558252">
        <ele>2257.3099999999999</ele>
        <time>2018-08-05T14:45:33Z</time>
      </trkpt>
      <trkpt lat="46.498872963711619" lon="8.464822741225362">
        <ele>2256.8299999999999</ele>
        <time>2018-08-05T14:45:41Z</time>
      </trkpt>
      <trkpt lat="46.498877489939332" lon="8.464833972975612">
        <ele>2256.3499999999999</ele>
        <time>2018-08-05T14:45:42Z</time>
      </trkpt>
      <trkpt lat="46.498887296766043" lon="8.464932544156909">
        <ele>2254.4299999999998</ele>
        <time>2018-08-05T14:45:53Z</time>
      </trkpt>
      <trkpt lat="46.498928954824805" lon="8.464971855282784">
        <ele>2252.9899999999998</ele>
        <time>2018-08-05T14:46:00Z</time>
      </trkpt>
      <trkpt lat="46.498994501307607" lon="8.465020470321178">
        <ele>2251.0599999999999</ele>
        <time>2018-08-05T14:46:10Z</time>
      </trkpt>
      <trkpt lat="46.499040853232145" lon="8.465058524161577">
        <ele>2250.0999999999999</ele>
        <time>2018-08-05T14:46:19Z</time>
      </trkpt>
      <trkpt lat="46.499073710292578" lon="8.465151311829686">
        <ele>2249.1399999999999</ele>
        <time>2018-08-05T14:46:29Z</time>
      </trkpt>
      <trkpt lat="46.49910849519074" lon="8.465197663754225">
        <ele>2246.7399999999998</ele>
        <time>2018-08-05T14:46:38Z</time>
      </trkpt>
      <trkpt lat="46.499104639515281" lon="8.46527854911983">
        <ele>2244.8200000000002</ele>
        <time>2018-08-05T14:46:48Z</time>
      </trkpt>
      <trkpt lat="46.499068094417453" lon="8.465380053967238">
        <ele>2241.9299999999998</ele>
        <time>2018-08-05T14:47:00Z</time>
      </trkpt>
      <trkpt lat="46.499078152701259" lon="8.4653664752841">
        <ele>2241.4499999999998</ele>
        <time>2018-08-05T14:47:03Z</time>
      </trkpt>
      <trkpt lat="46.49914369918406" lon="8.465378293767571">
        <ele>2239.5300000000002</ele>
        <time>2018-08-05T14:47:14Z</time>
      </trkpt>
      <trkpt lat="46.499102041125298" lon="8.465473679825664">
        <ele>2237.6100000000001</ele>
        <time>2018-08-05T14:47:24Z</time>
      </trkpt>
      <trkpt lat="46.49912123568356" lon="8.465507542714477">
        <ele>2235.6799999999998</ele>
        <time>2018-08-05T14:47:32Z</time>
      </trkpt>
      <trkpt lat="46.499129785224795" lon="8.465504609048367">
        <ele>2235.6799999999998</ele>
        <time>2018-08-05T14:47:33Z</time>
      </trkpt>
      <trkpt lat="46.499211760237813" lon="8.465561605989933">
        <ele>2235.1999999999998</ele>
        <time>2018-08-05T14:47:43Z</time>
      </trkpt>
      <trkpt lat="46.499267583712935" lon="8.465638803318143">
        <ele>2234.2399999999998</ele>
        <time>2018-08-05T14:47:56Z</time>
      </trkpt>
      <trkpt lat="46.499236319214106" lon="8.46571197733283">
        <ele>2232.8000000000002</ele>
        <time>2018-08-05T14:48:05Z</time>
      </trkpt>
      <trkpt lat="46.499236989766359" lon="8.465751959010959">
        <ele>2231.3600000000001</ele>
        <time>2018-08-05T14:48:10Z</time>
      </trkpt>
      <trkpt lat="46.499246377497911" lon="8.465847177430987">
        <ele>2230.4000000000001</ele>
        <time>2018-08-05T14:48:18Z</time>
      </trkpt>
      <trkpt lat="46.499233972281218" lon="8.465914567932487">
        <ele>2229.4299999999998</ele>
        <time>2018-08-05T14:48:25Z</time>
      </trkpt>
      <trkpt lat="46.49921745993197" lon="8.466003332287073">
        <ele>2227.5100000000002</ele>
        <time>2018-08-05T14:48:35Z</time>
      </trkpt>
      <trkpt lat="46.499182842671871" lon="8.466080110520124">
        <ele>2226.5500000000002</ele>
        <time>2018-08-05T14:48:44Z</time>
      </trkpt>
      <trkpt lat="46.499126851558685" lon="8.466156469658017">
        <ele>2223.6700000000001</ele>
        <time>2018-08-05T14:48:55Z</time>
      </trkpt>
      <trkpt lat="46.499093156307936" lon="8.466175496578217">
        <ele>2221.7399999999998</ele>
        <time>2018-08-05T14:49:02Z</time>
      </trkpt>
      <trkpt lat="46.499048480764031" lon="8.466174490749836">
        <ele>2219.3400000000001</ele>
        <time>2018-08-05T14:49:12Z</time>
      </trkpt>
      <trkpt lat="46.499020736664534" lon="8.4662333317101">
        <ele>2216.9400000000001</ele>
        <time>2018-08-05T14:49:23Z</time>
      </trkpt>
      <trkpt lat="46.498969355598092" lon="8.466216819360852">
        <ele>2215.0100000000002</ele>
        <time>2018-08-05T14:49:30Z</time>
      </trkpt>
      <trkpt lat="46.498928284272552" lon="8.466235678642988">
        <ele>2213.0900000000001</ele>
        <time>2018-08-05T14:49:41Z</time>
      </trkpt>
      <trkpt lat="46.498879920691252" lon="8.466264680027962">
        <ele>2210.6900000000001</ele>
        <time>2018-08-05T14:49:51Z</time>
      </trkpt>
      <trkpt lat="46.498856032267213" lon="8.466333914548159">
        <ele>2208.77</ele>
        <time>2018-08-05T14:50:02Z</time>
      </trkpt>
      <trkpt lat="46.498803477734327" lon="8.466356042772532">
        <ele>2206.8400000000001</ele>
        <time>2018-08-05T14:50:11Z</time>
      </trkpt>
      <trkpt lat="46.498766513541341" lon="8.466382529586554">
        <ele>2205.4000000000001</ele>
        <time>2018-08-05T14:50:16Z</time>
      </trkpt>
      <trkpt lat="46.498719993978739" lon="8.466330729424954">
        <ele>2203.96</ele>
        <time>2018-08-05T14:50:24Z</time>
      </trkpt>
      <trkpt lat="46.498686550185084" lon="8.466320252045989">
        <ele>2202.04</ele>
        <time>2018-08-05T14:50:35Z</time>
      </trkpt>
      <trkpt lat="46.498666014522314" lon="8.46640725620091">
        <ele>2199.6300000000001</ele>
        <time>2018-08-05T14:50:46Z</time>
      </trkpt>
      <trkpt lat="46.49866534397006" lon="8.466515382751823">
        <ele>2198.1900000000001</ele>
        <time>2018-08-05T14:50:56Z</time>
      </trkpt>
      <trkpt lat="46.498648077249527" lon="8.466623425483704">
        <ele>2195.79</ele>
        <time>2018-08-05T14:51:08Z</time>
      </trkpt>
      <trkpt lat="46.498639192432165" lon="8.466679751873016">
        <ele>2192.9000000000001</ele>
        <time>2018-08-05T14:51:18Z</time>
      </trkpt>
      <trkpt lat="46.498618572950363" lon="8.466754015535116">
        <ele>2190.98</ele>
        <time>2018-08-05T14:51:27Z</time>
      </trkpt>
      <trkpt lat="46.498593930155039" lon="8.466793661937118">
        <ele>2189.54</ele>
        <time>2018-08-05T14:51:35Z</time>
      </trkpt>
      <trkpt lat="46.498633492738008" lon="8.466852502897382">
        <ele>2187.1399999999999</ele>
        <time>2018-08-05T14:51:45Z</time>
      </trkpt>
      <trkpt lat="46.498654196038842" lon="8.466905225068331">
        <ele>2186.6599999999999</ele>
        <time>2018-08-05T14:51:50Z</time>
      </trkpt>
      <trkpt lat="46.498641623184085" lon="8.467014105990529">
        <ele>2184.73</ele>
        <time>2018-08-05T14:52:00Z</time>
      </trkpt>
      <trkpt lat="46.498672300949693" lon="8.46712751314044">
        <ele>2183.29</ele>
        <time>2018-08-05T14:52:10Z</time>
      </trkpt>
      <trkpt lat="46.498652184382081" lon="8.467230191454291">
        <ele>2181.3699999999999</ele>
        <time>2018-08-05T14:52:20Z</time>
      </trkpt>
      <trkpt lat="46.498657967895269" lon="8.46736254170537">
        <ele>2180.8899999999999</ele>
        <time>2018-08-05T14:52:29Z</time>
      </trkpt>
      <trkpt lat="46.49861890822649" lon="8.467493467032909">
        <ele>2179.9299999999998</ele>
        <time>2018-08-05T14:52:40Z</time>
      </trkpt>
      <trkpt lat="46.498621925711632" lon="8.467616764828563">
        <ele>2177.52</ele>
        <time>2018-08-05T14:52:52Z</time>
      </trkpt>
      <trkpt lat="46.498627625405788" lon="8.467654567211866">
        <ele>2177.04</ele>
        <time>2018-08-05T14:52:55Z</time>
      </trkpt>
      <trkpt lat="46.498659895732999" lon="8.467779038473964">
        <ele>2175.1199999999999</ele>
        <time>2018-08-05T14:53:06Z</time>
      </trkpt>
      <trkpt lat="46.498666936531663" lon="8.467882638797164">
        <ele>2173.1999999999998</ele>
        <time>2018-08-05T14:53:17Z</time>
      </trkpt>
      <trkpt lat="46.498631313443184" lon="8.467972492799163">
        <ele>2170.3099999999999</ele>
        <time>2018-08-05T14:53:28Z</time>
      </trkpt>
      <trkpt lat="46.498563755303621" lon="8.468043990433216">
        <ele>2167.9099999999999</ele>
        <time>2018-08-05T14:53:40Z</time>
      </trkpt>
      <trkpt lat="46.498520420864224" lon="8.468025382608175">
        <ele>2165.9899999999998</ele>
        <time>2018-08-05T14:53:47Z</time>
      </trkpt>
      <trkpt lat="46.498482199385762" lon="8.468060418963432">
        <ele>2164.0599999999999</ele>
        <time>2018-08-05T14:53:58Z</time>
      </trkpt>
      <trkpt lat="46.498436853289604" lon="8.468050193041563">
        <ele>2162.1399999999999</ele>
        <time>2018-08-05T14:54:07Z</time>
      </trkpt>
      <trkpt lat="46.498392345383763" lon="8.468055054545403">
        <ele>2159.2600000000002</ele>
        <time>2018-08-05T14:54:17Z</time>
      </trkpt>
      <trkpt lat="46.498350938782096" lon="8.468034015968442">
        <ele>2157.3400000000001</ele>
        <time>2018-08-05T14:54:27Z</time>
      </trkpt>
      <trkpt lat="46.498311124742031" lon="8.467943491414189">
        <ele>2154.9299999999998</ele>
        <time>2018-08-05T14:54:37Z</time>
      </trkpt>
      <trkpt lat="46.498294109478593" lon="8.467876184731722">
        <ele>2153.0100000000002</ele>
        <time>2018-08-05T14:54:46Z</time>
      </trkpt>
      <trkpt lat="46.49827198125422" lon="8.467872412875295">
        <ele>2152.0500000000002</ele>
        <time>2018-08-05T14:54:55Z</time>
      </trkpt>
      <trkpt lat="46.498246667906642" lon="8.467831425368786">
        <ele>2151.5700000000002</ele>
        <time>2018-08-05T14:55:03Z</time>
      </trkpt>
      <trkpt lat="46.498215571045876" lon="8.467756239697337">
        <ele>2149.1599999999999</ele>
        <time>2018-08-05T14:55:14Z</time>
      </trkpt>
      <trkpt lat="46.498183887451887" lon="8.467696644365788">
        <ele>2147.7199999999998</ele>
        <time>2018-08-05T14:55:23Z</time>
      </trkpt>
      <trkpt lat="46.498160669580102" lon="8.467650962993503">
        <ele>2146.7600000000002</ele>
        <time>2018-08-05T14:55:33Z</time>
      </trkpt>
      <trkpt lat="46.498136362060905" lon="8.467602180317044">
        <ele>2144.3600000000001</ele>
        <time>2018-08-05T14:55:44Z</time>
      </trkpt>
      <trkpt lat="46.498092440888286" lon="8.467563958838582">
        <ele>2141.9499999999998</ele>
        <time>2018-08-05T14:55:54Z</time>
      </trkpt>
      <trkpt lat="46.498062182217836" lon="8.467564294114709">
        <ele>2140.0300000000002</ele>
        <time>2018-08-05T14:56:03Z</time>
      </trkpt>
      <trkpt lat="46.498035108670592" lon="8.467534705996513">
        <ele>2137.6300000000001</ele>
        <time>2018-08-05T14:56:12Z</time>
      </trkpt>
      <trkpt lat="46.497985236346722" lon="8.467512577772141">
        <ele>2135.71</ele>
        <time>2018-08-05T14:56:22Z</time>
      </trkpt>
      <trkpt lat="46.497922707349062" lon="8.467503022402525">
        <ele>2133.3000000000002</ele>
        <time>2018-08-05T14:56:34Z</time>
      </trkpt>
      <trkpt lat="46.497916588559747" lon="8.467517858371139">
        <ele>2132.3400000000001</ele>
        <time>2018-08-05T14:56:38Z</time>
      </trkpt>
      <trkpt lat="46.497878283262253" lon="8.467550883069634">
        <ele>2129.9400000000001</ele>
        <time>2018-08-05T14:56:47Z</time>
      </trkpt>
      <trkpt lat="46.497828410938382" lon="8.467546440660954">
        <ele>2128.5</ele>
        <time>2018-08-05T14:56:56Z</time>
      </trkpt>
      <trkpt lat="46.497845510020852" lon="8.467627912759781">
        <ele>2126.5700000000002</ele>
        <time>2018-08-05T14:57:06Z</time>
      </trkpt>
      <trkpt lat="46.497772084549069" lon="8.46758977510035">
        <ele>2124.6500000000001</ele>
        <time>2018-08-05T14:57:16Z</time>
      </trkpt>
      <trkpt lat="46.497771078720689" lon="8.467661524191499">
        <ele>2122.73</ele>
        <time>2018-08-05T14:57:25Z</time>
      </trkpt>
      <trkpt lat="46.497759008780122" lon="8.467683149501681">
        <ele>2121.29</ele>
        <time>2018-08-05T14:57:34Z</time>
      </trkpt>
      <trkpt lat="46.497743250802159" lon="8.467679796740413">
        <ele>2120.8099999999999</ele>
        <time>2018-08-05T14:57:51Z</time>
      </trkpt>
      <trkpt lat="46.497744088992476" lon="8.467687424272299">
        <ele>2120.8099999999999</ele>
        <time>2018-08-05T14:58:08Z</time>
      </trkpt>
      <trkpt lat="46.497747106477618" lon="8.467686669901013">
        <ele>2120.8099999999999</ele>
        <time>2018-08-05T14:58:26Z</time>
      </trkpt>
      <trkpt lat="46.497739646583796" lon="8.467678958550096">
        <ele>2119.8400000000001</ele>
        <time>2018-08-05T14:58:43Z</time>
      </trkpt>
      <trkpt lat="46.497738054022193" lon="8.46768113784492">
        <ele>2119.8400000000001</ele>
        <time>2018-08-05T14:58:55Z</time>
      </trkpt>
      <trkpt lat="46.497728163376451" lon="8.467673175036907">
        <ele>2118.8800000000001</ele>
        <time>2018-08-05T14:59:12Z</time>
      </trkpt>
      <trkpt lat="46.497737718746066" lon="8.467675019055605">
        <ele>2119.3600000000001</ele>
        <time>2018-08-05T14:59:33Z</time>
      </trkpt>
      <trkpt lat="46.497753979638219" lon="8.467671414837241">
        <ele>2119.3600000000001</ele>
        <time>2018-08-05T14:59:50Z</time>
      </trkpt>
      <trkpt lat="46.497744508087635" lon="8.467676863074303">
        <ele>2118.4000000000001</ele>
        <time>2018-08-05T15:00:14Z</time>
      </trkpt>
      <trkpt lat="46.497723804786801" lon="8.467681305482984">
        <ele>2118.4000000000001</ele>
        <time>2018-08-05T15:00:32Z</time>
      </trkpt>
      <trkpt lat="46.49772179313004" lon="8.467726400122047">
        <ele>2116.48</ele>
        <time>2018-08-05T15:00:42Z</time>
      </trkpt>
      <trkpt lat="46.497740065678954" lon="8.467811560258269">
        <ele>2114.5599999999999</ele>
        <time>2018-08-05T15:00:52Z</time>
      </trkpt>
      <trkpt lat="46.497742999345064" lon="8.467821450904012">
        <ele>2114.0799999999999</ele>
        <time>2018-08-05T15:00:54Z</time>
      </trkpt>
      <trkpt lat="46.497750207781792" lon="8.467876855283976">
        <ele>2112.6300000000001</ele>
        <time>2018-08-05T15:01:03Z</time>
      </trkpt>
      <trkpt lat="46.497740484774113" lon="8.467963691800833">
        <ele>2110.71</ele>
        <time>2018-08-05T15:01:13Z</time>
      </trkpt>
      <trkpt lat="46.497687343508005" lon="8.467945167794824">
        <ele>2108.3099999999999</ele>
        <time>2018-08-05T15:01:22Z</time>
      </trkpt>
      <trkpt lat="46.497642751783133" lon="8.46793326549232">
        <ele>2106.3899999999999</ele>
        <time>2018-08-05T15:01:31Z</time>
      </trkpt>
      <trkpt lat="46.49764358997345" lon="8.467974588274956">
        <ele>2104.9400000000001</ele>
        <time>2018-08-05T15:01:36Z</time>
      </trkpt>
      <trkpt lat="46.497597238048911" lon="8.467960087582469">
        <ele>2103.5</ele>
        <time>2018-08-05T15:01:44Z</time>
      </trkpt>
      <trkpt lat="46.497561279684305" lon="8.467986909672618">
        <ele>2101.0999999999999</ele>
        <time>2018-08-05T15:01:53Z</time>
      </trkpt>
      <trkpt lat="46.497548371553421" lon="8.46802806481719">
        <ele>2100.1399999999999</ele>
        <time>2018-08-05T15:01:57Z</time>
      </trkpt>
      <trkpt lat="46.497495817020535" lon="8.467999817803502">
        <ele>2097.25</ele>
        <time>2018-08-05T15:02:07Z</time>
      </trkpt>
      <trkpt lat="46.497462205588818" lon="8.46791323274374">
        <ele>2094.8499999999999</ele>
        <time>2018-08-05T15:02:18Z</time>
      </trkpt>
      <trkpt lat="46.497443178668618" lon="8.467819103971124">
        <ele>2093.8899999999999</ele>
        <time>2018-08-05T15:02:28Z</time>
      </trkpt>
      <trkpt lat="46.497418116778135" lon="8.467830754816532">
        <ele>2092.9299999999998</ele>
        <time>2018-08-05T15:02:33Z</time>
      </trkpt>
      <trkpt lat="46.497399341315031" lon="8.467801585793495">
        <ele>2090.52</ele>
        <time>2018-08-05T15:02:38Z</time>
      </trkpt>
      <trkpt lat="46.497356509789824" lon="8.467840142548084">
        <ele>2089.5599999999999</ele>
        <time>2018-08-05T15:02:48Z</time>
      </trkpt>
      <trkpt lat="46.497332286089659" lon="8.467783145606518">
        <ele>2087.6399999999999</ele>
        <time>2018-08-05T15:02:58Z</time>
      </trkpt>
      <trkpt lat="46.49728886783123" lon="8.467738972976804">
        <ele>2085.2399999999998</ele>
        <time>2018-08-05T15:03:07Z</time>
      </trkpt>
      <trkpt lat="46.497242096811533" lon="8.467697817832232">
        <ele>2083.79</ele>
        <time>2018-08-05T15:03:16Z</time>
      </trkpt>
      <trkpt lat="46.497228601947427" lon="8.467732518911362">
        <ele>2081.8699999999999</ele>
        <time>2018-08-05T15:03:25Z</time>
      </trkpt>
      <trkpt lat="46.497217873111367" lon="8.467769399285317">
        <ele>2080.4299999999998</ele>
        <time>2018-08-05T15:03:35Z</time>
      </trkpt>
      <trkpt lat="46.497172946110368" lon="8.467765124514699">
        <ele>2078.5100000000002</ele>
        <time>2018-08-05T15:03:43Z</time>
      </trkpt>
      <trkpt lat="46.497148890048265" lon="8.46773293800652">
        <ele>2077.0700000000002</ele>
        <time>2018-08-05T15:03:50Z</time>
      </trkpt>
      <trkpt lat="46.497089462354779" lon="8.46770360134542">
        <ele>2075.1399999999999</ele>
        <time>2018-08-05T15:03:59Z</time>
      </trkpt>
      <trkpt lat="46.497040009126067" lon="8.46768063493073">
        <ele>2073.2199999999998</ele>
        <time>2018-08-05T15:04:08Z</time>
      </trkpt>
      <trkpt lat="46.497060460969806" lon="8.467727489769459">
        <ele>2071.7800000000002</ele>
        <time>2018-08-05T15:04:17Z</time>
      </trkpt>
      <trkpt lat="46.497048642486334" lon="8.467835364863277">
        <ele>2069.3800000000001</ele>
        <time>2018-08-05T15:04:27Z</time>
      </trkpt>
      <trkpt lat="46.497025843709707" lon="8.467944664880633">
        <ele>2067.9299999999998</ele>
        <time>2018-08-05T15:04:38Z</time>
      </trkpt>
      <trkpt lat="46.497008576989174" lon="8.468042062595487">
        <ele>2067.4499999999998</ele>
        <time>2018-08-05T15:04:47Z</time>
      </trkpt>
      <trkpt lat="46.49700254201889" lon="8.468172820284963">
        <ele>2066.4899999999998</ele>
        <time>2018-08-05T15:04:58Z</time>
      </trkpt>
      <trkpt lat="46.496988041326404" lon="8.468209030106664">
        <ele>2066.0100000000002</ele>
        <time>2018-08-05T15:05:01Z</time>
      </trkpt>
      <trkpt lat="46.49697077460587" lon="8.468265356495976">
        <ele>2066.0100000000002</ele>
        <time>2018-08-05T15:05:05Z</time>
      </trkpt>
      <trkpt lat="46.496957112103701" lon="8.468289999291301">
        <ele>2066.0100000000002</ele>
        <time>2018-08-05T15:05:07Z</time>
      </trkpt>
      <trkpt lat="46.496930960565805" lon="8.468448836356401">
        <ele>2065.0500000000002</ele>
        <time>2018-08-05T15:05:19Z</time>
      </trkpt>
      <trkpt lat="46.496906569227576" lon="8.468557214364409">
        <ele>2063.1300000000001</ele>
        <time>2018-08-05T15:05:30Z</time>
      </trkpt>
      <trkpt lat="46.496882680803537" lon="8.468667855486274">
        <ele>2060.7199999999998</ele>
        <time>2018-08-05T15:05:42Z</time>
      </trkpt>
      <trkpt lat="46.496869185939431" lon="8.468725187703967">
        <ele>2059.7600000000002</ele>
        <time>2018-08-05T15:05:47Z</time>
      </trkpt>
      <trkpt lat="46.496871532872319" lon="8.468811521306634">
        <ele>2059.2800000000002</ele>
        <time>2018-08-05T15:05:53Z</time>
      </trkpt>
      <trkpt lat="46.496826354414225" lon="8.468913780525327">
        <ele>2057.8400000000001</ele>
        <time>2018-08-05T15:06:03Z</time>
      </trkpt>
      <trkpt lat="46.496786372736096" lon="8.468998605385423">
        <ele>2056.8800000000001</ele>
        <time>2018-08-05T15:06:14Z</time>
      </trkpt>
      <trkpt lat="46.496723592281342" lon="8.469026768580079">
        <ele>2055.4400000000001</ele>
        <time>2018-08-05T15:06:24Z</time>
      </trkpt>
      <trkpt lat="46.496666260063648" lon="8.469117879867554">
        <ele>2053.0300000000002</ele>
        <time>2018-08-05T15:06:35Z</time>
      </trkpt>
      <trkpt lat="46.496619824320078" lon="8.469183845445514">
        <ele>2051.5900000000001</ele>
        <time>2018-08-05T15:06:44Z</time>
      </trkpt>
      <trkpt lat="46.49658671580255" lon="8.469235645607114">
        <ele>2051.1100000000001</ele>
        <time>2018-08-05T15:06:50Z</time>
      </trkpt>
      <trkpt lat="46.496513374149799" lon="8.469321308657527">
        <ele>2050.1500000000001</ele>
        <time>2018-08-05T15:07:01Z</time>
      </trkpt>
      <trkpt lat="46.496454700827599" lon="8.469384675845504">
        <ele>2049.1900000000001</ele>
        <time>2018-08-05T15:07:10Z</time>
      </trkpt>
      <trkpt lat="46.496384292840958" lon="8.469396578148007">
        <ele>2047.75</ele>
        <time>2018-08-05T15:07:20Z</time>
      </trkpt>
      <trkpt lat="46.496298378333449" lon="8.469416024163365">
        <ele>2045.3399999999999</ele>
        <time>2018-08-05T15:07:30Z</time>
      </trkpt>
      <trkpt lat="46.496207686141133" lon="8.469449635595083">
        <ele>2042.9400000000001</ele>
        <time>2018-08-05T15:07:42Z</time>
      </trkpt>
      <trkpt lat="46.49620114825666" lon="8.469452066347003">
        <ele>2042.9400000000001</ele>
        <time>2018-08-05T15:07:43Z</time>
      </trkpt>
      <trkpt lat="46.496125878766179" lon="8.469517361372709">
        <ele>2041.5</ele>
        <time>2018-08-05T15:07:54Z</time>
      </trkpt>
      <trkpt lat="46.496078856289387" lon="8.469550386071205">
        <ele>2040.54</ele>
        <time>2018-08-05T15:08:01Z</time>
      </trkpt>
      <trkpt lat="46.496008448302746" lon="8.46958240494132">
        <ele>2038.6099999999999</ele>
        <time>2018-08-05T15:08:12Z</time>
      </trkpt>
      <trkpt lat="46.495975675061345" lon="8.46963370218873">
        <ele>2037.1700000000001</ele>
        <time>2018-08-05T15:08:20Z</time>
      </trkpt>
      <trkpt lat="46.495953127741814" lon="8.469667816534638">
        <ele>2036.21</ele>
        <time>2018-08-05T15:08:25Z</time>
      </trkpt>
      <trkpt lat="46.495897639542818" lon="8.46974803134799">
        <ele>2035.25</ele>
        <time>2018-08-05T15:08:34Z</time>
      </trkpt>
      <trkpt lat="46.4958381280303" lon="8.469848614186049">
        <ele>2035.25</ele>
        <time>2018-08-05T15:08:45Z</time>
      </trkpt>
      <trkpt lat="46.495802756398916" lon="8.469958500936627">
        <ele>2034.77</ele>
        <time>2018-08-05T15:08:55Z</time>
      </trkpt>
      <trkpt lat="46.495764283463359" lon="8.470072662457824">
        <ele>2033.8099999999999</ele>
        <time>2018-08-05T15:09:04Z</time>
      </trkpt>
      <trkpt lat="46.495750201866031" lon="8.470096383243799">
        <ele>2033.8099999999999</ele>
        <time>2018-08-05T15:09:07Z</time>
      </trkpt>
      <trkpt lat="46.495735449716449" lon="8.470132928341627">
        <ele>2033.8099999999999</ele>
        <time>2018-08-05T15:09:12Z</time>
      </trkpt>
      <trkpt lat="46.49570376612246" lon="8.470198391005397">
        <ele>2033.3299999999999</ele>
        <time>2018-08-05T15:09:19Z</time>
      </trkpt>
      <trkpt lat="46.495673675090075" lon="8.470234433189035">
        <ele>2033.3299999999999</ele>
        <time>2018-08-05T15:09:23Z</time>
      </trkpt>
      <trkpt lat="46.495607206597924" lon="8.470336860045791">
        <ele>2031.8800000000001</ele>
        <time>2018-08-05T15:09:34Z</time>
      </trkpt>
      <trkpt lat="46.495563369244337" lon="8.470418835058808">
        <ele>2030.9200000000001</ele>
        <time>2018-08-05T15:09:43Z</time>
      </trkpt>
      <trkpt lat="46.49554199539125" lon="8.470486644655466">
        <ele>2029.48</ele>
        <time>2018-08-05T15:09:50Z</time>
      </trkpt>
      <trkpt lat="46.495528751984239" lon="8.470501648262143">
        <ele>2029.48</ele>
        <time>2018-08-05T15:09:52Z</time>
      </trkpt>
      <trkpt lat="46.495482986792922" lon="8.470539450645447">
        <ele>2029.48</ele>
        <time>2018-08-05T15:10:00Z</time>
      </trkpt>
      <trkpt lat="46.495414339005947" lon="8.470598291605711">
        <ele>2028.52</ele>
        <time>2018-08-05T15:10:11Z</time>
      </trkpt>
      <trkpt lat="46.495343679562211" lon="8.470647409558296">
        <ele>2027.0799999999999</ele>
        <time>2018-08-05T15:10:21Z</time>
      </trkpt>
      <trkpt lat="46.495334710925817" lon="8.470651935786009">
        <ele>2027.0799999999999</ele>
        <time>2018-08-05T15:10:22Z</time>
      </trkpt>
      <trkpt lat="46.495316522195935" lon="8.470659144222736">
        <ele>2026.5999999999999</ele>
        <time>2018-08-05T15:10:24Z</time>
      </trkpt>
      <trkpt lat="46.49525566957891" lon="8.470696024596691">
        <ele>2025.1500000000001</ele>
        <time>2018-08-05T15:10:33Z</time>
      </trkpt>
      <trkpt lat="46.495207389816642" lon="8.470704238861799">
        <ele>2023.71</ele>
        <time>2018-08-05T15:10:41Z</time>
      </trkpt>
      <trkpt lat="46.49515014141798" lon="8.470789566636086">
        <ele>2023.71</ele>
        <time>2018-08-05T15:10:51Z</time>
      </trkpt>
      <trkpt lat="46.495131533592939" lon="8.470784118399024">
        <ele>2023.71</ele>
        <time>2018-08-05T15:11:04Z</time>
      </trkpt>
      <trkpt lat="46.495104962959886" lon="8.470806162804365">
        <ele>2023.23</ele>
        <time>2018-08-05T15:11:16Z</time>
      </trkpt>
      <trkpt lat="46.495051151141524" lon="8.470858130604029">
        <ele>2021.79</ele>
        <time>2018-08-05T15:11:26Z</time>
      </trkpt>
      <trkpt lat="46.494999434798956" lon="8.470953097566962">
        <ele>2021.3099999999999</ele>
        <time>2018-08-05T15:11:37Z</time>
      </trkpt>
      <trkpt lat="46.494941348209977" lon="8.470999533310533">
        <ele>2020.3499999999999</ele>
        <time>2018-08-05T15:11:45Z</time>
      </trkpt>
      <trkpt lat="46.494881585240364" lon="8.471022835001349">
        <ele>2019.8699999999999</ele>
        <time>2018-08-05T15:11:53Z</time>
      </trkpt>
      <trkpt lat="46.49478024803102" lon="8.47100380808115">
        <ele>2018.4300000000001</ele>
        <time>2018-08-05T15:12:05Z</time>
      </trkpt>
      <trkpt lat="46.494755689054728" lon="8.471035659313202">
        <ele>2017.9400000000001</ele>
        <time>2018-08-05T15:12:08Z</time>
      </trkpt>
      <trkpt lat="46.494710259139538" lon="8.471069103106856">
        <ele>2016.98</ele>
        <time>2018-08-05T15:12:14Z</time>
      </trkpt>
      <trkpt lat="46.494601462036371" lon="8.471096428111196">
        <ele>2016.02</ele>
        <time>2018-08-05T15:12:26Z</time>
      </trkpt>
      <trkpt lat="46.494516720995307" lon="8.471177900210023">
        <ele>2014.0999999999999</ele>
        <time>2018-08-05T15:12:38Z</time>
      </trkpt>
      <trkpt lat="46.494482941925526" lon="8.471273956820369">
        <ele>2013.1400000000001</ele>
        <time>2018-08-05T15:12:48Z</time>
      </trkpt>
      <trkpt lat="46.494412701576948" lon="8.471299940720201">
        <ele>2012.1800000000001</ele>
        <time>2018-08-05T15:12:58Z</time>
      </trkpt>
      <trkpt lat="46.494382778182626" lon="8.471252750605345">
        <ele>2009.29</ele>
        <time>2018-08-05T15:13:07Z</time>
      </trkpt>
      <trkpt lat="46.494391495361924" lon="8.471294492483139">
        <ele>2009.29</ele>
        <time>2018-08-05T15:13:18Z</time>
      </trkpt>
      <trkpt lat="46.494382526725531" lon="8.471311759203672">
        <ele>2008.3299999999999</ele>
        <time>2018-08-05T15:13:28Z</time>
      </trkpt>
      <trkpt lat="46.494384119287133" lon="8.471311256289482">
        <ele>2008.3299999999999</ele>
        <time>2018-08-05T15:13:46Z</time>
      </trkpt>
      <trkpt lat="46.494376743212342" lon="8.471311340108514">
        <ele>2008.3299999999999</ele>
        <time>2018-08-05T15:14:11Z</time>
      </trkpt>
      <trkpt lat="46.494375234469771" lon="8.471284434199333">
        <ele>2007.8499999999999</ele>
        <time>2018-08-05T15:14:45Z</time>
      </trkpt>
      <trkpt lat="46.494388813152909" lon="8.471309747546911">
        <ele>2007.3699999999999</ele>
        <time>2018-08-05T15:15:08Z</time>
      </trkpt>
      <trkpt lat="46.494391579180956" lon="8.471320979297161">
        <ele>2007.3699999999999</ele>
        <time>2018-08-05T15:15:38Z</time>
      </trkpt>
      <trkpt lat="46.494385879486799" lon="8.471309915184975">
        <ele>2007.3699999999999</ele>
        <time>2018-08-05T15:16:02Z</time>
      </trkpt>
      <trkpt lat="46.494352351874113" lon="8.471314273774624">
        <ele>2007.3699999999999</ele>
        <time>2018-08-05T15:16:28Z</time>
      </trkpt>
      <trkpt lat="46.494347071275115" lon="8.471326511353254">
        <ele>2006.4100000000001</ele>
        <time>2018-08-05T15:16:44Z</time>
      </trkpt>
      <trkpt lat="46.494387974962592" lon="8.471300275996327">
        <ele>2006.4100000000001</ele>
        <time>2018-08-05T15:17:08Z</time>
      </trkpt>
      <trkpt lat="46.494382442906499" lon="8.471302622929215">
        <ele>2006.8900000000001</ele>
        <time>2018-08-05T15:17:31Z</time>
      </trkpt>
      <trkpt lat="46.494402391836047" lon="8.471306562423706">
        <ele>2006.8900000000001</ele>
        <time>2018-08-05T15:17:49Z</time>
      </trkpt>
      <trkpt lat="46.49440641514957" lon="8.471314022317529">
        <ele>2006.4100000000001</ele>
        <time>2018-08-05T15:18:06Z</time>
      </trkpt>
      <trkpt lat="46.494383197277784" lon="8.471288038417697">
        <ele>2006.4100000000001</ele>
        <time>2018-08-05T15:18:22Z</time>
      </trkpt>
      <trkpt lat="46.494371630251408" lon="8.471317710354924">
        <ele>2005.9300000000001</ele>
        <time>2018-08-05T15:18:34Z</time>
      </trkpt>
      <trkpt lat="46.494359979405999" lon="8.471350651234388">
        <ele>2005.9300000000001</ele>
        <time>2018-08-05T15:19:05Z</time>
      </trkpt>
      <trkpt lat="46.494370372965932" lon="8.471341095864773">
        <ele>2005.9300000000001</ele>
        <time>2018-08-05T15:19:30Z</time>
      </trkpt>
      <trkpt lat="46.494343467056751" lon="8.471360206604004">
        <ele>2005.45</ele>
        <time>2018-08-05T15:19:52Z</time>
      </trkpt>
      <trkpt lat="46.494345143437386" lon="8.471397422254086">
        <ele>2005.9300000000001</ele>
        <time>2018-08-05T15:20:18Z</time>
      </trkpt>
      <trkpt lat="46.494326619431376" lon="8.471387531608343">
        <ele>2005.45</ele>
        <time>2018-08-05T15:20:44Z</time>
      </trkpt>
      <trkpt lat="46.494331648573279" lon="8.47138836979866">
        <ele>2005.45</ele>
        <time>2018-08-05T15:21:07Z</time>
      </trkpt>
      <trkpt lat="46.494338605552912" lon="8.471382586285472">
        <ele>2005.45</ele>
        <time>2018-08-05T15:21:39Z</time>
      </trkpt>
      <trkpt lat="46.494335168972611" lon="8.471371103078127">
        <ele>2005.45</ele>
        <time>2018-08-05T15:22:10Z</time>
      </trkpt>
      <trkpt lat="46.494333911687136" lon="8.471404295414686">
        <ele>2005.45</ele>
        <time>2018-08-05T15:22:34Z</time>
      </trkpt>
      <trkpt lat="46.494357464835048" lon="8.471362553536892">
        <ele>2004.97</ele>
        <time>2018-08-05T15:22:57Z</time>
      </trkpt>
      <trkpt lat="46.494354363530874" lon="8.47136540338397">
        <ele>2005.45</ele>
        <time>2018-08-05T15:23:20Z</time>
      </trkpt>
      <trkpt lat="46.494354028254747" lon="8.471391890197992">
        <ele>2005.45</ele>
        <time>2018-08-05T15:23:41Z</time>
      </trkpt>
      <trkpt lat="46.494352100417018" lon="8.471351908519864">
        <ele>2005.45</ele>
        <time>2018-08-05T15:24:02Z</time>
      </trkpt>
      <trkpt lat="46.494368864223361" lon="8.471338329836726">
        <ele>2005.45</ele>
        <time>2018-08-05T15:24:27Z</time>
      </trkpt>
      <trkpt lat="46.494373641908169" lon="8.471341682597995">
        <ele>2005.45</ele>
        <time>2018-08-05T15:24:47Z</time>
      </trkpt>
      <trkpt lat="46.494356291368604" lon="8.471372025087476">
        <ele>2004.97</ele>
        <time>2018-08-05T15:25:11Z</time>
      </trkpt>
      <trkpt lat="46.494351765140891" lon="8.471361547708511">
        <ele>2005.45</ele>
        <time>2018-08-05T15:25:31Z</time>
      </trkpt>
      <trkpt lat="46.494334666058421" lon="8.471359452232719">
        <ele>2005.45</ele>
        <time>2018-08-05T15:25:56Z</time>
      </trkpt>
      <trkpt lat="46.494348412379622" lon="8.471327684819698">
        <ele>2004.97</ele>
        <time>2018-08-05T15:26:17Z</time>
      </trkpt>
      <trkpt lat="46.494380515068769" lon="8.471307149156928">
        <ele>2004.97</ele>
        <time>2018-08-05T15:26:45Z</time>
      </trkpt>
      <trkpt lat="46.49437079206109" lon="8.471312513574958">
        <ele>2004.97</ele>
        <time>2018-08-05T15:27:10Z</time>
      </trkpt>
      <trkpt lat="46.49433215148747" lon="8.471307903528214">
        <ele>2004.97</ele>
        <time>2018-08-05T15:27:37Z</time>
      </trkpt>
      <trkpt lat="46.494363751262426" lon="8.471337156370282">
        <ele>2004.49</ele>
        <time>2018-08-05T15:28:05Z</time>
      </trkpt>
      <trkpt lat="46.494357548654079" lon="8.471310753375292">
        <ele>2004.49</ele>
        <time>2018-08-05T15:28:27Z</time>
      </trkpt>
      <trkpt lat="46.494363667443395" lon="8.471297593787313">
        <ele>2004.49</ele>
        <time>2018-08-05T15:28:57Z</time>
      </trkpt>
      <trkpt lat="46.494357548654079" lon="8.471300359815359">
        <ele>2004.49</ele>
        <time>2018-08-05T15:29:24Z</time>
      </trkpt>
      <trkpt lat="46.494346149265766" lon="8.471324918791652">
        <ele>2004.49</ele>
        <time>2018-08-05T15:29:48Z</time>
      </trkpt>
      <trkpt lat="46.49434925056994" lon="8.47133120521903">
        <ele>2004.01</ele>
        <time>2018-08-05T15:30:17Z</time>
      </trkpt>
      <trkpt lat="46.494339695200324" lon="8.471327349543572">
        <ele>2003.52</ele>
        <time>2018-08-05T15:30:49Z</time>
      </trkpt>
      <trkpt lat="46.494337096810341" lon="8.471320141106844">
        <ele>2003.52</ele>
        <time>2018-08-05T15:31:06Z</time>
      </trkpt>
      <trkpt lat="46.494359811767936" lon="8.471323745325208">
        <ele>2003.52</ele>
        <time>2018-08-05T15:31:33Z</time>
      </trkpt>
      <trkpt lat="46.494345897808671" lon="8.471307652071118">
        <ele>2003.52</ele>
        <time>2018-08-05T15:31:55Z</time>
      </trkpt>
      <trkpt lat="46.494362074881792" lon="8.471327433362603">
        <ele>2003.52</ele>
        <time>2018-08-05T15:32:22Z</time>
      </trkpt>
      <trkpt lat="46.494345813989639" lon="8.471315698698163">
        <ele>2003.52</ele>
        <time>2018-08-05T15:32:53Z</time>
      </trkpt>
      <trkpt lat="46.494340281933546" lon="8.471309831365943">
        <ele>2003.04</ele>
        <time>2018-08-05T15:33:17Z</time>
      </trkpt>
      <trkpt lat="46.494359979405999" lon="8.471296168863773">
        <ele>2003.52</ele>
        <time>2018-08-05T15:33:39Z</time>
      </trkpt>
      <trkpt lat="46.494363332167268" lon="8.471309579908848">
        <ele>2003.52</ele>
        <time>2018-08-05T15:34:07Z</time>
      </trkpt>
      <trkpt lat="46.494344975799322" lon="8.471302036195993">
        <ele>2003.52</ele>
        <time>2018-08-05T15:34:31Z</time>
      </trkpt>
      <trkpt lat="46.494341874495149" lon="8.471320811659098">
        <ele>2003.52</ele>
        <time>2018-08-05T15:34:57Z</time>
      </trkpt>
      <trkpt lat="46.494354698807001" lon="8.471315028145909">
        <ele>2004.01</ele>
        <time>2018-08-05T15:35:28Z</time>
      </trkpt>
      <trkpt lat="46.494359141215682" lon="8.47131066955626">
        <ele>2004.01</ele>
        <time>2018-08-05T15:35:55Z</time>
      </trkpt>
      <trkpt lat="46.49435218423605" lon="8.47131016664207">
        <ele>2003.52</ele>
        <time>2018-08-05T15:36:16Z</time>
      </trkpt>
      <trkpt lat="46.494373809546232" lon="8.471319135278463">
        <ele>2003.52</ele>
        <time>2018-08-05T15:36:40Z</time>
      </trkpt>
      <trkpt lat="46.494369870051742" lon="8.471314357593656">
        <ele>2003.52</ele>
        <time>2018-08-05T15:37:04Z</time>
      </trkpt>
      <trkpt lat="46.494360063225031" lon="8.471318548545241">
        <ele>2003.52</ele>
        <time>2018-08-05T15:37:27Z</time>
      </trkpt>
      <trkpt lat="46.494343047961593" lon="8.471305472776294">
        <ele>2003.52</ele>
        <time>2018-08-05T15:37:48Z</time>
      </trkpt>
      <trkpt lat="46.49435319006443" lon="8.471312932670116">
        <ele>2003.52</ele>
        <time>2018-08-05T15:38:16Z</time>
      </trkpt>
      <trkpt lat="46.494334666058421" lon="8.471322488039732">
        <ele>2003.52</ele>
        <time>2018-08-05T15:38:44Z</time>
      </trkpt>
      <trkpt lat="46.494342377409339" lon="8.471311423927546">
        <ele>2003.52</ele>
        <time>2018-08-05T15:39:14Z</time>
      </trkpt>
      <trkpt lat="46.494344640523195" lon="8.47131117247045">
        <ele>2003.52</ele>
        <time>2018-08-05T15:39:41Z</time>
      </trkpt>
      <trkpt lat="46.494343215599656" lon="8.471298599615693">
        <ele>2003.52</ele>
        <time>2018-08-05T15:40:09Z</time>
      </trkpt>
      <trkpt lat="46.494349082931876" lon="8.471298767253757">
        <ele>2003.52</ele>
        <time>2018-08-05T15:40:34Z</time>
      </trkpt>
      <trkpt lat="46.494330475106835" lon="8.471317207440734">
        <ele>2003.52</ele>
        <time>2018-08-05T15:41:02Z</time>
      </trkpt>
      <trkpt lat="46.494330139830709" lon="8.471312178298831">
        <ele>2003.52</ele>
        <time>2018-08-05T15:41:31Z</time>
      </trkpt>
      <trkpt lat="46.494345981627703" lon="8.471290888264775">
        <ele>2003.52</ele>
        <time>2018-08-05T15:41:54Z</time>
      </trkpt>
      <trkpt lat="46.494337767362595" lon="8.4712930675596">
        <ele>2003.52</ele>
        <time>2018-08-05T15:42:12Z</time>
      </trkpt>
      <trkpt lat="46.494353609159589" lon="8.471293989568949">
        <ele>2004.01</ele>
        <time>2018-08-05T15:42:34Z</time>
      </trkpt>
      <trkpt lat="46.494361907243729" lon="8.471294408664107">
        <ele>2003.52</ele>
        <time>2018-08-05T15:42:59Z</time>
      </trkpt>
      <trkpt lat="46.494352100417018" lon="8.471308909356594">
        <ele>2003.52</ele>
        <time>2018-08-05T15:43:21Z</time>
      </trkpt>
      <trkpt lat="46.494341790676117" lon="8.471320057287812">
        <ele>2003.52</ele>
        <time>2018-08-05T15:43:43Z</time>
      </trkpt>
      <trkpt lat="46.494333660230041" lon="8.471316620707512">
        <ele>2004.01</ele>
        <time>2018-08-05T15:44:06Z</time>
      </trkpt>
      <trkpt lat="46.494330810382962" lon="8.471304215490818">
        <ele>2003.52</ele>
        <time>2018-08-05T15:44:26Z</time>
      </trkpt>
      <trkpt lat="46.494349418208003" lon="8.47131360322237">
        <ele>2003.52</ele>
        <time>2018-08-05T15:44:52Z</time>
      </trkpt>
      <trkpt lat="46.494348160922527" lon="8.471316955983639">
        <ele>2003.52</ele>
        <time>2018-08-05T15:45:10Z</time>
      </trkpt>
      <trkpt lat="46.494335168972611" lon="8.471324667334557">
        <ele>2003.52</ele>
        <time>2018-08-05T15:45:30Z</time>
      </trkpt>
      <trkpt lat="46.494343131780624" lon="8.471302287653089">
        <ele>2003.52</ele>
        <time>2018-08-05T15:45:50Z</time>
      </trkpt>
      <trkpt lat="46.494334163144231" lon="8.471308825537562">
        <ele>2003.52</ele>
        <time>2018-08-05T15:46:14Z</time>
      </trkpt>
      <trkpt lat="46.49433801881969" lon="8.471313184127212">
        <ele>2003.52</ele>
        <time>2018-08-05T15:46:38Z</time>
      </trkpt>
      <trkpt lat="46.494334833696485" lon="8.471313770860434">
        <ele>2003.52</ele>
        <time>2018-08-05T15:47:02Z</time>
      </trkpt>
      <trkpt lat="46.494360566139221" lon="8.471309412270784">
        <ele>2003.52</ele>
        <time>2018-08-05T15:47:30Z</time>
      </trkpt>
      <trkpt lat="46.494352519512177" lon="8.471334306523204">
        <ele>2003.52</ele>
        <time>2018-08-05T15:47:54Z</time>
      </trkpt>
      <trkpt lat="46.494350172579288" lon="8.471335815265775">
        <ele>2003.52</ele>
        <time>2018-08-05T15:48:22Z</time>
      </trkpt>
      <trkpt lat="46.494355369359255" lon="8.471319973468781">
        <ele>2003.52</ele>
        <time>2018-08-05T15:48:54Z</time>
      </trkpt>
      <trkpt lat="46.494340533390641" lon="8.471318045631051">
        <ele>2004.01</ele>
        <time>2018-08-05T15:49:29Z</time>
      </trkpt>
      <trkpt lat="46.494327122345567" lon="8.47131066955626">
        <ele>2004.01</ele>
        <time>2018-08-05T15:49:55Z</time>
      </trkpt>
      <trkpt lat="46.494344556704164" lon="8.471314944326878">
        <ele>2004.01</ele>
        <time>2018-08-05T15:50:20Z</time>
      </trkpt>
      <trkpt lat="46.494349669665098" lon="8.471335982903838">
        <ele>2004.01</ele>
        <time>2018-08-05T15:50:42Z</time>
      </trkpt>
      <trkpt lat="46.494333324953914" lon="8.471329947933555">
        <ele>2004.01</ele>
        <time>2018-08-05T15:51:10Z</time>
      </trkpt>
      <trkpt lat="46.494336426258087" lon="8.471303544938564">
        <ele>2004.01</ele>
        <time>2018-08-05T15:51:34Z</time>
      </trkpt>
      <trkpt lat="46.494334246963263" lon="8.471321733668447">
        <ele>2004.01</ele>
        <time>2018-08-05T15:52:04Z</time>
      </trkpt>
      <trkpt lat="46.494319913908839" lon="8.471338329836726">
        <ele>2003.04</ele>
        <time>2018-08-05T15:52:20Z</time>
      </trkpt>
      <trkpt lat="46.494320081546903" lon="8.47131846472621">
        <ele>2002.5599999999999</ele>
        <time>2018-08-05T15:52:33Z</time>
      </trkpt>
      <trkpt lat="46.494339611381292" lon="8.471348974853754">
        <ele>2002.5599999999999</ele>
        <time>2018-08-05T15:52:53Z</time>
      </trkpt>
      <trkpt lat="46.4943634159863" lon="8.471323661506176">
        <ele>2003.04</ele>
        <time>2018-08-05T15:53:05Z</time>
      </trkpt>
      <trkpt lat="46.494391411542892" lon="8.471306394785643">
        <ele>2004.01</ele>
        <time>2018-08-05T15:53:21Z</time>
      </trkpt>
      <trkpt lat="46.494375318288803" lon="8.471310837194324">
        <ele>2003.52</ele>
        <time>2018-08-05T15:53:35Z</time>
      </trkpt>
      <trkpt lat="46.494375402107835" lon="8.471306981518865">
        <ele>2003.52</ele>
        <time>2018-08-05T15:53:50Z</time>
      </trkpt>
      <trkpt lat="46.4943702891469" lon="8.471311591565609">
        <ele>2003.04</ele>
        <time>2018-08-05T15:54:03Z</time>
      </trkpt>
      <trkpt lat="46.494328211992979" lon="8.471322320401669">
        <ele>2002.5599999999999</ele>
        <time>2018-08-05T15:54:19Z</time>
      </trkpt>
      <trkpt lat="46.49431019090116" lon="8.471326930448413">
        <ele>2002.0799999999999</ele>
        <time>2018-08-05T15:54:48Z</time>
      </trkpt>
      <trkpt lat="46.494305748492479" lon="8.471322152763605">
        <ele>2002.0799999999999</ele>
        <time>2018-08-05T15:55:08Z</time>
      </trkpt>
      <trkpt lat="46.494320249184966" lon="8.471321817487478">
        <ele>2002.0799999999999</ele>
        <time>2018-08-05T15:55:37Z</time>
      </trkpt>
      <trkpt lat="46.49432728998363" lon="8.471320057287812">
        <ele>2002.0799999999999</ele>
        <time>2018-08-05T15:55:55Z</time>
      </trkpt>
      <trkpt lat="46.494328379631042" lon="8.471344448626041">
        <ele>2002.0799999999999</ele>
        <time>2018-08-05T15:56:08Z</time>
      </trkpt>
      <trkpt lat="46.494352770969272" lon="8.471333216875792">
        <ele>2002.5599999999999</ele>
        <time>2018-08-05T15:56:33Z</time>
      </trkpt>
      <trkpt lat="46.494346233084798" lon="8.471342520788312">
        <ele>2003.04</ele>
        <time>2018-08-05T15:56:40Z</time>
      </trkpt>
      <trkpt lat="46.49433508515358" lon="8.471346208825707">
        <ele>2002.5599999999999</ele>
        <time>2018-08-05T15:56:47Z</time>
      </trkpt>
      <trkpt lat="46.494330558925867" lon="8.471328355371952">
        <ele>2003.04</ele>
        <time>2018-08-05T15:57:02Z</time>
      </trkpt>
      <trkpt lat="46.494324523955584" lon="8.471353333443403">
        <ele>2003.04</ele>
        <time>2018-08-05T15:57:12Z</time>
      </trkpt>
      <trkpt lat="46.494328379631042" lon="8.47139717079699">
        <ele>2002.0799999999999</ele>
        <time>2018-08-05T15:57:15Z</time>
      </trkpt>
      <trkpt lat="46.494309268891811" lon="8.471539076417685">
        <ele>2001.5999999999999</ele>
        <time>2018-08-05T15:57:26Z</time>
      </trkpt>
      <trkpt lat="46.49429745040834" lon="8.471592972055078">
        <ele>2001.1199999999999</ele>
        <time>2018-08-05T15:57:30Z</time>
      </trkpt>
      <trkpt lat="46.494182450696826" lon="8.471666648983955">
        <ele>1998.72</ele>
        <time>2018-08-05T15:57:42Z</time>
      </trkpt>
      <trkpt lat="46.494126124307513" lon="8.471713168546557">
        <ele>1997.76</ele>
        <time>2018-08-05T15:57:51Z</time>
      </trkpt>
      <trkpt lat="46.494088154286146" lon="8.471783576533198">
        <ele>1995.8299999999999</ele>
        <time>2018-08-05T15:58:00Z</time>
      </trkpt>
      <trkpt lat="46.494052531197667" lon="8.471837723627687">
        <ele>1995.3499999999999</ele>
        <time>2018-08-05T15:58:10Z</time>
      </trkpt>
      <trkpt lat="46.493981955572963" lon="8.471933864057064">
        <ele>1992.95</ele>
        <time>2018-08-05T15:58:20Z</time>
      </trkpt>
      <trkpt lat="46.493931328877807" lon="8.472100161015987">
        <ele>1990.0699999999999</ele>
        <time>2018-08-05T15:58:33Z</time>
      </trkpt>
      <trkpt lat="46.49388799443841" lon="8.472170904278755">
        <ele>1988.6199999999999</ele>
        <time>2018-08-05T15:58:43Z</time>
      </trkpt>
      <trkpt lat="46.493815993890166" lon="8.472289675846696">
        <ele>1985.74</ele>
        <time>2018-08-05T15:58:55Z</time>
      </trkpt>
      <trkpt lat="46.493784561753273" lon="8.472374835982919">
        <ele>1984.78</ele>
        <time>2018-08-05T15:59:06Z</time>
      </trkpt>
      <trkpt lat="46.493772407993674" lon="8.472413644194603">
        <ele>1983.8199999999999</ele>
        <time>2018-08-05T15:59:18Z</time>
      </trkpt>
      <trkpt lat="46.493704849854112" lon="8.472407944500446">
        <ele>1981.9000000000001</ele>
        <time>2018-08-05T15:59:30Z</time>
      </trkpt>
      <trkpt lat="46.493723625317216" lon="8.472452033311129">
        <ele>1979.49</ele>
        <time>2018-08-05T15:59:40Z</time>
      </trkpt>
      <trkpt lat="46.493677524849772" lon="8.472485477104783">
        <ele>1978.53</ele>
        <time>2018-08-05T15:59:50Z</time>
      </trkpt>
      <trkpt lat="46.493657659739256" lon="8.472504923120141">
        <ele>1977.0899999999999</ele>
        <time>2018-08-05T15:59:59Z</time>
      </trkpt>
      <trkpt lat="46.493602422997355" lon="8.472509952262044">
        <ele>1975.6500000000001</ele>
        <time>2018-08-05T16:00:08Z</time>
      </trkpt>
      <trkpt lat="46.493556741625071" lon="8.472514394670725">
        <ele>1973.24</ele>
        <time>2018-08-05T16:00:21Z</time>
      </trkpt>
      <trkpt lat="46.493538552895188" lon="8.472556974738836">
        <ele>1971.8</ele>
        <time>2018-08-05T16:00:32Z</time>
      </trkpt>
      <trkpt lat="46.493537882342935" lon="8.47256644628942">
        <ele>1971.3199999999999</ele>
        <time>2018-08-05T16:00:33Z</time>
      </trkpt>
      <trkpt lat="46.493459679186344" lon="8.472553370520473">
        <ele>1969.4000000000001</ele>
        <time>2018-08-05T16:00:44Z</time>
      </trkpt>
      <trkpt lat="46.493436209857464" lon="8.47254591062665">
        <ele>1968.4400000000001</ele>
        <time>2018-08-05T16:00:53Z</time>
      </trkpt>
      <trkpt lat="46.493420200422406" lon="8.472568960860372">
        <ele>1966.99</ele>
        <time>2018-08-05T16:01:05Z</time>
      </trkpt>
      <trkpt lat="46.493383152410388" lon="8.472581030800939">
        <ele>1964.5899999999999</ele>
        <time>2018-08-05T16:01:18Z</time>
      </trkpt>
      <trkpt lat="46.493356414139271" lon="8.472587820142508">
        <ele>1964.1099999999999</ele>
        <time>2018-08-05T16:01:25Z</time>
      </trkpt>
      <trkpt lat="46.493340907618403" lon="8.47258547320962">
        <ele>1963.1500000000001</ele>
        <time>2018-08-05T16:01:35Z</time>
      </trkpt>
      <trkpt lat="46.493305033072829" lon="8.472659988328815">
        <ele>1960.75</ele>
        <time>2018-08-05T16:01:44Z</time>
      </trkpt>
      <trkpt lat="46.493244180455804" lon="8.472693767398596">
        <ele>1957.8599999999999</ele>
        <time>2018-08-05T16:01:52Z</time>
      </trkpt>
      <trkpt lat="46.493231188505888" lon="8.472719248384237">
        <ele>1956.4200000000001</ele>
        <time>2018-08-05T16:01:56Z</time>
      </trkpt>
      <trkpt lat="46.493217358365655" lon="8.472728384658694">
        <ele>1955.9400000000001</ele>
        <time>2018-08-05T16:01:58Z</time>
      </trkpt>
      <trkpt lat="46.493154326453805" lon="8.472753781825304">
        <ele>1953.54</ele>
        <time>2018-08-05T16:02:08Z</time>
      </trkpt>
      <trkpt lat="46.493121804669499" lon="8.472791165113449">
        <ele>1950.1700000000001</ele>
        <time>2018-08-05T16:02:15Z</time>
      </trkpt>
      <trkpt lat="46.493074027821422" lon="8.472807761281729">
        <ele>1948.25</ele>
        <time>2018-08-05T16:02:20Z</time>
      </trkpt>
      <trkpt lat="46.493016108870506" lon="8.472782783210278">
        <ele>1945.3599999999999</ele>
        <time>2018-08-05T16:02:29Z</time>
      </trkpt>
      <trkpt lat="46.493008146062493" lon="8.472804659977555">
        <ele>1943.9200000000001</ele>
        <time>2018-08-05T16:02:32Z</time>
      </trkpt>
      <trkpt lat="46.492988113313913" lon="8.472786722704768">
        <ele>1942.48</ele>
        <time>2018-08-05T16:02:37Z</time>
      </trkpt>
      <trkpt lat="46.492996411398053" lon="8.472791668027639">
        <ele>1942</ele>
        <time>2018-08-05T16:02:49Z</time>
      </trkpt>
      <trkpt lat="46.493008397519588" lon="8.472838774323463">
        <ele>1941.04</ele>
        <time>2018-08-05T16:02:54Z</time>
      </trkpt>
      <trkpt lat="46.493012420833111" lon="8.472867859527469">
        <ele>1940.5599999999999</ele>
        <time>2018-08-05T16:02:56Z</time>
      </trkpt>
      <trkpt lat="46.493043266236782" lon="8.472981099039316">
        <ele>1938.6400000000001</ele>
        <time>2018-08-05T16:03:06Z</time>
      </trkpt>
      <trkpt lat="46.493037650361657" lon="8.473015716299415">
        <ele>1938.1600000000001</ele>
        <time>2018-08-05T16:03:09Z</time>
      </trkpt>
      <trkpt lat="46.493070423603058" lon="8.473158376291394">
        <ele>1935.27</ele>
        <time>2018-08-05T16:03:21Z</time>
      </trkpt>
      <trkpt lat="46.493096156045794" lon="8.4731908980757">
        <ele>1934.3099999999999</ele>
        <time>2018-08-05T16:03:25Z</time>
      </trkpt>
      <trkpt lat="46.493124570697546" lon="8.473221743479371">
        <ele>1933.3499999999999</ele>
        <time>2018-08-05T16:03:29Z</time>
      </trkpt>
      <trkpt lat="46.493144519627094" lon="8.473226940259337">
        <ele>1932.8699999999999</ele>
        <time>2018-08-05T16:03:31Z</time>
      </trkpt>
      <trkpt lat="46.493127672001719" lon="8.473289469256997">
        <ele>1932.3900000000001</ele>
        <time>2018-08-05T16:03:35Z</time>
      </trkpt>
      <trkpt lat="46.493095317855477" lon="8.473371276631951">
        <ele>1930.95</ele>
        <time>2018-08-05T16:03:41Z</time>
      </trkpt>
      <trkpt lat="46.49309154599905" lon="8.473419388756156">
        <ele>1929.98</ele>
        <time>2018-08-05T16:03:44Z</time>
      </trkpt>
      <trkpt lat="46.493007224053144" lon="8.473403798416257">
        <ele>1928.54</ele>
        <time>2018-08-05T16:03:51Z</time>
      </trkpt>
      <trkpt lat="46.492866994813085" lon="8.473362307995558">
        <ele>1925.1800000000001</ele>
        <time>2018-08-05T16:04:04Z</time>
      </trkpt>
      <trkpt lat="46.492843106389046" lon="8.473372533917427">
        <ele>1924.7</ele>
        <time>2018-08-05T16:04:06Z</time>
      </trkpt>
      <trkpt lat="46.492710001766682" lon="8.473431877791882">
        <ele>1922.29</ele>
        <time>2018-08-05T16:04:18Z</time>
      </trkpt>
      <trkpt lat="46.492660632357001" lon="8.473420729860663">
        <ele>1921.3299999999999</ele>
        <time>2018-08-05T16:04:23Z</time>
      </trkpt>
      <trkpt lat="46.492585530504584" lon="8.473258204758167">
        <ele>1917.49</ele>
        <time>2018-08-05T16:04:35Z</time>
      </trkpt>
      <trkpt lat="46.492578322067857" lon="8.473136331886053">
        <ele>1915.5599999999999</ele>
        <time>2018-08-05T16:04:43Z</time>
      </trkpt>
      <trkpt lat="46.492563067004085" lon="8.473053937777877">
        <ele>1914.1199999999999</ele>
        <time>2018-08-05T16:04:50Z</time>
      </trkpt>
      <trkpt lat="46.49253448471427" lon="8.473143456503749">
        <ele>1912.6800000000001</ele>
        <time>2018-08-05T16:04:56Z</time>
      </trkpt>
      <trkpt lat="46.492453012615442" lon="8.473306735977531">
        <ele>1909.8</ele>
        <time>2018-08-05T16:05:08Z</time>
      </trkpt>
      <trkpt lat="46.492464495822787" lon="8.47344839014113">
        <ele>1907.8699999999999</ele>
        <time>2018-08-05T16:05:17Z</time>
      </trkpt>
      <trkpt lat="46.492464663460851" lon="8.473492227494717">
        <ele>1906.9100000000001</ele>
        <time>2018-08-05T16:05:20Z</time>
      </trkpt>
      <trkpt lat="46.492470614612103" lon="8.473556851968169">
        <ele>1905.95</ele>
        <time>2018-08-05T16:05:25Z</time>
      </trkpt>
      <trkpt lat="46.492409091442823" lon="8.473482839763165">
        <ele>1904.51</ele>
        <time>2018-08-05T16:05:31Z</time>
      </trkpt>
      <trkpt lat="46.492389729246497" lon="8.473450569435954">
        <ele>1903.55</ele>
        <time>2018-08-05T16:05:34Z</time>
      </trkpt>
      <trkpt lat="46.492351423949003" lon="8.473389381542802">
        <ele>1902.1099999999999</ele>
        <time>2018-08-05T16:05:39Z</time>
      </trkpt>
      <trkpt lat="46.492267604917288" lon="8.473336491733789">
        <ele>1900.1800000000001</ele>
        <time>2018-08-05T16:05:47Z</time>
      </trkpt>
      <trkpt lat="46.492200130596757" lon="8.473308915272355">
        <ele>1898.74</ele>
        <time>2018-08-05T16:05:53Z</time>
      </trkpt>
      <trkpt lat="46.492205411195755" lon="8.473212104290724">
        <ele>1896.8199999999999</ele>
        <time>2018-08-05T16:05:58Z</time>
      </trkpt>
      <trkpt lat="46.492272214964032" lon="8.473010016605258">
        <ele>1893.9300000000001</ele>
        <time>2018-08-05T16:06:10Z</time>
      </trkpt>
      <trkpt lat="46.492278082296252" lon="8.472969615831971">
        <ele>1892.97</ele>
        <time>2018-08-05T16:06:12Z</time>
      </trkpt>
      <trkpt lat="46.492248913273215" lon="8.472821675240994">
        <ele>1890.5699999999999</ele>
        <time>2018-08-05T16:06:23Z</time>
      </trkpt>
      <trkpt lat="46.492241369560361" lon="8.472682787105441">
        <ele>1888.6500000000001</ele>
        <time>2018-08-05T16:06:32Z</time>
      </trkpt>
      <trkpt lat="46.492231646552682" lon="8.47264070995152">
        <ele>1887.6900000000001</ele>
        <time>2018-08-05T16:06:34Z</time>
      </trkpt>
      <trkpt lat="46.492213625460863" lon="8.472565189003944">
        <ele>1886.24</ele>
        <time>2018-08-05T16:06:38Z</time>
      </trkpt>
      <trkpt lat="46.492201136425138" lon="8.47249654121697">
        <ele>1884.8</ele>
        <time>2018-08-05T16:06:42Z</time>
      </trkpt>
      <trkpt lat="46.492162412032485" lon="8.472355725243688">
        <ele>1881.4400000000001</ele>
        <time>2018-08-05T16:06:51Z</time>
      </trkpt>
      <trkpt lat="46.492151599377394" lon="8.472292441874743">
        <ele>1880</ele>
        <time>2018-08-05T16:06:55Z</time>
      </trkpt>
      <trkpt lat="46.492107259109616" lon="8.472218262031674">
        <ele>1878.0699999999999</ele>
        <time>2018-08-05T16:07:02Z</time>
      </trkpt>
      <trkpt lat="46.492075491696596" lon="8.472008211538196">
        <ele>1875.1900000000001</ele>
        <time>2018-08-05T16:07:15Z</time>
      </trkpt>
      <trkpt lat="46.492049675434828" lon="8.471916178241372">
        <ele>1872.79</ele>
        <time>2018-08-05T16:07:26Z</time>
      </trkpt>
      <trkpt lat="46.492046155035496" lon="8.471942245960236">
        <ele>1872.3</ele>
        <time>2018-08-05T16:07:28Z</time>
      </trkpt>
      <trkpt lat="46.492017740383744" lon="8.472042744979262">
        <ele>1870.3800000000001</ele>
        <time>2018-08-05T16:07:36Z</time>
      </trkpt>
      <trkpt lat="46.491961078718305" lon="8.472165875136852">
        <ele>1867.98</ele>
        <time>2018-08-05T16:07:47Z</time>
      </trkpt>
      <trkpt lat="46.491928221657872" lon="8.472268218174577">
        <ele>1865.0899999999999</ele>
        <time>2018-08-05T16:07:56Z</time>
      </trkpt>
      <trkpt lat="46.491896873340011" lon="8.472378272563219">
        <ele>1863.1700000000001</ele>
        <time>2018-08-05T16:08:05Z</time>
      </trkpt>
      <trkpt lat="46.491848509758711" lon="8.472483716905117">
        <ele>1861.25</ele>
        <time>2018-08-05T16:08:14Z</time>
      </trkpt>
      <trkpt lat="46.491848258301616" lon="8.472606092691422">
        <ele>1858.8499999999999</ele>
        <time>2018-08-05T16:08:25Z</time>
      </trkpt>
      <trkpt lat="46.49182453751564" lon="8.472731318324804">
        <ele>1856.9200000000001</ele>
        <time>2018-08-05T16:08:35Z</time>
      </trkpt>
      <trkpt lat="46.491780197247863" lon="8.472807426005602">
        <ele>1855.48</ele>
        <time>2018-08-05T16:08:42Z</time>
      </trkpt>
      <trkpt lat="46.491737030446529" lon="8.472889736294746">
        <ele>1854.04</ele>
        <time>2018-08-05T16:08:48Z</time>
      </trkpt>
      <trkpt lat="46.491687912493944" lon="8.473074892535806">
        <ele>1851.6400000000001</ele>
        <time>2018-08-05T16:09:00Z</time>
      </trkpt>
      <trkpt lat="46.491640051826835" lon="8.473231634125114">
        <ele>1849.23</ele>
        <time>2018-08-05T16:09:11Z</time>
      </trkpt>
      <trkpt lat="46.491567129269242" lon="8.47341125831008">
        <ele>1846.3499999999999</ele>
        <time>2018-08-05T16:09:23Z</time>
      </trkpt>
      <trkpt lat="46.491493200883269" lon="8.473520055413246">
        <ele>1843.95</ele>
        <time>2018-08-05T16:09:33Z</time>
      </trkpt>
      <trkpt lat="46.491442155092955" lon="8.473630696535111">
        <ele>1842.02</ele>
        <time>2018-08-05T16:09:41Z</time>
      </trkpt>
      <trkpt lat="46.491395384073257" lon="8.473738739266992">
        <ele>1839.6199999999999</ele>
        <time>2018-08-05T16:09:50Z</time>
      </trkpt>
      <trkpt lat="46.49141407571733" lon="8.473776876926422">
        <ele>1839.1400000000001</ele>
        <time>2018-08-05T16:09:53Z</time>
      </trkpt>
      <trkpt lat="46.491474425420165" lon="8.473811326548457">
        <ele>1837.7</ele>
        <time>2018-08-05T16:09:59Z</time>
      </trkpt>
      <trkpt lat="46.491587329655886" lon="8.473966475576162">
        <ele>1834.8099999999999</ele>
        <time>2018-08-05T16:10:14Z</time>
      </trkpt>
      <trkpt lat="46.491679446771741" lon="8.474073680117726">
        <ele>1833.3699999999999</ele>
        <time>2018-08-05T16:10:25Z</time>
      </trkpt>
      <trkpt lat="46.491707526147366" lon="8.474101172760129">
        <ele>1832.4100000000001</ele>
        <time>2018-08-05T16:10:28Z</time>
      </trkpt>
      <trkpt lat="46.491767205297947" lon="8.474262524396181">
        <ele>1830.01</ele>
        <time>2018-08-05T16:10:40Z</time>
      </trkpt>
      <trkpt lat="46.491725295782089" lon="8.474474251270294">
        <ele>1828.5599999999999</ele>
        <time>2018-08-05T16:10:52Z</time>
      </trkpt>
      <trkpt lat="46.491708531975746" lon="8.474544575437903">
        <ele>1827.5999999999999</ele>
        <time>2018-08-05T16:10:56Z</time>
      </trkpt>
      <trkpt lat="46.491710543632507" lon="8.474758146330714">
        <ele>1825.6800000000001</ele>
        <time>2018-08-05T16:11:09Z</time>
      </trkpt>
      <trkpt lat="46.491696881130338" lon="8.474953025579453">
        <ele>1824.24</ele>
        <time>2018-08-05T16:11:22Z</time>
      </trkpt>
      <trkpt lat="46.491697384044528" lon="8.47505260258913">
        <ele>1823.76</ele>
        <time>2018-08-05T16:11:27Z</time>
      </trkpt>
      <trkpt lat="46.491687158122659" lon="8.475123681128025">
        <ele>1823.28</ele>
        <time>2018-08-05T16:11:31Z</time>
      </trkpt>
      <trkpt lat="46.491702497005463" lon="8.47520456649363">
        <ele>1822.8</ele>
        <time>2018-08-05T16:11:36Z</time>
      </trkpt>
      <trkpt lat="46.491739964112639" lon="8.475439678877592">
        <ele>1820.3900000000001</ele>
        <time>2018-08-05T16:11:50Z</time>
      </trkpt>
      <trkpt lat="46.491752788424492" lon="8.475510589778423">
        <ele>1819.4300000000001</ele>
        <time>2018-08-05T16:11:54Z</time>
      </trkpt>
      <trkpt lat="46.491819089278579" lon="8.475684011355043">
        <ele>1817.51</ele>
        <time>2018-08-05T16:12:06Z</time>
      </trkpt>
      <trkpt lat="46.491913385689259" lon="8.475864306092262">
        <ele>1816.55</ele>
        <time>2018-08-05T16:12:19Z</time>
      </trkpt>
      <trkpt lat="46.491858903318644" lon="8.475823318585753">
        <ele>1814.6300000000001</ele>
        <time>2018-08-05T16:12:27Z</time>
      </trkpt>
      <trkpt lat="46.491848761215806" lon="8.475812841206789">
        <ele>1814.1500000000001</ele>
        <time>2018-08-05T16:12:28Z</time>
      </trkpt>
      <trkpt lat="46.491728816181421" lon="8.47567604854703">
        <ele>1810.78</ele>
        <time>2018-08-05T16:12:41Z</time>
      </trkpt>
      <trkpt lat="46.491619180887938" lon="8.475572783499956">
        <ele>1808.8599999999999</ele>
        <time>2018-08-05T16:12:52Z</time>
      </trkpt>
      <trkpt lat="46.491553718224168" lon="8.475408414378762">
        <ele>1806.9400000000001</ele>
        <time>2018-08-05T16:13:03Z</time>
      </trkpt>
      <trkpt lat="46.491489009931684" lon="8.475354099646211">
        <ele>1805.97</ele>
        <time>2018-08-05T16:13:10Z</time>
      </trkpt>
      <trkpt lat="46.491428911685944" lon="8.475130386650562">
        <ele>1803.0899999999999</ele>
        <time>2018-08-05T16:13:24Z</time>
      </trkpt>
      <trkpt lat="46.491389852017164" lon="8.475006418302655">
        <ele>1800.6900000000001</ele>
        <time>2018-08-05T16:13:33Z</time>
      </trkpt>
      <trkpt lat="46.491369903087616" lon="8.474873648956418">
        <ele>1799.24</ele>
        <time>2018-08-05T16:13:41Z</time>
      </trkpt>
      <trkpt lat="46.491374680772424" lon="8.474773485213518">
        <ele>1798.76</ele>
        <time>2018-08-05T16:13:47Z</time>
      </trkpt>
      <trkpt lat="46.491284156218171" lon="8.474605092778802">
        <ele>1796.8399999999999</ele>
        <time>2018-08-05T16:13:59Z</time>
      </trkpt>
      <trkpt lat="46.491172257810831" lon="8.47449017688632">
        <ele>1795.4000000000001</ele>
        <time>2018-08-05T16:14:12Z</time>
      </trkpt>
      <trkpt lat="46.491033956408501" lon="8.4744618460536">
        <ele>1793.48</ele>
        <time>2018-08-05T16:14:23Z</time>
      </trkpt>
      <trkpt lat="46.490962207317352" lon="8.47440124489367">
        <ele>1792.03</ele>
        <time>2018-08-05T16:14:30Z</time>
      </trkpt>
      <trkpt lat="46.490865480154753" lon="8.474426055327058">
        <ele>1790.1099999999999</ele>
        <time>2018-08-05T16:14:41Z</time>
      </trkpt>
      <trkpt lat="46.490839412435889" lon="8.474404513835907">
        <ele>1789.6300000000001</ele>
        <time>2018-08-05T16:14:44Z</time>
      </trkpt>
      <trkpt lat="46.490781074389815" lon="8.474318766966462">
        <ele>1788.6700000000001</ele>
        <time>2018-08-05T16:14:51Z</time>
      </trkpt>
      <trkpt lat="46.490652244538069" lon="8.474218687042594">
        <ele>1786.27</ele>
        <time>2018-08-05T16:15:04Z</time>
      </trkpt>
      <trkpt lat="46.490639504045248" lon="8.474131179973483">
        <ele>1784.8199999999999</ele>
        <time>2018-08-05T16:15:10Z</time>
      </trkpt>
      <trkpt lat="46.490584267303348" lon="8.473972678184509">
        <ele>1781.9400000000001</ele>
        <time>2018-08-05T16:15:23Z</time>
      </trkpt>
      <trkpt lat="46.490578148514032" lon="8.473951388150454">
        <ele>1781.46</ele>
        <time>2018-08-05T16:15:25Z</time>
      </trkpt>
      <trkpt lat="46.490522073581815" lon="8.473797580227256">
        <ele>1778.0999999999999</ele>
        <time>2018-08-05T16:15:38Z</time>
      </trkpt>
      <trkpt lat="46.490517631173134" lon="8.473789701238275">
        <ele>1778.0999999999999</ele>
        <time>2018-08-05T16:15:39Z</time>
      </trkpt>
      <trkpt lat="46.49047396145761" lon="8.473703702911735">
        <ele>1776.6500000000001</ele>
        <time>2018-08-05T16:15:46Z</time>
      </trkpt>
      <trkpt lat="46.4904675912112" lon="8.47359742037952">
        <ele>1775.6900000000001</ele>
        <time>2018-08-05T16:15:52Z</time>
      </trkpt>
      <trkpt lat="46.49041629396379" lon="8.473411342129111">
        <ele>1772.8099999999999</ele>
        <time>2018-08-05T16:16:04Z</time>
      </trkpt>
      <trkpt lat="46.490410761907697" lon="8.473398936912417">
        <ele>1772.8099999999999</ele>
        <time>2018-08-05T16:16:05Z</time>
      </trkpt>
      <trkpt lat="46.490396680310369" lon="8.473340766504407">
        <ele>1771.3699999999999</ele>
        <time>2018-08-05T16:16:09Z</time>
      </trkpt>
      <trkpt lat="46.490379748865962" lon="8.473129961639643">
        <ele>1769.4400000000001</ele>
        <time>2018-08-05T16:16:22Z</time>
      </trkpt>
      <trkpt lat="46.49037136696279" lon="8.473117221146822">
        <ele>1769.4400000000001</ele>
        <time>2018-08-05T16:16:23Z</time>
      </trkpt>
      <trkpt lat="46.490356530994177" lon="8.473100122064352">
        <ele>1768.96</ele>
        <time>2018-08-05T16:16:25Z</time>
      </trkpt>
      <trkpt lat="46.490281010046601" lon="8.473060978576541">
        <ele>1768</ele>
        <time>2018-08-05T16:16:32Z</time>
      </trkpt>
      <trkpt lat="46.490185288712382" lon="8.473055949434638">
        <ele>1765.5999999999999</ele>
        <time>2018-08-05T16:16:42Z</time>
      </trkpt>
      <trkpt lat="46.490140948444605" lon="8.473103307187557">
        <ele>1764.6400000000001</ele>
        <time>2018-08-05T16:16:47Z</time>
      </trkpt>
      <trkpt lat="46.490122172981501" lon="8.473100792616606">
        <ele>1764.1600000000001</ele>
        <time>2018-08-05T16:16:49Z</time>
      </trkpt>
      <trkpt lat="46.490040700882673" lon="8.472974644973874">
        <ele>1761.75</ele>
        <time>2018-08-05T16:17:00Z</time>
      </trkpt>
      <trkpt lat="46.489972975105047" lon="8.472915887832642">
        <ele>1761.75</ele>
        <time>2018-08-05T16:17:07Z</time>
      </trkpt>
      <trkpt lat="46.489948499947786" lon="8.472912032157183">
        <ele>1761.75</ele>
        <time>2018-08-05T16:17:10Z</time>
      </trkpt>
      <trkpt lat="46.489874487742782" lon="8.472991492599249">
        <ele>1760.3099999999999</ele>
        <time>2018-08-05T16:17:18Z</time>
      </trkpt>
      <trkpt lat="46.489797877147794" lon="8.47315376624465">
        <ele>1758.3900000000001</ele>
        <time>2018-08-05T16:17:30Z</time>
      </trkpt>
      <trkpt lat="46.489752447232604" lon="8.473326684907079">
        <ele>1755.99</ele>
        <time>2018-08-05T16:17:41Z</time>
      </trkpt>
      <trkpt lat="46.489731492474675" lon="8.473395248875022">
        <ele>1755.02</ele>
        <time>2018-08-05T16:17:45Z</time>
      </trkpt>
      <trkpt lat="46.489653205499053" lon="8.473577136173844">
        <ele>1753.0999999999999</ele>
        <time>2018-08-05T16:17:57Z</time>
      </trkpt>
      <trkpt lat="46.489511886611581" lon="8.473610831424594">
        <ele>1750.7</ele>
        <time>2018-08-05T16:18:10Z</time>
      </trkpt>
      <trkpt lat="46.489434605464339" lon="8.47353296354413">
        <ele>1749.26</ele>
        <time>2018-08-05T16:18:18Z</time>
      </trkpt>
      <trkpt lat="46.489394037052989" lon="8.473496753722429">
        <ele>1748.29</ele>
        <time>2018-08-05T16:18:22Z</time>
      </trkpt>
      <trkpt lat="46.489350702613592" lon="8.473449647426605">
        <ele>1747.8099999999999</ele>
        <time>2018-08-05T16:18:27Z</time>
      </trkpt>
      <trkpt lat="46.489315247163177" lon="8.473432548344135">
        <ele>1746.8499999999999</ele>
        <time>2018-08-05T16:18:30Z</time>
      </trkpt>
      <trkpt lat="46.489205276593566" lon="8.473306735977531">
        <ele>1744.9300000000001</ele>
        <time>2018-08-05T16:18:42Z</time>
      </trkpt>
      <trkpt lat="46.489068567752838" lon="8.473244709894061">
        <ele>1742.05</ele>
        <time>2018-08-05T16:18:55Z</time>
      </trkpt>
      <trkpt lat="46.488957842811942" lon="8.47323146648705">
        <ele>1740.1199999999999</ele>
        <time>2018-08-05T16:19:04Z</time>
      </trkpt>
      <trkpt lat="46.488915095105767" lon="8.473179833963513">
        <ele>1739.6400000000001</ele>
        <time>2018-08-05T16:19:08Z</time>
      </trkpt>
      <trkpt lat="46.488895062357187" lon="8.473087968304753">
        <ele>1738.2</ele>
        <time>2018-08-05T16:19:16Z</time>
      </trkpt>
      <trkpt lat="46.488899840041995" lon="8.473176816478372">
        <ele>1737.24</ele>
        <time>2018-08-05T16:19:22Z</time>
      </trkpt>
      <trkpt lat="46.488925823941827" lon="8.473292486742139">
        <ele>1735.3199999999999</ele>
        <time>2018-08-05T16:19:30Z</time>
      </trkpt>
      <trkpt lat="46.489027664065361" lon="8.473456604406238">
        <ele>1732.9100000000001</ele>
        <time>2018-08-05T16:19:43Z</time>
      </trkpt>
      <trkpt lat="46.489038057625294" lon="8.473598258569837">
        <ele>1731.47</ele>
        <time>2018-08-05T16:19:52Z</time>
      </trkpt>
      <trkpt lat="46.488962033763528" lon="8.473768495023251">
        <ele>1729.0699999999999</ele>
        <time>2018-08-05T16:20:05Z</time>
      </trkpt>
      <trkpt lat="46.488889530301094" lon="8.47385692410171">
        <ele>1727.1500000000001</ele>
        <time>2018-08-05T16:20:14Z</time>
      </trkpt>
      <trkpt lat="46.488819625228643" lon="8.473942670971155">
        <ele>1725.7</ele>
        <time>2018-08-05T16:20:22Z</time>
      </trkpt>
      <trkpt lat="46.488820966333151" lon="8.474037302657962">
        <ele>1724.26</ele>
        <time>2018-08-05T16:20:29Z</time>
      </trkpt>
      <trkpt lat="46.48893722333014" lon="8.474081391468644">
        <ele>1721.8599999999999</ele>
        <time>2018-08-05T16:20:40Z</time>
      </trkpt>
      <trkpt lat="46.4890066254884" lon="8.474104106426239">
        <ele>1720.9000000000001</ele>
        <time>2018-08-05T16:20:47Z</time>
      </trkpt>
      <trkpt lat="46.489035040140152" lon="8.474137969315052">
        <ele>1720.4200000000001</ele>
        <time>2018-08-05T16:20:50Z</time>
      </trkpt>
      <trkpt lat="46.489036800339818" lon="8.474332178011537">
        <ele>1717.53</ele>
        <time>2018-08-05T16:21:03Z</time>
      </trkpt>
      <trkpt lat="46.489021042361856" lon="8.474467545747757">
        <ele>1716.0899999999999</ele>
        <time>2018-08-05T16:21:11Z</time>
      </trkpt>
      <trkpt lat="46.488981312140822" lon="8.474626718088985">
        <ele>1714.1700000000001</ele>
        <time>2018-08-05T16:21:22Z</time>
      </trkpt>
      <trkpt lat="46.488935044035316" lon="8.474809192121029">
        <ele>1712.25</ele>
        <time>2018-08-05T16:21:34Z</time>
      </trkpt>
      <trkpt lat="46.488968823105097" lon="8.47492603585124">
        <ele>1710.8</ele>
        <time>2018-08-05T16:21:42Z</time>
      </trkpt>
      <trkpt lat="46.489012073725462" lon="8.475048243999481">
        <ele>1709.3599999999999</ele>
        <time>2018-08-05T16:21:54Z</time>
      </trkpt>
      <trkpt lat="46.488981144502759" lon="8.475058134645224">
        <ele>1708.8800000000001</ele>
        <time>2018-08-05T16:21:57Z</time>
      </trkpt>
      <trkpt lat="46.48890059441328" lon="8.475025780498982">
        <ele>1707.4400000000001</ele>
        <time>2018-08-05T16:22:05Z</time>
      </trkpt>
      <trkpt lat="46.488783918321133" lon="8.475086633116007">
        <ele>1705.52</ele>
        <time>2018-08-05T16:22:16Z</time>
      </trkpt>
      <trkpt lat="46.488711079582572" lon="8.475075904279947">
        <ele>1705.04</ele>
        <time>2018-08-05T16:22:22Z</time>
      </trkpt>
      <trkpt lat="46.488579902797937" lon="8.474986050277948">
        <ele>1703.5899999999999</ele>
        <time>2018-08-05T16:22:35Z</time>
      </trkpt>
      <trkpt lat="46.488581160083413" lon="8.47481606528163">
        <ele>1701.1900000000001</ele>
        <time>2018-08-05T16:22:45Z</time>
      </trkpt>
      <trkpt lat="46.488584177568555" lon="8.474802570417523">
        <ele>1701.1900000000001</ele>
        <time>2018-08-05T16:22:46Z</time>
      </trkpt>
      <trkpt lat="46.488595074042678" lon="8.47475353628397">
        <ele>1700.23</ele>
        <time>2018-08-05T16:22:49Z</time>
      </trkpt>
      <trkpt lat="46.488565485924482" lon="8.474593106657267">
        <ele>1698.3099999999999</ele>
        <time>2018-08-05T16:22:58Z</time>
      </trkpt>
      <trkpt lat="46.4885213971138" lon="8.474555723369122">
        <ele>1698.3099999999999</ele>
        <time>2018-08-05T16:23:03Z</time>
      </trkpt>
      <trkpt lat="46.488386699929833" lon="8.474533846601844">
        <ele>1696.3800000000001</ele>
        <time>2018-08-05T16:23:14Z</time>
      </trkpt>
      <trkpt lat="46.488356944173574" lon="8.474487494677305">
        <ele>1695.4200000000001</ele>
        <time>2018-08-05T16:23:18Z</time>
      </trkpt>
      <trkpt lat="46.488270694389939" lon="8.47432111389935">
        <ele>1693.98</ele>
        <time>2018-08-05T16:23:30Z</time>
      </trkpt>
      <trkpt lat="46.488214116543531" lon="8.474168730899692">
        <ele>1692.0599999999999</ele>
        <time>2018-08-05T16:23:40Z</time>
      </trkpt>
      <trkpt lat="46.488186456263065" lon="8.474093461409211">
        <ele>1691.0999999999999</ele>
        <time>2018-08-05T16:23:45Z</time>
      </trkpt>
      <trkpt lat="46.488107666373253" lon="8.473987681791186">
        <ele>1689.1700000000001</ele>
        <time>2018-08-05T16:23:54Z</time>
      </trkpt>
      <trkpt lat="46.488077407702804" lon="8.47389355301857">
        <ele>1688.21</ele>
        <time>2018-08-05T16:24:00Z</time>
      </trkpt>
      <trkpt lat="46.488017728552222" lon="8.473792551085353">
        <ele>1686.77</ele>
        <time>2018-08-05T16:24:09Z</time>
      </trkpt>
      <trkpt lat="46.487960647791624" lon="8.47367076203227">
        <ele>1684.8499999999999</ele>
        <time>2018-08-05T16:24:17Z</time>
      </trkpt>
      <trkpt lat="46.487916391342878" lon="8.47365215420723">
        <ele>1684.8499999999999</ele>
        <time>2018-08-05T16:24:21Z</time>
      </trkpt>
      <trkpt lat="46.487850761041045" lon="8.473643185570836">
        <ele>1683.8900000000001</ele>
        <time>2018-08-05T16:24:26Z</time>
      </trkpt>
      <trkpt lat="46.487821256741881" lon="8.473611166700721">
        <ele>1682.9300000000001</ele>
        <time>2018-08-05T16:24:29Z</time>
      </trkpt>
      <trkpt lat="46.487785633653402" lon="8.473587529733777">
        <ele>1682.9300000000001</ele>
        <time>2018-08-05T16:24:32Z</time>
      </trkpt>
      <trkpt lat="46.487657390534878" lon="8.473498011007905">
        <ele>1680.52</ele>
        <time>2018-08-05T16:24:43Z</time>
      </trkpt>
      <trkpt lat="46.487588156014681" lon="8.473472446203232">
        <ele>1679.0799999999999</ele>
        <time>2018-08-05T16:24:48Z</time>
      </trkpt>
      <trkpt lat="46.487553622573614" lon="8.473518043756485">
        <ele>1678.1199999999999</ele>
        <time>2018-08-05T16:24:52Z</time>
      </trkpt>
      <trkpt lat="46.487529566511512" lon="8.473671264946461">
        <ele>1675.72</ele>
        <time>2018-08-05T16:25:01Z</time>
      </trkpt>
      <trkpt lat="46.487548844888806" lon="8.4738764539361">
        <ele>1673.3099999999999</ele>
        <time>2018-08-05T16:25:13Z</time>
      </trkpt>
      <trkpt lat="46.487569129094481" lon="8.474067226052284">
        <ele>1670.9100000000001</ele>
        <time>2018-08-05T16:25:24Z</time>
      </trkpt>
      <trkpt lat="46.487593771889806" lon="8.474205108359456">
        <ele>1669.95</ele>
        <time>2018-08-05T16:25:32Z</time>
      </trkpt>
      <trkpt lat="46.487598801031709" lon="8.47440367564559">
        <ele>1667.54</ele>
        <time>2018-08-05T16:25:44Z</time>
      </trkpt>
      <trkpt lat="46.487597711384296" lon="8.474480789154768">
        <ele>1666.5799999999999</ele>
        <time>2018-08-05T16:25:49Z</time>
      </trkpt>
      <trkpt lat="46.487631071358919" lon="8.474549101665616">
        <ele>1666.0999999999999</ele>
        <time>2018-08-05T16:25:54Z</time>
      </trkpt>
      <trkpt lat="46.48763601668179" lon="8.474771222099662">
        <ele>1663.7</ele>
        <time>2018-08-05T16:26:08Z</time>
      </trkpt>
      <trkpt lat="46.487585138529539" lon="8.474953025579453">
        <ele>1661.78</ele>
        <time>2018-08-05T16:26:19Z</time>
      </trkpt>
      <trkpt lat="46.487578265368938" lon="8.47496216185391">
        <ele>1661.3</ele>
        <time>2018-08-05T16:26:20Z</time>
      </trkpt>
      <trkpt lat="46.487521771341562" lon="8.474952941760421">
        <ele>1660.3299999999999</ele>
        <time>2018-08-05T16:26:24Z</time>
      </trkpt>
      <trkpt lat="46.487510204315186" lon="8.474918240681291">
        <ele>1659.8499999999999</ele>
        <time>2018-08-05T16:26:26Z</time>
      </trkpt>
      <trkpt lat="46.487451530992985" lon="8.474783208221197">
        <ele>1657.9300000000001</ele>
        <time>2018-08-05T16:26:34Z</time>
      </trkpt>
      <trkpt lat="46.48737802170217" lon="8.47472763620317">
        <ele>1656.97</ele>
        <time>2018-08-05T16:26:41Z</time>
      </trkpt>
      <trkpt lat="46.487235110253096" lon="8.474677512422204">
        <ele>1654.5699999999999</ele>
        <time>2018-08-05T16:26:54Z</time>
      </trkpt>
      <trkpt lat="46.487102340906858" lon="8.474694108590484">
        <ele>1652.6400000000001</ele>
        <time>2018-08-05T16:27:07Z</time>
      </trkpt>
      <trkpt lat="46.486977618187666" lon="8.474714644253254">
        <ele>1651.6800000000001</ele>
        <time>2018-08-05T16:27:19Z</time>
      </trkpt>
      <trkpt lat="46.486830096691847" lon="8.474735179916024">
        <ele>1648.8</ele>
        <time>2018-08-05T16:27:30Z</time>
      </trkpt>
      <trkpt lat="46.486810063943267" lon="8.47475940361619">
        <ele>1648.8</ele>
        <time>2018-08-05T16:27:33Z</time>
      </trkpt>
      <trkpt lat="46.486845435574651" lon="8.474821345880628">
        <ele>1646.8800000000001</ele>
        <time>2018-08-05T16:27:38Z</time>
      </trkpt>
      <trkpt lat="46.486832275986671" lon="8.474925616756082">
        <ele>1644.95</ele>
        <time>2018-08-05T16:27:46Z</time>
      </trkpt>
      <trkpt lat="46.486829090863466" lon="8.474990408867598">
        <ele>1642.55</ele>
        <time>2018-08-05T16:27:53Z</time>
      </trkpt>
      <trkpt lat="46.486801011487842" lon="8.475074898451567">
        <ele>1643.03</ele>
        <time>2018-08-05T16:28:03Z</time>
      </trkpt>
      <trkpt lat="46.486807800829411" lon="8.475094763562083">
        <ele>1641.5899999999999</ele>
        <time>2018-08-05T16:28:15Z</time>
      </trkpt>
      <trkpt lat="46.486817607656121" lon="8.475090656429529">
        <ele>1641.5899999999999</ele>
        <time>2018-08-05T16:28:24Z</time>
      </trkpt>
      <trkpt lat="46.486801849678159" lon="8.475078418850899">
        <ele>1641.1099999999999</ele>
        <time>2018-08-05T16:28:40Z</time>
      </trkpt>
      <trkpt lat="46.486805286258459" lon="8.475124435499311">
        <ele>1641.1099999999999</ele>
        <time>2018-08-05T16:28:50Z</time>
      </trkpt>
      <trkpt lat="46.486813081428409" lon="8.475215882062912">
        <ele>1641.1099999999999</ele>
        <time>2018-08-05T16:28:55Z</time>
      </trkpt>
      <trkpt lat="46.486937804147601" lon="8.475407492369413">
        <ele>1640.1500000000001</ele>
        <time>2018-08-05T16:29:09Z</time>
      </trkpt>
      <trkpt lat="46.486990274861455" lon="8.475511763244867">
        <ele>1639.6700000000001</ele>
        <time>2018-08-05T16:29:19Z</time>
      </trkpt>
      <trkpt lat="46.486998489126563" lon="8.475489718839526">
        <ele>1638.7</ele>
        <time>2018-08-05T16:29:28Z</time>
      </trkpt>
      <trkpt lat="46.487013576552272" lon="8.475514110177755">
        <ele>1638.7</ele>
        <time>2018-08-05T16:29:50Z</time>
      </trkpt>
      <trkpt lat="46.487022712826729" lon="8.475505728274584">
        <ele>1638.22</ele>
        <time>2018-08-05T16:30:12Z</time>
      </trkpt>
      <trkpt lat="46.486976109445095" lon="8.475498100742698">
        <ele>1638.22</ele>
        <time>2018-08-05T16:30:26Z</time>
      </trkpt>
      <trkpt lat="46.486962530761957" lon="8.475475134328008">
        <ele>1638.22</ele>
        <time>2018-08-05T16:30:49Z</time>
      </trkpt>
      <trkpt lat="46.486956244334579" lon="8.475495921447873">
        <ele>1638.22</ele>
        <time>2018-08-05T16:31:06Z</time>
      </trkpt>
    </trkseg>
  </trk>

</gpx>